<?xml version='1.0' encoding='UTF-8'?><gpx version="1.1" creator="JPX - https://github.com/jenetics/jpx" xmlns="http://www.topografix.com/GPX/1/1"><trk><trkseg><trkpt lat="45.103680460331006" lon="8.317959004020919"><ele>149.0</ele><time>2026-05-03T08:32:14.999Z</time></trkpt><trkpt lat="45.10370092811888" lon="8.317874032707296"><ele>149.0</ele><time>2026-05-03T08:32:17.999Z</time></trkpt><trkpt lat="45.10362229829722" lon="8.31784892157297"><ele>149.0</ele><time>2026-05-03T08:36:11Z</time></trkpt><trkpt lat="45.10355464484433" lon="8.317796945617754"><ele>149.0</ele><time>2026-05-03T08:36:13Z</time></trkpt><trkpt lat="45.10348573478967" lon="8.31778975546143"><ele>149.0</ele><time>2026-05-03T08:36:15Z</time></trkpt><trkpt lat="45.103394005569655" lon="8.317760815224993"><ele>149.0</ele><time>2026-05-03T08:36:18Z</time></trkpt><trkpt lat="45.10332857914224" lon="8.317726826132661"><ele>149.0</ele><time>2026-05-03T08:36:21Z</time></trkpt><trkpt lat="45.103269212763834" lon="8.317687566277916"><ele>149.0</ele><time>2026-05-03T08:36:23.999Z</time></trkpt><trkpt lat="45.1032862832555" lon="8.31760104064109"><ele>149.0</ele><time>2026-05-03T08:36:26.999Z</time></trkpt><trkpt lat="45.10320495880918" lon="8.31759070707729"><ele>149.0</ele><time>2026-05-03T08:36:31.999Z</time></trkpt><trkpt lat="45.103122863738776" lon="8.317591130897524"><ele>149.0</ele><time>2026-05-03T08:36:35.999Z</time></trkpt><trkpt lat="45.10304786509432" lon="8.317594956448778"><ele>149.0</ele><time>2026-05-03T08:36:40.999Z</time></trkpt><trkpt lat="45.102978265159344" lon="8.317567607233782"><ele>149.0</ele><time>2026-05-03T08:36:46.999Z</time></trkpt><trkpt lat="45.10295198694003" lon="8.317485050962155"><ele>149.0</ele><time>2026-05-03T08:36:54.999Z</time></trkpt><trkpt lat="45.103001371086854" lon="8.317429444665484"><ele>149.0</ele><time>2026-05-03T08:37:51Z</time></trkpt><trkpt lat="45.10300595440951" lon="8.31734003010211"><ele>149.0</ele><time>2026-05-03T08:37:54Z</time></trkpt><trkpt lat="45.10308508001523" lon="8.317304203757573"><ele>149.0</ele><time>2026-05-03T08:37:57Z</time></trkpt><trkpt lat="45.103148111697934" lon="8.317327739305064"><ele>149.0</ele><time>2026-05-03T08:37:59Z</time></trkpt><trkpt lat="45.10323811068191" lon="8.317358626476294"><ele>149.0</ele><time>2026-05-03T08:38:02Z</time></trkpt><trkpt lat="45.10333320390654" lon="8.31738066490021"><ele>149.0</ele><time>2026-05-03T08:38:05Z</time></trkpt><trkpt lat="45.1034006705333" lon="8.317406401193344"><ele>149.0</ele><time>2026-05-03T08:38:07Z</time></trkpt><trkpt lat="45.103464982126965" lon="8.317432073575132"><ele>149.0</ele><time>2026-05-03T08:38:09Z</time></trkpt><trkpt lat="45.10353586494502" lon="8.317468618009665"><ele>149.0</ele><time>2026-05-03T08:38:11Z</time></trkpt><trkpt lat="45.10359683116046" lon="8.317529907120514"><ele>149.0</ele><time>2026-05-03T08:38:13Z</time></trkpt><trkpt lat="45.10366269977388" lon="8.31758656115562"><ele>149.0</ele><time>2026-05-03T08:38:15Z</time></trkpt><trkpt lat="45.103732569937804" lon="8.317657344271979"><ele>149.0</ele><time>2026-05-03T08:38:17.001Z</time></trkpt><trkpt lat="45.103808016638006" lon="8.31772984586419"><ele>149.0</ele><time>2026-05-03T08:38:19.001Z</time></trkpt><trkpt lat="45.10388352684757" lon="8.317807082941028"><ele>149.0</ele><time>2026-05-03T08:38:21.001Z</time></trkpt><trkpt lat="45.10396148653883" lon="8.317882188354822"><ele>149.0</ele><time>2026-05-03T08:38:23.001Z</time></trkpt><trkpt lat="45.10403958672096" lon="8.317955777618968"><ele>149.0</ele><time>2026-05-03T08:38:25.001Z</time></trkpt><trkpt lat="45.1041156394874" lon="8.318037234767619"><ele>147.6</ele><time>2026-05-03T08:38:27.001Z</time></trkpt><trkpt lat="45.10419604495169" lon="8.318110298678526"><ele>146.2</ele><time>2026-05-03T08:38:29.001Z</time></trkpt><trkpt lat="45.10427237459372" lon="8.318187999786785"><ele>144.79999999999998</ele><time>2026-05-03T08:38:30.999Z</time></trkpt><trkpt lat="45.10435370604859" lon="8.31826032192445"><ele>143.4</ele><time>2026-05-03T08:38:32.999Z</time></trkpt><trkpt lat="45.10443005401533" lon="8.318332929347738"><ele>142.0</ele><time>2026-05-03T08:38:34.999Z</time></trkpt><trkpt lat="45.1045062469202" lon="8.318407498037965"><ele>142.0</ele><time>2026-05-03T08:38:36.999Z</time></trkpt><trkpt lat="45.10457866639424" lon="8.318481032568817"><ele>142.0</ele><time>2026-05-03T08:38:38.999Z</time></trkpt><trkpt lat="45.104652402589295" lon="8.318559974698477"><ele>142.0</ele><time>2026-05-03T08:38:40.999Z</time></trkpt><trkpt lat="45.10472332217375" lon="8.318628469216437"><ele>142.0</ele><time>2026-05-03T08:38:42.999Z</time></trkpt><trkpt lat="45.10478997893205" lon="8.318699133718871"><ele>142.0</ele><time>2026-05-03T08:38:44.999Z</time></trkpt><trkpt lat="45.10485310819786" lon="8.318771698543411"><ele>142.0</ele><time>2026-05-03T08:38:46.999Z</time></trkpt><trkpt lat="45.10490449402186" lon="8.318877620750452"><ele>142.0</ele><time>2026-05-03T08:38:48.999Z</time></trkpt><trkpt lat="45.104935603909155" lon="8.318993055359352"><ele>142.0</ele><time>2026-05-03T08:38:50.999Z</time></trkpt><trkpt lat="45.10492983142363" lon="8.319123760554982"><ele>142.0</ele><time>2026-05-03T08:38:52.999Z</time></trkpt><trkpt lat="45.10485944423204" lon="8.319213684851789"><ele>142.0</ele><time>2026-05-03T08:38:54.999Z</time></trkpt><trkpt lat="45.10477637216266" lon="8.319262795573906"><ele>142.0</ele><time>2026-05-03T08:38:56.999Z</time></trkpt><trkpt lat="45.10470434261971" lon="8.319320381147774"><ele>142.0</ele><time>2026-05-03T08:38:58.999Z</time></trkpt><trkpt lat="45.10463726916926" lon="8.31938104542157"><ele>142.0</ele><time>2026-05-03T08:39:00.999Z</time></trkpt><trkpt lat="45.104570696628926" lon="8.319437121716819"><ele>142.0</ele><time>2026-05-03T08:39:02.999Z</time></trkpt><trkpt lat="45.10450496938793" lon="8.319494449460029"><ele>142.0</ele><time>2026-05-03T08:39:05Z</time></trkpt><trkpt lat="45.104442439505064" lon="8.319567003669954"><ele>142.0</ele><time>2026-05-03T08:39:07Z</time></trkpt><trkpt lat="45.10438060934378" lon="8.319636567287239"><ele>142.0</ele><time>2026-05-03T08:39:09Z</time></trkpt><trkpt lat="45.1043053415022" lon="8.319687370478453"><ele>142.0</ele><time>2026-05-03T08:39:11Z</time></trkpt><trkpt lat="45.10423927640452" lon="8.319743040064887"><ele>142.57142857142856</ele><time>2026-05-03T08:39:13Z</time></trkpt><trkpt lat="45.10417801691987" lon="8.319801850657802"><ele>143.14285714285714</ele><time>2026-05-03T08:39:15Z</time></trkpt><trkpt lat="45.104113103435985" lon="8.319856374596696"><ele>143.71428571428572</ele><time>2026-05-03T08:39:17Z</time></trkpt><trkpt lat="45.104055201242794" lon="8.319916743525415"><ele>144.28571428571428</ele><time>2026-05-03T08:39:19Z</time></trkpt><trkpt lat="45.103990221367184" lon="8.319959260582376"><ele>144.85714285714286</ele><time>2026-05-03T08:39:21Z</time></trkpt><trkpt lat="45.10393726510673" lon="8.320010168033075"><ele>145.42857142857142</ele><time>2026-05-03T08:39:23Z</time></trkpt><trkpt lat="45.10387612815759" lon="8.32005736935172"><ele>146.0</ele><time>2026-05-03T08:39:25Z</time></trkpt><trkpt lat="45.103806524414544" lon="8.320113735206203"><ele>146.0</ele><time>2026-05-03T08:39:27Z</time></trkpt><trkpt lat="45.1037294523797" lon="8.320162051276844"><ele>146.0</ele><time>2026-05-03T08:39:29Z</time></trkpt><trkpt lat="45.10365556248702" lon="8.32020746554306"><ele>146.0</ele><time>2026-05-03T08:39:31Z</time></trkpt><trkpt lat="45.103588542910764" lon="8.320266396222044"><ele>146.0</ele><time>2026-05-03T08:39:33Z</time></trkpt><trkpt lat="45.10352125933268" lon="8.3203331026042"><ele>146.0</ele><time>2026-05-03T08:39:35Z</time></trkpt><trkpt lat="45.10344963581055" lon="8.3203973267285"><ele>146.0</ele><time>2026-05-03T08:39:37Z</time></trkpt><trkpt lat="45.103377529167375" lon="8.320459733875937"><ele>146.0</ele><time>2026-05-03T08:39:39Z</time></trkpt><trkpt lat="45.10331266264693" lon="8.32051306903666"><ele>146.0</ele><time>2026-05-03T08:39:41Z</time></trkpt><trkpt lat="45.10325168273655" lon="8.320566814799744"><ele>146.0</ele><time>2026-05-03T08:39:43Z</time></trkpt><trkpt lat="45.10318822141481" lon="8.32062399364652"><ele>146.0</ele><time>2026-05-03T08:39:45Z</time></trkpt><trkpt lat="45.10311810739187" lon="8.32067121190468"><ele>146.0</ele><time>2026-05-03T08:39:47Z</time></trkpt><trkpt lat="45.103045536664126" lon="8.320732575307119"><ele>146.0</ele><time>2026-05-03T08:39:49Z</time></trkpt><trkpt lat="45.102977348907565" lon="8.32079042524406"><ele>146.5</ele><time>2026-05-03T08:39:51Z</time></trkpt><trkpt lat="45.10290886117461" lon="8.320848181865475"><ele>147.0</ele><time>2026-05-03T08:39:53Z</time></trkpt><trkpt lat="45.10284013274713" lon="8.320898632504266"><ele>147.5</ele><time>2026-05-03T08:39:55Z</time></trkpt><trkpt lat="45.10277235564712" lon="8.320956791725177"><ele>148.0</ele><time>2026-05-03T08:39:57Z</time></trkpt><trkpt lat="45.10270791417977" lon="8.321014975313618"><ele>148.5</ele><time>2026-05-03T08:39:59.001Z</time></trkpt><trkpt lat="45.10264279402119" lon="8.321072921759832"><ele>149.0</ele><time>2026-05-03T08:40:01.001Z</time></trkpt><trkpt lat="45.102574535066466" lon="8.321131212311862"><ele>149.0</ele><time>2026-05-03T08:40:03.001Z</time></trkpt><trkpt lat="45.1025079585926" lon="8.321199453530287"><ele>149.0</ele><time>2026-05-03T08:40:05.001Z</time></trkpt><trkpt lat="45.10243792989034" lon="8.321257989033588"><ele>149.0</ele><time>2026-05-03T08:40:07.001Z</time></trkpt><trkpt lat="45.10237235140496" lon="8.321315345558522"><ele>149.0</ele><time>2026-05-03T08:40:09.001Z</time></trkpt><trkpt lat="45.1023049635109" lon="8.321374294328399"><ele>149.0</ele><time>2026-05-03T08:40:11.001Z</time></trkpt><trkpt lat="45.102235312214916" lon="8.321431332802788"><ele>149.0</ele><time>2026-05-03T08:40:13.001Z</time></trkpt><trkpt lat="45.10216662512112" lon="8.321490018121363"><ele>149.0</ele><time>2026-05-03T08:40:15.001Z</time></trkpt><trkpt lat="45.10210210692268" lon="8.321543474247433"><ele>149.0</ele><time>2026-05-03T08:40:17.001Z</time></trkpt><trkpt lat="45.102048643413845" lon="8.32159416581469"><ele>149.0</ele><time>2026-05-03T08:40:19.001Z</time></trkpt><trkpt lat="45.10198244616178" lon="8.321633409067717"><ele>149.0</ele><time>2026-05-03T08:40:21.001Z</time></trkpt><trkpt lat="45.101917620961984" lon="8.321676965883746"><ele>149.0</ele><time>2026-05-03T08:40:23.001Z</time></trkpt><trkpt lat="45.10185501084113" lon="8.321730241937384"><ele>149.0</ele><time>2026-05-03T08:40:25.001Z</time></trkpt><trkpt lat="45.10179591723623" lon="8.321782080384917"><ele>149.0</ele><time>2026-05-03T08:40:27.001Z</time></trkpt><trkpt lat="45.1017412066264" lon="8.321834342877796"><ele>149.0</ele><time>2026-05-03T08:40:29.001Z</time></trkpt><trkpt lat="45.101688295798155" lon="8.32189906704088"><ele>149.0</ele><time>2026-05-03T08:40:31.001Z</time></trkpt><trkpt lat="45.10163678087913" lon="8.321963437661518"><ele>149.0</ele><time>2026-05-03T08:40:33.001Z</time></trkpt><trkpt lat="45.10157523994149" lon="8.322012652986688"><ele>149.0</ele><time>2026-05-03T08:40:35.001Z</time></trkpt><trkpt lat="45.101513006559614" lon="8.32206848959946"><ele>149.0</ele><time>2026-05-03T08:40:36.998Z</time></trkpt><trkpt lat="45.10144771266331" lon="8.322127440236278"><ele>149.0</ele><time>2026-05-03T08:40:38.998Z</time></trkpt><trkpt lat="45.10138619990179" lon="8.322196383326595"><ele>149.0</ele><time>2026-05-03T08:40:40.998Z</time></trkpt><trkpt lat="45.10131830233009" lon="8.322249805443597"><ele>149.66666666666666</ele><time>2026-05-03T08:40:42.998Z</time></trkpt><trkpt lat="45.10125912004426" lon="8.322317545673336"><ele>150.33333333333331</ele><time>2026-05-03T08:40:44.998Z</time></trkpt><trkpt lat="45.10119538933365" lon="8.322383182261673"><ele>151.0</ele><time>2026-05-03T08:40:46.998Z</time></trkpt><trkpt lat="45.101133245956355" lon="8.322450865424804"><ele>151.66666666666666</ele><time>2026-05-03T08:40:48.998Z</time></trkpt><trkpt lat="45.101039761629096" lon="8.322551718881677"><ele>152.33333333333334</ele><time>2026-05-03T08:40:51.998Z</time></trkpt><trkpt lat="45.100985261890386" lon="8.322623073098596"><ele>153.0</ele><time>2026-05-03T08:40:53.999Z</time></trkpt><trkpt lat="45.100929960096835" lon="8.322690823188676"><ele>153.0</ele><time>2026-05-03T08:40:55.999Z</time></trkpt><trkpt lat="45.10088941823655" lon="8.322790239167277"><ele>153.0</ele><time>2026-05-03T08:40:57.999Z</time></trkpt><trkpt lat="45.10087604956126" lon="8.322898477041342"><ele>153.0</ele><time>2026-05-03T08:40:59.999Z</time></trkpt><trkpt lat="45.10087655453273" lon="8.322993126293472"><ele>153.0</ele><time>2026-05-03T08:41:01.999Z</time></trkpt><trkpt lat="45.100888654789166" lon="8.323124422057784"><ele>153.0</ele><time>2026-05-03T08:41:04.999Z</time></trkpt><trkpt lat="45.10089222637157" lon="8.32325746065729"><ele>153.0</ele><time>2026-05-03T08:41:07.999Z</time></trkpt><trkpt lat="45.10090253366512" lon="8.32338265606528"><ele>153.33333333333334</ele><time>2026-05-03T08:41:10.999Z</time></trkpt><trkpt lat="45.100922170558874" lon="8.323486017480695"><ele>153.66666666666666</ele><time>2026-05-03T08:41:13.999Z</time></trkpt><trkpt lat="45.100926611550264" lon="8.323607025473667"><ele>154.0</ele><time>2026-05-03T08:41:17Z</time></trkpt><trkpt lat="45.10093098542006" lon="8.323719923684715"><ele>154.33333333333331</ele><time>2026-05-03T08:41:20Z</time></trkpt><trkpt lat="45.10093497438912" lon="8.323844718466782"><ele>154.66666666666666</ele><time>2026-05-03T08:41:23Z</time></trkpt><trkpt lat="45.10094636060852" lon="8.323962302898941"><ele>155.0</ele><time>2026-05-03T08:41:26Z</time></trkpt><trkpt lat="45.10094974715946" lon="8.324090179403864"><ele>155.5</ele><time>2026-05-03T08:41:29Z</time></trkpt><trkpt lat="45.10095826014647" lon="8.324213427294334"><ele>156.0</ele><time>2026-05-03T08:41:32Z</time></trkpt><trkpt lat="45.100968557874396" lon="8.32433971538547"><ele>156.5</ele><time>2026-05-03T08:41:35Z</time></trkpt><trkpt lat="45.10097966364171" lon="8.324472684871584"><ele>157.0</ele><time>2026-05-03T08:41:38Z</time></trkpt><trkpt lat="45.100981075549996" lon="8.324564383261878"><ele>157.5</ele><time>2026-05-03T08:41:40Z</time></trkpt><trkpt lat="45.10099147365244" lon="8.32468564143845"><ele>158.0</ele><time>2026-05-03T08:41:43Z</time></trkpt><trkpt lat="45.1010011365342" lon="8.324775945457107"><ele>158.66666666666666</ele><time>2026-05-03T08:41:45Z</time></trkpt><trkpt lat="45.101008554735294" lon="8.324893018411004"><ele>159.33333333333331</ele><time>2026-05-03T08:41:48Z</time></trkpt><trkpt lat="45.1010213355414" lon="8.325005739756518"><ele>160.0</ele><time>2026-05-03T08:41:51Z</time></trkpt><trkpt lat="45.10104717224864" lon="8.325119977659547"><ele>160.66666666666666</ele><time>2026-05-03T08:41:54Z</time></trkpt><trkpt lat="45.10107703002715" lon="8.325233717776541"><ele>161.33333333333334</ele><time>2026-05-03T08:41:57.001Z</time></trkpt><trkpt lat="45.101112633892626" lon="8.325341173618838"><ele>162.0</ele><time>2026-05-03T08:42:00.001Z</time></trkpt><trkpt lat="45.10115265474557" lon="8.325443648267612"><ele>162.0</ele><time>2026-05-03T08:42:03.001Z</time></trkpt><trkpt lat="45.101198736137995" lon="8.325552287979507"><ele>162.0</ele><time>2026-05-03T08:42:06.001Z</time></trkpt><trkpt lat="45.10123855903556" lon="8.325659231434415"><ele>162.0</ele><time>2026-05-03T08:42:09.001Z</time></trkpt><trkpt lat="45.10128422778013" lon="8.325771681561097"><ele>162.0</ele><time>2026-05-03T08:42:12.001Z</time></trkpt><trkpt lat="45.10132907332104" lon="8.325878120806113"><ele>162.0</ele><time>2026-05-03T08:42:15.001Z</time></trkpt><trkpt lat="45.10137204588369" lon="8.325986307087934"><ele>162.0</ele><time>2026-05-03T08:42:18.001Z</time></trkpt><trkpt lat="45.10141522333158" lon="8.326087045792312"><ele>163.33333333333334</ele><time>2026-05-03T08:42:21.001Z</time></trkpt><trkpt lat="45.10145652949396" lon="8.326180462287534"><ele>164.66666666666666</ele><time>2026-05-03T08:42:24.001Z</time></trkpt><trkpt lat="45.10150934513882" lon="8.326291630585844"><ele>166.0</ele><time>2026-05-03T08:42:27.001Z</time></trkpt><trkpt lat="45.10154309074194" lon="8.326368369715329"><ele>167.33333333333331</ele><time>2026-05-03T08:42:29.001Z</time></trkpt><trkpt lat="45.101579284817944" lon="8.326460147623093"><ele>168.66666666666666</ele><time>2026-05-03T08:42:31.001Z</time></trkpt><trkpt lat="45.10161329884634" lon="8.326538389124549"><ele>170.0</ele><time>2026-05-03T08:42:33.001Z</time></trkpt><trkpt lat="45.10165891302947" lon="8.326649608708793"><ele>171.66666666666666</ele><time>2026-05-03T08:42:36.001Z</time></trkpt><trkpt lat="45.10169456098859" lon="8.32672969851631"><ele>173.33333333333331</ele><time>2026-05-03T08:42:38.001Z</time></trkpt><trkpt lat="45.10172852594743" lon="8.32681222183876"><ele>175.0</ele><time>2026-05-03T08:42:40.001Z</time></trkpt><trkpt lat="45.101770448710674" lon="8.326932716739028"><ele>176.66666666666666</ele><time>2026-05-03T08:42:42.998Z</time></trkpt><trkpt lat="45.101815485093404" lon="8.32704710672334"><ele>178.33333333333334</ele><time>2026-05-03T08:42:45.998Z</time></trkpt><trkpt lat="45.101852959610454" lon="8.327163888806743"><ele>180.0</ele><time>2026-05-03T08:42:48.998Z</time></trkpt><trkpt lat="45.10189010115329" lon="8.327273469363249"><ele>181.33333333333334</ele><time>2026-05-03T08:42:51.998Z</time></trkpt><trkpt lat="45.101933810819766" lon="8.32737907891583"><ele>182.66666666666666</ele><time>2026-05-03T08:42:54.998Z</time></trkpt><trkpt lat="45.101975612981434" lon="8.327490737849851"><ele>184.0</ele><time>2026-05-03T08:42:57.998Z</time></trkpt><trkpt lat="45.10200799367043" lon="8.327569434198914"><ele>185.33333333333331</ele><time>2026-05-03T08:42:59.998Z</time></trkpt><trkpt lat="45.10205297830361" lon="8.327681573638829"><ele>186.66666666666666</ele><time>2026-05-03T08:43:02.999Z</time></trkpt><trkpt lat="45.10208703427048" lon="8.327776261248461"><ele>188.0</ele><time>2026-05-03T08:43:05.999Z</time></trkpt><trkpt lat="45.10210775416233" lon="8.32786542762959"><ele>188.0</ele><time>2026-05-03T08:43:08.999Z</time></trkpt><trkpt lat="45.10214296310041" lon="8.327947289235727"><ele>188.0</ele><time>2026-05-03T08:43:12.999Z</time></trkpt><trkpt lat="45.102153842968995" lon="8.32803991099381"><ele>188.0</ele><time>2026-05-03T08:43:16.999Z</time></trkpt><trkpt lat="45.102085070350434" lon="8.328066488949805"><ele>188.0</ele><time>2026-05-03T08:43:21Z</time></trkpt><trkpt lat="45.102004522305755" lon="8.3280708900741"><ele>188.0</ele><time>2026-05-03T08:43:25Z</time></trkpt><trkpt lat="45.1019401668948" lon="8.328090073330557"><ele>188.0</ele><time>2026-05-03T08:43:28Z</time></trkpt><trkpt lat="45.10187571114491" lon="8.32814234534992"><ele>188.0</ele><time>2026-05-03T08:43:31Z</time></trkpt><trkpt lat="45.10181389078505" lon="8.328203538541059"><ele>188.5</ele><time>2026-05-03T08:43:34Z</time></trkpt><trkpt lat="45.10174786211506" lon="8.328259800750871"><ele>189.0</ele><time>2026-05-03T08:43:37Z</time></trkpt><trkpt lat="45.10167973436081" lon="8.32830203641132"><ele>189.5</ele><time>2026-05-03T08:43:40Z</time></trkpt><trkpt lat="45.101612359601994" lon="8.328352990576194"><ele>190.0</ele><time>2026-05-03T08:43:43Z</time></trkpt><trkpt lat="45.101543868255554" lon="8.32837786493377"><ele>190.5</ele><time>2026-05-03T08:43:46Z</time></trkpt><trkpt lat="45.10147107350473" lon="8.328426739218012"><ele>191.0</ele><time>2026-05-03T08:43:49.001Z</time></trkpt><trkpt lat="45.10139709857175" lon="8.328474695869101"><ele>191.66666666666666</ele><time>2026-05-03T08:43:52.001Z</time></trkpt><trkpt lat="45.10132939418116" lon="8.328528159842982"><ele>192.33333333333331</ele><time>2026-05-03T08:43:55.001Z</time></trkpt><trkpt lat="45.10125396660472" lon="8.328565268300027"><ele>193.0</ele><time>2026-05-03T08:43:58.001Z</time></trkpt><trkpt lat="45.101175520706335" lon="8.328608062741315"><ele>193.66666666666666</ele><time>2026-05-03T08:44:01.001Z</time></trkpt><trkpt lat="45.101096834053045" lon="8.328652379341191"><ele>194.33333333333334</ele><time>2026-05-03T08:44:04.001Z</time></trkpt><trkpt lat="45.10102676802946" lon="8.328682808675964"><ele>195.0</ele><time>2026-05-03T08:44:06.001Z</time></trkpt><trkpt lat="45.10095040913978" lon="8.328749539363676"><ele>195.0</ele><time>2026-05-03T08:44:09.001Z</time></trkpt><trkpt lat="45.10089116023862" lon="8.328784554519357"><ele>195.0</ele><time>2026-05-03T08:44:11.001Z</time></trkpt><trkpt lat="45.100830600630346" lon="8.328823775182277"><ele>195.0</ele><time>2026-05-03T08:44:13.001Z</time></trkpt><trkpt lat="45.10076905085455" lon="8.328867103917904"><ele>195.0</ele><time>2026-05-03T08:44:15.001Z</time></trkpt><trkpt lat="45.10070498954706" lon="8.328901429495666"><ele>195.0</ele><time>2026-05-03T08:44:17.001Z</time></trkpt><trkpt lat="45.10064099317854" lon="8.32894738047413"><ele>195.0</ele><time>2026-05-03T08:44:19.001Z</time></trkpt><trkpt lat="45.100573776940585" lon="8.329002102921635"><ele>195.0</ele><time>2026-05-03T08:44:21.001Z</time></trkpt><trkpt lat="45.100508057167254" lon="8.329040210590767"><ele>195.28571428571428</ele><time>2026-05-03T08:44:23.001Z</time></trkpt><trkpt lat="45.10044223050988" lon="8.329079589299392"><ele>195.57142857142856</ele><time>2026-05-03T08:44:25.001Z</time></trkpt><trkpt lat="45.10035896708706" lon="8.329125248332083"><ele>195.85714285714286</ele><time>2026-05-03T08:44:28.002Z</time></trkpt><trkpt lat="45.10029594957857" lon="8.32916583793742"><ele>196.14285714285714</ele><time>2026-05-03T08:44:30.002Z</time></trkpt><trkpt lat="45.100235901371306" lon="8.329200985731248"><ele>196.42857142857144</ele><time>2026-05-03T08:44:32.002Z</time></trkpt><trkpt lat="45.10017266139725" lon="8.32925070657252"><ele>196.71428571428572</ele><time>2026-05-03T08:44:34.002Z</time></trkpt><trkpt lat="45.10010721808019" lon="8.329297287734223"><ele>197.0</ele><time>2026-05-03T08:44:36.002Z</time></trkpt><trkpt lat="45.1000304101489" lon="8.329363838269757"><ele>197.00000000000003</ele><time>2026-05-03T08:44:38.002Z</time></trkpt><trkpt lat="45.09996301747818" lon="8.329414682961009"><ele>197.0</ele><time>2026-05-03T08:44:40.002Z</time></trkpt><trkpt lat="45.09990612759698" lon="8.329456721742137"><ele>197.0</ele><time>2026-05-03T08:44:42.002Z</time></trkpt><trkpt lat="45.09984145004957" lon="8.329523296603497"><ele>197.0</ele><time>2026-05-03T08:44:44.002Z</time></trkpt><trkpt lat="45.09977154792979" lon="8.329579427585239"><ele>197.00000000000003</ele><time>2026-05-03T08:44:46.002Z</time></trkpt><trkpt lat="45.09969984718193" lon="8.329646224585106"><ele>197.0</ele><time>2026-05-03T08:44:47.998Z</time></trkpt><trkpt lat="45.09963305729195" lon="8.329706458658082"><ele>197.50000000000003</ele><time>2026-05-03T08:44:49.998Z</time></trkpt><trkpt lat="45.099564687125984" lon="8.329762745594008"><ele>198.0</ele><time>2026-05-03T08:44:51.998Z</time></trkpt><trkpt lat="45.09950027970262" lon="8.329816610923569"><ele>198.5</ele><time>2026-05-03T08:44:53.998Z</time></trkpt><trkpt lat="45.09942351099261" lon="8.329874358734278"><ele>199.0</ele><time>2026-05-03T08:44:55.998Z</time></trkpt><trkpt lat="45.09934780650937" lon="8.32991734718311"><ele>199.50000000000003</ele><time>2026-05-03T08:44:57.998Z</time></trkpt><trkpt lat="45.0992846166667" lon="8.329966805475243"><ele>200.0</ele><time>2026-05-03T08:45:00.998Z</time></trkpt><trkpt lat="45.09924437015442" lon="8.330039397001581"><ele>200.00000000000003</ele><time>2026-05-03T08:45:03.998Z</time></trkpt><trkpt lat="45.09922374577922" lon="8.33012402388963"><ele>200.0</ele><time>2026-05-03T08:45:05.999Z</time></trkpt><trkpt lat="45.09918506279146" lon="8.330238245418252"><ele>200.0</ele><time>2026-05-03T08:45:08.999Z</time></trkpt><trkpt lat="45.09915136470258" lon="8.330324814285081"><ele>200.0</ele><time>2026-05-03T08:45:10.999Z</time></trkpt><trkpt lat="45.09911404367147" lon="8.330411842714637"><ele>200.0</ele><time>2026-05-03T08:45:12.999Z</time></trkpt><trkpt lat="45.099074950652174" lon="8.330487338948986"><ele>200.00000000000003</ele><time>2026-05-03T08:45:14.999Z</time></trkpt><trkpt lat="45.09904210498451" lon="8.33057653012713"><ele>200.0</ele><time>2026-05-03T08:45:16.999Z</time></trkpt><trkpt lat="45.09900164172699" lon="8.330650417663506"><ele>200.85714285714286</ele><time>2026-05-03T08:45:18.999Z</time></trkpt><trkpt lat="45.09896064501989" lon="8.33074383509933"><ele>201.71428571428572</ele><time>2026-05-03T08:45:20.999Z</time></trkpt><trkpt lat="45.09892032422693" lon="8.330821940412672"><ele>202.57142857142856</ele><time>2026-05-03T08:45:22.999Z</time></trkpt><trkpt lat="45.098890180566265" lon="8.330901306997434"><ele>203.42857142857144</ele><time>2026-05-03T08:45:25Z</time></trkpt><trkpt lat="45.09884336538526" lon="8.330971082459161"><ele>204.28571428571428</ele><time>2026-05-03T08:45:27Z</time></trkpt><trkpt lat="45.09879751044971" lon="8.331041701139739"><ele>205.14285714285714</ele><time>2026-05-03T08:45:29Z</time></trkpt><trkpt lat="45.098745056584214" lon="8.331110605009751"><ele>206.0</ele><time>2026-05-03T08:45:31Z</time></trkpt><trkpt lat="45.09868900641904" lon="8.331168746921021"><ele>205.99999999999997</ele><time>2026-05-03T08:45:33Z</time></trkpt><trkpt lat="45.0986154493463" lon="8.331220530122733"><ele>206.0</ele><time>2026-05-03T08:45:35Z</time></trkpt><trkpt lat="45.09855059868011" lon="8.331268470066151"><ele>206.0</ele><time>2026-05-03T08:45:37Z</time></trkpt><trkpt lat="45.09849619313653" lon="8.33132000795449"><ele>206.0</ele><time>2026-05-03T08:45:39Z</time></trkpt><trkpt lat="45.09844219150298" lon="8.331377114356298"><ele>206.0</ele><time>2026-05-03T08:45:41Z</time></trkpt><trkpt lat="45.0983900449718" lon="8.33144168443616"><ele>205.99999999999997</ele><time>2026-05-03T08:45:43Z</time></trkpt><trkpt lat="45.09834124607846" lon="8.331502954550775"><ele>206.0</ele><time>2026-05-03T08:45:45Z</time></trkpt><trkpt lat="45.09827254758397" lon="8.331583935843847"><ele>207.50000000000003</ele><time>2026-05-03T08:45:48Z</time></trkpt><trkpt lat="45.098197431232464" lon="8.331677932741965"><ele>209.0</ele><time>2026-05-03T08:45:51.001Z</time></trkpt><trkpt lat="45.0981548047015" lon="8.331744371968599"><ele>210.5</ele><time>2026-05-03T08:45:53.001Z</time></trkpt><trkpt lat="45.09809071573069" lon="8.331838814785689"><ele>212.0</ele><time>2026-05-03T08:45:56.001Z</time></trkpt><trkpt lat="45.098048646028126" lon="8.331906639141016"><ele>213.50000000000003</ele><time>2026-05-03T08:45:58.001Z</time></trkpt><trkpt lat="45.09800732729514" lon="8.331981325273231"><ele>215.0</ele><time>2026-05-03T08:46:00.001Z</time></trkpt><trkpt lat="45.097961280037914" lon="8.332055458434523"><ele>215.00000000000003</ele><time>2026-05-03T08:46:02.001Z</time></trkpt><trkpt lat="45.09791055750294" lon="8.332131856280855"><ele>215.0</ele><time>2026-05-03T08:46:04.001Z</time></trkpt><trkpt lat="45.097864138049815" lon="8.332198429244771"><ele>215.0</ele><time>2026-05-03T08:46:06.001Z</time></trkpt><trkpt lat="45.09781465110423" lon="8.332274732424718"><ele>215.0</ele><time>2026-05-03T08:46:08.001Z</time></trkpt><trkpt lat="45.09773163384606" lon="8.332384689990958"><ele>215.00000000000003</ele><time>2026-05-03T08:46:11.001Z</time></trkpt><trkpt lat="45.09768440192112" lon="8.332450827083132"><ele>215.0</ele><time>2026-05-03T08:46:13.001Z</time></trkpt><trkpt lat="45.09760063990891" lon="8.332513714985343"><ele>215.00000000000003</ele><time>2026-05-03T08:46:16.001Z</time></trkpt><trkpt lat="45.09754835758493" lon="8.332569079603033"><ele>215.0</ele><time>2026-05-03T08:46:18.001Z</time></trkpt><trkpt lat="45.09748038670208" lon="8.332644879117693"><ele>215.0</ele><time>2026-05-03T08:46:22.001Z</time></trkpt><trkpt lat="45.09741942017129" lon="8.332726210324676"><ele>215.0</ele><time>2026-05-03T08:46:25.002Z</time></trkpt><trkpt lat="45.097369841409254" lon="8.33280658797264"><ele>215.00000000000003</ele><time>2026-05-03T08:46:27.002Z</time></trkpt><trkpt lat="45.09731851270211" lon="8.332901763102452"><ele>215.0</ele><time>2026-05-03T08:46:29.002Z</time></trkpt><trkpt lat="45.09726216369899" lon="8.333025163588633"><ele>213.66666666666669</ele><time>2026-05-03T08:46:31.002Z</time></trkpt><trkpt lat="45.09719332682323" lon="8.33317545837414"><ele>212.33333333333334</ele><time>2026-05-03T08:46:33.002Z</time></trkpt><trkpt lat="45.09715824235669" lon="8.333260805579538"><ele>211.0</ele><time>2026-05-03T08:46:34.002Z</time></trkpt><trkpt lat="45.0971224876987" lon="8.333355595135922"><ele>209.66666666666669</ele><time>2026-05-03T08:46:35.002Z</time></trkpt><trkpt lat="45.09708417139077" lon="8.333457781418511"><ele>208.33333333333334</ele><time>2026-05-03T08:46:36.002Z</time></trkpt><trkpt lat="45.097042313490974" lon="8.333559901171764"><ele>207.0</ele><time>2026-05-03T08:46:37.002Z</time></trkpt><trkpt lat="45.09700060867538" lon="8.3336471380864"><ele>207.0</ele><time>2026-05-03T08:46:38.002Z</time></trkpt><trkpt lat="45.09690434855732" lon="8.333773767615765"><ele>207.0</ele><time>2026-05-03T08:46:40.002Z</time></trkpt><trkpt lat="45.09681774111788" lon="8.333745350124714"><ele>207.0</ele><time>2026-05-03T08:46:41.002Z</time></trkpt><trkpt lat="45.09674623188783" lon="8.333710022283643"><ele>207.0</ele><time>2026-05-03T08:46:42.002Z</time></trkpt><trkpt lat="45.09666315489211" lon="8.333682265727521"><ele>207.0</ele><time>2026-05-03T08:46:43.002Z</time></trkpt><trkpt lat="45.096577618960154" lon="8.33365202982093"><ele>206.0</ele><time>2026-05-03T08:46:44.002Z</time></trkpt><trkpt lat="45.09649160459483" lon="8.333624916942345"><ele>205.0</ele><time>2026-05-03T08:46:45.002Z</time></trkpt><trkpt lat="45.0964122080323" lon="8.333643504571585"><ele>204.0</ele><time>2026-05-03T08:46:46.002Z</time></trkpt><trkpt lat="45.09634764597201" lon="8.33365159172055"><ele>203.0</ele><time>2026-05-03T08:46:47.002Z</time></trkpt><trkpt lat="45.096255386124994" lon="8.333650770758387"><ele>202.0</ele><time>2026-05-03T08:46:49.002Z</time></trkpt><trkpt lat="45.09615584679333" lon="8.333670538194994"><ele>201.0</ele><time>2026-05-03T08:46:51.002Z</time></trkpt><trkpt lat="45.096088542224784" lon="8.333806799720836"><ele>201.0</ele><time>2026-05-03T08:46:53.002Z</time></trkpt><trkpt lat="45.09600670943564" lon="8.333817897811121"><ele>201.0</ele><time>2026-05-03T08:46:54.998Z</time></trkpt><trkpt lat="45.09591906454075" lon="8.333851176880225"><ele>201.0</ele><time>2026-05-03T08:46:56.998Z</time></trkpt><trkpt lat="45.0958353841878" lon="8.333904873367063"><ele>201.0</ele><time>2026-05-03T08:46:58.998Z</time></trkpt><trkpt lat="45.095750547470935" lon="8.333919713178247"><ele>201.0</ele><time>2026-05-03T08:47:00.998Z</time></trkpt><trkpt lat="45.09567421188344" lon="8.333952108326674"><ele>201.0</ele><time>2026-05-03T08:47:02.999Z</time></trkpt><trkpt lat="45.09560185886836" lon="8.333980146242244"><ele>202.0</ele><time>2026-05-03T08:47:04.999Z</time></trkpt><trkpt lat="45.09553218066795" lon="8.334002684981604"><ele>203.0</ele><time>2026-05-03T08:47:06.999Z</time></trkpt><trkpt lat="45.09546301415178" lon="8.334031447915791"><ele>204.0</ele><time>2026-05-03T08:47:08.999Z</time></trkpt><trkpt lat="45.095407265160205" lon="8.334095012528126"><ele>205.0</ele><time>2026-05-03T08:47:10.999Z</time></trkpt><trkpt lat="45.095348047634474" lon="8.334159955317233"><ele>206.0</ele><time>2026-05-03T08:47:12.999Z</time></trkpt><trkpt lat="45.09528696619643" lon="8.334241472147427"><ele>207.0</ele><time>2026-05-03T08:47:15Z</time></trkpt><trkpt lat="45.095225042866886" lon="8.33433109424175"><ele>207.0</ele><time>2026-05-03T08:47:17Z</time></trkpt><trkpt lat="45.095140784886766" lon="8.334294897995706"><ele>207.0</ele><time>2026-05-03T08:47:19Z</time></trkpt><trkpt lat="45.09505143875049" lon="8.334291132851241"><ele>207.0</ele><time>2026-05-03T08:47:21Z</time></trkpt><trkpt lat="45.09496449339133" lon="8.334265226728428"><ele>207.0</ele><time>2026-05-03T08:47:23Z</time></trkpt><trkpt lat="45.09487609918201" lon="8.334237432478321"><ele>207.0</ele><time>2026-05-03T08:47:25Z</time></trkpt><trkpt lat="45.09478100468434" lon="8.334215119875855"><ele>207.0</ele><time>2026-05-03T08:47:27Z</time></trkpt><trkpt lat="45.09468671848895" lon="8.334196793076096"><ele>207.0</ele><time>2026-05-03T08:47:29Z</time></trkpt><trkpt lat="45.0945923327946" lon="8.33417648158899"><ele>207.0</ele><time>2026-05-03T08:47:31Z</time></trkpt><trkpt lat="45.09450182086515" lon="8.334157771771475"><ele>207.0</ele><time>2026-05-03T08:47:33.001Z</time></trkpt><trkpt lat="45.09443974025108" lon="8.334070800830645"><ele>207.0</ele><time>2026-05-03T08:47:35.001Z</time></trkpt><trkpt lat="45.09440866850813" lon="8.333952204064458"><ele>207.0</ele><time>2026-05-03T08:47:38.001Z</time></trkpt><trkpt lat="45.09423285388256" lon="8.334061502023134"><ele>207.0</ele><time>2026-05-03T08:47:40.001Z</time></trkpt><trkpt lat="45.094159469843234" lon="8.334036183896497"><ele>207.0</ele><time>2026-05-03T08:47:42.001Z</time></trkpt><trkpt lat="45.0940840910391" lon="8.33401188938338"><ele>207.0</ele><time>2026-05-03T08:47:44.001Z</time></trkpt><trkpt lat="45.09400998652635" lon="8.333992421686359"><ele>207.0</ele><time>2026-05-03T08:47:46.001Z</time></trkpt><trkpt lat="45.09393186761015" lon="8.333970783862485"><ele>206.83333333333334</ele><time>2026-05-03T08:47:48.001Z</time></trkpt><trkpt lat="45.09384734790312" lon="8.333949039068726"><ele>206.66666666666669</ele><time>2026-05-03T08:47:50.001Z</time></trkpt><trkpt lat="45.09376823856462" lon="8.333933255614891"><ele>206.5</ele><time>2026-05-03T08:47:52.001Z</time></trkpt><trkpt lat="45.09368461084487" lon="8.333923827576099"><ele>206.33333333333334</ele><time>2026-05-03T08:47:54.001Z</time></trkpt><trkpt lat="45.093599432695946" lon="8.333943971478684"><ele>206.16666666666669</ele><time>2026-05-03T08:47:56.001Z</time></trkpt><trkpt lat="45.0935142137342" lon="8.333990850412084"><ele>206.0</ele><time>2026-05-03T08:47:58.001Z</time></trkpt><trkpt lat="45.09343565603097" lon="8.334056985164754"><ele>206.0</ele><time>2026-05-03T08:48:00.002Z</time></trkpt><trkpt lat="45.093359524945484" lon="8.334129376307448"><ele>206.0</ele><time>2026-05-03T08:48:02.002Z</time></trkpt><trkpt lat="45.09328093970231" lon="8.33420569375661"><ele>206.0</ele><time>2026-05-03T08:48:04.002Z</time></trkpt><trkpt lat="45.09319956202312" lon="8.33427582611456"><ele>206.0</ele><time>2026-05-03T08:48:06.002Z</time></trkpt><trkpt lat="45.09311978334307" lon="8.334352304598989"><ele>206.0</ele><time>2026-05-03T08:48:08.002Z</time></trkpt><trkpt lat="45.09304385947855" lon="8.334421066788957"><ele>205.33333333333334</ele><time>2026-05-03T08:48:10.002Z</time></trkpt><trkpt lat="45.09296912961709" lon="8.33450231487962"><ele>204.66666666666669</ele><time>2026-05-03T08:48:12.002Z</time></trkpt><trkpt lat="45.09289472521177" lon="8.33457394218508"><ele>204.0</ele><time>2026-05-03T08:48:14.002Z</time></trkpt><trkpt lat="45.09283330286193" lon="8.334631070567871"><ele>203.33333333333331</ele><time>2026-05-03T08:48:16.002Z</time></trkpt><trkpt lat="45.092770267077896" lon="8.334686858765508"><ele>202.66666666666666</ele><time>2026-05-03T08:48:18.002Z</time></trkpt><trkpt lat="45.09270224931073" lon="8.334734743514707"><ele>202.0</ele><time>2026-05-03T08:48:20.002Z</time></trkpt><trkpt lat="45.092632381187556" lon="8.334777450398862"><ele>203.33333333333331</ele><time>2026-05-03T08:48:22.002Z</time></trkpt><trkpt lat="45.09255652112284" lon="8.334810548419842"><ele>204.66666666666666</ele><time>2026-05-03T08:48:24.002Z</time></trkpt><trkpt lat="45.09247782707379" lon="8.334846830631637"><ele>206.0</ele><time>2026-05-03T08:48:26.002Z</time></trkpt><trkpt lat="45.09239855056371" lon="8.334891428804394"><ele>207.33333333333331</ele><time>2026-05-03T08:48:28.002Z</time></trkpt><trkpt lat="45.09232158828592" lon="8.334930779089595"><ele>208.66666666666666</ele><time>2026-05-03T08:48:30.002Z</time></trkpt><trkpt lat="45.09225770267049" lon="8.334959090214168"><ele>210.0</ele><time>2026-05-03T08:48:32.003Z</time></trkpt><trkpt lat="45.092190874815486" lon="8.334988280844179"><ele>211.0</ele><time>2026-05-03T08:48:34.003Z</time></trkpt><trkpt lat="45.09211893985641" lon="8.335013885201978"><ele>212.0</ele><time>2026-05-03T08:48:36.003Z</time></trkpt><trkpt lat="45.09204326959679" lon="8.335024843612421"><ele>213.0</ele><time>2026-05-03T08:48:38.003Z</time></trkpt><trkpt lat="45.09196979082801" lon="8.334999451511893"><ele>214.0</ele><time>2026-05-03T08:48:40.003Z</time></trkpt><trkpt lat="45.09189055171826" lon="8.3349796914162"><ele>215.0</ele><time>2026-05-03T08:48:42.003Z</time></trkpt><trkpt lat="45.091813808351574" lon="8.334954934311597"><ele>216.0</ele><time>2026-05-03T08:48:44.003Z</time></trkpt><trkpt lat="45.09173628252848" lon="8.33494342630474"><ele>216.0</ele><time>2026-05-03T08:48:46.003Z</time></trkpt><trkpt lat="45.091653940935544" lon="8.334913895348807"><ele>216.00000000000003</ele><time>2026-05-03T08:48:48.003Z</time></trkpt><trkpt lat="45.09156837770578" lon="8.334878589541225"><ele>216.00000000000003</ele><time>2026-05-03T08:48:50.003Z</time></trkpt><trkpt lat="45.09147983938566" lon="8.334850479465938"><ele>216.0</ele><time>2026-05-03T08:48:52.003Z</time></trkpt><trkpt lat="45.09138529741384" lon="8.334816685784807"><ele>216.0</ele><time>2026-05-03T08:48:54.003Z</time></trkpt><trkpt lat="45.0912895641516" lon="8.334788554161342"><ele>216.4</ele><time>2026-05-03T08:48:56.003Z</time></trkpt><trkpt lat="45.09119990209682" lon="8.33477498367271"><ele>216.8</ele><time>2026-05-03T08:48:58.003Z</time></trkpt><trkpt lat="45.09110807688365" lon="8.334765184133339"><ele>217.20000000000002</ele><time>2026-05-03T08:48:59.999Z</time></trkpt><trkpt lat="45.091014769467094" lon="8.334755810095775"><ele>217.60000000000002</ele><time>2026-05-03T08:49:01.999Z</time></trkpt><trkpt lat="45.0909213344251" lon="8.334728701873784"><ele>218.0</ele><time>2026-05-03T08:49:03.999Z</time></trkpt><trkpt lat="45.09082787405205" lon="8.334684713019733"><ele>218.33333333333334</ele><time>2026-05-03T08:49:05.999Z</time></trkpt><trkpt lat="45.09073684395887" lon="8.334630629787194"><ele>218.66666666666669</ele><time>2026-05-03T08:49:07.999Z</time></trkpt><trkpt lat="45.09065406344353" lon="8.334565957736688"><ele>219.0</ele><time>2026-05-03T08:49:09.999Z</time></trkpt><trkpt lat="45.090579409844615" lon="8.334508108634902"><ele>219.33333333333331</ele><time>2026-05-03T08:49:11.999Z</time></trkpt><trkpt lat="45.09052091920073" lon="8.334443979137877"><ele>219.66666666666666</ele><time>2026-05-03T08:49:13.999Z</time></trkpt><trkpt lat="45.09045774536958" lon="8.334379701191445"><ele>220.0</ele><time>2026-05-03T08:49:16Z</time></trkpt><trkpt lat="45.090391608509115" lon="8.334299568241118"><ele>219.99999999999997</ele><time>2026-05-03T08:49:18Z</time></trkpt><trkpt lat="45.090299794758884" lon="8.334210661857162"><ele>220.0</ele><time>2026-05-03T08:49:20Z</time></trkpt><trkpt lat="45.090241665749325" lon="8.334174841247089"><ele>220.0</ele><time>2026-05-03T08:49:21Z</time></trkpt><trkpt lat="45.09017427075763" lon="8.334136324458452"><ele>220.0</ele><time>2026-05-03T08:49:22Z</time></trkpt><trkpt lat="45.090102822466676" lon="8.334099366033657"><ele>219.99999999999997</ele><time>2026-05-03T08:49:23Z</time></trkpt><trkpt lat="45.09003269736851" lon="8.334065416802014"><ele>220.0</ele><time>2026-05-03T08:49:24Z</time></trkpt><trkpt lat="45.08996091036484" lon="8.334030037786626"><ele>219.16666666666666</ele><time>2026-05-03T08:49:25Z</time></trkpt><trkpt lat="45.089887279917654" lon="8.333988601331178"><ele>218.33333333333331</ele><time>2026-05-03T08:49:26Z</time></trkpt><trkpt lat="45.089810395043365" lon="8.333949594700782"><ele>217.5</ele><time>2026-05-03T08:49:27Z</time></trkpt><trkpt lat="45.08973301523764" lon="8.333906200638708"><ele>216.66666666666669</ele><time>2026-05-03T08:49:28Z</time></trkpt><trkpt lat="45.08965265290151" lon="8.333866560193647"><ele>215.83333333333334</ele><time>2026-05-03T08:49:29Z</time></trkpt><trkpt lat="45.08956892405481" lon="8.333823047373329"><ele>215.0</ele><time>2026-05-03T08:49:30Z</time></trkpt><trkpt lat="45.08948773986044" lon="8.333783373614596"><ele>214.66666666666669</ele><time>2026-05-03T08:49:31Z</time></trkpt><trkpt lat="45.08940772830078" lon="8.333743512945949"><ele>214.33333333333334</ele><time>2026-05-03T08:49:32Z</time></trkpt><trkpt lat="45.08932618731499" lon="8.333708255162339"><ele>214.0</ele><time>2026-05-03T08:49:33Z</time></trkpt><trkpt lat="45.089252194153595" lon="8.333680882419829"><ele>213.66666666666669</ele><time>2026-05-03T08:49:34Z</time></trkpt><trkpt lat="45.089174535507816" lon="8.333644895237262"><ele>213.33333333333334</ele><time>2026-05-03T08:49:35Z</time></trkpt><trkpt lat="45.08910080361884" lon="8.333611529127529"><ele>213.0</ele><time>2026-05-03T08:49:36Z</time></trkpt><trkpt lat="45.08902941174799" lon="8.333581897407221"><ele>212.0</ele><time>2026-05-03T08:49:37.001Z</time></trkpt><trkpt lat="45.08896896084879" lon="8.333550527429699"><ele>211.0</ele><time>2026-05-03T08:49:38.001Z</time></trkpt><trkpt lat="45.088877978320234" lon="8.333481081372694"><ele>210.0</ele><time>2026-05-03T08:49:40.001Z</time></trkpt><trkpt lat="45.08881684401662" lon="8.333413268764055"><ele>209.0</ele><time>2026-05-03T08:49:42.001Z</time></trkpt><trkpt lat="45.08875168591761" lon="8.33334677088317"><ele>208.0</ele><time>2026-05-03T08:49:45.001Z</time></trkpt><trkpt lat="45.088667538449215" lon="8.333372469302534"><ele>207.0</ele><time>2026-05-03T08:49:49.001Z</time></trkpt><trkpt lat="45.088597478502834" lon="8.333421336344879"><ele>207.0</ele><time>2026-05-03T08:49:53.001Z</time></trkpt><trkpt lat="45.088543813055345" lon="8.333497785858025"><ele>207.0</ele><time>2026-05-03T08:50:07.002Z</time></trkpt><trkpt lat="45.088489423177435" lon="8.333618849663306"><ele>207.0</ele><time>2026-05-03T08:50:10.002Z</time></trkpt><trkpt lat="45.08842792049341" lon="8.333734069495044"><ele>207.0</ele><time>2026-05-03T08:50:12.002Z</time></trkpt><trkpt lat="45.088359785057634" lon="8.33387604592643"><ele>207.0</ele><time>2026-05-03T08:50:14.002Z</time></trkpt><trkpt lat="45.088326996853695" lon="8.333952448354726"><ele>206.39999999999998</ele><time>2026-05-03T08:50:15.002Z</time></trkpt><trkpt lat="45.08829678170662" lon="8.334036351028955"><ele>205.79999999999998</ele><time>2026-05-03T08:50:16.002Z</time></trkpt><trkpt lat="45.088255439524566" lon="8.334180035561968"><ele>205.2</ele><time>2026-05-03T08:50:18.002Z</time></trkpt><trkpt lat="45.08823301110243" lon="8.334300615360771"><ele>204.6</ele><time>2026-05-03T08:50:20.002Z</time></trkpt><trkpt lat="45.08817253603804" lon="8.33439672897095"><ele>204.0</ele><time>2026-05-03T08:50:23.002Z</time></trkpt><trkpt lat="45.08776549366749" lon="8.334313395199045"><ele>201.79999999999998</ele><time>2026-05-03T08:50:24.002Z</time></trkpt><trkpt lat="45.087668567671244" lon="8.334339501230692"><ele>199.6</ele><time>2026-05-03T08:50:25.002Z</time></trkpt><trkpt lat="45.08756309274546" lon="8.33436891259727"><ele>197.4</ele><time>2026-05-03T08:50:26.002Z</time></trkpt><trkpt lat="45.08746447488547" lon="8.334402598377704"><ele>195.2</ele><time>2026-05-03T08:50:27.002Z</time></trkpt><trkpt lat="45.08736528918019" lon="8.334434453812094"><ele>193.0</ele><time>2026-05-03T08:50:28.002Z</time></trkpt><trkpt lat="45.08726439772311" lon="8.334454242962293"><ele>190.8</ele><time>2026-05-03T08:50:29.002Z</time></trkpt><trkpt lat="45.08716126263048" lon="8.334478205986978"><ele>188.60000000000002</ele><time>2026-05-03T08:50:30.002Z</time></trkpt><trkpt lat="45.08705716100879" lon="8.33450178804348"><ele>186.39999999999998</ele><time>2026-05-03T08:50:31.002Z</time></trkpt><trkpt lat="45.0869526734198" lon="8.33452654807682"><ele>184.2</ele><time>2026-05-03T08:50:32.002Z</time></trkpt><trkpt lat="45.08685301017583" lon="8.334556608604855"><ele>182.0</ele><time>2026-05-03T08:50:33.002Z</time></trkpt><trkpt lat="45.08675687776207" lon="8.334587310352584"><ele>182.0</ele><time>2026-05-03T08:50:34.002Z</time></trkpt><trkpt lat="45.08667073477077" lon="8.334620790521049"><ele>182.0</ele><time>2026-05-03T08:50:35.002Z</time></trkpt><trkpt lat="45.086585118625365" lon="8.334663551964846"><ele>182.0</ele><time>2026-05-03T08:50:36.002Z</time></trkpt><trkpt lat="45.08649343325624" lon="8.334671145991216"><ele>182.0</ele><time>2026-05-03T08:50:37.002Z</time></trkpt><trkpt lat="45.08639895918423" lon="8.334690888532988"><ele>182.0</ele><time>2026-05-03T08:50:38.002Z</time></trkpt><trkpt lat="45.086306726799535" lon="8.3347074100392"><ele>180.83333333333331</ele><time>2026-05-03T08:50:39.003Z</time></trkpt><trkpt lat="45.08621997500091" lon="8.334706583129124"><ele>179.66666666666666</ele><time>2026-05-03T08:50:40.003Z</time></trkpt><trkpt lat="45.08613149958718" lon="8.334695691947074"><ele>178.5</ele><time>2026-05-03T08:50:41.003Z</time></trkpt><trkpt lat="45.086040443703574" lon="8.334687116395123"><ele>177.33333333333334</ele><time>2026-05-03T08:50:42.003Z</time></trkpt><trkpt lat="45.08596117451828" lon="8.334690052650906"><ele>176.16666666666669</ele><time>2026-05-03T08:50:43.003Z</time></trkpt><trkpt lat="45.0858882451744" lon="8.334696716692763"><ele>175.0</ele><time>2026-05-03T08:50:44.003Z</time></trkpt><trkpt lat="45.085818772281144" lon="8.334701033822792"><ele>174.8</ele><time>2026-05-03T08:50:45.003Z</time></trkpt><trkpt lat="45.08570019573194" lon="8.334701612759726"><ele>174.6</ele><time>2026-05-03T08:50:47.003Z</time></trkpt><trkpt lat="45.08557667507281" lon="8.33465947257555"><ele>174.39999999999998</ele><time>2026-05-03T08:50:49.003Z</time></trkpt><trkpt lat="45.085517033092756" lon="8.334611422622267"><ele>174.2</ele><time>2026-05-03T08:50:50.003Z</time></trkpt><trkpt lat="45.08545832911523" lon="8.334556414193809"><ele>174.0</ele><time>2026-05-03T08:50:51.003Z</time></trkpt><trkpt lat="45.08538114252586" lon="8.334578802506323"><ele>174.0</ele><time>2026-05-03T08:50:52.003Z</time></trkpt><trkpt lat="45.085337862344964" lon="8.334415218648777"><ele>174.0</ele><time>2026-05-03T08:50:53.003Z</time></trkpt><trkpt lat="45.085241119169446" lon="8.334311586388644"><ele>174.0</ele><time>2026-05-03T08:50:55.003Z</time></trkpt><trkpt lat="45.08513938112387" lon="8.334239129412344"><ele>174.0</ele><time>2026-05-03T08:50:57.003Z</time></trkpt><trkpt lat="45.085030461294146" lon="8.334193022694546"><ele>174.0</ele><time>2026-05-03T08:50:59.003Z</time></trkpt><trkpt lat="45.08493993501614" lon="8.33413866984518"><ele>174.0</ele><time>2026-05-03T08:51:01.003Z</time></trkpt><trkpt lat="45.08485756246288" lon="8.334097546755046"><ele>174.0</ele><time>2026-05-03T08:51:03.003Z</time></trkpt><trkpt lat="45.084780839277904" lon="8.334053428569419"><ele>174.0</ele><time>2026-05-03T08:51:05.003Z</time></trkpt><trkpt lat="45.08470542202388" lon="8.334010840777651"><ele>174.0</ele><time>2026-05-03T08:51:06.999Z</time></trkpt><trkpt lat="45.084644794241086" lon="8.333969032713549"><ele>174.0</ele><time>2026-05-03T08:51:08.999Z</time></trkpt><trkpt lat="45.08459128387012" lon="8.333921196016977"><ele>174.5</ele><time>2026-05-03T08:51:10.999Z</time></trkpt><trkpt lat="45.084512864394355" lon="8.333852475640887"><ele>175.0</ele><time>2026-05-03T08:51:13.999Z</time></trkpt><trkpt lat="45.084439116862676" lon="8.333774909227749"><ele>175.5</ele><time>2026-05-03T08:51:16.999Z</time></trkpt><trkpt lat="45.084394779854144" lon="8.333705262750085"><ele>176.0</ele><time>2026-05-03T08:51:18.999Z</time></trkpt><trkpt lat="45.08433994181465" lon="8.3336453663916"><ele>176.5</ele><time>2026-05-03T08:51:20.999Z</time></trkpt><trkpt lat="45.084281683517645" lon="8.333575644899351"><ele>177.0</ele><time>2026-05-03T08:51:23Z</time></trkpt><trkpt lat="45.0842234615759" lon="8.333494225451203"><ele>177.0</ele><time>2026-05-03T08:51:25Z</time></trkpt><trkpt lat="45.084163275380874" lon="8.333423285290191"><ele>177.0</ele><time>2026-05-03T08:51:27Z</time></trkpt><trkpt lat="45.084101759078955" lon="8.333351873341977"><ele>177.0</ele><time>2026-05-03T08:51:29Z</time></trkpt><trkpt lat="45.084040277798735" lon="8.333285101710091"><ele>177.0</ele><time>2026-05-03T08:51:31Z</time></trkpt><trkpt lat="45.08397786590608" lon="8.333218619562903"><ele>177.0</ele><time>2026-05-03T08:51:33Z</time></trkpt><trkpt lat="45.08392050374142" lon="8.33315430980144"><ele>177.0</ele><time>2026-05-03T08:51:35Z</time></trkpt><trkpt lat="45.08386223407976" lon="8.33308661501685"><ele>177.66666666666666</ele><time>2026-05-03T08:51:37Z</time></trkpt><trkpt lat="45.08379353487476" lon="8.333026361001615"><ele>178.33333333333334</ele><time>2026-05-03T08:51:39Z</time></trkpt><trkpt lat="45.08372574388748" lon="8.332954489998427"><ele>179.0</ele><time>2026-05-03T08:51:41Z</time></trkpt><trkpt lat="45.08366266590765" lon="8.332883688061141"><ele>179.66666666666669</ele><time>2026-05-03T08:51:43.001Z</time></trkpt><trkpt lat="45.0835876583928" lon="8.33280369732728"><ele>180.33333333333334</ele><time>2026-05-03T08:51:45.001Z</time></trkpt><trkpt lat="45.08351434628427" lon="8.332711462321706"><ele>181.0</ele><time>2026-05-03T08:51:47.001Z</time></trkpt><trkpt lat="45.083444379484995" lon="8.332611847843397"><ele>181.0</ele><time>2026-05-03T08:51:49.001Z</time></trkpt><trkpt lat="45.08338176756928" lon="8.33251526949158"><ele>181.0</ele><time>2026-05-03T08:51:51.001Z</time></trkpt><trkpt lat="45.08331916930419" lon="8.332417885933559"><ele>181.0</ele><time>2026-05-03T08:51:53.001Z</time></trkpt><trkpt lat="45.08326683482582" lon="8.332304645783193"><ele>181.0</ele><time>2026-05-03T08:51:55.001Z</time></trkpt><trkpt lat="45.08320227246774" lon="8.332191998444328"><ele>181.0</ele><time>2026-05-03T08:51:57.001Z</time></trkpt><trkpt lat="45.083130939104244" lon="8.332082338323996"><ele>181.4</ele><time>2026-05-03T08:51:59.001Z</time></trkpt><trkpt lat="45.08305882897978" lon="8.331976885487995"><ele>181.8</ele><time>2026-05-03T08:52:01.001Z</time></trkpt><trkpt lat="45.08298442971387" lon="8.331867971695592"><ele>182.20000000000002</ele><time>2026-05-03T08:52:03.001Z</time></trkpt><trkpt lat="45.08292895046144" lon="8.331748368043081"><ele>182.60000000000002</ele><time>2026-05-03T08:52:05.001Z</time></trkpt><trkpt lat="45.0828682880309" lon="8.331627693159904"><ele>183.0</ele><time>2026-05-03T08:52:07.001Z</time></trkpt><trkpt lat="45.082806091897375" lon="8.331503236915012"><ele>184.2</ele><time>2026-05-03T08:52:09.001Z</time></trkpt><trkpt lat="45.08274737571539" lon="8.33137857921461"><ele>185.4</ele><time>2026-05-03T08:52:11.001Z</time></trkpt><trkpt lat="45.082691351145456" lon="8.331259916524537"><ele>186.6</ele><time>2026-05-03T08:52:13.002Z</time></trkpt><trkpt lat="45.0826292306372" lon="8.331138527014156"><ele>187.79999999999998</ele><time>2026-05-03T08:52:15.002Z</time></trkpt><trkpt lat="45.082563354043394" lon="8.33102729393801"><ele>189.0</ele><time>2026-05-03T08:52:17.002Z</time></trkpt><trkpt lat="45.0825011931734" lon="8.330913394538342"><ele>189.0</ele><time>2026-05-03T08:52:19.002Z</time></trkpt><trkpt lat="45.082443764807074" lon="8.330808395621883"><ele>189.0</ele><time>2026-05-03T08:52:21.002Z</time></trkpt><trkpt lat="45.082382967802886" lon="8.330722246259892"><ele>189.0</ele><time>2026-05-03T08:52:23.002Z</time></trkpt><trkpt lat="45.08232991700488" lon="8.330636155532746"><ele>189.0</ele><time>2026-05-03T08:52:25.002Z</time></trkpt><trkpt lat="45.08227343952663" lon="8.330560333001058"><ele>189.0</ele><time>2026-05-03T08:52:27.002Z</time></trkpt><trkpt lat="45.08221972518135" lon="8.33048457787005"><ele>189.0</ele><time>2026-05-03T08:52:29.002Z</time></trkpt><trkpt lat="45.08215527290089" lon="8.330412644473421"><ele>189.5</ele><time>2026-05-03T08:52:31.002Z</time></trkpt><trkpt lat="45.08209613832282" lon="8.330343916273524"><ele>190.0</ele><time>2026-05-03T08:52:33.002Z</time></trkpt><trkpt lat="45.08203266020198" lon="8.33027035018414"><ele>190.5</ele><time>2026-05-03T08:52:35.002Z</time></trkpt><trkpt lat="45.08197652950612" lon="8.330196749652298"><ele>191.0</ele><time>2026-05-03T08:52:37.002Z</time></trkpt><trkpt lat="45.08191396103038" lon="8.330125764299959"><ele>191.5</ele><time>2026-05-03T08:52:39.002Z</time></trkpt><trkpt lat="45.08185546029859" lon="8.330047785102181"><ele>192.0</ele><time>2026-05-03T08:52:41.002Z</time></trkpt><trkpt lat="45.08179508707568" lon="8.329968161890353"><ele>192.0</ele><time>2026-05-03T08:52:43.002Z</time></trkpt><trkpt lat="45.08173718059108" lon="8.329878352190418"><ele>192.0</ele><time>2026-05-03T08:52:45.003Z</time></trkpt><trkpt lat="45.08168233345081" lon="8.329780385753178"><ele>192.0</ele><time>2026-05-03T08:52:47.003Z</time></trkpt><trkpt lat="45.08162958073129" lon="8.32968439418484"><ele>192.0</ele><time>2026-05-03T08:52:49.003Z</time></trkpt><trkpt lat="45.08157500755921" lon="8.329586924284479"><ele>192.0</ele><time>2026-05-03T08:52:51.003Z</time></trkpt><trkpt lat="45.08151830494582" lon="8.329492570551464"><ele>192.0</ele><time>2026-05-03T08:52:53.003Z</time></trkpt><trkpt lat="45.081451507106706" lon="8.329396794996887"><ele>192.2</ele><time>2026-05-03T08:52:55.003Z</time></trkpt><trkpt lat="45.08138796333228" lon="8.329290516864734"><ele>192.39999999999998</ele><time>2026-05-03T08:52:57.003Z</time></trkpt><trkpt lat="45.081324685071955" lon="8.329189703198006"><ele>192.60000000000002</ele><time>2026-05-03T08:52:59.003Z</time></trkpt><trkpt lat="45.0812572471446" lon="8.329085458110976"><ele>192.8</ele><time>2026-05-03T08:53:01.003Z</time></trkpt><trkpt lat="45.08119617252842" lon="8.328981802133551"><ele>193.0</ele><time>2026-05-03T08:53:03.003Z</time></trkpt><trkpt lat="45.08114113359552" lon="8.32886829336632"><ele>193.99999999999997</ele><time>2026-05-03T08:53:05.003Z</time></trkpt><trkpt lat="45.081103924971" lon="8.328757483114545"><ele>195.0</ele><time>2026-05-03T08:53:07.003Z</time></trkpt><trkpt lat="45.08107653305313" lon="8.328646065033382"><ele>196.0</ele><time>2026-05-03T08:53:09.003Z</time></trkpt><trkpt lat="45.08105476700933" lon="8.328524113088779"><ele>197.0</ele><time>2026-05-03T08:53:11.003Z</time></trkpt><trkpt lat="45.0810441370003" lon="8.32840594217173"><ele>197.99999999999997</ele><time>2026-05-03T08:53:12.998Z</time></trkpt><trkpt lat="45.08100817550911" lon="8.32829589642924"><ele>199.0</ele><time>2026-05-03T08:53:14.999Z</time></trkpt><trkpt lat="45.08095583487241" lon="8.328196808703053"><ele>198.99999999999997</ele><time>2026-05-03T08:53:16.999Z</time></trkpt><trkpt lat="45.08090240044971" lon="8.328112046966629"><ele>199.0</ele><time>2026-05-03T08:53:18.999Z</time></trkpt><trkpt lat="45.0808433706931" lon="8.328039445060572"><ele>199.0</ele><time>2026-05-03T08:53:20.999Z</time></trkpt><trkpt lat="45.08078933581207" lon="8.327966710602766"><ele>199.0</ele><time>2026-05-03T08:53:22.999Z</time></trkpt><trkpt lat="45.08072996879699" lon="8.327879716652173"><ele>198.99999999999997</ele><time>2026-05-03T08:53:24.999Z</time></trkpt><trkpt lat="45.0806736873104" lon="8.327783839477647"><ele>199.0</ele><time>2026-05-03T08:53:26.999Z</time></trkpt><trkpt lat="45.08062306960498" lon="8.327682821286496"><ele>199.16666666666666</ele><time>2026-05-03T08:53:28.999Z</time></trkpt><trkpt lat="45.08058284026388" lon="8.327583579113755"><ele>199.33333333333331</ele><time>2026-05-03T08:53:31Z</time></trkpt><trkpt lat="45.08053923677478" lon="8.32747816160575"><ele>199.5</ele><time>2026-05-03T08:53:33Z</time></trkpt><trkpt lat="45.08049497749574" lon="8.327368053930458"><ele>199.66666666666669</ele><time>2026-05-03T08:53:35Z</time></trkpt><trkpt lat="45.08045078976839" lon="8.327258852991033"><ele>199.83333333333334</ele><time>2026-05-03T08:53:37Z</time></trkpt><trkpt lat="45.08040562067407" lon="8.327174464847536"><ele>200.0</ele><time>2026-05-03T08:53:39Z</time></trkpt><trkpt lat="45.080354311793066" lon="8.327107189395846"><ele>200.83333333333334</ele><time>2026-05-03T08:53:41Z</time></trkpt><trkpt lat="45.08029044385889" lon="8.327051836781411"><ele>201.66666666666669</ele><time>2026-05-03T08:53:43Z</time></trkpt><trkpt lat="45.080222518082806" lon="8.326988051022898"><ele>202.5</ele><time>2026-05-03T08:53:45Z</time></trkpt><trkpt lat="45.080157179488566" lon="8.326926043521865"><ele>203.33333333333331</ele><time>2026-05-03T08:53:47Z</time></trkpt><trkpt lat="45.080090843875766" lon="8.326861739307954"><ele>204.16666666666666</ele><time>2026-05-03T08:53:49.001Z</time></trkpt><trkpt lat="45.08002305303188" lon="8.326790639099254"><ele>205.0</ele><time>2026-05-03T08:53:51.001Z</time></trkpt><trkpt lat="45.079958944098024" lon="8.326723333370502"><ele>205.66666666666666</ele><time>2026-05-03T08:53:53.001Z</time></trkpt><trkpt lat="45.079887480774126" lon="8.32666143980882"><ele>206.33333333333331</ele><time>2026-05-03T08:53:55.001Z</time></trkpt><trkpt lat="45.07982211862234" lon="8.326603825165124"><ele>207.0</ele><time>2026-05-03T08:53:57.001Z</time></trkpt><trkpt lat="45.07975899712242" lon="8.326552853699571"><ele>207.66666666666669</ele><time>2026-05-03T08:53:59.001Z</time></trkpt><trkpt lat="45.07968999162893" lon="8.326501990393883"><ele>208.33333333333334</ele><time>2026-05-03T08:54:02.001Z</time></trkpt><trkpt lat="45.0796174780347" lon="8.326462007294802"><ele>209.0</ele><time>2026-05-03T08:54:05.001Z</time></trkpt><trkpt lat="45.07953998324594" lon="8.326406526348084"><ele>209.42857142857142</ele><time>2026-05-03T08:54:08.001Z</time></trkpt><trkpt lat="45.07947367382673" lon="8.326352390975828"><ele>209.85714285714283</ele><time>2026-05-03T08:54:11.001Z</time></trkpt><trkpt lat="45.07942137174936" lon="8.326292972820982"><ele>210.28571428571428</ele><time>2026-05-03T08:54:14.001Z</time></trkpt><trkpt lat="45.07935566175691" lon="8.326255549063939"><ele>210.71428571428572</ele><time>2026-05-03T08:54:55.003Z</time></trkpt><trkpt lat="45.07930219249447" lon="8.326199407371595"><ele>211.14285714285714</ele><time>2026-05-03T08:54:58.003Z</time></trkpt><trkpt lat="45.07924247771047" lon="8.326164693862996"><ele>211.57142857142858</ele><time>2026-05-03T08:55:00.003Z</time></trkpt><trkpt lat="45.07918264854027" lon="8.326132018893851"><ele>212.0</ele><time>2026-05-03T08:55:02.003Z</time></trkpt><trkpt lat="45.079112288001404" lon="8.326095533697146"><ele>211.66666666666669</ele><time>2026-05-03T08:55:04.003Z</time></trkpt><trkpt lat="45.0790409755714" lon="8.326048747210603"><ele>211.33333333333334</ele><time>2026-05-03T08:55:06.003Z</time></trkpt><trkpt lat="45.078961306477304" lon="8.325986497342939"><ele>211.0</ele><time>2026-05-03T08:55:08.003Z</time></trkpt><trkpt lat="45.078893077237716" lon="8.325934425882467"><ele>210.66666666666669</ele><time>2026-05-03T08:55:10.003Z</time></trkpt><trkpt lat="45.07883529090789" lon="8.325888919544195"><ele>210.33333333333334</ele><time>2026-05-03T08:55:12.003Z</time></trkpt><trkpt lat="45.07877301581836" lon="8.325830793186856"><ele>210.0</ele><time>2026-05-03T08:55:15.003Z</time></trkpt><trkpt lat="45.078713837619205" lon="8.325787684071543"><ele>210.0</ele><time>2026-05-03T08:55:17.998Z</time></trkpt><trkpt lat="45.07864670535431" lon="8.325746103395401"><ele>210.0</ele><time>2026-05-03T08:55:20.999Z</time></trkpt><trkpt lat="45.07858799066042" lon="8.32569058555928"><ele>210.0</ele><time>2026-05-03T08:55:23.999Z</time></trkpt><trkpt lat="45.078519581559185" lon="8.32563079451639"><ele>210.0</ele><time>2026-05-03T08:55:26.999Z</time></trkpt><trkpt lat="45.078449655028045" lon="8.32557300975035"><ele>210.0</ele><time>2026-05-03T08:55:29.999Z</time></trkpt><trkpt lat="45.07837630127235" lon="8.325527019606765"><ele>210.0</ele><time>2026-05-03T08:55:32.999Z</time></trkpt><trkpt lat="45.07830225914393" lon="8.325465368393587"><ele>211.33333333333334</ele><time>2026-05-03T08:55:35.999Z</time></trkpt><trkpt lat="45.07822417348995" lon="8.32541436025124"><ele>212.66666666666669</ele><time>2026-05-03T08:55:39Z</time></trkpt><trkpt lat="45.078146456609986" lon="8.325359847660552"><ele>214.0</ele><time>2026-05-03T08:55:42Z</time></trkpt><trkpt lat="45.07807470070393" lon="8.32529323378376"><ele>215.33333333333334</ele><time>2026-05-03T08:55:45Z</time></trkpt><trkpt lat="45.07799697420757" lon="8.325243023669515"><ele>216.66666666666669</ele><time>2026-05-03T08:55:48Z</time></trkpt><trkpt lat="45.07792188524087" lon="8.325172801237583"><ele>218.0</ele><time>2026-05-03T08:55:51Z</time></trkpt><trkpt lat="45.077861260823084" lon="8.32510931066433"><ele>218.00000000000003</ele><time>2026-05-03T08:55:54Z</time></trkpt><trkpt lat="45.077781116876594" lon="8.32504435820274"><ele>218.0</ele><time>2026-05-03T08:55:57.001Z</time></trkpt><trkpt lat="45.07771194060906" lon="8.324990804824818"><ele>218.0</ele><time>2026-05-03T08:56:00.001Z</time></trkpt><trkpt lat="45.0776456076853" lon="8.32495222477409"><ele>218.0</ele><time>2026-05-03T08:56:03.001Z</time></trkpt><trkpt lat="45.07756430469859" lon="8.324908603690378"><ele>218.00000000000003</ele><time>2026-05-03T08:56:06.001Z</time></trkpt><trkpt lat="45.07748613316552" lon="8.324879067907546"><ele>218.0</ele><time>2026-05-03T08:56:09.001Z</time></trkpt><trkpt lat="45.07740617370058" lon="8.324862466463605"><ele>218.83333333333334</ele><time>2026-05-03T08:56:12.001Z</time></trkpt><trkpt lat="45.07732565118559" lon="8.324856644948387"><ele>219.66666666666669</ele><time>2026-05-03T08:56:15.001Z</time></trkpt><trkpt lat="45.07724419321479" lon="8.324833560280792"><ele>220.5</ele><time>2026-05-03T08:56:18.001Z</time></trkpt><trkpt lat="45.07715187389964" lon="8.324832376030486"><ele>221.33333333333331</ele><time>2026-05-03T08:56:21.001Z</time></trkpt><trkpt lat="45.0770682624494" lon="8.324819403418331"><ele>222.16666666666666</ele><time>2026-05-03T08:56:24.001Z</time></trkpt><trkpt lat="45.07698548649961" lon="8.324792311698541"><ele>223.0</ele><time>2026-05-03T08:56:27.002Z</time></trkpt><trkpt lat="45.076901791242406" lon="8.324765923763861"><ele>222.99999999999997</ele><time>2026-05-03T08:56:30.002Z</time></trkpt><trkpt lat="45.076823195134764" lon="8.324727935823184"><ele>223.0</ele><time>2026-05-03T08:56:33.002Z</time></trkpt><trkpt lat="45.0767536678455" lon="8.324681124176482"><ele>223.0</ele><time>2026-05-03T08:56:36.002Z</time></trkpt><trkpt lat="45.07668798691556" lon="8.32462423609337"><ele>223.0</ele><time>2026-05-03T08:56:39.002Z</time></trkpt><trkpt lat="45.076633116826244" lon="8.324562927633322"><ele>222.99999999999997</ele><time>2026-05-03T08:56:42.002Z</time></trkpt><trkpt lat="45.076578153741195" lon="8.32451067390604"><ele>223.0</ele><time>2026-05-03T08:56:45.002Z</time></trkpt><trkpt lat="45.076500623596765" lon="8.324489888650453"><ele>222.99999999999997</ele><time>2026-05-03T08:56:49.002Z</time></trkpt><trkpt lat="45.07645566353381" lon="8.324561532049808"><ele>223.0</ele><time>2026-05-03T08:56:51.002Z</time></trkpt><trkpt lat="45.0764293557605" lon="8.324647493869092"><ele>223.0</ele><time>2026-05-03T08:56:54.002Z</time></trkpt><trkpt lat="45.07637527985807" lon="8.32472601543742"><ele>223.0</ele><time>2026-05-03T08:56:57.002Z</time></trkpt><trkpt lat="45.07632071313807" lon="8.324783090056702"><ele>222.99999999999997</ele><time>2026-05-03T08:57:00.003Z</time></trkpt><trkpt lat="45.07627736077713" lon="8.32488645419593"><ele>223.0</ele><time>2026-05-03T08:57:03.003Z</time></trkpt><trkpt lat="45.07621337921101" lon="8.324988879390688"><ele>222.99999999999997</ele><time>2026-05-03T08:57:06.003Z</time></trkpt><trkpt lat="45.07615933675903" lon="8.32509255554823"><ele>223.0</ele><time>2026-05-03T08:57:09.003Z</time></trkpt><trkpt lat="45.07611742905627" lon="8.325209617174032"><ele>223.0</ele><time>2026-05-03T08:57:12.003Z</time></trkpt><trkpt lat="45.07608447893722" lon="8.32532668829474"><ele>223.0</ele><time>2026-05-03T08:57:15.003Z</time></trkpt><trkpt lat="45.0760570162754" lon="8.32541063354451"><ele>222.99999999999997</ele><time>2026-05-03T08:57:17.003Z</time></trkpt><trkpt lat="45.07603542236349" lon="8.325504564051643"><ele>223.0</ele><time>2026-05-03T08:57:19.003Z</time></trkpt><trkpt lat="45.07600691163898" lon="8.325590516559316"><ele>223.71428571428572</ele><time>2026-05-03T08:57:21.003Z</time></trkpt><trkpt lat="45.07597845860777" lon="8.325675580701754"><ele>224.42857142857142</ele><time>2026-05-03T08:57:23.003Z</time></trkpt><trkpt lat="45.0759529301652" lon="8.325765857620407"><ele>225.14285714285714</ele><time>2026-05-03T08:57:24.998Z</time></trkpt><trkpt lat="45.07592616285267" lon="8.325852556554894"><ele>225.85714285714283</ele><time>2026-05-03T08:57:26.998Z</time></trkpt><trkpt lat="45.07590731678403" lon="8.325939429311449"><ele>226.57142857142856</ele><time>2026-05-03T08:57:28.999Z</time></trkpt><trkpt lat="45.07588058632824" lon="8.326023888711928"><ele>227.28571428571428</ele><time>2026-05-03T08:57:30.999Z</time></trkpt><trkpt lat="45.0758520969017" lon="8.32611552226559"><ele>228.0</ele><time>2026-05-03T08:57:32.999Z</time></trkpt><trkpt lat="45.075824956892184" lon="8.32620552442401"><ele>228.0</ele><time>2026-05-03T08:57:34.999Z</time></trkpt><trkpt lat="45.075794313920596" lon="8.326302789981016"><ele>228.0</ele><time>2026-05-03T08:57:36.999Z</time></trkpt><trkpt lat="45.07576946819429" lon="8.326401724308905"><ele>228.0</ele><time>2026-05-03T08:57:38.999Z</time></trkpt><trkpt lat="45.07573671393976" lon="8.326493876199988"><ele>228.0</ele><time>2026-05-03T08:57:40.999Z</time></trkpt><trkpt lat="45.07571245597193" lon="8.326597311635576"><ele>228.0</ele><time>2026-05-03T08:57:42.999Z</time></trkpt><trkpt lat="45.07567301422907" lon="8.326689756282523"><ele>228.0</ele><time>2026-05-03T08:57:44.999Z</time></trkpt><trkpt lat="45.07564598239481" lon="8.326788214358134"><ele>228.16666666666666</ele><time>2026-05-03T08:57:47Z</time></trkpt><trkpt lat="45.075613388542465" lon="8.32687620893402"><ele>228.33333333333331</ele><time>2026-05-03T08:57:49Z</time></trkpt><trkpt lat="45.07557461185716" lon="8.326968306737617"><ele>228.5</ele><time>2026-05-03T08:57:51Z</time></trkpt><trkpt lat="45.07553232634145" lon="8.327063895891763"><ele>228.66666666666666</ele><time>2026-05-03T08:57:53Z</time></trkpt><trkpt lat="45.07546669517928" lon="8.327155940949526"><ele>228.83333333333331</ele><time>2026-05-03T08:57:55Z</time></trkpt><trkpt lat="45.07541195814717" lon="8.327243799278943"><ele>229.0</ele><time>2026-05-03T08:57:57Z</time></trkpt><trkpt lat="45.075354456895944" lon="8.327327000389904"><ele>228.99999999999997</ele><time>2026-05-03T08:57:59Z</time></trkpt><trkpt lat="45.075293965983334" lon="8.327397358676254"><ele>229.0</ele><time>2026-05-03T08:58:01Z</time></trkpt><trkpt lat="45.0752205012777" lon="8.32746808721845"><ele>229.0</ele><time>2026-05-03T08:58:03Z</time></trkpt><trkpt lat="45.075150879987284" lon="8.327531240469522"><ele>229.0</ele><time>2026-05-03T08:58:05Z</time></trkpt><trkpt lat="45.075083007217295" lon="8.327592251227426"><ele>228.99999999999997</ele><time>2026-05-03T08:58:07Z</time></trkpt><trkpt lat="45.075009254260344" lon="8.327657451665884"><ele>229.0</ele><time>2026-05-03T08:58:09Z</time></trkpt><trkpt lat="45.07493776983785" lon="8.327720020888098"><ele>229.14285714285714</ele><time>2026-05-03T08:58:11.001Z</time></trkpt><trkpt lat="45.07487921844061" lon="8.327771270027293"><ele>229.28571428571428</ele><time>2026-05-03T08:58:13.001Z</time></trkpt><trkpt lat="45.07480571033722" lon="8.327835117401065"><ele>229.42857142857142</ele><time>2026-05-03T08:58:16.001Z</time></trkpt><trkpt lat="45.07474758423479" lon="8.327883022815906"><ele>229.57142857142856</ele><time>2026-05-03T08:58:18.001Z</time></trkpt><trkpt lat="45.07469303210859" lon="8.327950311877567"><ele>229.71428571428572</ele><time>2026-05-03T08:58:20.001Z</time></trkpt><trkpt lat="45.07463192457829" lon="8.328000590292769"><ele>229.85714285714283</ele><time>2026-05-03T08:58:22.001Z</time></trkpt><trkpt lat="45.07457316004953" lon="8.32803775685675"><ele>229.99999999999997</ele><time>2026-05-03T08:58:24.001Z</time></trkpt><trkpt lat="45.07449700650179" lon="8.32807086880565"><ele>230.00000000000003</ele><time>2026-05-03T08:58:27.001Z</time></trkpt><trkpt lat="45.074571165953806" lon="8.328216648346727"><ele>230.0</ele><time>2026-05-03T08:58:30.001Z</time></trkpt><trkpt lat="45.074636165654645" lon="8.328261905364636"><ele>230.0</ele><time>2026-05-03T08:58:33.001Z</time></trkpt><trkpt lat="45.07469747806644" lon="8.328286169347795"><ele>230.0</ele><time>2026-05-03T08:58:36.001Z</time></trkpt><trkpt lat="45.07475866250575" lon="8.328350279300734"><ele>230.00000000000003</ele><time>2026-05-03T08:58:58.002Z</time></trkpt><trkpt lat="45.074825527084414" lon="8.328410799332733"><ele>230.0</ele><time>2026-05-03T08:59:02.002Z</time></trkpt><trkpt lat="45.07489430743842" lon="8.328482473554406"><ele>230.00000000000003</ele><time>2026-05-03T08:59:05.002Z</time></trkpt><trkpt lat="45.074908036200014" lon="8.328576052386602"><ele>230.0</ele><time>2026-05-03T08:59:08.002Z</time></trkpt><trkpt lat="45.07492306040278" lon="8.328676979890444"><ele>230.0</ele><time>2026-05-03T08:59:11.002Z</time></trkpt><trkpt lat="45.074926130539694" lon="8.32879684175988"><ele>230.0</ele><time>2026-05-03T08:59:14.002Z</time></trkpt><trkpt lat="45.07491206854289" lon="8.32889638833975"><ele>230.00000000000003</ele><time>2026-05-03T08:59:16.003Z</time></trkpt><trkpt lat="45.07489412444221" lon="8.329020940080245"><ele>230.0</ele><time>2026-05-03T08:59:18.003Z</time></trkpt><trkpt lat="45.07487732954839" lon="8.32914545153322"><ele>227.8</ele><time>2026-05-03T08:59:20.003Z</time></trkpt><trkpt lat="45.074844093297806" lon="8.329266967343408"><ele>225.6</ele><time>2026-05-03T08:59:22.003Z</time></trkpt><trkpt lat="45.07482096880894" lon="8.329392230806203"><ele>223.39999999999998</ele><time>2026-05-03T08:59:24.003Z</time></trkpt><trkpt lat="45.07480980567757" lon="8.329544924864647"><ele>221.2</ele><time>2026-05-03T08:59:26.003Z</time></trkpt><trkpt lat="45.07476678662601" lon="8.329670345508097"><ele>219.0</ele><time>2026-05-03T08:59:28.003Z</time></trkpt><trkpt lat="45.074755369576046" lon="8.329809604924996"><ele>217.39999999999998</ele><time>2026-05-03T08:59:29.998Z</time></trkpt><trkpt lat="45.074723268579085" lon="8.32994946778297"><ele>215.79999999999998</ele><time>2026-05-03T08:59:31.998Z</time></trkpt><trkpt lat="45.07467567223907" lon="8.330101732108485"><ele>214.2</ele><time>2026-05-03T08:59:33.998Z</time></trkpt><trkpt lat="45.074652445073866" lon="8.33019832804124"><ele>212.60000000000002</ele><time>2026-05-03T08:59:34.998Z</time></trkpt><trkpt lat="45.074626488678206" lon="8.330303128632213"><ele>211.0</ele><time>2026-05-03T08:59:35.998Z</time></trkpt><trkpt lat="45.07459548827429" lon="8.330419866271669"><ele>211.0</ele><time>2026-05-03T08:59:36.999Z</time></trkpt><trkpt lat="45.07456838921412" lon="8.330544962907776"><ele>211.0</ele><time>2026-05-03T08:59:37.999Z</time></trkpt><trkpt lat="45.07453227887178" lon="8.330667036641163"><ele>211.0</ele><time>2026-05-03T08:59:38.999Z</time></trkpt><trkpt lat="45.07449849908527" lon="8.330790140681144"><ele>211.0</ele><time>2026-05-03T08:59:39.999Z</time></trkpt><trkpt lat="45.074481506605515" lon="8.3309210179643"><ele>211.0</ele><time>2026-05-03T08:59:40.999Z</time></trkpt><trkpt lat="45.074472493512296" lon="8.33104892962908"><ele>210.4</ele><time>2026-05-03T08:59:41.999Z</time></trkpt><trkpt lat="45.07447854647573" lon="8.331183977739805"><ele>209.8</ele><time>2026-05-03T08:59:42.999Z</time></trkpt><trkpt lat="45.07448980264977" lon="8.33132334359603"><ele>209.20000000000002</ele><time>2026-05-03T08:59:43.999Z</time></trkpt><trkpt lat="45.074488869663426" lon="8.331471975986673"><ele>208.60000000000002</ele><time>2026-05-03T08:59:44.999Z</time></trkpt><trkpt lat="45.07448907951838" lon="8.331620525266421"><ele>208.0</ele><time>2026-05-03T08:59:45.999Z</time></trkpt><trkpt lat="45.07449598663008" lon="8.331751880784939"><ele>206.66666666666666</ele><time>2026-05-03T08:59:46.999Z</time></trkpt><trkpt lat="45.074512214875995" lon="8.331880340202511"><ele>205.33333333333331</ele><time>2026-05-03T08:59:47.999Z</time></trkpt><trkpt lat="45.07452344980499" lon="8.332003676619163"><ele>204.0</ele><time>2026-05-03T08:59:48.999Z</time></trkpt><trkpt lat="45.0745353628448" lon="8.332122917299232"><ele>202.66666666666669</ele><time>2026-05-03T08:59:49.999Z</time></trkpt><trkpt lat="45.074554010956305" lon="8.33223765533429"><ele>201.33333333333334</ele><time>2026-05-03T08:59:51Z</time></trkpt><trkpt lat="45.07455127644425" lon="8.332360527943562"><ele>200.0</ele><time>2026-05-03T08:59:52Z</time></trkpt><trkpt lat="45.074562058999355" lon="8.332479155340167"><ele>198.83333333333334</ele><time>2026-05-03T08:59:53Z</time></trkpt><trkpt lat="45.07457129705669" lon="8.332580790498493"><ele>197.66666666666669</ele><time>2026-05-03T08:59:54Z</time></trkpt><trkpt lat="45.074590389134734" lon="8.332735006547868"><ele>196.5</ele><time>2026-05-03T08:59:56Z</time></trkpt><trkpt lat="45.07460663577722" lon="8.332845865844712"><ele>195.33333333333331</ele><time>2026-05-03T08:59:58Z</time></trkpt><trkpt lat="45.074617172703846" lon="8.332953032592822"><ele>194.16666666666666</ele><time>2026-05-03T09:00:01Z</time></trkpt><trkpt lat="45.07462775143143" lon="8.333042838004902"><ele>193.0</ele><time>2026-05-03T09:00:05Z</time></trkpt><trkpt lat="45.07463656759765" lon="8.333164107278023"><ele>191.60000000000002</ele><time>2026-05-03T09:00:10.001Z</time></trkpt><trkpt lat="45.07464249018602" lon="8.33326218725927"><ele>190.20000000000002</ele><time>2026-05-03T09:00:13.001Z</time></trkpt><trkpt lat="45.07465612622991" lon="8.333407915288173"><ele>188.8</ele><time>2026-05-03T09:00:16.001Z</time></trkpt><trkpt lat="45.074649090887036" lon="8.333542052424027"><ele>187.4</ele><time>2026-05-03T09:00:18.001Z</time></trkpt><trkpt lat="45.07465504957614" lon="8.333711068877507"><ele>186.0</ele><time>2026-05-03T09:00:20.001Z</time></trkpt><trkpt lat="45.07465350199866" lon="8.333861414797108"><ele>184.83333333333334</ele><time>2026-05-03T09:00:22.001Z</time></trkpt><trkpt lat="45.07464739036878" lon="8.333957504033823"><ele>183.66666666666666</ele><time>2026-05-03T09:00:24.001Z</time></trkpt><trkpt lat="45.074633456823406" lon="8.334071242013016"><ele>182.5</ele><time>2026-05-03T09:00:26.001Z</time></trkpt><trkpt lat="45.074621754585095" lon="8.334187458255867"><ele>181.33333333333331</ele><time>2026-05-03T09:00:29.001Z</time></trkpt><trkpt lat="45.07461001089211" lon="8.334286739706174"><ele>180.16666666666666</ele><time>2026-05-03T09:00:31.001Z</time></trkpt><trkpt lat="45.07460831991847" lon="8.33442435895438"><ele>179.0</ele><time>2026-05-03T09:00:34.001Z</time></trkpt><trkpt lat="45.07459488881802" lon="8.334515722780088"><ele>179.0</ele><time>2026-05-03T09:00:36.001Z</time></trkpt><trkpt lat="45.074575589376266" lon="8.33461307927602"><ele>179.0</ele><time>2026-05-03T09:00:39.002Z</time></trkpt><trkpt lat="45.07453948762843" lon="8.334702086360506"><ele>179.0</ele><time>2026-05-03T09:00:43.002Z</time></trkpt><trkpt lat="45.074506685977646" lon="8.334788966844116"><ele>179.0</ele><time>2026-05-03T09:00:46.002Z</time></trkpt><trkpt lat="45.07446563507558" lon="8.334879827320362"><ele>179.0</ele><time>2026-05-03T09:00:49.002Z</time></trkpt><trkpt lat="45.07442474758985" lon="8.33497608962246"><ele>179.0</ele><time>2026-05-03T09:00:52.002Z</time></trkpt><trkpt lat="45.07438301785358" lon="8.335080464548524"><ele>178.66666666666666</ele><time>2026-05-03T09:00:55.002Z</time></trkpt><trkpt lat="45.074335089035614" lon="8.335181404466937"><ele>178.33333333333331</ele><time>2026-05-03T09:00:58.002Z</time></trkpt><trkpt lat="45.07429289080416" lon="8.335277103530359"><ele>178.0</ele><time>2026-05-03T09:01:01.002Z</time></trkpt><trkpt lat="45.07425875117378" lon="8.335367169387858"><ele>177.66666666666666</ele><time>2026-05-03T09:01:04.002Z</time></trkpt><trkpt lat="45.07422014874374" lon="8.335456759172166"><ele>177.33333333333334</ele><time>2026-05-03T09:01:07.002Z</time></trkpt><trkpt lat="45.074179845644785" lon="8.335555787158484"><ele>177.0</ele><time>2026-05-03T09:01:10.003Z</time></trkpt><trkpt lat="45.07412708866904" lon="8.335649551699003"><ele>177.66666666666666</ele><time>2026-05-03T09:01:13.003Z</time></trkpt><trkpt lat="45.07408018739719" lon="8.335749835936188"><ele>178.33333333333334</ele><time>2026-05-03T09:01:16.003Z</time></trkpt><trkpt lat="45.074047220893675" lon="8.335844593761408"><ele>179.0</ele><time>2026-05-03T09:01:19.003Z</time></trkpt><trkpt lat="45.0740000338858" lon="8.33594609323781"><ele>179.66666666666669</ele><time>2026-05-03T09:01:22.003Z</time></trkpt><trkpt lat="45.07395007614944" lon="8.336043653068769"><ele>180.33333333333334</ele><time>2026-05-03T09:01:25.003Z</time></trkpt><trkpt lat="45.073920380643024" lon="8.33612494576816"><ele>181.0</ele><time>2026-05-03T09:01:27.003Z</time></trkpt><trkpt lat="45.073889157591694" lon="8.33620522126077"><ele>181.0</ele><time>2026-05-03T09:01:29.003Z</time></trkpt><trkpt lat="45.073855945786136" lon="8.336281105083296"><ele>181.0</ele><time>2026-05-03T09:01:31.003Z</time></trkpt><trkpt lat="45.07381670427427" lon="8.336398968851473"><ele>181.0</ele><time>2026-05-03T09:01:34.003Z</time></trkpt><trkpt lat="45.07379281874021" lon="8.336520436005257"><ele>181.0</ele><time>2026-05-03T09:01:36.998Z</time></trkpt><trkpt lat="45.07378213451328" lon="8.33660920574321"><ele>181.0</ele><time>2026-05-03T09:01:38.998Z</time></trkpt><trkpt lat="45.07378202526529" lon="8.336735865786876"><ele>181.0</ele><time>2026-05-03T09:01:41.999Z</time></trkpt><trkpt lat="45.07380262634434" lon="8.336830361583369"><ele>181.57142857142856</ele><time>2026-05-03T09:01:43.999Z</time></trkpt><trkpt lat="45.07379762650666" lon="8.336924303154364"><ele>182.14285714285714</ele><time>2026-05-03T09:01:45.999Z</time></trkpt><trkpt lat="45.07378083586654" lon="8.3370203344379"><ele>182.71428571428572</ele><time>2026-05-03T09:01:47.999Z</time></trkpt><trkpt lat="45.073767441711304" lon="8.337133074368957"><ele>183.28571428571428</ele><time>2026-05-03T09:01:49.999Z</time></trkpt><trkpt lat="45.073748529091944" lon="8.337238033644432"><ele>183.85714285714286</ele><time>2026-05-03T09:01:51.999Z</time></trkpt><trkpt lat="45.07372586957757" lon="8.337329389595343"><ele>184.42857142857142</ele><time>2026-05-03T09:01:53.999Z</time></trkpt><trkpt lat="45.07369503551879" lon="8.337424311906226"><ele>185.0</ele><time>2026-05-03T09:01:56Z</time></trkpt><trkpt lat="45.07364585346991" lon="8.337525545722054"><ele>186.0</ele><time>2026-05-03T09:01:58Z</time></trkpt><trkpt lat="45.0735883478668" lon="8.33761727495234"><ele>187.0</ele><time>2026-05-03T09:02:00Z</time></trkpt><trkpt lat="45.07353011249776" lon="8.337713008182632"><ele>188.0</ele><time>2026-05-03T09:02:02Z</time></trkpt><trkpt lat="45.073470457428556" lon="8.337789912603682"><ele>189.0</ele><time>2026-05-03T09:02:04Z</time></trkpt><trkpt lat="45.07341193539878" lon="8.337859454719334"><ele>190.0</ele><time>2026-05-03T09:02:06Z</time></trkpt><trkpt lat="45.07336909674683" lon="8.337948947728322"><ele>191.0</ele><time>2026-05-03T09:02:08Z</time></trkpt><trkpt lat="45.07333506349586" lon="8.338041399916275"><ele>191.16666666666666</ele><time>2026-05-03T09:02:10Z</time></trkpt><trkpt lat="45.07330214874061" lon="8.338150074216845"><ele>191.33333333333331</ele><time>2026-05-03T09:02:12Z</time></trkpt><trkpt lat="45.07327988455784" lon="8.338271550464004"><ele>191.5</ele><time>2026-05-03T09:02:14Z</time></trkpt><trkpt lat="45.073258132425956" lon="8.338388094978786"><ele>191.66666666666666</ele><time>2026-05-03T09:02:16.001Z</time></trkpt><trkpt lat="45.07323120613496" lon="8.338496689740616"><ele>191.83333333333334</ele><time>2026-05-03T09:02:18.001Z</time></trkpt><trkpt lat="45.073208959482066" lon="8.338600761691877"><ele>192.0</ele><time>2026-05-03T09:02:20.001Z</time></trkpt><trkpt lat="45.07318136348566" lon="8.3387103138843"><ele>192.0</ele><time>2026-05-03T09:02:22.001Z</time></trkpt><trkpt lat="45.07315221993839" lon="8.338815949873176"><ele>192.0</ele><time>2026-05-03T09:02:24.001Z</time></trkpt><trkpt lat="45.07312246208726" lon="8.338918555705064"><ele>192.0</ele><time>2026-05-03T09:02:26.001Z</time></trkpt><trkpt lat="45.07308982058111" lon="8.339010928375014"><ele>192.0</ele><time>2026-05-03T09:02:28.001Z</time></trkpt><trkpt lat="45.07306651821151" lon="8.339119374107245"><ele>192.0</ele><time>2026-05-03T09:02:30.001Z</time></trkpt><trkpt lat="45.073037272883134" lon="8.339227242031514"><ele>192.0</ele><time>2026-05-03T09:02:32.001Z</time></trkpt><trkpt lat="45.07300536239171" lon="8.339310336508753"><ele>192.14285714285714</ele><time>2026-05-03T09:02:34.001Z</time></trkpt><trkpt lat="45.072971356459156" lon="8.339425538240969"><ele>192.28571428571428</ele><time>2026-05-03T09:02:37.001Z</time></trkpt><trkpt lat="45.07293245364775" lon="8.339518371887582"><ele>192.42857142857144</ele><time>2026-05-03T09:02:39.001Z</time></trkpt><trkpt lat="45.0729013130974" lon="8.339609262636868"><ele>192.57142857142856</ele><time>2026-05-03T09:02:41.001Z</time></trkpt><trkpt lat="45.0728678377761" lon="8.339697616376249"><ele>192.71428571428572</ele><time>2026-05-03T09:02:43.002Z</time></trkpt><trkpt lat="45.07282890441249" lon="8.339790960753149"><ele>192.85714285714286</ele><time>2026-05-03T09:02:45.002Z</time></trkpt><trkpt lat="45.07279146100115" lon="8.33986716992227"><ele>193.0</ele><time>2026-05-03T09:02:47.002Z</time></trkpt><trkpt lat="45.07275499936254" lon="8.339947186469963"><ele>194.00000000000003</ele><time>2026-05-03T09:02:49.002Z</time></trkpt><trkpt lat="45.072728582410925" lon="8.340035920587091"><ele>195.0</ele><time>2026-05-03T09:02:51.002Z</time></trkpt><trkpt lat="45.0726946572449" lon="8.340120014631793"><ele>196.0</ele><time>2026-05-03T09:02:53.002Z</time></trkpt><trkpt lat="45.07266831015424" lon="8.340207676960084"><ele>197.0</ele><time>2026-05-03T09:02:55.002Z</time></trkpt><trkpt lat="45.072656147655245" lon="8.340318675649089"><ele>198.0</ele><time>2026-05-03T09:02:57.002Z</time></trkpt><trkpt lat="45.072638621947476" lon="8.340415179166618"><ele>199.00000000000003</ele><time>2026-05-03T09:02:59.002Z</time></trkpt><trkpt lat="45.07261748855954" lon="8.340518612903665"><ele>200.0</ele><time>2026-05-03T09:03:01.002Z</time></trkpt><trkpt lat="45.07260310414363" lon="8.340609039366907"><ele>200.50000000000003</ele><time>2026-05-03T09:03:03.002Z</time></trkpt><trkpt lat="45.07258507281333" lon="8.340698451475197"><ele>201.0</ele><time>2026-05-03T09:03:05.002Z</time></trkpt><trkpt lat="45.072573610923975" lon="8.340821184125708"><ele>201.5</ele><time>2026-05-03T09:03:08.002Z</time></trkpt><trkpt lat="45.0725908470093" lon="8.340916878134356"><ele>202.0</ele><time>2026-05-03T09:03:13.002Z</time></trkpt><trkpt lat="45.07260685371081" lon="8.341004375369959"><ele>202.50000000000003</ele><time>2026-05-03T09:03:29.003Z</time></trkpt><trkpt lat="45.07262216058804" lon="8.341128509848973"><ele>203.0</ele><time>2026-05-03T09:03:32.003Z</time></trkpt><trkpt lat="45.07262588378224" lon="8.341250043435625"><ele>203.00000000000003</ele><time>2026-05-03T09:03:35.003Z</time></trkpt><trkpt lat="45.072637059760794" lon="8.341342564038419"><ele>203.0</ele><time>2026-05-03T09:03:37.003Z</time></trkpt><trkpt lat="45.07263425217846" lon="8.341461539561701"><ele>203.0</ele><time>2026-05-03T09:03:40.003Z</time></trkpt><trkpt lat="45.07262305348908" lon="8.34158305089524"><ele>203.0</ele><time>2026-05-03T09:03:42.998Z</time></trkpt><trkpt lat="45.07262350184838" lon="8.341706563600269"><ele>203.00000000000003</ele><time>2026-05-03T09:03:45.999Z</time></trkpt><trkpt lat="45.07263629723875" lon="8.34182578348118"><ele>203.0</ele><time>2026-05-03T09:03:48.999Z</time></trkpt><trkpt lat="45.07264820139475" lon="8.341947435577662"><ele>203.71428571428572</ele><time>2026-05-03T09:03:51.999Z</time></trkpt><trkpt lat="45.0726527426641" lon="8.342063517949429"><ele>204.42857142857144</ele><time>2026-05-03T09:03:54.999Z</time></trkpt><trkpt lat="45.0726480974577" lon="8.34218247123978"><ele>205.14285714285714</ele><time>2026-05-03T09:03:58.999Z</time></trkpt><trkpt lat="45.07266185395873" lon="8.342286567364381"><ele>205.85714285714286</ele><time>2026-05-03T09:04:02Z</time></trkpt><trkpt lat="45.072655945209206" lon="8.342378830580016"><ele>206.57142857142858</ele><time>2026-05-03T09:04:04Z</time></trkpt><trkpt lat="45.072658142063446" lon="8.342472585865888"><ele>207.28571428571428</ele><time>2026-05-03T09:04:06Z</time></trkpt><trkpt lat="45.072654992810044" lon="8.342577308207654"><ele>208.0</ele><time>2026-05-03T09:04:08Z</time></trkpt><trkpt lat="45.07265370042744" lon="8.3426885467719"><ele>208.57142857142856</ele><time>2026-05-03T09:04:10Z</time></trkpt><trkpt lat="45.07264853718345" lon="8.34278412663289"><ele>209.14285714285717</ele><time>2026-05-03T09:04:12Z</time></trkpt><trkpt lat="45.07265194793883" lon="8.342874096482252"><ele>209.71428571428572</ele><time>2026-05-03T09:04:14Z</time></trkpt><trkpt lat="45.07264096217528" lon="8.342971082210646"><ele>210.28571428571428</ele><time>2026-05-03T09:04:16Z</time></trkpt><trkpt lat="45.072644312422426" lon="8.34308620403702"><ele>210.85714285714283</ele><time>2026-05-03T09:04:19.001Z</time></trkpt><trkpt lat="45.07264123824801" lon="8.343209249962527"><ele>211.42857142857144</ele><time>2026-05-03T09:04:22.001Z</time></trkpt><trkpt lat="45.07262361094507" lon="8.343298142881752"><ele>212.0</ele><time>2026-05-03T09:04:24.001Z</time></trkpt><trkpt lat="45.072616603999194" lon="8.34339538979936"><ele>213.00000000000003</ele><time>2026-05-03T09:04:26.001Z</time></trkpt><trkpt lat="45.07260854144569" lon="8.343505056852866"><ele>214.0</ele><time>2026-05-03T09:04:28.001Z</time></trkpt><trkpt lat="45.072601987787856" lon="8.343622424203463"><ele>215.0</ele><time>2026-05-03T09:04:30.001Z</time></trkpt><trkpt lat="45.07260597080559" lon="8.343733520754418"><ele>216.0</ele><time>2026-05-03T09:04:32.001Z</time></trkpt><trkpt lat="45.07262730255462" lon="8.34385061048161"><ele>217.00000000000003</ele><time>2026-05-03T09:04:34.001Z</time></trkpt><trkpt lat="45.07265665443945" lon="8.343955617435551"><ele>218.0</ele><time>2026-05-03T09:04:36.001Z</time></trkpt><trkpt lat="45.07268405061278" lon="8.34405206520293"><ele>219.0</ele><time>2026-05-03T09:04:38.001Z</time></trkpt><trkpt lat="45.072720507422574" lon="8.344139151567825"><ele>220.0</ele><time>2026-05-03T09:04:40.001Z</time></trkpt><trkpt lat="45.072765277996254" lon="8.344233174976463"><ele>221.0</ele><time>2026-05-03T09:04:42.001Z</time></trkpt><trkpt lat="45.07280762659818" lon="8.344312374843499"><ele>222.0</ele><time>2026-05-03T09:04:44.001Z</time></trkpt><trkpt lat="45.07284531996639" lon="8.34440330321176"><ele>223.0</ele><time>2026-05-03T09:04:46.002Z</time></trkpt><trkpt lat="45.07287666139638" lon="8.34449417328213"><ele>224.00000000000003</ele><time>2026-05-03T09:04:48.002Z</time></trkpt><trkpt lat="45.07290507188054" lon="8.344587891429295"><ele>225.00000000000003</ele><time>2026-05-03T09:04:50.002Z</time></trkpt><trkpt lat="45.0729326688811" lon="8.344668842905444"><ele>226.14285714285717</ele><time>2026-05-03T09:04:52.002Z</time></trkpt><trkpt lat="45.07293782753472" lon="8.34475864216069"><ele>227.28571428571428</ele><time>2026-05-03T09:04:54.002Z</time></trkpt><trkpt lat="45.07292416778178" lon="8.344846737641143"><ele>228.42857142857144</ele><time>2026-05-03T09:04:56.002Z</time></trkpt><trkpt lat="45.0729143252194" lon="8.344951712282255"><ele>229.57142857142858</ele><time>2026-05-03T09:04:59.002Z</time></trkpt><trkpt lat="45.07289301710857" lon="8.345039579200625"><ele>230.71428571428572</ele><time>2026-05-03T09:05:02.002Z</time></trkpt><trkpt lat="45.072878803947674" lon="8.3451351732666"><ele>231.85714285714286</ele><time>2026-05-03T09:05:06.002Z</time></trkpt><trkpt lat="45.072868949683716" lon="8.345232082299514"><ele>233.0</ele><time>2026-05-03T09:07:38.003Z</time></trkpt><trkpt lat="45.07284174125709" lon="8.345331351663665"><ele>233.00000000000003</ele><time>2026-05-03T09:07:43.003Z</time></trkpt><trkpt lat="45.0728124133062" lon="8.345433059735491"><ele>233.0</ele><time>2026-05-03T09:07:47.003Z</time></trkpt><trkpt lat="45.07276760590528" lon="8.345527334791896"><ele>233.0</ele><time>2026-05-03T09:07:51.003Z</time></trkpt><trkpt lat="45.07273040314541" lon="8.345616144237583"><ele>233.0</ele><time>2026-05-03T09:07:54Z</time></trkpt><trkpt lat="45.07269530992615" lon="8.34571559554077"><ele>233.00000000000003</ele><time>2026-05-03T09:07:57Z</time></trkpt><trkpt lat="45.07264380722999" lon="8.3458055419425"><ele>233.0</ele><time>2026-05-03T09:08:00Z</time></trkpt><trkpt lat="45.072577390783024" lon="8.345859864873683"><ele>234.2</ele><time>2026-05-03T09:08:03Z</time></trkpt><trkpt lat="45.07250399334425" lon="8.345924254554376"><ele>235.4</ele><time>2026-05-03T09:08:06Z</time></trkpt><trkpt lat="45.07243733732736" lon="8.345972685604593"><ele>236.59999999999997</ele><time>2026-05-03T09:08:08Z</time></trkpt><trkpt lat="45.07234629618015" lon="8.346034340132002"><ele>237.79999999999998</ele><time>2026-05-03T09:08:10Z</time></trkpt><trkpt lat="45.07224902638279" lon="8.346099791217183"><ele>239.0</ele><time>2026-05-03T09:08:12Z</time></trkpt><trkpt lat="45.07214340846079" lon="8.346168960373204"><ele>240.5</ele><time>2026-05-03T09:08:14Z</time></trkpt><trkpt lat="45.072036903595944" lon="8.346253927438434"><ele>242.0</ele><time>2026-05-03T09:08:16Z</time></trkpt><trkpt lat="45.07192354258891" lon="8.346334596138526"><ele>243.5</ele><time>2026-05-03T09:08:18Z</time></trkpt><trkpt lat="45.0718138194297" lon="8.346401318379783"><ele>245.0</ele><time>2026-05-03T09:08:20Z</time></trkpt><trkpt lat="45.071713852312854" lon="8.346451919628255"><ele>245.00000000000003</ele><time>2026-05-03T09:08:22Z</time></trkpt><trkpt lat="45.07162131807612" lon="8.346500211233185"><ele>245.0</ele><time>2026-05-03T09:08:24Z</time></trkpt><trkpt lat="45.071535280490274" lon="8.346542887510445"><ele>245.0</ele><time>2026-05-03T09:08:26.001Z</time></trkpt><trkpt lat="45.071467534053234" lon="8.346593718910006"><ele>245.0</ele><time>2026-05-03T09:08:28.001Z</time></trkpt><trkpt lat="45.071387756368026" lon="8.346656815725922"><ele>245.00000000000003</ele><time>2026-05-03T09:08:30.001Z</time></trkpt><trkpt lat="45.07132477734604" lon="8.346725424907168"><ele>245.0</ele><time>2026-05-03T09:08:32.001Z</time></trkpt><trkpt lat="45.07125120320429" lon="8.346772128795468"><ele>245.16666666666669</ele><time>2026-05-03T09:08:34.001Z</time></trkpt><trkpt lat="45.071193284675374" lon="8.346859913947425"><ele>245.33333333333334</ele><time>2026-05-03T09:08:36.001Z</time></trkpt><trkpt lat="45.071128011874436" lon="8.346929944685817"><ele>245.5</ele><time>2026-05-03T09:08:38.001Z</time></trkpt><trkpt lat="45.0710647375945" lon="8.346990855560728"><ele>245.66666666666669</ele><time>2026-05-03T09:08:40.001Z</time></trkpt><trkpt lat="45.071020935070955" lon="8.347066275071649"><ele>245.83333333333334</ele><time>2026-05-03T09:08:42.001Z</time></trkpt><trkpt lat="45.070976641116" lon="8.347162941288511"><ele>246.0</ele><time>2026-05-03T09:08:44.001Z</time></trkpt><trkpt lat="45.07093821044871" lon="8.347265327320262"><ele>246.0</ele><time>2026-05-03T09:08:46.001Z</time></trkpt><trkpt lat="45.070914201113624" lon="8.347366529224619"><ele>246.0</ele><time>2026-05-03T09:08:48.001Z</time></trkpt><trkpt lat="45.07089477081873" lon="8.347467103996449"><ele>246.0</ele><time>2026-05-03T09:08:50.001Z</time></trkpt><trkpt lat="45.07085966867225" lon="8.347575688357878"><ele>246.0</ele><time>2026-05-03T09:08:52.001Z</time></trkpt><trkpt lat="45.07083752561677" lon="8.347682967298242"><ele>246.0</ele><time>2026-05-03T09:08:54.001Z</time></trkpt><trkpt lat="45.07081500191137" lon="8.347792090412364"><ele>246.0</ele><time>2026-05-03T09:08:56.001Z</time></trkpt><trkpt lat="45.07079366043405" lon="8.347896926333467"><ele>244.83333333333334</ele><time>2026-05-03T09:08:58.001Z</time></trkpt><trkpt lat="45.07077012377613" lon="8.348013941873548"><ele>243.66666666666669</ele><time>2026-05-03T09:09:00.002Z</time></trkpt><trkpt lat="45.07074614812339" lon="8.34813948272897"><ele>242.5</ele><time>2026-05-03T09:09:02.002Z</time></trkpt><trkpt lat="45.07072247597283" lon="8.348267784152293"><ele>241.33333333333334</ele><time>2026-05-03T09:09:04.002Z</time></trkpt><trkpt lat="45.070700262158105" lon="8.348390401031297"><ele>240.16666666666669</ele><time>2026-05-03T09:09:06.002Z</time></trkpt><trkpt lat="45.07068614597649" lon="8.348492169945501"><ele>239.0</ele><time>2026-05-03T09:09:08.002Z</time></trkpt><trkpt lat="45.07066130130978" lon="8.348598216392423"><ele>239.00000000000003</ele><time>2026-05-03T09:09:11.002Z</time></trkpt><trkpt lat="45.0706284114902" lon="8.348726355554874"><ele>239.0</ele><time>2026-05-03T09:09:14.002Z</time></trkpt><trkpt lat="45.07058177235876" lon="8.348846047560196"><ele>239.0</ele><time>2026-05-03T09:09:17.002Z</time></trkpt><trkpt lat="45.07053652889587" lon="8.348934139698164"><ele>239.0</ele><time>2026-05-03T09:09:19.002Z</time></trkpt><trkpt lat="45.07048417534454" lon="8.349019850437212"><ele>239.00000000000003</ele><time>2026-05-03T09:09:21.002Z</time></trkpt><trkpt lat="45.07043068482378" lon="8.349100839930763"><ele>239.0</ele><time>2026-05-03T09:09:23.002Z</time></trkpt><trkpt lat="45.07037632867113" lon="8.349182203837078"><ele>240.16666666666669</ele><time>2026-05-03T09:09:25.002Z</time></trkpt><trkpt lat="45.07032580716181" lon="8.349257261614232"><ele>241.33333333333334</ele><time>2026-05-03T09:09:27.002Z</time></trkpt><trkpt lat="45.07027936636087" lon="8.349325050606469"><ele>242.5</ele><time>2026-05-03T09:09:29.002Z</time></trkpt><trkpt lat="45.07021501324379" lon="8.349418985959248"><ele>243.66666666666669</ele><time>2026-05-03T09:09:32.002Z</time></trkpt><trkpt lat="45.07016952444582" lon="8.34948538532911"><ele>244.83333333333334</ele><time>2026-05-03T09:09:34.003Z</time></trkpt><trkpt lat="45.070118364564465" lon="8.349560062699778"><ele>246.0</ele><time>2026-05-03T09:09:36.003Z</time></trkpt><trkpt lat="45.070062125917964" lon="8.349644409443227"><ele>246.33333333333334</ele><time>2026-05-03T09:09:38.003Z</time></trkpt><trkpt lat="45.0700071749133" lon="8.349728319862127"><ele>246.66666666666669</ele><time>2026-05-03T09:09:40.003Z</time></trkpt><trkpt lat="45.069956552373334" lon="8.349812856710603"><ele>247.0</ele><time>2026-05-03T09:09:42.003Z</time></trkpt><trkpt lat="45.06990933912789" lon="8.349900727566004"><ele>247.33333333333334</ele><time>2026-05-03T09:09:44.003Z</time></trkpt><trkpt lat="45.06987016367448" lon="8.349996102319936"><ele>247.66666666666669</ele><time>2026-05-03T09:09:46.003Z</time></trkpt><trkpt lat="45.06983871621738" lon="8.350094315448539"><ele>248.0</ele><time>2026-05-03T09:09:48.003Z</time></trkpt><trkpt lat="45.06981190665595" lon="8.350201131699983"><ele>248.50000000000003</ele><time>2026-05-03T09:09:50.003Z</time></trkpt><trkpt lat="45.06978884130037" lon="8.350310962198858"><ele>249.0</ele><time>2026-05-03T09:09:52.003Z</time></trkpt><trkpt lat="45.069769372729006" lon="8.350423383684289"><ele>249.5</ele><time>2026-05-03T09:09:54.003Z</time></trkpt><trkpt lat="45.06975250148865" lon="8.350535280469385"><ele>250.0</ele><time>2026-05-03T09:09:56.003Z</time></trkpt><trkpt lat="45.069741960338156" lon="8.350631507832667"><ele>250.50000000000003</ele><time>2026-05-03T09:09:58.003Z</time></trkpt><trkpt lat="45.06973499977984" lon="8.350737781356981"><ele>251.0</ele><time>2026-05-03T09:09:59.999Z</time></trkpt><trkpt lat="45.069732200055185" lon="8.350856050302909"><ele>252.83333333333334</ele><time>2026-05-03T09:10:01.999Z</time></trkpt><trkpt lat="45.06974420410764" lon="8.350978104834775"><ele>254.66666666666669</ele><time>2026-05-03T09:10:03.999Z</time></trkpt><trkpt lat="45.06974203807861" lon="8.351095227464526"><ele>256.5</ele><time>2026-05-03T09:10:05.999Z</time></trkpt><trkpt lat="45.0697389081373" lon="8.351202318877883"><ele>258.3333333333333</ele><time>2026-05-03T09:10:07.999Z</time></trkpt><trkpt lat="45.069744517294886" lon="8.351323086440479"><ele>260.16666666666663</ele><time>2026-05-03T09:10:10.999Z</time></trkpt><trkpt lat="45.069752143976075" lon="8.351423270131562"><ele>262.0</ele><time>2026-05-03T09:10:13.999Z</time></trkpt><trkpt lat="45.069764076816085" lon="8.351535757936379"><ele>262.0</ele><time>2026-05-03T09:10:16.999Z</time></trkpt><trkpt lat="45.06978556151882" lon="8.35166416886636"><ele>262.0</ele><time>2026-05-03T09:10:20Z</time></trkpt><trkpt lat="45.069817480139235" lon="8.35177048410002"><ele>262.0</ele><time>2026-05-03T09:10:23Z</time></trkpt><trkpt lat="45.069664588243626" lon="8.351780009093686"><ele>262.0</ele><time>2026-05-03T09:10:29Z</time></trkpt><trkpt lat="45.069594416077116" lon="8.351749756567294"><ele>262.0</ele><time>2026-05-03T09:10:32Z</time></trkpt><trkpt lat="45.06952182189931" lon="8.351714752522021"><ele>262.0</ele><time>2026-05-03T09:10:35Z</time></trkpt><trkpt lat="45.069452510538255" lon="8.351681875494766"><ele>262.0</ele><time>2026-05-03T09:10:38Z</time></trkpt><trkpt lat="45.069385795004266" lon="8.351650405015405"><ele>262.0</ele><time>2026-05-03T09:10:41.001Z</time></trkpt><trkpt lat="45.06930665410978" lon="8.351615994376745"><ele>262.0</ele><time>2026-05-03T09:10:44.001Z</time></trkpt><trkpt lat="45.06923026694631" lon="8.351583075077304"><ele>262.0</ele><time>2026-05-03T09:10:47.001Z</time></trkpt><trkpt lat="45.069160131498734" lon="8.351546105965186"><ele>262.0</ele><time>2026-05-03T09:10:50.001Z</time></trkpt><trkpt lat="45.0690878843201" lon="8.35149876312598"><ele>262.16666666666663</ele><time>2026-05-03T09:10:53.001Z</time></trkpt><trkpt lat="45.06900681051892" lon="8.351444370455104"><ele>262.3333333333333</ele><time>2026-05-03T09:10:56.001Z</time></trkpt><trkpt lat="45.068932952448726" lon="8.35139798122162"><ele>262.5</ele><time>2026-05-03T09:10:59.001Z</time></trkpt><trkpt lat="45.06886411389949" lon="8.351348436632042"><ele>262.6666666666667</ele><time>2026-05-03T09:11:02.001Z</time></trkpt><trkpt lat="45.06878609487285" lon="8.351296677567246"><ele>262.83333333333337</ele><time>2026-05-03T09:11:05.001Z</time></trkpt><trkpt lat="45.06872463266468" lon="8.351267684749912"><ele>263.0</ele><time>2026-05-03T09:11:07.001Z</time></trkpt><trkpt lat="45.06865148732952" lon="8.351233309815674"><ele>263.0</ele><time>2026-05-03T09:11:10.001Z</time></trkpt><trkpt lat="45.0685750557263" lon="8.351207028756152"><ele>263.0</ele><time>2026-05-03T09:11:13.002Z</time></trkpt><trkpt lat="45.06850645808736" lon="8.351181940752783"><ele>263.0</ele><time>2026-05-03T09:11:16.002Z</time></trkpt><trkpt lat="45.068439701485104" lon="8.351157519969352"><ele>263.0</ele><time>2026-05-03T09:11:19.002Z</time></trkpt><trkpt lat="45.06837644996933" lon="8.351137744716226"><ele>263.0</ele><time>2026-05-03T09:11:22.002Z</time></trkpt><trkpt lat="45.068304405532004" lon="8.3511674940379"><ele>263.0</ele><time>2026-05-03T09:11:27.002Z</time></trkpt><trkpt lat="45.06825199868466" lon="8.351220544003725"><ele>263.0</ele><time>2026-05-03T09:11:30.002Z</time></trkpt><trkpt lat="45.06820144267183" lon="8.35129794844793"><ele>262.5</ele><time>2026-05-03T09:11:33.002Z</time></trkpt><trkpt lat="45.06814803811227" lon="8.351368074337469"><ele>262.0</ele><time>2026-05-03T09:11:36.002Z</time></trkpt><trkpt lat="45.06808158135649" lon="8.351459402805167"><ele>261.5</ele><time>2026-05-03T09:11:39.002Z</time></trkpt><trkpt lat="45.06802422469481" lon="8.351557319013894"><ele>261.0</ele><time>2026-05-03T09:11:42.002Z</time></trkpt><trkpt lat="45.06795448219902" lon="8.351651768351148"><ele>260.5</ele><time>2026-05-03T09:11:45.003Z</time></trkpt><trkpt lat="45.06790155761063" lon="8.351707437896888"><ele>260.0</ele><time>2026-05-03T09:11:47.003Z</time></trkpt><trkpt lat="45.06782552520227" lon="8.351787401025472"><ele>261.8571428571429</ele><time>2026-05-03T09:11:50.003Z</time></trkpt><trkpt lat="45.067770998232284" lon="8.351837364249938"><ele>263.7142857142857</ele><time>2026-05-03T09:11:52.003Z</time></trkpt><trkpt lat="45.06771573398795" lon="8.351896984458595"><ele>265.57142857142856</ele><time>2026-05-03T09:11:54.003Z</time></trkpt><trkpt lat="45.06765652696613" lon="8.351958740154522"><ele>267.42857142857144</ele><time>2026-05-03T09:11:56.003Z</time></trkpt><trkpt lat="45.067595167804264" lon="8.352022573738488"><ele>269.2857142857143</ele><time>2026-05-03T09:11:58.003Z</time></trkpt><trkpt lat="45.067529175449465" lon="8.352082876946577"><ele>271.14285714285717</ele><time>2026-05-03T09:12:00.003Z</time></trkpt><trkpt lat="45.06746032299231" lon="8.352134887521881"><ele>273.0</ele><time>2026-05-03T09:12:02.003Z</time></trkpt><trkpt lat="45.06738699871183" lon="8.352181645150448"><ele>273.1666666666667</ele><time>2026-05-03T09:12:04.003Z</time></trkpt><trkpt lat="45.06730620213762" lon="8.352208837327645"><ele>273.3333333333333</ele><time>2026-05-03T09:12:05.998Z</time></trkpt><trkpt lat="45.06721956461944" lon="8.352211071170542"><ele>273.5</ele><time>2026-05-03T09:12:07.998Z</time></trkpt><trkpt lat="45.06713773424421" lon="8.35220362871486"><ele>273.66666666666663</ele><time>2026-05-03T09:12:09.999Z</time></trkpt><trkpt lat="45.06707310220048" lon="8.352190403521021"><ele>273.8333333333333</ele><time>2026-05-03T09:12:11.999Z</time></trkpt><trkpt lat="45.06698622969027" lon="8.352153269284969"><ele>274.0</ele><time>2026-05-03T09:12:14.999Z</time></trkpt><trkpt lat="45.066915180386566" lon="8.35209615808194"><ele>274.0</ele><time>2026-05-03T09:12:17.999Z</time></trkpt><trkpt lat="45.06685479351557" lon="8.352043011161276"><ele>274.0</ele><time>2026-05-03T09:12:20.999Z</time></trkpt><trkpt lat="45.066808839023494" lon="8.35198089233669"><ele>274.0</ele><time>2026-05-03T09:12:22.999Z</time></trkpt><trkpt lat="45.06676083684064" lon="8.351897113171262"><ele>274.0</ele><time>2026-05-03T09:12:25Z</time></trkpt><trkpt lat="45.0666981640073" lon="8.351801756844466"><ele>274.0</ele><time>2026-05-03T09:12:27Z</time></trkpt><trkpt lat="45.066636564017266" lon="8.35170075304054"><ele>274.0</ele><time>2026-05-03T09:12:29Z</time></trkpt><trkpt lat="45.06656551948164" lon="8.351589741312686"><ele>274.0</ele><time>2026-05-03T09:12:31Z</time></trkpt><trkpt lat="45.066502718136576" lon="8.351483830223918"><ele>274.0</ele><time>2026-05-03T09:12:33Z</time></trkpt><trkpt lat="45.06642182185959" lon="8.351387852630209"><ele>274.0</ele><time>2026-05-03T09:12:35Z</time></trkpt><trkpt lat="45.066336518677346" lon="8.351354501195132"><ele>274.0</ele><time>2026-05-03T09:12:37Z</time></trkpt><trkpt lat="45.06625542605029" lon="8.35135029409951"><ele>274.0</ele><time>2026-05-03T09:12:39Z</time></trkpt><trkpt lat="45.066159041000276" lon="8.351361130540209"><ele>273.7142857142857</ele><time>2026-05-03T09:12:41Z</time></trkpt><trkpt lat="45.06606912496611" lon="8.351381056454398"><ele>273.42857142857144</ele><time>2026-05-03T09:12:43.001Z</time></trkpt><trkpt lat="45.06599585038045" lon="8.351406397700899"><ele>273.1428571428571</ele><time>2026-05-03T09:12:46.001Z</time></trkpt><trkpt lat="45.06593156213904" lon="8.351448539080911"><ele>272.8571428571429</ele><time>2026-05-03T09:13:22.002Z</time></trkpt><trkpt lat="45.065860059751" lon="8.351428826939053"><ele>272.57142857142856</ele><time>2026-05-03T09:13:27.002Z</time></trkpt><trkpt lat="45.065795617525474" lon="8.351408443650273"><ele>272.2857142857143</ele><time>2026-05-03T09:13:31.002Z</time></trkpt><trkpt lat="45.065725183966" lon="8.351391060719626"><ele>272.0</ele><time>2026-05-03T09:13:46.003Z</time></trkpt><trkpt lat="45.06567018196381" lon="8.351466800098553"><ele>273.5</ele><time>2026-05-03T09:13:49.003Z</time></trkpt><trkpt lat="45.06567390354833" lon="8.351599520334043"><ele>275.0</ele><time>2026-05-03T09:13:51.003Z</time></trkpt><trkpt lat="45.06567852360643" lon="8.351733519023853"><ele>276.5</ele><time>2026-05-03T09:13:53.003Z</time></trkpt><trkpt lat="45.06568421639099" lon="8.351868133139849"><ele>278.0</ele><time>2026-05-03T09:13:55.003Z</time></trkpt><trkpt lat="45.065682904146854" lon="8.35198389599201"><ele>279.5</ele><time>2026-05-03T09:13:57.003Z</time></trkpt><trkpt lat="45.065683601761656" lon="8.35207860126271"><ele>281.0</ele><time>2026-05-03T09:13:59.003Z</time></trkpt><trkpt lat="45.06568231069475" lon="8.35220581790993"><ele>278.0</ele><time>2026-05-03T09:14:01.003Z</time></trkpt><trkpt lat="45.065672620690655" lon="8.352345554548394"><ele>275.0</ele><time>2026-05-03T09:14:03.003Z</time></trkpt><trkpt lat="45.06565907015016" lon="8.352491823063863"><ele>272.0</ele><time>2026-05-03T09:14:05.003Z</time></trkpt><trkpt lat="45.06565630188938" lon="8.352677461177343"><ele>269.0</ele><time>2026-05-03T09:14:07.003Z</time></trkpt><trkpt lat="45.06564963435146" lon="8.352835991880694"><ele>266.0</ele><time>2026-05-03T09:14:09.003Z</time></trkpt><trkpt lat="45.06564716838643" lon="8.352977931711226"><ele>263.6666666666667</ele><time>2026-05-03T09:14:11.003Z</time></trkpt><trkpt lat="45.06564266396612" lon="8.353113425664686"><ele>261.33333333333337</ele><time>2026-05-03T09:14:12.999Z</time></trkpt><trkpt lat="45.065644691939646" lon="8.35323988451386"><ele>259.0</ele><time>2026-05-03T09:14:14.999Z</time></trkpt><trkpt lat="45.065646200728224" lon="8.353337579065144"><ele>256.6666666666667</ele><time>2026-05-03T09:14:16.999Z</time></trkpt><trkpt lat="45.06565891307368" lon="8.353450526894546"><ele>254.33333333333334</ele><time>2026-05-03T09:14:18.999Z</time></trkpt><trkpt lat="45.06565265440329" lon="8.35361139856822"><ele>252.0</ele><time>2026-05-03T09:14:20.999Z</time></trkpt><trkpt lat="45.06564956556204" lon="8.353767281269034"><ele>250.33333333333334</ele><time>2026-05-03T09:14:22.999Z</time></trkpt><trkpt lat="45.065650717844385" lon="8.353889376793951"><ele>248.66666666666669</ele><time>2026-05-03T09:14:24.999Z</time></trkpt><trkpt lat="45.06564584970527" lon="8.354007236777669"><ele>247.0</ele><time>2026-05-03T09:14:27Z</time></trkpt><trkpt lat="45.06564433819194" lon="8.354124172500182"><ele>245.33333333333334</ele><time>2026-05-03T09:14:29Z</time></trkpt><trkpt lat="45.06564173323771" lon="8.354256963961292"><ele>243.66666666666669</ele><time>2026-05-03T09:14:31Z</time></trkpt><trkpt lat="45.06563966291665" lon="8.354403123322292"><ele>242.0</ele><time>2026-05-03T09:14:33Z</time></trkpt><trkpt lat="45.065636189471476" lon="8.354537644872051"><ele>242.00000000000003</ele><time>2026-05-03T09:14:35Z</time></trkpt><trkpt lat="45.06563532373265" lon="8.354675486101469"><ele>242.0</ele><time>2026-05-03T09:14:37Z</time></trkpt><trkpt lat="45.06563518071978" lon="8.35478766025234"><ele>242.0</ele><time>2026-05-03T09:14:39Z</time></trkpt><trkpt lat="45.065648050028315" lon="8.354887319638419"><ele>242.0</ele><time>2026-05-03T09:14:41Z</time></trkpt><trkpt lat="45.06564946252424" lon="8.35498677746071"><ele>242.00000000000003</ele><time>2026-05-03T09:14:43Z</time></trkpt><trkpt lat="45.06565611704943" lon="8.355101979106427"><ele>242.0</ele><time>2026-05-03T09:14:45Z</time></trkpt><trkpt lat="45.06566374374884" lon="8.35520599557276"><ele>241.0</ele><time>2026-05-03T09:14:47.001Z</time></trkpt><trkpt lat="45.06567743811505" lon="8.35535317901316"><ele>240.0</ele><time>2026-05-03T09:14:49.001Z</time></trkpt><trkpt lat="45.06568610222268" lon="8.355504929406452"><ele>239.0</ele><time>2026-05-03T09:14:51.001Z</time></trkpt><trkpt lat="45.0656970489643" lon="8.35566176156386"><ele>238.0</ele><time>2026-05-03T09:14:53.001Z</time></trkpt><trkpt lat="45.065709069286754" lon="8.355799773845293"><ele>237.0</ele><time>2026-05-03T09:14:55.001Z</time></trkpt><trkpt lat="45.06573159605451" lon="8.355946085488236"><ele>236.5</ele><time>2026-05-03T09:14:57.001Z</time></trkpt><trkpt lat="45.06572139145145" lon="8.356075306064998"><ele>236.0</ele><time>2026-05-03T09:14:59.001Z</time></trkpt><trkpt lat="45.065722859771924" lon="8.356171334871705"><ele>235.5</ele><time>2026-05-03T09:15:01.001Z</time></trkpt><trkpt lat="45.065746988742845" lon="8.356277889540287"><ele>235.0</ele><time>2026-05-03T09:15:04.001Z</time></trkpt><trkpt lat="45.065713779000845" lon="8.356371852527612"><ele>234.5</ele><time>2026-05-03T09:15:08.001Z</time></trkpt><trkpt lat="45.065636155553236" lon="8.356351055706993"><ele>234.0</ele><time>2026-05-03T09:15:11.001Z</time></trkpt><trkpt lat="45.065570508389015" lon="8.356352622998504"><ele>234.0</ele><time>2026-05-03T09:15:14.001Z</time></trkpt><trkpt lat="45.06550370208279" lon="8.356342369539123"><ele>234.0</ele><time>2026-05-03T09:15:17.002Z</time></trkpt><trkpt lat="45.0654335486416" lon="8.356308160896358"><ele>234.0</ele><time>2026-05-03T09:15:20.002Z</time></trkpt><trkpt lat="45.06536743631176" lon="8.35627105831596"><ele>234.0</ele><time>2026-05-03T09:15:23.002Z</time></trkpt><trkpt lat="45.06529329441947" lon="8.356237842130472"><ele>234.0</ele><time>2026-05-03T09:15:26.002Z</time></trkpt><trkpt lat="45.065202643484454" lon="8.356217650446878"><ele>234.0</ele><time>2026-05-03T09:15:29.002Z</time></trkpt><trkpt lat="45.06513099457763" lon="8.356222068964678"><ele>234.0</ele><time>2026-05-03T09:15:32.002Z</time></trkpt><trkpt lat="45.06509280088312" lon="8.35630558833629"><ele>234.0</ele><time>2026-05-03T09:15:35.002Z</time></trkpt><trkpt lat="45.06508835631412" lon="8.356401943626029"><ele>234.0</ele><time>2026-05-03T09:15:37.002Z</time></trkpt><trkpt lat="45.0650872586662" lon="8.3565299407982"><ele>234.0</ele><time>2026-05-03T09:15:40.002Z</time></trkpt><trkpt lat="45.065086568266494" lon="8.356625363618825"><ele>234.0</ele><time>2026-05-03T09:15:42.002Z</time></trkpt><trkpt lat="45.06508276290361" lon="8.35672118066098"><ele>234.0</ele><time>2026-05-03T09:15:44.002Z</time></trkpt><trkpt lat="45.065081157601355" lon="8.356843129597992"><ele>233.83333333333334</ele><time>2026-05-03T09:15:46.002Z</time></trkpt><trkpt lat="45.06507310784521" lon="8.356962837787425"><ele>233.66666666666669</ele><time>2026-05-03T09:15:48.003Z</time></trkpt><trkpt lat="45.06506770847096" lon="8.357075844031431"><ele>233.5</ele><time>2026-05-03T09:15:50.003Z</time></trkpt><trkpt lat="45.065061084447535" lon="8.35717966110491"><ele>233.33333333333334</ele><time>2026-05-03T09:15:52.003Z</time></trkpt><trkpt lat="45.06506232462863" lon="8.357279918035752"><ele>233.16666666666669</ele><time>2026-05-03T09:15:54.003Z</time></trkpt><trkpt lat="45.06505723012361" lon="8.357386786340843"><ele>233.0</ele><time>2026-05-03T09:15:56.003Z</time></trkpt><trkpt lat="45.06504623354032" lon="8.357487201328462"><ele>235.00000000000003</ele><time>2026-05-03T09:15:58.003Z</time></trkpt><trkpt lat="45.06503016538454" lon="8.357580758508114"><ele>237.0</ele><time>2026-05-03T09:16:00.003Z</time></trkpt><trkpt lat="45.06502146167092" lon="8.357709167151382"><ele>239.0</ele><time>2026-05-03T09:16:03.003Z</time></trkpt><trkpt lat="45.065015288286354" lon="8.357811200544514"><ele>241.0</ele><time>2026-05-03T09:16:05.003Z</time></trkpt><trkpt lat="45.065007688771104" lon="8.357955104198629"><ele>243.00000000000003</ele><time>2026-05-03T09:16:08.003Z</time></trkpt><trkpt lat="45.065006240786644" lon="8.35806594314192"><ele>245.0</ele><time>2026-05-03T09:16:10.003Z</time></trkpt><trkpt lat="45.06497828378038" lon="8.358167871581024"><ele>246.00000000000003</ele><time>2026-05-03T09:16:12.003Z</time></trkpt><trkpt lat="45.06495279793255" lon="8.35829082951898"><ele>247.0</ele><time>2026-05-03T09:16:14.003Z</time></trkpt><trkpt lat="45.064935366655725" lon="8.358409895625076"><ele>248.0</ele><time>2026-05-03T09:16:16.003Z</time></trkpt><trkpt lat="45.06494780069014" lon="8.358545657089211"><ele>249.0</ele><time>2026-05-03T09:16:17.999Z</time></trkpt><trkpt lat="45.064967931380764" lon="8.358667989318393"><ele>250.00000000000003</ele><time>2026-05-03T09:16:19.999Z</time></trkpt><trkpt lat="45.06497323343026" lon="8.358768571636714"><ele>251.0</ele><time>2026-05-03T09:16:21.999Z</time></trkpt><trkpt lat="45.064997631636494" lon="8.358899966854775"><ele>251.00000000000003</ele><time>2026-05-03T09:16:24.999Z</time></trkpt><trkpt lat="45.06502546434364" lon="8.359000523847191"><ele>251.0</ele><time>2026-05-03T09:16:26.999Z</time></trkpt><trkpt lat="45.06505096306771" lon="8.359103209834837"><ele>251.0</ele><time>2026-05-03T09:16:28.999Z</time></trkpt><trkpt lat="45.065075119211194" lon="8.35919850019787"><ele>251.0</ele><time>2026-05-03T09:16:31Z</time></trkpt><trkpt lat="45.06509597679017" lon="8.359303208893731"><ele>251.00000000000003</ele><time>2026-05-03T09:16:33Z</time></trkpt><trkpt lat="45.06514393226565" lon="8.359407352742117"><ele>251.0</ele><time>2026-05-03T09:16:35Z</time></trkpt><trkpt lat="45.06518142403094" lon="8.359518957784333"><ele>251.0</ele><time>2026-05-03T09:16:37Z</time></trkpt><trkpt lat="45.06523196206439" lon="8.359626321461864"><ele>251.00000000000003</ele><time>2026-05-03T09:16:39Z</time></trkpt><trkpt lat="45.0652872636756" lon="8.35972757145026"><ele>251.00000000000003</ele><time>2026-05-03T09:16:41Z</time></trkpt><trkpt lat="45.06533707338653" lon="8.359828313560559"><ele>251.0</ele><time>2026-05-03T09:16:43Z</time></trkpt><trkpt lat="45.06540094448279" lon="8.359947279694419"><ele>251.0</ele><time>2026-05-03T09:16:45Z</time></trkpt><trkpt lat="45.065449180891115" lon="8.360075212703482"><ele>251.16666666666669</ele><time>2026-05-03T09:16:47Z</time></trkpt><trkpt lat="45.06550020792932" lon="8.360187533323243"><ele>251.33333333333334</ele><time>2026-05-03T09:16:49Z</time></trkpt><trkpt lat="45.06551926364115" lon="8.36028017978611"><ele>251.5</ele><time>2026-05-03T09:16:51Z</time></trkpt><trkpt lat="45.065449679860556" lon="8.360350309314827"><ele>251.66666666666669</ele><time>2026-05-03T09:16:54.001Z</time></trkpt><trkpt lat="45.06537834420756" lon="8.360405352345355"><ele>251.83333333333334</ele><time>2026-05-03T09:16:57.001Z</time></trkpt><trkpt lat="45.065312035944395" lon="8.360443461218669"><ele>252.0</ele><time>2026-05-03T09:17:00.001Z</time></trkpt><trkpt lat="45.06523598651924" lon="8.360472270105717"><ele>252.0</ele><time>2026-05-03T09:17:03.001Z</time></trkpt><trkpt lat="45.06515258188162" lon="8.360504648185012"><ele>252.0</ele><time>2026-05-03T09:17:06.001Z</time></trkpt><trkpt lat="45.065067391131045" lon="8.360530146175051"><ele>252.0</ele><time>2026-05-03T09:17:09.001Z</time></trkpt><trkpt lat="45.06498090183676" lon="8.360536585179457"><ele>252.0</ele><time>2026-05-03T09:17:12.001Z</time></trkpt><trkpt lat="45.06490273516036" lon="8.360558006271162"><ele>252.0</ele><time>2026-05-03T09:17:15.001Z</time></trkpt><trkpt lat="45.06483845297713" lon="8.360569720662003"><ele>252.0</ele><time>2026-05-03T09:17:18.001Z</time></trkpt><trkpt lat="45.06475915705944" lon="8.360579803461002"><ele>251.16666666666666</ele><time>2026-05-03T09:17:43.002Z</time></trkpt><trkpt lat="45.0647050723137" lon="8.360639980853358"><ele>250.33333333333331</ele><time>2026-05-03T09:17:46.002Z</time></trkpt><trkpt lat="45.06463477934166" lon="8.360682053231825"><ele>249.5</ele><time>2026-05-03T09:17:48.002Z</time></trkpt><trkpt lat="45.06453841457934" lon="8.36072419124387"><ele>248.66666666666666</ele><time>2026-05-03T09:17:50.002Z</time></trkpt><trkpt lat="45.06444730139525" lon="8.360778371039185"><ele>247.83333333333331</ele><time>2026-05-03T09:17:52.002Z</time></trkpt><trkpt lat="45.06439059478882" lon="8.360838962546978"><ele>247.0</ele><time>2026-05-03T09:17:54.002Z</time></trkpt><trkpt lat="45.0643219196953" lon="8.360900541829599"><ele>246.99999999999997</ele><time>2026-05-03T09:17:56.003Z</time></trkpt><trkpt lat="45.06422624000999" lon="8.360906597250485"><ele>247.0</ele><time>2026-05-03T09:17:58.003Z</time></trkpt><trkpt lat="45.06410741300461" lon="8.360897229016025"><ele>247.0</ele><time>2026-05-03T09:18:00.003Z</time></trkpt><trkpt lat="45.06402915226509" lon="8.360900530635439"><ele>247.0</ele><time>2026-05-03T09:18:01.003Z</time></trkpt><trkpt lat="45.063951360607405" lon="8.360904453901803"><ele>246.99999999999997</ele><time>2026-05-03T09:18:02.003Z</time></trkpt><trkpt lat="45.063885474822605" lon="8.360885635064069"><ele>247.0</ele><time>2026-05-03T09:18:03.003Z</time></trkpt><trkpt lat="45.063822357183966" lon="8.360852960667895"><ele>248.0</ele><time>2026-05-03T09:18:04.003Z</time></trkpt><trkpt lat="45.06372143685188" lon="8.36079652854612"><ele>249.0</ele><time>2026-05-03T09:18:06.003Z</time></trkpt><trkpt lat="45.063646045559054" lon="8.360711605285069"><ele>250.0</ele><time>2026-05-03T09:18:08.003Z</time></trkpt><trkpt lat="45.063582780197706" lon="8.360624213745622"><ele>251.0</ele><time>2026-05-03T09:18:10.003Z</time></trkpt><trkpt lat="45.06350986236537" lon="8.360633961255283"><ele>252.0</ele><time>2026-05-03T09:18:12.003Z</time></trkpt><trkpt lat="45.06341744129611" lon="8.360735670409163"><ele>252.0</ele><time>2026-05-03T09:18:14.003Z</time></trkpt><trkpt lat="45.06335018351595" lon="8.360839975565298"><ele>252.0</ele><time>2026-05-03T09:18:16.003Z</time></trkpt><trkpt lat="45.06332823663152" lon="8.360927572621414"><ele>252.0</ele><time>2026-05-03T09:18:17.003Z</time></trkpt><trkpt lat="45.06328315931828" lon="8.36100186371952"><ele>252.0</ele><time>2026-05-03T09:18:18.003Z</time></trkpt><trkpt lat="45.0632411662735" lon="8.361072682283437"><ele>252.0</ele><time>2026-05-03T09:18:19.003Z</time></trkpt><trkpt lat="45.063177685947345" lon="8.361222173069836"><ele>252.0</ele><time>2026-05-03T09:18:21.003Z</time></trkpt><trkpt lat="45.063154421339945" lon="8.361305374462775"><ele>253.28571428571428</ele><time>2026-05-03T09:18:22.003Z</time></trkpt><trkpt lat="45.06313171607437" lon="8.3614027430385"><ele>254.57142857142856</ele><time>2026-05-03T09:18:23.003Z</time></trkpt><trkpt lat="45.06309615695258" lon="8.361483358474615"><ele>255.85714285714286</ele><time>2026-05-03T09:18:23.999Z</time></trkpt><trkpt lat="45.06306801058111" lon="8.361570386466202"><ele>257.1428571428571</ele><time>2026-05-03T09:18:24.999Z</time></trkpt><trkpt lat="45.06304751184638" lon="8.361657300567636"><ele>258.42857142857144</ele><time>2026-05-03T09:18:25.999Z</time></trkpt><trkpt lat="45.06303087264738" lon="8.361755069028932"><ele>259.7142857142857</ele><time>2026-05-03T09:18:26.999Z</time></trkpt><trkpt lat="45.063017078815015" lon="8.361851598588853"><ele>261.0</ele><time>2026-05-03T09:18:27.999Z</time></trkpt><trkpt lat="45.063006885399766" lon="8.3619566664142"><ele>261.0</ele><time>2026-05-03T09:18:28.999Z</time></trkpt><trkpt lat="45.06300033647078" lon="8.36205441048255"><ele>261.0</ele><time>2026-05-03T09:18:29.999Z</time></trkpt><trkpt lat="45.06298237912736" lon="8.36221009800108"><ele>261.0</ele><time>2026-05-03T09:18:31.999Z</time></trkpt><trkpt lat="45.06295944936721" lon="8.36238462738782"><ele>261.0</ele><time>2026-05-03T09:18:33.999Z</time></trkpt><trkpt lat="45.06294734664337" lon="8.362558333353897"><ele>261.0</ele><time>2026-05-03T09:18:36Z</time></trkpt><trkpt lat="45.062931566502066" lon="8.36273776428731"><ele>260.0</ele><time>2026-05-03T09:18:38Z</time></trkpt><trkpt lat="45.06293237112259" lon="8.362834317031648"><ele>259.0</ele><time>2026-05-03T09:18:39Z</time></trkpt><trkpt lat="45.062940855936866" lon="8.362939271785383"><ele>258.0</ele><time>2026-05-03T09:18:40Z</time></trkpt><trkpt lat="45.06294706605381" lon="8.363046585283504"><ele>257.0</ele><time>2026-05-03T09:18:41Z</time></trkpt><trkpt lat="45.06295601677309" lon="8.363154988498904"><ele>256.0</ele><time>2026-05-03T09:18:42Z</time></trkpt><trkpt lat="45.06296283341073" lon="8.363251913001095"><ele>255.0</ele><time>2026-05-03T09:18:43Z</time></trkpt><trkpt lat="45.06297439095757" lon="8.36335047081709"><ele>254.0</ele><time>2026-05-03T09:18:44Z</time></trkpt><trkpt lat="45.062978027454946" lon="8.363450771085919"><ele>253.50000000000003</ele><time>2026-05-03T09:18:45Z</time></trkpt><trkpt lat="45.06299151999842" lon="8.363619529810991"><ele>253.0</ele><time>2026-05-03T09:18:47Z</time></trkpt><trkpt lat="45.06299161778563" lon="8.363726651662832"><ele>252.5</ele><time>2026-05-03T09:18:48Z</time></trkpt><trkpt lat="45.062993358915776" lon="8.363839101287583"><ele>252.0</ele><time>2026-05-03T09:18:49Z</time></trkpt><trkpt lat="45.06299915294168" lon="8.363952610385608"><ele>251.50000000000003</ele><time>2026-05-03T09:18:50Z</time></trkpt><trkpt lat="45.06300121159519" lon="8.364068791432263"><ele>251.0</ele><time>2026-05-03T09:18:51Z</time></trkpt><trkpt lat="45.06300253980608" lon="8.364171691308124"><ele>251.00000000000003</ele><time>2026-05-03T09:18:52Z</time></trkpt><trkpt lat="45.063008901289656" lon="8.364284991859776"><ele>251.0</ele><time>2026-05-03T09:18:53Z</time></trkpt><trkpt lat="45.0630109025578" lon="8.364395864922704"><ele>251.0</ele><time>2026-05-03T09:18:54Z</time></trkpt><trkpt lat="45.063026104692995" lon="8.364498280079893"><ele>251.0</ele><time>2026-05-03T09:18:55Z</time></trkpt><trkpt lat="45.063038677233955" lon="8.364601441103286"><ele>251.00000000000003</ele><time>2026-05-03T09:18:56Z</time></trkpt><trkpt lat="45.0630599295767" lon="8.364704774459003"><ele>251.0</ele><time>2026-05-03T09:18:57Z</time></trkpt><trkpt lat="45.063087003383785" lon="8.364804117243644"><ele>250.99999999999997</ele><time>2026-05-03T09:18:58Z</time></trkpt><trkpt lat="45.06312583457928" lon="8.364894237841536"><ele>251.0</ele><time>2026-05-03T09:18:59.001Z</time></trkpt><trkpt lat="45.06315689175505" lon="8.364984667926615"><ele>250.99999999999997</ele><time>2026-05-03T09:19:00.001Z</time></trkpt><trkpt lat="45.063194760253744" lon="8.36507005509646"><ele>250.99999999999997</ele><time>2026-05-03T09:19:01.001Z</time></trkpt><trkpt lat="45.06323174565373" lon="8.36515331149613"><ele>251.0</ele><time>2026-05-03T09:19:02.001Z</time></trkpt><trkpt lat="45.063282557212055" lon="8.365229349342089"><ele>250.99999999999997</ele><time>2026-05-03T09:19:03.001Z</time></trkpt><trkpt lat="45.06332749682993" lon="8.365321042916984"><ele>250.99999999999997</ele><time>2026-05-03T09:19:04.001Z</time></trkpt><trkpt lat="45.06337492593465" lon="8.365411830480399"><ele>247.28571428571425</ele><time>2026-05-03T09:19:05.001Z</time></trkpt><trkpt lat="45.06342288712025" lon="8.365493175677585"><ele>243.57142857142856</ele><time>2026-05-03T09:19:06.001Z</time></trkpt><trkpt lat="45.0634697228108" lon="8.365571321696622"><ele>239.85714285714286</ele><time>2026-05-03T09:19:07.001Z</time></trkpt><trkpt lat="45.063510854768325" lon="8.36565774455364"><ele>236.14285714285714</ele><time>2026-05-03T09:19:08.001Z</time></trkpt><trkpt lat="45.06354516500616" lon="8.365745717054477"><ele>232.42857142857144</ele><time>2026-05-03T09:19:09.001Z</time></trkpt><trkpt lat="45.06355956071326" lon="8.365833853904562"><ele>228.71428571428575</ele><time>2026-05-03T09:19:10.001Z</time></trkpt><trkpt lat="45.06357258958096" lon="8.365921618944178"><ele>225.00000000000003</ele><time>2026-05-03T09:19:11.001Z</time></trkpt><trkpt lat="45.06357138501034" lon="8.36601533044606"><ele>224.66666666666666</ele><time>2026-05-03T09:19:12.001Z</time></trkpt><trkpt lat="45.06356996533663" lon="8.366109821796787"><ele>224.33333333333331</ele><time>2026-05-03T09:19:13.001Z</time></trkpt><trkpt lat="45.063562968635914" lon="8.366208160874388"><ele>224.0</ele><time>2026-05-03T09:19:14.001Z</time></trkpt><trkpt lat="45.06353508314877" lon="8.366294401278502"><ele>223.66666666666666</ele><time>2026-05-03T09:19:15.001Z</time></trkpt><trkpt lat="45.06349173537057" lon="8.366370761468842"><ele>223.33333333333331</ele><time>2026-05-03T09:19:16.001Z</time></trkpt><trkpt lat="45.063402729562455" lon="8.366474196764276"><ele>223.0</ele><time>2026-05-03T09:19:18.001Z</time></trkpt><trkpt lat="45.063292865943886" lon="8.366560328635783"><ele>226.60000000000002</ele><time>2026-05-03T09:19:20.001Z</time></trkpt><trkpt lat="45.063201225067935" lon="8.366637129749408"><ele>230.20000000000002</ele><time>2026-05-03T09:19:22.001Z</time></trkpt><trkpt lat="45.06311954120569" lon="8.36673654195809"><ele>233.8</ele><time>2026-05-03T09:19:24.001Z</time></trkpt><trkpt lat="45.06306065208442" lon="8.366837460017212"><ele>237.4</ele><time>2026-05-03T09:19:26.001Z</time></trkpt><trkpt lat="45.063021610038916" lon="8.366959496354037"><ele>241.0</ele><time>2026-05-03T09:19:28.001Z</time></trkpt><trkpt lat="45.0630078279535" lon="8.367070913114189"><ele>240.99999999999997</ele><time>2026-05-03T09:19:30.002Z</time></trkpt><trkpt lat="45.063020417466305" lon="8.367190025328046"><ele>241.0</ele><time>2026-05-03T09:19:33.002Z</time></trkpt><trkpt lat="45.06304856455015" lon="8.367299690063428"><ele>241.0</ele><time>2026-05-03T09:19:37.002Z</time></trkpt><trkpt lat="45.06306845942973" lon="8.3673962123488"><ele>241.0</ele><time>2026-05-03T09:19:40.002Z</time></trkpt><trkpt lat="45.06309323969568" lon="8.367491960697972"><ele>240.99999999999997</ele><time>2026-05-03T09:19:43.002Z</time></trkpt><trkpt lat="45.06313068459688" lon="8.367603378936229"><ele>241.0</ele><time>2026-05-03T09:19:46.002Z</time></trkpt><trkpt lat="45.063156518167794" lon="8.367687560488825"><ele>241.0</ele><time>2026-05-03T09:19:48.002Z</time></trkpt><trkpt lat="45.06320021579596" lon="8.367811333114101"><ele>241.00000000000003</ele><time>2026-05-03T09:19:51.002Z</time></trkpt><trkpt lat="45.0632291597158" lon="8.367892430180868"><ele>241.0</ele><time>2026-05-03T09:19:53.002Z</time></trkpt><trkpt lat="45.06325184883308" lon="8.367982421733366"><ele>241.0</ele><time>2026-05-03T09:19:55.002Z</time></trkpt><trkpt lat="45.06326746420396" lon="8.36807178221443"><ele>241.00000000000003</ele><time>2026-05-03T09:19:57.002Z</time></trkpt><trkpt lat="45.063271136293245" lon="8.36819070873101"><ele>241.0</ele><time>2026-05-03T09:20:00.002Z</time></trkpt><trkpt lat="45.06326754043482" lon="8.368279880128142"><ele>241.0</ele><time>2026-05-03T09:20:02.003Z</time></trkpt><trkpt lat="45.06322633657072" lon="8.368396166177007"><ele>240.99999999999997</ele><time>2026-05-03T09:20:05.003Z</time></trkpt><trkpt lat="45.063175277258466" lon="8.368494406173497"><ele>241.0</ele><time>2026-05-03T09:20:08.003Z</time></trkpt><trkpt lat="45.06314281263123" lon="8.368609615649863"><ele>241.0</ele><time>2026-05-03T09:20:11.003Z</time></trkpt><trkpt lat="45.0631682442024" lon="8.368705761847576"><ele>241.0</ele><time>2026-05-03T09:20:13.003Z</time></trkpt><trkpt lat="45.063240120205805" lon="8.368794956951575"><ele>240.99999999999997</ele><time>2026-05-03T09:20:15.003Z</time></trkpt><trkpt lat="45.063304691077725" lon="8.36890070373247"><ele>241.0</ele><time>2026-05-03T09:20:17.003Z</time></trkpt><trkpt lat="45.063368088829094" lon="8.369021004251655"><ele>237.4</ele><time>2026-05-03T09:20:19.003Z</time></trkpt><trkpt lat="45.0634496453409" lon="8.369138166728934"><ele>233.8</ele><time>2026-05-03T09:20:21.003Z</time></trkpt><trkpt lat="45.06351264285154" lon="8.369260313349754"><ele>230.20000000000002</ele><time>2026-05-03T09:20:23.003Z</time></trkpt><trkpt lat="45.063575310333256" lon="8.369402154812152"><ele>226.60000000000002</ele><time>2026-05-03T09:20:25.003Z</time></trkpt><trkpt lat="45.06360425609227" lon="8.36948218724561"><ele>223.0</ele><time>2026-05-03T09:20:26.003Z</time></trkpt><trkpt lat="45.06363125940431" lon="8.3696407336613"><ele>221.83333333333331</ele><time>2026-05-03T09:20:28.003Z</time></trkpt><trkpt lat="45.06366792713871" lon="8.369772893459944"><ele>220.66666666666666</ele><time>2026-05-03T09:20:29.999Z</time></trkpt><trkpt lat="45.06371212603377" lon="8.36988770004979"><ele>219.5</ele><time>2026-05-03T09:20:31.999Z</time></trkpt><trkpt lat="45.0637374479788" lon="8.370019067166416"><ele>218.33333333333331</ele><time>2026-05-03T09:20:36.999Z</time></trkpt><trkpt lat="45.063811357708076" lon="8.370038687808586"><ele>217.16666666666666</ele><time>2026-05-03T09:20:38.999Z</time></trkpt><trkpt lat="45.063874440465774" lon="8.370084870400246"><ele>216.0</ele><time>2026-05-03T09:20:41Z</time></trkpt><trkpt lat="45.063940638277636" lon="8.370134199150893"><ele>216.0</ele><time>2026-05-03T09:20:43Z</time></trkpt><trkpt lat="45.06397394243154" lon="8.370227385252017"><ele>216.0</ele><time>2026-05-03T09:20:45Z</time></trkpt><trkpt lat="45.06393789451126" lon="8.370312399627473"><ele>216.0</ele><time>2026-05-03T09:20:47Z</time></trkpt><trkpt lat="45.06366276742524" lon="8.37069139276877"><ele>214.33333333333334</ele><time>2026-05-03T09:20:48Z</time></trkpt><trkpt lat="45.06358865157771" lon="8.370738385564064"><ele>212.66666666666669</ele><time>2026-05-03T09:20:49Z</time></trkpt><trkpt lat="45.06351023356855" lon="8.370785831544064"><ele>211.0</ele><time>2026-05-03T09:20:50Z</time></trkpt><trkpt lat="45.063444072018704" lon="8.370840778017705"><ele>209.33333333333334</ele><time>2026-05-03T09:20:51Z</time></trkpt><trkpt lat="45.06338238589204" lon="8.370896945693097"><ele>207.66666666666669</ele><time>2026-05-03T09:20:52Z</time></trkpt><trkpt lat="45.06333099212918" lon="8.370969618822587"><ele>206.0</ele><time>2026-05-03T09:20:53Z</time></trkpt><trkpt lat="45.06329512210457" lon="8.371062300184699"><ele>205.99999999999997</ele><time>2026-05-03T09:20:54Z</time></trkpt><trkpt lat="45.06327997210818" lon="8.371161684552156"><ele>206.0</ele><time>2026-05-03T09:20:55Z</time></trkpt><trkpt lat="45.06327573026541" lon="8.371257177877064"><ele>206.0</ele><time>2026-05-03T09:20:56Z</time></trkpt><trkpt lat="45.063280740034955" lon="8.371348333743565"><ele>206.0</ele><time>2026-05-03T09:20:57Z</time></trkpt><trkpt lat="45.063309548086224" lon="8.371454524712444"><ele>206.0</ele><time>2026-05-03T09:20:58Z</time></trkpt><trkpt lat="45.06333760268619" lon="8.371563409108658"><ele>205.99999999999997</ele><time>2026-05-03T09:20:59Z</time></trkpt><trkpt lat="45.06337949118904" lon="8.371636786473116"><ele>206.0</ele><time>2026-05-03T09:21:00Z</time></trkpt><trkpt lat="45.06345069263682" lon="8.371765791424588"><ele>204.8</ele><time>2026-05-03T09:21:02Z</time></trkpt><trkpt lat="45.06354334015101" lon="8.371840774892103"><ele>203.60000000000002</ele><time>2026-05-03T09:21:04Z</time></trkpt><trkpt lat="45.06364780664345" lon="8.37179979959651"><ele>202.4</ele><time>2026-05-03T09:21:06.001Z</time></trkpt><trkpt lat="45.06373285049234" lon="8.37175829283048"><ele>201.2</ele><time>2026-05-03T09:21:08.001Z</time></trkpt><trkpt lat="45.063815128284475" lon="8.371738307960964"><ele>200.0</ele><time>2026-05-03T09:21:10.001Z</time></trkpt><trkpt lat="45.063898179945404" lon="8.371709212011195"><ele>200.00000000000003</ele><time>2026-05-03T09:21:12.001Z</time></trkpt><trkpt lat="45.06399348501694" lon="8.371714600518319"><ele>200.0</ele><time>2026-05-03T09:21:14.001Z</time></trkpt><trkpt lat="45.06404619663117" lon="8.371771188425287"><ele>200.0</ele><time>2026-05-03T09:21:15.001Z</time></trkpt><trkpt lat="45.064107300069836" lon="8.371831420163971"><ele>200.0</ele><time>2026-05-03T09:21:16.001Z</time></trkpt><trkpt lat="45.064172205449125" lon="8.371890829174687"><ele>200.00000000000003</ele><time>2026-05-03T09:21:17.001Z</time></trkpt><trkpt lat="45.06423673403211" lon="8.371948339519658"><ele>200.0</ele><time>2026-05-03T09:21:18.001Z</time></trkpt><trkpt lat="45.06431288858253" lon="8.371997436004492"><ele>198.50000000000003</ele><time>2026-05-03T09:21:19.001Z</time></trkpt><trkpt lat="45.06438812020406" lon="8.372040131473364"><ele>197.0</ele><time>2026-05-03T09:21:20.001Z</time></trkpt><trkpt lat="45.06446849730012" lon="8.372072323186604"><ele>195.5</ele><time>2026-05-03T09:21:21.001Z</time></trkpt><trkpt lat="45.06455222779519" lon="8.372109607344155"><ele>194.0</ele><time>2026-05-03T09:21:22.001Z</time></trkpt><trkpt lat="45.064642232096816" lon="8.372146002140674"><ele>192.5</ele><time>2026-05-03T09:21:23.001Z</time></trkpt><trkpt lat="45.064727928021775" lon="8.372183643189613"><ele>191.0</ele><time>2026-05-03T09:21:24.001Z</time></trkpt><trkpt lat="45.06481075692204" lon="8.372226809062905"><ele>189.20000000000002</ele><time>2026-05-03T09:21:25.001Z</time></trkpt><trkpt lat="45.064902663837756" lon="8.372262033938718"><ele>187.4</ele><time>2026-05-03T09:21:26.001Z</time></trkpt><trkpt lat="45.06499461786501" lon="8.372280551050968"><ele>185.6</ele><time>2026-05-03T09:21:27.001Z</time></trkpt><trkpt lat="45.06508712406948" lon="8.372286331766018"><ele>183.8</ele><time>2026-05-03T09:21:28.001Z</time></trkpt><trkpt lat="45.06517564230749" lon="8.372288634467852"><ele>182.0</ele><time>2026-05-03T09:21:29.001Z</time></trkpt><trkpt lat="45.06525706758695" lon="8.372287332975965"><ele>181.16666666666666</ele><time>2026-05-03T09:21:30.001Z</time></trkpt><trkpt lat="45.06532092538015" lon="8.372280485490801"><ele>180.33333333333331</ele><time>2026-05-03T09:21:31.001Z</time></trkpt><trkpt lat="45.0653835045241" lon="8.372267932675815"><ele>179.5</ele><time>2026-05-03T09:21:32.001Z</time></trkpt><trkpt lat="45.06548105990192" lon="8.372244097050068"><ele>178.66666666666666</ele><time>2026-05-03T09:21:34.001Z</time></trkpt><trkpt lat="45.06553182414053" lon="8.372323375585921"><ele>177.83333333333334</ele><time>2026-05-03T09:21:36.002Z</time></trkpt><trkpt lat="45.06551441710844" lon="8.372476203076747"><ele>177.0</ele><time>2026-05-03T09:21:38.002Z</time></trkpt><trkpt lat="45.065508968113015" lon="8.372608867871927"><ele>177.0</ele><time>2026-05-03T09:21:40.002Z</time></trkpt><trkpt lat="45.06551756750374" lon="8.372746181454694"><ele>177.0</ele><time>2026-05-03T09:21:42.002Z</time></trkpt><trkpt lat="45.065522927526175" lon="8.372878293885426"><ele>177.0</ele><time>2026-05-03T09:21:44.002Z</time></trkpt><trkpt lat="45.065523472817254" lon="8.373002258250523"><ele>177.0</ele><time>2026-05-03T09:21:46.002Z</time></trkpt><trkpt lat="45.06552521231462" lon="8.373130846170014"><ele>177.0</ele><time>2026-05-03T09:21:48.002Z</time></trkpt><trkpt lat="45.06553696521998" lon="8.373253074988943"><ele>177.16666666666666</ele><time>2026-05-03T09:21:50.002Z</time></trkpt><trkpt lat="45.0655732412414" lon="8.373360538874593"><ele>177.33333333333334</ele><time>2026-05-03T09:21:52.002Z</time></trkpt><trkpt lat="45.065653384988885" lon="8.373420557848675"><ele>177.5</ele><time>2026-05-03T09:21:54.002Z</time></trkpt><trkpt lat="45.06573322046602" lon="8.37344491870778"><ele>177.66666666666669</ele><time>2026-05-03T09:21:56.002Z</time></trkpt><trkpt lat="45.065806896303286" lon="8.373480343242507"><ele>177.83333333333334</ele><time>2026-05-03T09:21:58.002Z</time></trkpt><trkpt lat="45.065877089908255" lon="8.373551613381037"><ele>178.0</ele><time>2026-05-03T09:22:00.002Z</time></trkpt><trkpt lat="45.06593514515782" lon="8.373663954965757"><ele>178.2</ele><time>2026-05-03T09:22:02.002Z</time></trkpt><trkpt lat="45.0659816883043" lon="8.37377361964915"><ele>178.4</ele><time>2026-05-03T09:22:04.002Z</time></trkpt><trkpt lat="45.06603082174465" lon="8.373891661091788"><ele>178.6</ele><time>2026-05-03T09:22:06.002Z</time></trkpt><trkpt lat="45.06609200927847" lon="8.373993283353734"><ele>178.79999999999998</ele><time>2026-05-03T09:22:08.003Z</time></trkpt><trkpt lat="45.06613810621748" lon="8.374098878684366"><ele>179.0</ele><time>2026-05-03T09:22:10.003Z</time></trkpt><trkpt lat="45.06618390525557" lon="8.374224369553142"><ele>179.0</ele><time>2026-05-03T09:22:12.003Z</time></trkpt><trkpt lat="45.06623564304471" lon="8.374344872818032"><ele>179.0</ele><time>2026-05-03T09:22:14.003Z</time></trkpt><trkpt lat="45.06629468257376" lon="8.374471336493349"><ele>179.0</ele><time>2026-05-03T09:22:16.003Z</time></trkpt><trkpt lat="45.066350347890854" lon="8.374588874002272"><ele>179.0</ele><time>2026-05-03T09:22:18.003Z</time></trkpt><trkpt lat="45.06640382736144" lon="8.374707383634268"><ele>179.0</ele><time>2026-05-03T09:22:20.003Z</time></trkpt><trkpt lat="45.06645429300107" lon="8.374831007220312"><ele>180.0</ele><time>2026-05-03T09:22:22.003Z</time></trkpt><trkpt lat="45.06649279462384" lon="8.374921760932711"><ele>181.0</ele><time>2026-05-03T09:22:24.003Z</time></trkpt><trkpt lat="45.06653258182242" lon="8.37501509936448"><ele>182.0</ele><time>2026-05-03T09:22:27.003Z</time></trkpt><trkpt lat="45.06657080864741" lon="8.375096035480162"><ele>183.0</ele><time>2026-05-03T09:22:30.003Z</time></trkpt><trkpt lat="45.06660175566477" lon="8.37519537948979"><ele>184.0</ele><time>2026-05-03T09:22:32.003Z</time></trkpt><trkpt lat="45.066653675188796" lon="8.375313503252332"><ele>185.0</ele><time>2026-05-03T09:22:34.003Z</time></trkpt><trkpt lat="45.06670328310433" lon="8.375420837088917"><ele>183.0</ele><time>2026-05-03T09:22:35.999Z</time></trkpt><trkpt lat="45.066742243206036" lon="8.375522294034857"><ele>181.0</ele><time>2026-05-03T09:22:37.999Z</time></trkpt><trkpt lat="45.06678368189875" lon="8.375631588790574"><ele>179.0</ele><time>2026-05-03T09:22:39.999Z</time></trkpt><trkpt lat="45.066810044209284" lon="8.375744792746374"><ele>177.0</ele><time>2026-05-03T09:22:41.999Z</time></trkpt><trkpt lat="45.06686116434519" lon="8.375857014207684"><ele>175.0</ele><time>2026-05-03T09:22:43.999Z</time></trkpt><trkpt lat="45.06690976717899" lon="8.375978759296665"><ele>173.0</ele><time>2026-05-03T09:22:45.999Z</time></trkpt><trkpt lat="45.06694724953458" lon="8.376084710163578"><ele>173.0</ele><time>2026-05-03T09:22:48Z</time></trkpt><trkpt lat="45.06700389956334" lon="8.376170755818903"><ele>173.0</ele><time>2026-05-03T09:22:50Z</time></trkpt><trkpt lat="45.06710629570403" lon="8.37620704641747"><ele>173.0</ele><time>2026-05-03T09:22:52Z</time></trkpt><trkpt lat="45.0672075087731" lon="8.376204888700508"><ele>173.0</ele><time>2026-05-03T09:22:54Z</time></trkpt><trkpt lat="45.06729567252986" lon="8.376211679403747"><ele>173.0</ele><time>2026-05-03T09:22:56Z</time></trkpt><trkpt lat="45.067356116829565" lon="8.376278157072424"><ele>172.0</ele><time>2026-05-03T09:22:58Z</time></trkpt><trkpt lat="45.06738675067909" lon="8.376383473087923"><ele>171.0</ele><time>2026-05-03T09:23:00Z</time></trkpt><trkpt lat="45.06741436915745" lon="8.376500818265155"><ele>170.0</ele><time>2026-05-03T09:23:02Z</time></trkpt><trkpt lat="45.06742872260914" lon="8.37661608944363"><ele>169.0</ele><time>2026-05-03T09:23:04Z</time></trkpt><trkpt lat="45.06745620817373" lon="8.37674182503918"><ele>168.0</ele><time>2026-05-03T09:23:06Z</time></trkpt><trkpt lat="45.067474105804834" lon="8.376850763967212"><ele>167.0</ele><time>2026-05-03T09:23:08Z</time></trkpt><trkpt lat="45.06749587181841" lon="8.376952805337808"><ele>167.0</ele><time>2026-05-03T09:23:10Z</time></trkpt><trkpt lat="45.067486766910704" lon="8.377078036732689"><ele>167.0</ele><time>2026-05-03T09:23:12.001Z</time></trkpt><trkpt lat="45.067505622498345" lon="8.377201560613928"><ele>167.0</ele><time>2026-05-03T09:23:14.001Z</time></trkpt><trkpt lat="45.067523094567385" lon="8.377316020403715"><ele>167.0</ele><time>2026-05-03T09:23:16.001Z</time></trkpt><trkpt lat="45.067549910416055" lon="8.377420605011203"><ele>167.0</ele><time>2026-05-03T09:23:18.001Z</time></trkpt><trkpt lat="45.06756525444281" lon="8.377530645711289"><ele>167.0</ele><time>2026-05-03T09:23:20.001Z</time></trkpt><trkpt lat="45.06758175765228" lon="8.377644268484248"><ele>167.16666666666666</ele><time>2026-05-03T09:23:22.001Z</time></trkpt><trkpt lat="45.06759986334574" lon="8.377755062818432"><ele>167.33333333333331</ele><time>2026-05-03T09:23:24.001Z</time></trkpt><trkpt lat="45.06761925292575" lon="8.377872610606692"><ele>167.5</ele><time>2026-05-03T09:23:26.001Z</time></trkpt><trkpt lat="45.06763800665489" lon="8.377988018380234"><ele>167.66666666666666</ele><time>2026-05-03T09:23:28.001Z</time></trkpt><trkpt lat="45.067655003734295" lon="8.378114525301532"><ele>167.83333333333334</ele><time>2026-05-03T09:23:30.001Z</time></trkpt><trkpt lat="45.067664681785466" lon="8.378243560500986"><ele>168.0</ele><time>2026-05-03T09:23:32.001Z</time></trkpt><trkpt lat="45.067696854077965" lon="8.378364826482112"><ele>168.0</ele><time>2026-05-03T09:23:34.001Z</time></trkpt><trkpt lat="45.06771665293161" lon="8.378482488309226"><ele>168.0</ele><time>2026-05-03T09:23:36.001Z</time></trkpt><trkpt lat="45.067736374793846" lon="8.378595522426044"><ele>168.0</ele><time>2026-05-03T09:23:38.001Z</time></trkpt><trkpt lat="45.067739909244544" lon="8.378722880274378"><ele>168.0</ele><time>2026-05-03T09:23:40.001Z</time></trkpt><trkpt lat="45.06775233920256" lon="8.378839945771372"><ele>168.0</ele><time>2026-05-03T09:23:42.002Z</time></trkpt><trkpt lat="45.067763188851664" lon="8.378977636112916"><ele>168.0</ele><time>2026-05-03T09:23:44.002Z</time></trkpt><trkpt lat="45.06776312272309" lon="8.37910405791513"><ele>167.66666666666666</ele><time>2026-05-03T09:23:46.002Z</time></trkpt><trkpt lat="45.06775525698271" lon="8.379223034767547"><ele>167.33333333333334</ele><time>2026-05-03T09:23:48.002Z</time></trkpt><trkpt lat="45.06773891155456" lon="8.379340024253517"><ele>167.0</ele><time>2026-05-03T09:23:50.002Z</time></trkpt><trkpt lat="45.06771564096303" lon="8.379456704475878"><ele>166.66666666666669</ele><time>2026-05-03T09:23:52.002Z</time></trkpt><trkpt lat="45.067685110359626" lon="8.379561888008753"><ele>166.33333333333334</ele><time>2026-05-03T09:23:54.002Z</time></trkpt><trkpt lat="45.067644061414846" lon="8.37967594165517"><ele>166.0</ele><time>2026-05-03T09:23:56.002Z</time></trkpt><trkpt lat="45.067597328082336" lon="8.379783156957092"><ele>166.0</ele><time>2026-05-03T09:23:58.002Z</time></trkpt><trkpt lat="45.0675547209346" lon="8.37988440120865"><ele>166.0</ele><time>2026-05-03T09:24:00.002Z</time></trkpt><trkpt lat="45.06751125019826" lon="8.37998469196853"><ele>166.0</ele><time>2026-05-03T09:24:02.002Z</time></trkpt><trkpt lat="45.06746547757646" lon="8.380080056653124"><ele>166.0</ele><time>2026-05-03T09:24:04.002Z</time></trkpt><trkpt lat="45.0674179897089" lon="8.380170375595478"><ele>166.0</ele><time>2026-05-03T09:24:06.002Z</time></trkpt><trkpt lat="45.067361914890526" lon="8.380263396768571"><ele>166.0</ele><time>2026-05-03T09:24:08.002Z</time></trkpt><trkpt lat="45.06731174914374" lon="8.380360216453905"><ele>166.20000000000002</ele><time>2026-05-03T09:24:10.002Z</time></trkpt><trkpt lat="45.06724746156329" lon="8.380442436802626"><ele>166.4</ele><time>2026-05-03T09:24:12.002Z</time></trkpt><trkpt lat="45.067182788621594" lon="8.380525735929094"><ele>166.6</ele><time>2026-05-03T09:24:14.003Z</time></trkpt><trkpt lat="45.067101915896004" lon="8.380595746879713"><ele>166.8</ele><time>2026-05-03T09:24:16.003Z</time></trkpt><trkpt lat="45.067051948309434" lon="8.380699087988841"><ele>167.0</ele><time>2026-05-03T09:24:18.003Z</time></trkpt><trkpt lat="45.06699354821646" lon="8.380803188666325"><ele>167.0</ele><time>2026-05-03T09:24:20.003Z</time></trkpt><trkpt lat="45.066943446877445" lon="8.380897464050946"><ele>167.0</ele><time>2026-05-03T09:24:22.003Z</time></trkpt><trkpt lat="45.06689374360378" lon="8.381003692165448"><ele>167.0</ele><time>2026-05-03T09:24:24.003Z</time></trkpt><trkpt lat="45.06684650745442" lon="8.381109959975293"><ele>167.0</ele><time>2026-05-03T09:24:26.003Z</time></trkpt><trkpt lat="45.066778454456276" lon="8.381198006124695"><ele>167.0</ele><time>2026-05-03T09:24:28.003Z</time></trkpt><trkpt lat="45.06672069911944" lon="8.38129271099944"><ele>167.0</ele><time>2026-05-03T09:24:30.003Z</time></trkpt><trkpt lat="45.066659655252124" lon="8.38138672780478"><ele>167.0</ele><time>2026-05-03T09:24:32.003Z</time></trkpt><trkpt lat="45.06659652249294" lon="8.381479738824044"><ele>167.0</ele><time>2026-05-03T09:24:34.003Z</time></trkpt><trkpt lat="45.06653206129199" lon="8.381576776669705"><ele>167.0</ele><time>2026-05-03T09:24:36.003Z</time></trkpt><trkpt lat="45.066468917470665" lon="8.381671831380618"><ele>167.0</ele><time>2026-05-03T09:24:38.003Z</time></trkpt><trkpt lat="45.06642085294931" lon="8.381781542403012"><ele>167.0</ele><time>2026-05-03T09:24:40.003Z</time></trkpt><trkpt lat="45.066357557929955" lon="8.381880604192581"><ele>167.0</ele><time>2026-05-03T09:24:41.999Z</time></trkpt><trkpt lat="45.06629552360861" lon="8.38197977678703"><ele>167.0</ele><time>2026-05-03T09:24:43.999Z</time></trkpt><trkpt lat="45.06622886522567" lon="8.382077191512982"><ele>167.0</ele><time>2026-05-03T09:24:45.999Z</time></trkpt><trkpt lat="45.066172532629665" lon="8.382174801516427"><ele>167.0</ele><time>2026-05-03T09:24:47.999Z</time></trkpt><trkpt lat="45.066101558605496" lon="8.382262819518287"><ele>167.0</ele><time>2026-05-03T09:24:49.999Z</time></trkpt><trkpt lat="45.0660434777339" lon="8.382364096506384"><ele>166.42857142857142</ele><time>2026-05-03T09:24:51.999Z</time></trkpt><trkpt lat="45.0659912796184" lon="8.382455828445387"><ele>165.85714285714286</ele><time>2026-05-03T09:24:54Z</time></trkpt><trkpt lat="45.065942552260566" lon="8.382542274616634"><ele>165.28571428571428</ele><time>2026-05-03T09:24:56Z</time></trkpt><trkpt lat="45.065909131223634" lon="8.382637931687778"><ele>164.71428571428572</ele><time>2026-05-03T09:24:58Z</time></trkpt><trkpt lat="45.06587123286877" lon="8.382721815780505"><ele>164.14285714285714</ele><time>2026-05-03T09:25:00Z</time></trkpt><trkpt lat="45.065833854205096" lon="8.382800436224988"><ele>163.57142857142858</ele><time>2026-05-03T09:25:04Z</time></trkpt><trkpt lat="45.06578368677427" lon="8.382875315583357"><ele>163.0</ele><time>2026-05-03T09:25:07Z</time></trkpt><trkpt lat="45.06587000496248" lon="8.38297199299345"><ele>162.83333333333334</ele><time>2026-05-03T09:25:08Z</time></trkpt><trkpt lat="45.065947420722786" lon="8.38305613313744"><ele>162.66666666666669</ele><time>2026-05-03T09:25:10Z</time></trkpt><trkpt lat="45.066002497749935" lon="8.383142884770207"><ele>162.5</ele><time>2026-05-03T09:25:12Z</time></trkpt><trkpt lat="45.066066496364854" lon="8.383220411533044"><ele>162.33333333333334</ele><time>2026-05-03T09:25:14Z</time></trkpt><trkpt lat="45.06612262541519" lon="8.383296166144694"><ele>162.16666666666666</ele><time>2026-05-03T09:25:16Z</time></trkpt><trkpt lat="45.06618089242899" lon="8.38337669060593"><ele>162.0</ele><time>2026-05-03T09:25:18.001Z</time></trkpt><trkpt lat="45.06624228852282" lon="8.383466445164204"><ele>162.0</ele><time>2026-05-03T09:25:20.001Z</time></trkpt><trkpt lat="45.06630062418108" lon="8.383554259478329"><ele>162.0</ele><time>2026-05-03T09:25:22.001Z</time></trkpt><trkpt lat="45.06637018778811" lon="8.38363517411721"><ele>162.0</ele><time>2026-05-03T09:25:24.001Z</time></trkpt><trkpt lat="45.06643980733171" lon="8.383728202789506"><ele>162.0</ele><time>2026-05-03T09:25:26.001Z</time></trkpt><trkpt lat="45.066521915141266" lon="8.383799406906808"><ele>162.0</ele><time>2026-05-03T09:25:28.001Z</time></trkpt><trkpt lat="45.06660163190597" lon="8.383865080607185"><ele>162.0</ele><time>2026-05-03T09:25:30.001Z</time></trkpt><trkpt lat="45.066660186260556" lon="8.383906437798695"><ele>162.0</ele><time>2026-05-03T09:25:32.001Z</time></trkpt><trkpt lat="45.06673122651125" lon="8.38398687850467"><ele>162.0</ele><time>2026-05-03T09:25:36.001Z</time></trkpt><trkpt lat="45.066809950090544" lon="8.384025246951095"><ele>162.0</ele><time>2026-05-03T09:25:39.001Z</time></trkpt><trkpt lat="45.0668770076064" lon="8.384068873638146"><ele>162.0</ele><time>2026-05-03T09:25:42.001Z</time></trkpt><trkpt lat="45.06692981906395" lon="8.384136947235913"><ele>162.0</ele><time>2026-05-03T09:25:45.001Z</time></trkpt><trkpt lat="45.066990561179004" lon="8.38418862701693"><ele>162.0</ele><time>2026-05-03T09:25:48.002Z</time></trkpt><trkpt lat="45.067038520422955" lon="8.384260864383137"><ele>162.0</ele><time>2026-05-03T09:25:51.002Z</time></trkpt><trkpt lat="45.06708264501941" lon="8.384330894799835"><ele>162.0</ele><time>2026-05-03T09:25:54.002Z</time></trkpt><trkpt lat="45.06712205649493" lon="8.384411675617926"><ele>162.0</ele><time>2026-05-03T09:25:57.002Z</time></trkpt><trkpt lat="45.06715912933236" lon="8.384486738784977"><ele>162.0</ele><time>2026-05-03T09:26:00.002Z</time></trkpt><trkpt lat="45.06717734074603" lon="8.384585338448753"><ele>162.0</ele><time>2026-05-03T09:26:03.002Z</time></trkpt><trkpt lat="45.067192132504225" lon="8.384680734250011"><ele>162.0</ele><time>2026-05-03T09:26:06.002Z</time></trkpt><trkpt lat="45.067172147572265" lon="8.384771587624268"><ele>162.28571428571428</ele><time>2026-05-03T09:26:09.002Z</time></trkpt><trkpt lat="45.06717033213296" lon="8.384874358446435"><ele>162.57142857142856</ele><time>2026-05-03T09:26:12.002Z</time></trkpt><trkpt lat="45.067152562225324" lon="8.384964447213646"><ele>162.85714285714283</ele><time>2026-05-03T09:26:15.002Z</time></trkpt><trkpt lat="45.067122544814055" lon="8.385048830792357"><ele>163.14285714285714</ele><time>2026-05-03T09:26:18.002Z</time></trkpt><trkpt lat="45.067094051941496" lon="8.385135125938751"><ele>163.42857142857142</ele><time>2026-05-03T09:26:21.003Z</time></trkpt><trkpt lat="45.067079498486834" lon="8.385233487574991"><ele>163.7142857142857</ele><time>2026-05-03T09:26:24.003Z</time></trkpt><trkpt lat="45.067064882355076" lon="8.38532261910591"><ele>164.0</ele><time>2026-05-03T09:26:27.003Z</time></trkpt><trkpt lat="45.067046417963205" lon="8.385417519344706"><ele>164.85714285714283</ele><time>2026-05-03T09:26:30.003Z</time></trkpt><trkpt lat="45.067035893714255" lon="8.385517557439591"><ele>165.71428571428572</ele><time>2026-05-03T09:26:33.003Z</time></trkpt><trkpt lat="45.06704265266101" lon="8.385614491105926"><ele>166.57142857142856</ele><time>2026-05-03T09:26:36.003Z</time></trkpt><trkpt lat="45.067075559973226" lon="8.385721368255798"><ele>167.42857142857142</ele><time>2026-05-03T09:26:40.003Z</time></trkpt><trkpt lat="45.06713661762449" lon="8.385790059719255"><ele>168.28571428571428</ele><time>2026-05-03T09:26:44.003Z</time></trkpt><trkpt lat="45.06720549355428" lon="8.385789631293253"><ele>169.14285714285714</ele><time>2026-05-03T09:26:47.003Z</time></trkpt><trkpt lat="45.06726820669549" lon="8.385767907200298"><ele>170.0</ele><time>2026-05-03T09:26:49.999Z</time></trkpt><trkpt lat="45.067333095351074" lon="8.385761599001082"><ele>170.0</ele><time>2026-05-03T09:26:52.999Z</time></trkpt><trkpt lat="45.06740944120726" lon="8.385721639145656"><ele>170.0</ele><time>2026-05-03T09:26:56.999Z</time></trkpt><trkpt lat="45.06748563289493" lon="8.385681759984875"><ele>170.0</ele><time>2026-05-03T09:27:00.999Z</time></trkpt><trkpt lat="45.067545747960224" lon="8.385653243837416"><ele>170.0</ele><time>2026-05-03T09:27:04Z</time></trkpt><trkpt lat="45.06762225606665" lon="8.385630233711234"><ele>170.0</ele><time>2026-05-03T09:27:08Z</time></trkpt><trkpt lat="45.06768890042033" lon="8.38561940518936"><ele>170.0</ele><time>2026-05-03T09:27:11Z</time></trkpt><trkpt lat="45.06775890807103" lon="8.385599668849958"><ele>170.0</ele><time>2026-05-03T09:27:14Z</time></trkpt><trkpt lat="45.067818403653256" lon="8.385653738693819"><ele>171.85714285714286</ele><time>2026-05-03T09:27:17Z</time></trkpt><trkpt lat="45.067883785412334" lon="8.385695128084187"><ele>173.7142857142857</ele><time>2026-05-03T09:27:20Z</time></trkpt><trkpt lat="45.06794890634708" lon="8.385733230261385"><ele>175.57142857142856</ele><time>2026-05-03T09:27:23.001Z</time></trkpt><trkpt lat="45.06800014021931" lon="8.38579409219975"><ele>177.42857142857144</ele><time>2026-05-03T09:27:26.001Z</time></trkpt><trkpt lat="45.06805265525023" lon="8.385853529325287"><ele>179.28571428571428</ele><time>2026-05-03T09:27:29.001Z</time></trkpt><trkpt lat="45.06810334836397" lon="8.385950682983758"><ele>181.14285714285714</ele><time>2026-05-03T09:27:33.001Z</time></trkpt><trkpt lat="45.06817227642586" lon="8.386011820059256"><ele>183.0</ele><time>2026-05-03T09:27:37.001Z</time></trkpt><trkpt lat="45.06822223160483" lon="8.386100421531422"><ele>183.0</ele><time>2026-05-03T09:27:41.001Z</time></trkpt><trkpt lat="45.068271743544905" lon="8.386155876718227"><ele>183.0</ele><time>2026-05-03T09:27:44.001Z</time></trkpt><trkpt lat="45.06832648203524" lon="8.386207850157328"><ele>183.0</ele><time>2026-05-03T09:27:47.001Z</time></trkpt><trkpt lat="45.068401796446246" lon="8.386266201724789"><ele>183.0</ele><time>2026-05-03T09:27:51.001Z</time></trkpt><trkpt lat="45.06846152518784" lon="8.386305435306177"><ele>183.0</ele><time>2026-05-03T09:27:54.002Z</time></trkpt><trkpt lat="45.06853501085156" lon="8.386350084641926"><ele>183.0</ele><time>2026-05-03T09:27:58.002Z</time></trkpt><trkpt lat="45.06859502960314" lon="8.386381778875958"><ele>183.0</ele><time>2026-05-03T09:28:01.002Z</time></trkpt><trkpt lat="45.068658072196854" lon="8.38640680457931"><ele>185.0</ele><time>2026-05-03T09:28:04.002Z</time></trkpt><trkpt lat="45.06872382057777" lon="8.386436659518795"><ele>187.0</ele><time>2026-05-03T09:28:07.002Z</time></trkpt><trkpt lat="45.06878502109321" lon="8.386469068702056"><ele>189.0</ele><time>2026-05-03T09:28:10.002Z</time></trkpt><trkpt lat="45.06884610868596" lon="8.386506479897196"><ele>191.0</ele><time>2026-05-03T09:28:13.002Z</time></trkpt><trkpt lat="45.06890764710031" lon="8.386559159872451"><ele>193.0</ele><time>2026-05-03T09:28:17.002Z</time></trkpt><trkpt lat="45.06896698327582" lon="8.386625852997518"><ele>195.0</ele><time>2026-05-03T09:28:20.002Z</time></trkpt><trkpt lat="45.06904717641661" lon="8.386685679004206"><ele>197.0</ele><time>2026-05-03T09:28:23.002Z</time></trkpt><trkpt lat="45.06912301310691" lon="8.386753388128758"><ele>197.0</ele><time>2026-05-03T09:28:26.003Z</time></trkpt><trkpt lat="45.069179837041766" lon="8.386809833336521"><ele>197.0</ele><time>2026-05-03T09:28:28.003Z</time></trkpt><trkpt lat="45.069236473379206" lon="8.386862128071026"><ele>197.0</ele><time>2026-05-03T09:28:30.003Z</time></trkpt><trkpt lat="45.06929275147755" lon="8.386919620602603"><ele>197.0</ele><time>2026-05-03T09:28:32.003Z</time></trkpt><trkpt lat="45.06936484177926" lon="8.386975863147901"><ele>197.0</ele><time>2026-05-03T09:28:35.003Z</time></trkpt><trkpt lat="45.06942095647601" lon="8.387040434118788"><ele>197.0</ele><time>2026-05-03T09:28:38.003Z</time></trkpt><trkpt lat="45.06947027534166" lon="8.387096286081608"><ele>197.0</ele><time>2026-05-03T09:28:41.003Z</time></trkpt><trkpt lat="45.06951410891488" lon="8.387177081227966"><ele>198.50000000000003</ele><time>2026-05-03T09:28:45.003Z</time></trkpt><trkpt lat="45.06959610066005" lon="8.387247614295877"><ele>200.0</ele><time>2026-05-03T09:28:48.003Z</time></trkpt><trkpt lat="45.06966096661298" lon="8.38732533387222"><ele>201.5</ele><time>2026-05-03T09:28:51.003Z</time></trkpt><trkpt lat="45.06971754094376" lon="8.387388980438951"><ele>203.0</ele><time>2026-05-03T09:28:53.999Z</time></trkpt><trkpt lat="45.06976926746492" lon="8.38744136008324"><ele>204.50000000000003</ele><time>2026-05-03T09:28:56.999Z</time></trkpt><trkpt lat="45.06983227127841" lon="8.387491246158563"><ele>206.0</ele><time>2026-05-03T09:29:00.999Z</time></trkpt><trkpt lat="45.06989623888378" lon="8.387541791674876"><ele>206.0</ele><time>2026-05-03T09:29:05.999Z</time></trkpt><trkpt lat="45.069943692848874" lon="8.387622623416652"><ele>206.0</ele><time>2026-05-03T09:29:10Z</time></trkpt><trkpt lat="45.07049615182546" lon="8.387315389941993"><ele>206.00000000000003</ele><time>2026-05-03T09:29:28.001Z</time></trkpt><trkpt lat="45.07059161122947" lon="8.387296334412055"><ele>206.0</ele><time>2026-05-03T09:29:31.001Z</time></trkpt><trkpt lat="45.07065457232819" lon="8.38728500526757"><ele>206.0</ele><time>2026-05-03T09:29:33.001Z</time></trkpt><trkpt lat="45.07072919976522" lon="8.387284585782504"><ele>206.0</ele><time>2026-05-03T09:29:36.001Z</time></trkpt><trkpt lat="45.07080914338123" lon="8.387281909808916"><ele>206.00000000000003</ele><time>2026-05-03T09:29:39.001Z</time></trkpt><trkpt lat="45.070887777522266" lon="8.387287399313207"><ele>206.0</ele><time>2026-05-03T09:29:42.001Z</time></trkpt><trkpt lat="45.07095821813723" lon="8.387290429376911"><ele>206.42857142857142</ele><time>2026-05-03T09:29:45.001Z</time></trkpt><trkpt lat="45.071028191295085" lon="8.387293193300005"><ele>206.85714285714286</ele><time>2026-05-03T09:29:48.001Z</time></trkpt><trkpt lat="45.07110456291143" lon="8.387305774791978"><ele>207.28571428571428</ele><time>2026-05-03T09:29:51.001Z</time></trkpt><trkpt lat="45.071184459970844" lon="8.387317821378412"><ele>207.71428571428572</ele><time>2026-05-03T09:29:54.001Z</time></trkpt><trkpt lat="45.07125537985667" lon="8.387325803427313"><ele>208.14285714285714</ele><time>2026-05-03T09:29:57.002Z</time></trkpt><trkpt lat="45.07132211335822" lon="8.38733858621278"><ele>208.57142857142856</ele><time>2026-05-03T09:30:00.002Z</time></trkpt><trkpt lat="45.07139957680193" lon="8.387346277997514"><ele>209.0</ele><time>2026-05-03T09:30:03.002Z</time></trkpt><trkpt lat="45.07147059511985" lon="8.387349434199837"><ele>209.00000000000003</ele><time>2026-05-03T09:30:06.002Z</time></trkpt><trkpt lat="45.07154607537697" lon="8.387365764514234"><ele>209.0</ele><time>2026-05-03T09:30:09.002Z</time></trkpt><trkpt lat="45.07163067917838" lon="8.387373269149444"><ele>209.0</ele><time>2026-05-03T09:30:12.002Z</time></trkpt><trkpt lat="45.07170317748276" lon="8.387376600709032"><ele>209.0</ele><time>2026-05-03T09:30:15.002Z</time></trkpt><trkpt lat="45.071780093783616" lon="8.387416297037337"><ele>209.00000000000003</ele><time>2026-05-03T09:30:18.002Z</time></trkpt><trkpt lat="45.07186152795668" lon="8.387442833686556"><ele>209.0</ele><time>2026-05-03T09:30:21.002Z</time></trkpt><trkpt lat="45.07193860789162" lon="8.387475741895466"><ele>210.00000000000003</ele><time>2026-05-03T09:30:24.002Z</time></trkpt><trkpt lat="45.072011833953496" lon="8.387511328131735"><ele>211.0</ele><time>2026-05-03T09:30:27.002Z</time></trkpt><trkpt lat="45.07208906703182" lon="8.38754614781963"><ele>212.0</ele><time>2026-05-03T09:30:30.003Z</time></trkpt><trkpt lat="45.07215530585186" lon="8.387587926026164"><ele>213.0</ele><time>2026-05-03T09:30:33.003Z</time></trkpt><trkpt lat="45.07222765787571" lon="8.387629477016244"><ele>214.00000000000003</ele><time>2026-05-03T09:30:36.003Z</time></trkpt><trkpt lat="45.07230714242948" lon="8.387673315486875"><ele>215.0</ele><time>2026-05-03T09:30:39.003Z</time></trkpt><trkpt lat="45.07238277014411" lon="8.38772075586594"><ele>215.83333333333334</ele><time>2026-05-03T09:30:42.003Z</time></trkpt><trkpt lat="45.072461632780474" lon="8.387771628691162"><ele>216.66666666666669</ele><time>2026-05-03T09:30:45.003Z</time></trkpt><trkpt lat="45.072537805037605" lon="8.387813668146718"><ele>217.5</ele><time>2026-05-03T09:30:48.003Z</time></trkpt><trkpt lat="45.07261065446627" lon="8.387862520563612"><ele>218.33333333333331</ele><time>2026-05-03T09:30:51.003Z</time></trkpt><trkpt lat="45.07268055542007" lon="8.3879111365977"><ele>219.16666666666666</ele><time>2026-05-03T09:30:54.003Z</time></trkpt><trkpt lat="45.07274578863226" lon="8.38794896721025"><ele>220.0</ele><time>2026-05-03T09:30:57.003Z</time></trkpt><trkpt lat="45.072815427948775" lon="8.387990986270276"><ele>219.7142857142857</ele><time>2026-05-03T09:30:59.999Z</time></trkpt><trkpt lat="45.07288279767171" lon="8.388036523543855"><ele>219.42857142857142</ele><time>2026-05-03T09:31:02.999Z</time></trkpt><trkpt lat="45.072957441287414" lon="8.388093176992836"><ele>219.14285714285714</ele><time>2026-05-03T09:31:06.999Z</time></trkpt><trkpt lat="45.073019305519935" lon="8.388136099795386"><ele>218.85714285714283</ele><time>2026-05-03T09:31:09.999Z</time></trkpt><trkpt lat="45.07308088267416" lon="8.38818257630821"><ele>218.57142857142858</ele><time>2026-05-03T09:31:12.999Z</time></trkpt><trkpt lat="45.07313740556753" lon="8.388226742561246"><ele>218.28571428571428</ele><time>2026-05-03T09:31:16Z</time></trkpt><trkpt lat="45.073203540837355" lon="8.38828338877313"><ele>218.0</ele><time>2026-05-03T09:31:19Z</time></trkpt><trkpt lat="45.073257470197404" lon="8.388334891610391"><ele>220.16666666666669</ele><time>2026-05-03T09:31:22Z</time></trkpt><trkpt lat="45.073314282582075" lon="8.388396439007288"><ele>222.33333333333334</ele><time>2026-05-03T09:31:25Z</time></trkpt><trkpt lat="45.07337417421008" lon="8.388457160379799"><ele>224.5</ele><time>2026-05-03T09:31:28Z</time></trkpt><trkpt lat="45.07344319398112" lon="8.38854126640913"><ele>226.66666666666669</ele><time>2026-05-03T09:31:31Z</time></trkpt><trkpt lat="45.0735074940735" lon="8.388617088463324"><ele>228.83333333333334</ele><time>2026-05-03T09:31:33Z</time></trkpt><trkpt lat="45.07356831759981" lon="8.38867622970125"><ele>231.0</ele><time>2026-05-03T09:31:35Z</time></trkpt><trkpt lat="45.07361697422336" lon="8.388749151299617"><ele>231.0</ele><time>2026-05-03T09:31:37.001Z</time></trkpt><trkpt lat="45.073679429967434" lon="8.388793016144376"><ele>231.0</ele><time>2026-05-03T09:31:40.001Z</time></trkpt><trkpt lat="45.073756020437386" lon="8.388795494744748"><ele>231.0</ele><time>2026-05-03T09:31:43.001Z</time></trkpt><trkpt lat="45.07379690346291" lon="8.38871594948845"><ele>231.0</ele><time>2026-05-03T09:31:49.001Z</time></trkpt><trkpt lat="45.073866258568515" lon="8.388667665444054"><ele>231.0</ele><time>2026-05-03T09:32:02.001Z</time></trkpt><trkpt lat="45.07389761984433" lon="8.388562260673218"><ele>231.0</ele><time>2026-05-03T09:32:05.001Z</time></trkpt><trkpt lat="45.07393124156846" lon="8.388470453536883"><ele>231.0</ele><time>2026-05-03T09:32:08.002Z</time></trkpt><trkpt lat="45.07395724853863" lon="8.388381235356627"><ele>231.0</ele><time>2026-05-03T09:32:11.002Z</time></trkpt><trkpt lat="45.0739916346545" lon="8.388287707191433"><ele>231.0</ele><time>2026-05-03T09:32:14.002Z</time></trkpt><trkpt lat="45.07403280651878" lon="8.388182478438782"><ele>231.0</ele><time>2026-05-03T09:32:17.002Z</time></trkpt><trkpt lat="45.07406617126095" lon="8.38808567086095"><ele>231.0</ele><time>2026-05-03T09:32:20.002Z</time></trkpt><trkpt lat="45.07410936578481" lon="8.38799732127894"><ele>231.0</ele><time>2026-05-03T09:32:23.002Z</time></trkpt><trkpt lat="45.07417637146924" lon="8.387935895800657"><ele>231.0</ele><time>2026-05-03T09:32:26.002Z</time></trkpt><trkpt lat="45.074239726052205" lon="8.387900606997292"><ele>231.42857142857144</ele><time>2026-05-03T09:32:29.002Z</time></trkpt><trkpt lat="45.07431317391057" lon="8.387943976637326"><ele>231.85714285714286</ele><time>2026-05-03T09:32:31.002Z</time></trkpt><trkpt lat="45.07439388242748" lon="8.387972093021304"><ele>232.28571428571428</ele><time>2026-05-03T09:32:34.002Z</time></trkpt><trkpt lat="45.074456831113146" lon="8.387990664773845"><ele>232.71428571428572</ele><time>2026-05-03T09:32:36.002Z</time></trkpt><trkpt lat="45.0745185929936" lon="8.388013612870608"><ele>233.14285714285717</ele><time>2026-05-03T09:32:38.003Z</time></trkpt><trkpt lat="45.07458970221397" lon="8.388041543255238"><ele>233.57142857142858</ele><time>2026-05-03T09:32:40.003Z</time></trkpt><trkpt lat="45.07466353084022" lon="8.388084131490679"><ele>234.0</ele><time>2026-05-03T09:32:42.003Z</time></trkpt><trkpt lat="45.074736623275946" lon="8.388132147389607"><ele>235.0</ele><time>2026-05-03T09:32:44.003Z</time></trkpt><trkpt lat="45.07480842736686" lon="8.38817323150219"><ele>236.0</ele><time>2026-05-03T09:32:46.003Z</time></trkpt><trkpt lat="45.074884678552486" lon="8.388223781031524"><ele>237.0</ele><time>2026-05-03T09:32:48.003Z</time></trkpt><trkpt lat="45.07496786909147" lon="8.388243032893671"><ele>238.0</ele><time>2026-05-03T09:32:50.003Z</time></trkpt><trkpt lat="45.07506366021041" lon="8.38824809065865"><ele>239.0</ele><time>2026-05-03T09:32:52.003Z</time></trkpt><trkpt lat="45.07516422086688" lon="8.388242895828443"><ele>240.0</ele><time>2026-05-03T09:32:54.003Z</time></trkpt><trkpt lat="45.07526437604922" lon="8.388243326602765"><ele>242.2</ele><time>2026-05-03T09:32:56.003Z</time></trkpt><trkpt lat="45.07536336632873" lon="8.388250406560989"><ele>244.4</ele><time>2026-05-03T09:32:58.003Z</time></trkpt><trkpt lat="45.0754586140762" lon="8.388252004000805"><ele>246.60000000000002</ele><time>2026-05-03T09:33:00.003Z</time></trkpt><trkpt lat="45.07555674325203" lon="8.388250730328137"><ele>248.8</ele><time>2026-05-03T09:33:02.003Z</time></trkpt><trkpt lat="45.07565544105565" lon="8.388258228193559"><ele>251.0</ele><time>2026-05-03T09:33:04.003Z</time></trkpt><trkpt lat="45.07575735581878" lon="8.388252540237435"><ele>252.60000000000002</ele><time>2026-05-03T09:33:05.998Z</time></trkpt><trkpt lat="45.07585733704237" lon="8.38825959840797"><ele>254.20000000000002</ele><time>2026-05-03T09:33:07.999Z</time></trkpt><trkpt lat="45.0759558214803" lon="8.38824599929204"><ele>255.79999999999998</ele><time>2026-05-03T09:33:09.999Z</time></trkpt><trkpt lat="45.0760514383517" lon="8.388238899302001"><ele>257.4</ele><time>2026-05-03T09:33:11.999Z</time></trkpt><trkpt lat="45.0761440792989" lon="8.388236346398438"><ele>259.0</ele><time>2026-05-03T09:33:13.999Z</time></trkpt><trkpt lat="45.07623238589402" lon="8.388230523564305"><ele>259.0</ele><time>2026-05-03T09:33:15.999Z</time></trkpt><trkpt lat="45.07631736352071" lon="8.388230221767754"><ele>259.0</ele><time>2026-05-03T09:33:17.999Z</time></trkpt><trkpt lat="45.07640553881242" lon="8.388223629209838"><ele>259.0</ele><time>2026-05-03T09:33:19.999Z</time></trkpt><trkpt lat="45.07649309021245" lon="8.3882326841607"><ele>259.0</ele><time>2026-05-03T09:33:21.999Z</time></trkpt><trkpt lat="45.076580328254934" lon="8.38822019703105"><ele>259.0</ele><time>2026-05-03T09:33:24Z</time></trkpt><trkpt lat="45.07666919831977" lon="8.38817899901162"><ele>259.0</ele><time>2026-05-03T09:33:26Z</time></trkpt><trkpt lat="45.0767489206785" lon="8.388128568619935"><ele>259.16666666666663</ele><time>2026-05-03T09:33:28Z</time></trkpt><trkpt lat="45.07683089374559" lon="8.388069885838041"><ele>259.3333333333333</ele><time>2026-05-03T09:33:30Z</time></trkpt><trkpt lat="45.07691681131943" lon="8.388036721182303"><ele>259.5</ele><time>2026-05-03T09:33:32Z</time></trkpt><trkpt lat="45.076995694519645" lon="8.388003709405238"><ele>259.6666666666667</ele><time>2026-05-03T09:33:34Z</time></trkpt><trkpt lat="45.07707616758632" lon="8.387979157173845"><ele>259.83333333333337</ele><time>2026-05-03T09:33:36Z</time></trkpt><trkpt lat="45.077161349802815" lon="8.387997668558073"><ele>260.0</ele><time>2026-05-03T09:33:38Z</time></trkpt><trkpt lat="45.07723956814187" lon="8.388008047825718"><ele>260.00000000000006</ele><time>2026-05-03T09:33:40Z</time></trkpt><trkpt lat="45.077309990566675" lon="8.388049164707397"><ele>260.0</ele><time>2026-05-03T09:33:42Z</time></trkpt><trkpt lat="45.07737466772377" lon="8.388092531751363"><ele>260.0</ele><time>2026-05-03T09:33:44.001Z</time></trkpt><trkpt lat="45.077440033440176" lon="8.388094230770928"><ele>260.0</ele><time>2026-05-03T09:33:46.001Z</time></trkpt><trkpt lat="45.07751415145783" lon="8.388062475414175"><ele>260.0</ele><time>2026-05-03T09:33:48.001Z</time></trkpt><trkpt lat="45.07758301378666" lon="8.38803127425769"><ele>260.00000000000006</ele><time>2026-05-03T09:33:50.001Z</time></trkpt><trkpt lat="45.07764940967102" lon="8.38797826734538"><ele>260.0</ele><time>2026-05-03T09:33:52.001Z</time></trkpt><trkpt lat="45.07772158437351" lon="8.387958876213503"><ele>259.6666666666667</ele><time>2026-05-03T09:33:54.001Z</time></trkpt><trkpt lat="45.07778873652839" lon="8.387911081388673"><ele>259.33333333333337</ele><time>2026-05-03T09:34:38.002Z</time></trkpt><trkpt lat="45.07785334440071" lon="8.387815176463247"><ele>259.0</ele><time>2026-05-03T09:34:42.002Z</time></trkpt><trkpt lat="45.077899084895016" lon="8.387733418405755"><ele>258.6666666666667</ele><time>2026-05-03T09:34:45.002Z</time></trkpt><trkpt lat="45.07795187605579" lon="8.387666265353763"><ele>258.3333333333333</ele><time>2026-05-03T09:34:48.003Z</time></trkpt><trkpt lat="45.07800055592654" lon="8.387580903852813"><ele>258.0</ele><time>2026-05-03T09:34:51.003Z</time></trkpt><trkpt lat="45.07805746892339" lon="8.387486639828403"><ele>257.99999999999994</ele><time>2026-05-03T09:34:54.003Z</time></trkpt><trkpt lat="45.078122001638285" lon="8.387406717786318"><ele>258.0</ele><time>2026-05-03T09:34:58.003Z</time></trkpt><trkpt lat="45.07819008354837" lon="8.387448610733312"><ele>258.0</ele><time>2026-05-03T09:35:02.003Z</time></trkpt><trkpt lat="45.078255209808816" lon="8.387448362352513"><ele>258.0</ele><time>2026-05-03T09:36:23.002Z</time></trkpt><trkpt lat="45.07821075950092" lon="8.387373008823445"><ele>258.0</ele><time>2026-05-03T09:37:17.999Z</time></trkpt><trkpt lat="45.07826757583126" lon="8.387436811247536"><ele>257.99999999999994</ele><time>2026-05-03T09:39:06.003Z</time></trkpt><trkpt lat="45.07832494452759" lon="8.38748469557099"><ele>258.0</ele><time>2026-05-03T09:39:16.003Z</time></trkpt><trkpt lat="45.078378113732896" lon="8.387436254748229"><ele>258.0</ele><time>2026-05-03T09:39:24.001Z</time></trkpt><trkpt lat="45.0783687715137" lon="8.38757861271925"><ele>258.0</ele><time>2026-05-03T10:03:34.001Z</time></trkpt><trkpt lat="45.07834719641143" lon="8.38748364632598"><ele>258.0</ele><time>2026-05-03T10:05:44.001Z</time></trkpt><trkpt lat="45.07839123797006" lon="8.387564093690639"><ele>258.0</ele><time>2026-05-03T10:06:07.001Z</time></trkpt><trkpt lat="45.078338562220104" lon="8.387434603597402"><ele>258.0</ele><time>2026-05-03T10:06:37.002Z</time></trkpt><trkpt lat="45.078267415565314" lon="8.387456179731275"><ele>258.0</ele><time>2026-05-03T10:07:09Z</time></trkpt><trkpt lat="45.07819928458994" lon="8.387432645763047"><ele>257.99999999999994</ele><time>2026-05-03T10:07:17Z</time></trkpt><trkpt lat="45.07814703345245" lon="8.387487558294255"><ele>258.0</ele><time>2026-05-03T10:09:32Z</time></trkpt><trkpt lat="45.078080252323204" lon="8.387473263486743"><ele>258.0</ele><time>2026-05-03T10:09:53.001Z</time></trkpt><trkpt lat="45.07800587965216" lon="8.387537308552083"><ele>258.0</ele><time>2026-05-03T10:09:56.001Z</time></trkpt><trkpt lat="45.077955707665076" lon="8.387614488689897"><ele>258.0</ele><time>2026-05-03T10:09:59.001Z</time></trkpt><trkpt lat="45.077892228716046" lon="8.387685162444628"><ele>257.99999999999994</ele><time>2026-05-03T10:10:02.001Z</time></trkpt><trkpt lat="45.07785133295795" lon="8.387767037808283"><ele>258.0</ele><time>2026-05-03T10:10:05.001Z</time></trkpt><trkpt lat="45.07778991317761" lon="8.387834149295797"><ele>258.0</ele><time>2026-05-03T10:10:09.001Z</time></trkpt><trkpt lat="45.07772880499606" lon="8.387918278482333"><ele>258.0</ele><time>2026-05-03T10:10:12.001Z</time></trkpt><trkpt lat="45.07765164319651" lon="8.387954270887485"><ele>258.0</ele><time>2026-05-03T10:10:14.001Z</time></trkpt><trkpt lat="45.07758504534314" lon="8.387995094216928"><ele>258.0</ele><time>2026-05-03T10:10:16.001Z</time></trkpt><trkpt lat="45.07753473097885" lon="8.38805163094756"><ele>258.0</ele><time>2026-05-03T10:10:17.001Z</time></trkpt><trkpt lat="45.07741489987081" lon="8.388079337823545"><ele>258.0</ele><time>2026-05-03T10:10:19.001Z</time></trkpt><trkpt lat="45.07734981239052" lon="8.388061624225797"><ele>258.3333333333333</ele><time>2026-05-03T10:10:20.001Z</time></trkpt><trkpt lat="45.07728340493585" lon="8.38802800983235"><ele>258.6666666666667</ele><time>2026-05-03T10:10:21.001Z</time></trkpt><trkpt lat="45.077217995543116" lon="8.387965151668475"><ele>259.0</ele><time>2026-05-03T10:10:22.001Z</time></trkpt><trkpt lat="45.07713977876998" lon="8.387964732432792"><ele>259.33333333333337</ele><time>2026-05-03T10:10:23.001Z</time></trkpt><trkpt lat="45.07705868804334" lon="8.387967836667064"><ele>259.6666666666667</ele><time>2026-05-03T10:10:24.001Z</time></trkpt><trkpt lat="45.076975980348166" lon="8.387974800688607"><ele>260.0</ele><time>2026-05-03T10:10:25.001Z</time></trkpt><trkpt lat="45.07688748960215" lon="8.38801700642319"><ele>260.0</ele><time>2026-05-03T10:10:26.001Z</time></trkpt><trkpt lat="45.07680890145406" lon="8.388081327081922"><ele>260.0</ele><time>2026-05-03T10:10:27.001Z</time></trkpt><trkpt lat="45.07672399617527" lon="8.388132010127539"><ele>260.0</ele><time>2026-05-03T10:10:28.001Z</time></trkpt><trkpt lat="45.076631675857016" lon="8.388157758206118"><ele>260.0</ele><time>2026-05-03T10:10:29.001Z</time></trkpt><trkpt lat="45.076542635183735" lon="8.388184710059228"><ele>260.0</ele><time>2026-05-03T10:10:30.001Z</time></trkpt><trkpt lat="45.076444068276125" lon="8.388191769055746"><ele>259.8</ele><time>2026-05-03T10:10:31.001Z</time></trkpt><trkpt lat="45.076345877100906" lon="8.388194985308914"><ele>259.6</ele><time>2026-05-03T10:10:32.001Z</time></trkpt><trkpt lat="45.07624123644563" lon="8.388197739543752"><ele>259.4</ele><time>2026-05-03T10:10:33.001Z</time></trkpt><trkpt lat="45.07613665812754" lon="8.388200492140212"><ele>259.2</ele><time>2026-05-03T10:10:34.001Z</time></trkpt><trkpt lat="45.07603308738261" lon="8.388225638423418"><ele>259.0</ele><time>2026-05-03T10:10:35.001Z</time></trkpt><trkpt lat="45.07592867233386" lon="8.388227012550066"><ele>259.0</ele><time>2026-05-03T10:10:36.002Z</time></trkpt><trkpt lat="45.0758227742308" lon="8.388222960255645"><ele>259.0</ele><time>2026-05-03T10:10:37.002Z</time></trkpt><trkpt lat="45.07572052604083" lon="8.388222573622409"><ele>259.0</ele><time>2026-05-03T10:10:38.002Z</time></trkpt><trkpt lat="45.07562401493959" lon="8.38822156630584"><ele>259.0</ele><time>2026-05-03T10:10:39.002Z</time></trkpt><trkpt lat="45.07553349979775" lon="8.388220661642722"><ele>259.0</ele><time>2026-05-03T10:10:40.002Z</time></trkpt><trkpt lat="45.075441709319115" lon="8.388219990492068"><ele>257.66666666666663</ele><time>2026-05-03T10:10:41.002Z</time></trkpt><trkpt lat="45.07535853495484" lon="8.388221493923481"><ele>256.3333333333333</ele><time>2026-05-03T10:10:42.002Z</time></trkpt><trkpt lat="45.075281508302666" lon="8.3882209999728"><ele>255.0</ele><time>2026-05-03T10:10:43.002Z</time></trkpt><trkpt lat="45.07521439106387" lon="8.388223307206458"><ele>253.66666666666669</ele><time>2026-05-03T10:10:44.002Z</time></trkpt><trkpt lat="45.0751520680032" lon="8.388202334953268"><ele>252.33333333333334</ele><time>2026-05-03T10:10:45.002Z</time></trkpt><trkpt lat="45.07508950847556" lon="8.388218044550094"><ele>251.0</ele><time>2026-05-03T10:10:46.002Z</time></trkpt><trkpt lat="45.074988489271384" lon="8.388215644773862"><ele>249.16666666666669</ele><time>2026-05-03T10:10:48.002Z</time></trkpt><trkpt lat="45.07485266731379" lon="8.38816151762526"><ele>247.33333333333334</ele><time>2026-05-03T10:10:51.002Z</time></trkpt><trkpt lat="45.07474788562093" lon="8.388115719548399"><ele>245.5</ele><time>2026-05-03T10:10:53.002Z</time></trkpt><trkpt lat="45.0746925233096" lon="8.388073268760436"><ele>243.66666666666669</ele><time>2026-05-03T10:10:53.999Z</time></trkpt><trkpt lat="45.074633841427804" lon="8.38803905886158"><ele>241.83333333333334</ele><time>2026-05-03T10:10:54.999Z</time></trkpt><trkpt lat="45.07456662727975" lon="8.388013905954015"><ele>240.0</ele><time>2026-05-03T10:10:55.999Z</time></trkpt><trkpt lat="45.07450142612642" lon="8.387971114158129"><ele>239.0</ele><time>2026-05-03T10:10:56.999Z</time></trkpt><trkpt lat="45.07442881723713" lon="8.387945782208934"><ele>238.0</ele><time>2026-05-03T10:10:57.999Z</time></trkpt><trkpt lat="45.0743532292316" lon="8.387935483433363"><ele>237.0</ele><time>2026-05-03T10:10:58.999Z</time></trkpt><trkpt lat="45.07427317416711" lon="8.387926068722109"><ele>236.0</ele><time>2026-05-03T10:10:59.999Z</time></trkpt><trkpt lat="45.074194777899784" lon="8.38790054941756"><ele>235.0</ele><time>2026-05-03T10:11:00.999Z</time></trkpt><trkpt lat="45.074133194255005" lon="8.387951889610815"><ele>234.0</ele><time>2026-05-03T10:11:01.999Z</time></trkpt><trkpt lat="45.074071123008224" lon="8.387986053295762"><ele>233.5</ele><time>2026-05-03T10:11:02.999Z</time></trkpt><trkpt lat="45.074036787494975" lon="8.38808148129493"><ele>233.0</ele><time>2026-05-03T10:11:03.999Z</time></trkpt><trkpt lat="45.074006976143664" lon="8.38817505275704"><ele>232.5</ele><time>2026-05-03T10:11:04.999Z</time></trkpt><trkpt lat="45.07397570079549" lon="8.388270391974267"><ele>232.0</ele><time>2026-05-03T10:11:05.999Z</time></trkpt><trkpt lat="45.07394420081329" lon="8.3883683658884"><ele>231.5</ele><time>2026-05-03T10:11:06.999Z</time></trkpt><trkpt lat="45.07390385266448" lon="8.388467370932867"><ele>231.0</ele><time>2026-05-03T10:11:07.999Z</time></trkpt><trkpt lat="45.0738701506862" lon="8.388570168176084"><ele>231.0</ele><time>2026-05-03T10:11:08.999Z</time></trkpt><trkpt lat="45.07383934147985" lon="8.388653901708215"><ele>231.0</ele><time>2026-05-03T10:11:09.999Z</time></trkpt><trkpt lat="45.07379209289208" lon="8.388763813572169"><ele>231.0</ele><time>2026-05-03T10:11:11.999Z</time></trkpt><trkpt lat="45.07374509511812" lon="8.38883722437105"><ele>231.0</ele><time>2026-05-03T10:11:15Z</time></trkpt><trkpt lat="45.07352857829988" lon="8.388671808743165"><ele>231.0</ele><time>2026-05-03T10:11:22Z</time></trkpt><trkpt lat="45.0734722868442" lon="8.38858433856171"><ele>231.00000000000003</ele><time>2026-05-03T10:11:24Z</time></trkpt><trkpt lat="45.073418254719385" lon="8.38849491428664"><ele>231.00000000000003</ele><time>2026-05-03T10:11:26Z</time></trkpt><trkpt lat="45.073343890255124" lon="8.38841423796267"><ele>231.0</ele><time>2026-05-03T10:11:28Z</time></trkpt><trkpt lat="45.073251042718255" lon="8.388330501765296"><ele>231.0</ele><time>2026-05-03T10:11:30Z</time></trkpt><trkpt lat="45.07315459450308" lon="8.388256933960896"><ele>229.16666666666666</ele><time>2026-05-03T10:11:32Z</time></trkpt><trkpt lat="45.07305716029282" lon="8.388176031654655"><ele>227.33333333333331</ele><time>2026-05-03T10:11:34Z</time></trkpt><trkpt lat="45.07299764614335" lon="8.38814024463322"><ele>225.5</ele><time>2026-05-03T10:11:35Z</time></trkpt><trkpt lat="45.072934955353844" lon="8.388087350023204"><ele>223.66666666666666</ele><time>2026-05-03T10:11:36Z</time></trkpt><trkpt lat="45.07286440241186" lon="8.388038635548897"><ele>221.83333333333331</ele><time>2026-05-03T10:11:37Z</time></trkpt><trkpt lat="45.072787769802886" lon="8.387987408652178"><ele>220.0</ele><time>2026-05-03T10:11:38Z</time></trkpt><trkpt lat="45.072711296224185" lon="8.387930364647174"><ele>219.99999999999997</ele><time>2026-05-03T10:11:39Z</time></trkpt><trkpt lat="45.07263098464263" lon="8.387875901052507"><ele>220.0</ele><time>2026-05-03T10:11:40Z</time></trkpt><trkpt lat="45.07256053959924" lon="8.3877994141673"><ele>220.0</ele><time>2026-05-03T10:11:41Z</time></trkpt><trkpt lat="45.0724918764177" lon="8.38775502609237"><ele>220.0</ele><time>2026-05-03T10:11:42Z</time></trkpt><trkpt lat="45.07243020145924" lon="8.38770044634033"><ele>219.99999999999997</ele><time>2026-05-03T10:11:43Z</time></trkpt><trkpt lat="45.0723681153625" lon="8.387662526113754"><ele>220.0</ele><time>2026-05-03T10:11:44Z</time></trkpt><trkpt lat="45.072245236112124" lon="8.387648222244731"><ele>219.16666666666666</ele><time>2026-05-03T10:11:45Z</time></trkpt><trkpt lat="45.0721718496005" lon="8.387607178516193"><ele>218.33333333333331</ele><time>2026-05-03T10:11:46Z</time></trkpt><trkpt lat="45.072095468175405" lon="8.387563697147101"><ele>217.5</ele><time>2026-05-03T10:11:47Z</time></trkpt><trkpt lat="45.07202045448974" lon="8.387531702603564"><ele>216.66666666666669</ele><time>2026-05-03T10:11:48Z</time></trkpt><trkpt lat="45.071947989569274" lon="8.387492822096792"><ele>215.83333333333334</ele><time>2026-05-03T10:11:49Z</time></trkpt><trkpt lat="45.0718778996999" lon="8.387461984174447"><ele>215.0</ele><time>2026-05-03T10:11:50Z</time></trkpt><trkpt lat="45.07180683037749" lon="8.387437659278902"><ele>215.00000000000003</ele><time>2026-05-03T10:11:51Z</time></trkpt><trkpt lat="45.071738553988844" lon="8.387415945604642"><ele>215.0</ele><time>2026-05-03T10:11:52Z</time></trkpt><trkpt lat="45.07166612470607" lon="8.387401085084715"><ele>215.0</ele><time>2026-05-03T10:11:53Z</time></trkpt><trkpt lat="45.07159802342136" lon="8.387386839043486"><ele>215.0</ele><time>2026-05-03T10:11:54.001Z</time></trkpt><trkpt lat="45.07152942364273" lon="8.387372953454554"><ele>215.00000000000003</ele><time>2026-05-03T10:11:55.001Z</time></trkpt><trkpt lat="45.07141071471899" lon="8.38737419124389"><ele>215.0</ele><time>2026-05-03T10:11:57.001Z</time></trkpt><trkpt lat="45.07134729816388" lon="8.387368312103176"><ele>214.00000000000003</ele><time>2026-05-03T10:11:58.001Z</time></trkpt><trkpt lat="45.07128333077999" lon="8.387354785824098"><ele>213.0</ele><time>2026-05-03T10:11:59.001Z</time></trkpt><trkpt lat="45.071155081324" lon="8.38733312663337"><ele>212.0</ele><time>2026-05-03T10:12:01.001Z</time></trkpt><trkpt lat="45.07108704301215" lon="8.387327093569054"><ele>211.0</ele><time>2026-05-03T10:12:02.001Z</time></trkpt><trkpt lat="45.071016455114815" lon="8.38731763718548"><ele>210.00000000000003</ele><time>2026-05-03T10:12:03.001Z</time></trkpt><trkpt lat="45.070943107249164" lon="8.38730868308264"><ele>209.0</ele><time>2026-05-03T10:12:04.001Z</time></trkpt><trkpt lat="45.070866411538425" lon="8.38730229295143"><ele>209.00000000000003</ele><time>2026-05-03T10:12:05.001Z</time></trkpt><trkpt lat="45.070783753720505" lon="8.387302222147133"><ele>209.0</ele><time>2026-05-03T10:12:06.001Z</time></trkpt><trkpt lat="45.07070596708536" lon="8.387310366149812"><ele>209.0</ele><time>2026-05-03T10:12:07.001Z</time></trkpt><trkpt lat="45.070618755749905" lon="8.387320562713407"><ele>209.0</ele><time>2026-05-03T10:12:08.001Z</time></trkpt><trkpt lat="45.070550689604424" lon="8.387319380068448"><ele>209.00000000000003</ele><time>2026-05-03T10:12:09.001Z</time></trkpt><trkpt lat="45.07048112084812" lon="8.387319122254066"><ele>209.0</ele><time>2026-05-03T10:12:10.001Z</time></trkpt><trkpt lat="45.070399506320996" lon="8.387327910051038"><ele>208.50000000000003</ele><time>2026-05-03T10:12:11.001Z</time></trkpt><trkpt lat="45.07031789595563" lon="8.387332746508873"><ele>208.0</ele><time>2026-05-03T10:12:12.001Z</time></trkpt><trkpt lat="45.07025081200073" lon="8.387345434449758"><ele>207.5</ele><time>2026-05-03T10:12:13.001Z</time></trkpt><trkpt lat="45.07017436007188" lon="8.387355799746336"><ele>207.0</ele><time>2026-05-03T10:12:14.001Z</time></trkpt><trkpt lat="45.07010024299272" lon="8.38735698974896"><ele>206.50000000000003</ele><time>2026-05-03T10:12:15.001Z</time></trkpt><trkpt lat="45.07000111285844" lon="8.387385044422924"><ele>206.0</ele><time>2026-05-03T10:12:17.001Z</time></trkpt><trkpt lat="45.06989974593793" lon="8.387404872484487"><ele>206.00000000000003</ele><time>2026-05-03T10:12:19.001Z</time></trkpt><trkpt lat="45.069820704138706" lon="8.387434195978965"><ele>206.0</ele><time>2026-05-03T10:12:22.001Z</time></trkpt><trkpt lat="45.06976103110654" lon="8.38749418394428"><ele>206.0</ele><time>2026-05-03T10:12:25.001Z</time></trkpt><trkpt lat="45.069736397552916" lon="8.387394113759097"><ele>206.0</ele><time>2026-05-03T10:12:26.001Z</time></trkpt><trkpt lat="45.069672717482355" lon="8.387283882506194"><ele>206.00000000000003</ele><time>2026-05-03T10:12:27.001Z</time></trkpt><trkpt lat="45.06958449975153" lon="8.38717706396431"><ele>206.0</ele><time>2026-05-03T10:12:30.001Z</time></trkpt><trkpt lat="45.06948273480624" lon="8.387067500430886"><ele>204.50000000000003</ele><time>2026-05-03T10:12:32.001Z</time></trkpt><trkpt lat="45.069409874771054" lon="8.38701336189464"><ele>203.0</ele><time>2026-05-03T10:12:33.001Z</time></trkpt><trkpt lat="45.06935623566342" lon="8.386932644653927"><ele>201.5</ele><time>2026-05-03T10:12:34.001Z</time></trkpt><trkpt lat="45.06927747825803" lon="8.386868199409244"><ele>200.0</ele><time>2026-05-03T10:12:35.001Z</time></trkpt><trkpt lat="45.06920340934351" lon="8.38679112170323"><ele>198.50000000000003</ele><time>2026-05-03T10:12:36.001Z</time></trkpt><trkpt lat="45.06912238725555" lon="8.386708751436409"><ele>197.0</ele><time>2026-05-03T10:12:37.001Z</time></trkpt><trkpt lat="45.06903840640001" lon="8.386620653572818"><ele>197.0</ele><time>2026-05-03T10:12:38.001Z</time></trkpt><trkpt lat="45.06895211574938" lon="8.386560419028779"><ele>197.0</ele><time>2026-05-03T10:12:39.001Z</time></trkpt><trkpt lat="45.06886160138052" lon="8.386488623374937"><ele>197.0</ele><time>2026-05-03T10:12:40.001Z</time></trkpt><trkpt lat="45.0687634439483" lon="8.386440564548595"><ele>197.0</ele><time>2026-05-03T10:12:41.001Z</time></trkpt><trkpt lat="45.06866959941671" lon="8.386391956042305"><ele>197.0</ele><time>2026-05-03T10:12:42.001Z</time></trkpt><trkpt lat="45.06856504973339" lon="8.38631774553055"><ele>194.5</ele><time>2026-05-03T10:12:43.001Z</time></trkpt><trkpt lat="45.068460444989284" lon="8.386276798645367"><ele>192.0</ele><time>2026-05-03T10:12:44.002Z</time></trkpt><trkpt lat="45.068371409266575" lon="8.38618950347139"><ele>189.5</ele><time>2026-05-03T10:12:45.002Z</time></trkpt><trkpt lat="45.06826957325374" lon="8.386124772850668"><ele>187.0</ele><time>2026-05-03T10:12:46.002Z</time></trkpt><trkpt lat="45.06818752480765" lon="8.385996154053682"><ele>186.33333333333334</ele><time>2026-05-03T10:12:47.002Z</time></trkpt><trkpt lat="45.068089763873" lon="8.385891898115363"><ele>185.66666666666669</ele><time>2026-05-03T10:12:48.002Z</time></trkpt><trkpt lat="45.068016107384075" lon="8.385789224836332"><ele>185.0</ele><time>2026-05-03T10:12:49.002Z</time></trkpt><trkpt lat="45.06795054394518" lon="8.385711439814445"><ele>184.33333333333334</ele><time>2026-05-03T10:12:50.002Z</time></trkpt><trkpt lat="45.06789311081129" lon="8.385653622343309"><ele>183.66666666666666</ele><time>2026-05-03T10:12:51.002Z</time></trkpt><trkpt lat="45.067828527654584" lon="8.385625174458662"><ele>183.0</ele><time>2026-05-03T10:12:52.002Z</time></trkpt><trkpt lat="45.06776656594976" lon="8.38559437464919"><ele>183.0</ele><time>2026-05-03T10:12:53.002Z</time></trkpt><trkpt lat="45.067687251170526" lon="8.385583624114995"><ele>183.0</ele><time>2026-05-03T10:12:54.002Z</time></trkpt><trkpt lat="45.067603381442204" lon="8.385595700227201"><ele>183.0</ele><time>2026-05-03T10:12:55.002Z</time></trkpt><trkpt lat="45.06752319007131" lon="8.385627801119314"><ele>183.0</ele><time>2026-05-03T10:12:56.002Z</time></trkpt><trkpt lat="45.067436376467036" lon="8.385682130883117"><ele>183.0</ele><time>2026-05-03T10:12:57.002Z</time></trkpt><trkpt lat="45.06734731442643" lon="8.385704047669703"><ele>183.0</ele><time>2026-05-03T10:12:58.002Z</time></trkpt><trkpt lat="45.06727552215872" lon="8.385741624179948"><ele>180.83333333333334</ele><time>2026-05-03T10:12:59.002Z</time></trkpt><trkpt lat="45.06720803470928" lon="8.385763505885613"><ele>178.66666666666666</ele><time>2026-05-03T10:12:59.998Z</time></trkpt><trkpt lat="45.06709598370603" lon="8.385717366880149"><ele>176.5</ele><time>2026-05-03T10:13:01.998Z</time></trkpt><trkpt lat="45.06705251183631" lon="8.385632369190368"><ele>174.33333333333331</ele><time>2026-05-03T10:13:02.998Z</time></trkpt><trkpt lat="45.067046789844376" lon="8.385523963656492"><ele>172.16666666666666</ele><time>2026-05-03T10:13:03.998Z</time></trkpt><trkpt lat="45.06706689926245" lon="8.385404190301513"><ele>170.0</ele><time>2026-05-03T10:13:04.998Z</time></trkpt><trkpt lat="45.0670977845942" lon="8.385275836170504"><ele>168.8</ele><time>2026-05-03T10:13:05.999Z</time></trkpt><trkpt lat="45.067127986972224" lon="8.385143972754804"><ele>167.6</ele><time>2026-05-03T10:13:06.999Z</time></trkpt><trkpt lat="45.067163216056734" lon="8.385000319246082"><ele>166.39999999999998</ele><time>2026-05-03T10:13:07.999Z</time></trkpt><trkpt lat="45.06718797332261" lon="8.384864960216122"><ele>165.2</ele><time>2026-05-03T10:13:08.999Z</time></trkpt><trkpt lat="45.06720343549731" lon="8.384746060376658"><ele>164.0</ele><time>2026-05-03T10:13:09.999Z</time></trkpt><trkpt lat="45.06719984576011" lon="8.384620900856651"><ele>163.6</ele><time>2026-05-03T10:13:10.999Z</time></trkpt><trkpt lat="45.067172075743855" lon="8.38449252203459"><ele>163.2</ele><time>2026-05-03T10:13:11.999Z</time></trkpt><trkpt lat="45.06711572239571" lon="8.384361927958283"><ele>162.79999999999998</ele><time>2026-05-03T10:13:12.999Z</time></trkpt><trkpt lat="45.06706046196818" lon="8.38423469491309"><ele>162.39999999999998</ele><time>2026-05-03T10:13:13.999Z</time></trkpt><trkpt lat="45.06700160968299" lon="8.38415940211001"><ele>162.0</ele><time>2026-05-03T10:13:14.999Z</time></trkpt><trkpt lat="45.06694587280234" lon="8.384098974669032"><ele>162.0</ele><time>2026-05-03T10:13:15.999Z</time></trkpt><trkpt lat="45.066865549643786" lon="8.384022592509822"><ele>162.0</ele><time>2026-05-03T10:13:17.999Z</time></trkpt><trkpt lat="45.0667953695116" lon="8.383985230527989"><ele>162.0</ele><time>2026-05-03T10:13:21.999Z</time></trkpt><trkpt lat="45.06673113360886" lon="8.383907343266202"><ele>162.0</ele><time>2026-05-03T10:13:24.999Z</time></trkpt><trkpt lat="45.06667509773185" lon="8.383855508709704"><ele>162.0</ele><time>2026-05-03T10:13:26.999Z</time></trkpt><trkpt lat="45.06661871187865" lon="8.38380184953323"><ele>162.0</ele><time>2026-05-03T10:13:29Z</time></trkpt><trkpt lat="45.06656057872332" lon="8.383747887160492"><ele>162.0</ele><time>2026-05-03T10:13:31Z</time></trkpt><trkpt lat="45.066487171832186" lon="8.383681407072194"><ele>162.0</ele><time>2026-05-03T10:13:34Z</time></trkpt><trkpt lat="45.06642401060969" lon="8.383619910811364"><ele>162.0</ele><time>2026-05-03T10:13:37Z</time></trkpt><trkpt lat="45.06637278815559" lon="8.383562380173172"><ele>162.0</ele><time>2026-05-03T10:13:41Z</time></trkpt><trkpt lat="45.06631892134412" lon="8.3834954475279"><ele>162.0</ele><time>2026-05-03T10:13:44Z</time></trkpt><trkpt lat="45.066263392812616" lon="8.383421499073096"><ele>162.0</ele><time>2026-05-03T10:13:47Z</time></trkpt><trkpt lat="45.06621512147673" lon="8.383356062502008"><ele>162.0</ele><time>2026-05-03T10:13:49Z</time></trkpt><trkpt lat="45.06616711776696" lon="8.383290988705902"><ele>162.0</ele><time>2026-05-03T10:13:51Z</time></trkpt><trkpt lat="45.06610032510443" lon="8.383200444645558"><ele>162.0</ele><time>2026-05-03T10:13:54Z</time></trkpt><trkpt lat="45.06604546300777" lon="8.383126073635884"><ele>162.0</ele><time>2026-05-03T10:13:57Z</time></trkpt><trkpt lat="45.06597983841146" lon="8.38303711446577"><ele>162.0</ele><time>2026-05-03T10:14:00Z</time></trkpt><trkpt lat="45.06591345492064" lon="8.382947124789931"><ele>162.0</ele><time>2026-05-03T10:14:03.001Z</time></trkpt><trkpt lat="45.065849003015835" lon="8.38284666512496"><ele>162.0</ele><time>2026-05-03T10:14:06.001Z</time></trkpt><trkpt lat="45.06579124590056" lon="8.382747948308642"><ele>163.14285714285714</ele><time>2026-05-03T10:14:09.001Z</time></trkpt><trkpt lat="45.06575007282424" lon="8.382667413648095"><ele>164.28571428571428</ele><time>2026-05-03T10:14:12.001Z</time></trkpt><trkpt lat="45.06570472020465" lon="8.38257040024628"><ele>165.42857142857144</ele><time>2026-05-03T10:14:15.001Z</time></trkpt><trkpt lat="45.06565388524688" lon="8.38245776615699"><ele>166.57142857142856</ele><time>2026-05-03T10:14:18.001Z</time></trkpt><trkpt lat="45.065619391265535" lon="8.382380995953277"><ele>167.7142857142857</ele><time>2026-05-03T10:14:20.001Z</time></trkpt><trkpt lat="45.065583403058305" lon="8.382300900210469"><ele>168.85714285714286</ele><time>2026-05-03T10:14:22.001Z</time></trkpt><trkpt lat="45.065549464501274" lon="8.382225366131241"><ele>170.0</ele><time>2026-05-03T10:14:24.001Z</time></trkpt><trkpt lat="45.065504579101024" lon="8.382125468729184"><ele>171.0</ele><time>2026-05-03T10:14:27.001Z</time></trkpt><trkpt lat="45.06544748654411" lon="8.382032756846263"><ele>172.0</ele><time>2026-05-03T10:14:30.001Z</time></trkpt><trkpt lat="45.06541465380307" lon="8.38195280602545"><ele>173.0</ele><time>2026-05-03T10:14:32.001Z</time></trkpt><trkpt lat="45.0653741253844" lon="8.381845608368819"><ele>174.0</ele><time>2026-05-03T10:14:35.001Z</time></trkpt><trkpt lat="45.06531142710823" lon="8.381765080660763"><ele>175.0</ele><time>2026-05-03T10:14:38.001Z</time></trkpt><trkpt lat="45.06522935806011" lon="8.381719969507042"><ele>176.0</ele><time>2026-05-03T10:14:41.001Z</time></trkpt><trkpt lat="45.06514483081774" lon="8.381727109557865"><ele>176.0</ele><time>2026-05-03T10:14:44.002Z</time></trkpt><trkpt lat="45.06507321693994" lon="8.38177333574692"><ele>176.0</ele><time>2026-05-03T10:14:47.002Z</time></trkpt><trkpt lat="45.065008526108244" lon="8.381810381906762"><ele>176.0</ele><time>2026-05-03T10:14:49.002Z</time></trkpt><trkpt lat="45.06493495092972" lon="8.381900281185"><ele>176.0</ele><time>2026-05-03T10:14:52.002Z</time></trkpt><trkpt lat="45.064854613060334" lon="8.381972917427703"><ele>176.0</ele><time>2026-05-03T10:14:55.002Z</time></trkpt><trkpt lat="45.06479184364748" lon="8.382024938740566"><ele>176.0</ele><time>2026-05-03T10:14:57.002Z</time></trkpt><trkpt lat="45.06474040521048" lon="8.382081620546776"><ele>177.33333333333331</ele><time>2026-05-03T10:14:59.002Z</time></trkpt><trkpt lat="45.064665581064425" lon="8.382170759073313"><ele>178.66666666666666</ele><time>2026-05-03T10:15:02.002Z</time></trkpt><trkpt lat="45.064606514754104" lon="8.382231413772388"><ele>180.0</ele><time>2026-05-03T10:15:04.002Z</time></trkpt><trkpt lat="45.06455214685633" lon="8.382304897302037"><ele>181.33333333333334</ele><time>2026-05-03T10:15:05.999Z</time></trkpt><trkpt lat="45.06449207820281" lon="8.382375211769963"><ele>182.66666666666669</ele><time>2026-05-03T10:15:07.999Z</time></trkpt><trkpt lat="45.06443729344805" lon="8.382448591498438"><ele>184.0</ele><time>2026-05-03T10:15:09.999Z</time></trkpt><trkpt lat="45.06438379787946" lon="8.382532964458132"><ele>184.0</ele><time>2026-05-03T10:15:11.999Z</time></trkpt><trkpt lat="45.064309425874626" lon="8.382642691052437"><ele>184.0</ele><time>2026-05-03T10:15:14.999Z</time></trkpt><trkpt lat="45.06425417966689" lon="8.382718060059515"><ele>184.0</ele><time>2026-05-03T10:15:16.999Z</time></trkpt><trkpt lat="45.06420140054304" lon="8.382795528921424"><ele>184.0</ele><time>2026-05-03T10:15:18.999Z</time></trkpt><trkpt lat="45.0641523844882" lon="8.382872432294125"><ele>184.0</ele><time>2026-05-03T10:15:20.999Z</time></trkpt><trkpt lat="45.06409727440266" lon="8.382954896480623"><ele>184.0</ele><time>2026-05-03T10:15:22.999Z</time></trkpt><trkpt lat="45.064040718375935" lon="8.383028291676256"><ele>185.33333333333334</ele><time>2026-05-03T10:15:24.999Z</time></trkpt><trkpt lat="45.063984730947" lon="8.383103521271481"><ele>186.66666666666669</ele><time>2026-05-03T10:15:26.999Z</time></trkpt><trkpt lat="45.06393562740041" lon="8.383188140860591"><ele>188.0</ele><time>2026-05-03T10:15:28.999Z</time></trkpt><trkpt lat="45.06386915331476" lon="8.383248308373485"><ele>189.33333333333334</ele><time>2026-05-03T10:15:30.999Z</time></trkpt><trkpt lat="45.06379710202713" lon="8.383302976084979"><ele>190.66666666666666</ele><time>2026-05-03T10:15:33Z</time></trkpt><trkpt lat="45.063723807661816" lon="8.383324172198195"><ele>192.0</ele><time>2026-05-03T10:15:35Z</time></trkpt><trkpt lat="45.06364483034747" lon="8.383318025016106"><ele>192.0</ele><time>2026-05-03T10:15:37Z</time></trkpt><trkpt lat="45.0635676556173" lon="8.383284760578128"><ele>192.0</ele><time>2026-05-03T10:15:39Z</time></trkpt><trkpt lat="45.06350484401805" lon="8.383261394560682"><ele>192.0</ele><time>2026-05-03T10:15:41Z</time></trkpt><trkpt lat="45.06342777236766" lon="8.383226888462836"><ele>192.0</ele><time>2026-05-03T10:15:44Z</time></trkpt><trkpt lat="45.063353698430134" lon="8.383198529150745"><ele>192.0</ele><time>2026-05-03T10:15:47Z</time></trkpt><trkpt lat="45.063277987106986" lon="8.383165220601546"><ele>192.0</ele><time>2026-05-03T10:15:50Z</time></trkpt><trkpt lat="45.06320157007867" lon="8.383155558183297"><ele>193.28571428571428</ele><time>2026-05-03T10:15:53Z</time></trkpt><trkpt lat="45.06313272897079" lon="8.383128486467418"><ele>194.57142857142856</ele><time>2026-05-03T10:15:56Z</time></trkpt><trkpt lat="45.06306340894015" lon="8.383101408650512"><ele>195.85714285714283</ele><time>2026-05-03T10:15:59Z</time></trkpt><trkpt lat="45.063001519503814" lon="8.383080662978967"><ele>197.14285714285714</ele><time>2026-05-03T10:16:02.001Z</time></trkpt><trkpt lat="45.06294104561242" lon="8.383039374739143"><ele>198.42857142857144</ele><time>2026-05-03T10:16:05.001Z</time></trkpt><trkpt lat="45.06287143663194" lon="8.383040218097511"><ele>199.7142857142857</ele><time>2026-05-03T10:16:08.001Z</time></trkpt><trkpt lat="45.06281294337704" lon="8.383000376909969"><ele>201.0</ele><time>2026-05-03T10:16:12.001Z</time></trkpt><trkpt lat="45.06274621117867" lon="8.382999472972756"><ele>201.0</ele><time>2026-05-03T10:16:16.001Z</time></trkpt><trkpt lat="45.06269551098001" lon="8.382851655927304"><ele>201.0</ele><time>2026-05-03T10:16:20.001Z</time></trkpt><trkpt lat="45.062641248716304" lon="8.382786652198286"><ele>201.0</ele><time>2026-05-03T10:16:23.001Z</time></trkpt><trkpt lat="45.06258548461161" lon="8.382719849349526"><ele>201.0</ele><time>2026-05-03T10:16:27.001Z</time></trkpt><trkpt lat="45.06252429133203" lon="8.382647383526493"><ele>201.0</ele><time>2026-05-03T10:16:30.001Z</time></trkpt><trkpt lat="45.06247322516114" lon="8.382586970757329"><ele>201.0</ele><time>2026-05-03T10:16:32.001Z</time></trkpt><trkpt lat="45.06240998615931" lon="8.382512418470878"><ele>199.60000000000002</ele><time>2026-05-03T10:16:34.001Z</time></trkpt><trkpt lat="45.06233116563779" lon="8.382419809778686"><ele>198.2</ele><time>2026-05-03T10:16:36.002Z</time></trkpt><trkpt lat="45.062259642320775" lon="8.382335774815028"><ele>196.8</ele><time>2026-05-03T10:16:38.002Z</time></trkpt><trkpt lat="45.062171020924424" lon="8.382233427709131"><ele>195.39999999999998</ele><time>2026-05-03T10:16:40.002Z</time></trkpt><trkpt lat="45.06212096069643" lon="8.38217327538361"><ele>194.0</ele><time>2026-05-03T10:16:41.002Z</time></trkpt><trkpt lat="45.06206234866473" lon="8.382102149696248"><ele>193.83333333333334</ele><time>2026-05-03T10:16:42.002Z</time></trkpt><trkpt lat="45.062003326352254" lon="8.382030526149686"><ele>193.66666666666669</ele><time>2026-05-03T10:16:43.002Z</time></trkpt><trkpt lat="45.061940090091475" lon="8.38195661388189"><ele>193.5</ele><time>2026-05-03T10:16:44.002Z</time></trkpt><trkpt lat="45.06186995629834" lon="8.381905668130972"><ele>193.33333333333331</ele><time>2026-05-03T10:16:45.002Z</time></trkpt><trkpt lat="45.06181901126361" lon="8.381821989202011"><ele>193.16666666666666</ele><time>2026-05-03T10:16:46.002Z</time></trkpt><trkpt lat="45.061753951236696" lon="8.381758972081837"><ele>193.0</ele><time>2026-05-03T10:16:47.002Z</time></trkpt><trkpt lat="45.0616188110703" lon="8.381649500458947"><ele>192.66666666666666</ele><time>2026-05-03T10:16:49.002Z</time></trkpt><trkpt lat="45.06155101297661" lon="8.381610422114067"><ele>192.33333333333331</ele><time>2026-05-03T10:16:50.002Z</time></trkpt><trkpt lat="45.06147980528909" lon="8.381575522797897"><ele>192.0</ele><time>2026-05-03T10:16:51.002Z</time></trkpt><trkpt lat="45.06141206576873" lon="8.381545901750437"><ele>191.66666666666666</ele><time>2026-05-03T10:16:52.002Z</time></trkpt><trkpt lat="45.06134463929689" lon="8.38153946423506"><ele>191.33333333333331</ele><time>2026-05-03T10:16:53.002Z</time></trkpt><trkpt lat="45.06128103150069" lon="8.381515194014318"><ele>191.0</ele><time>2026-05-03T10:16:54.002Z</time></trkpt><trkpt lat="45.06116426071739" lon="8.381471701304584"><ele>191.0</ele><time>2026-05-03T10:16:56.002Z</time></trkpt><trkpt lat="45.061053752392084" lon="8.381438675536652"><ele>191.0</ele><time>2026-05-03T10:16:58.002Z</time></trkpt><trkpt lat="45.06094788354559" lon="8.381409447052864"><ele>191.0</ele><time>2026-05-03T10:17:00.002Z</time></trkpt><trkpt lat="45.060846381126794" lon="8.381387739541879"><ele>191.0</ele><time>2026-05-03T10:17:02.002Z</time></trkpt><trkpt lat="45.06075405057123" lon="8.381361314439488"><ele>191.0</ele><time>2026-05-03T10:17:04.002Z</time></trkpt><trkpt lat="45.06066728564913" lon="8.38134768731232"><ele>190.66666666666666</ele><time>2026-05-03T10:17:06.002Z</time></trkpt><trkpt lat="45.06058329944172" lon="8.381333848409382"><ele>190.33333333333331</ele><time>2026-05-03T10:17:08.002Z</time></trkpt><trkpt lat="45.0605082933194" lon="8.381332040357869"><ele>190.0</ele><time>2026-05-03T10:17:10.002Z</time></trkpt><trkpt lat="45.06044018709332" lon="8.381324926451132"><ele>189.66666666666666</ele><time>2026-05-03T10:17:11.998Z</time></trkpt><trkpt lat="45.060349184485425" lon="8.381348717104546"><ele>189.33333333333334</ele><time>2026-05-03T10:17:14.999Z</time></trkpt><trkpt lat="45.06026445981703" lon="8.381359321924915"><ele>189.0</ele><time>2026-05-03T10:17:16.999Z</time></trkpt><trkpt lat="45.060184871728346" lon="8.381379536068916"><ele>189.0</ele><time>2026-05-03T10:17:18.999Z</time></trkpt><trkpt lat="45.06010162811879" lon="8.38139840051193"><ele>189.0</ele><time>2026-05-03T10:17:20.999Z</time></trkpt><trkpt lat="45.06000436927914" lon="8.381402768755294"><ele>189.0</ele><time>2026-05-03T10:17:22.999Z</time></trkpt><trkpt lat="45.059900768502104" lon="8.381379002617779"><ele>189.0</ele><time>2026-05-03T10:17:24.999Z</time></trkpt><trkpt lat="45.05980139985713" lon="8.381344948606055"><ele>189.0</ele><time>2026-05-03T10:17:26.999Z</time></trkpt><trkpt lat="45.059698040935146" lon="8.381290576876518"><ele>189.6</ele><time>2026-05-03T10:17:28.999Z</time></trkpt><trkpt lat="45.0595922980555" lon="8.381256119367633"><ele>190.2</ele><time>2026-05-03T10:17:30.999Z</time></trkpt><trkpt lat="45.05948592357723" lon="8.38123115387795"><ele>190.79999999999998</ele><time>2026-05-03T10:17:32.999Z</time></trkpt><trkpt lat="45.05938627302004" lon="8.381191458929782"><ele>191.39999999999998</ele><time>2026-05-03T10:17:34.999Z</time></trkpt><trkpt lat="45.05928718969917" lon="8.381175848441554"><ele>192.0</ele><time>2026-05-03T10:17:36.999Z</time></trkpt><trkpt lat="45.05919325826612" lon="8.381159861221155"><ele>192.33333333333334</ele><time>2026-05-03T10:17:39Z</time></trkpt><trkpt lat="45.05910348982767" lon="8.381153465134526"><ele>192.66666666666669</ele><time>2026-05-03T10:17:41Z</time></trkpt><trkpt lat="45.05901631652272" lon="8.381160134469276"><ele>193.0</ele><time>2026-05-03T10:17:43Z</time></trkpt><trkpt lat="45.05893008067642" lon="8.381168367773455"><ele>193.33333333333334</ele><time>2026-05-03T10:17:45Z</time></trkpt><trkpt lat="45.058846520236344" lon="8.3811812685905"><ele>193.66666666666669</ele><time>2026-05-03T10:17:47Z</time></trkpt><trkpt lat="45.058759663421576" lon="8.381190810480122"><ele>194.0</ele><time>2026-05-03T10:17:49Z</time></trkpt><trkpt lat="45.05867369629959" lon="8.38118406847159"><ele>194.00000000000003</ele><time>2026-05-03T10:17:51Z</time></trkpt><trkpt lat="45.05859805003542" lon="8.3811890131756"><ele>194.0</ele><time>2026-05-03T10:17:53Z</time></trkpt><trkpt lat="45.0585021167156" lon="8.381199123433763"><ele>194.0</ele><time>2026-05-03T10:17:56Z</time></trkpt><trkpt lat="45.058422664589735" lon="8.381207652467639"><ele>194.0</ele><time>2026-05-03T10:17:58Z</time></trkpt><trkpt lat="45.05834305886838" lon="8.381216198004484"><ele>194.00000000000003</ele><time>2026-05-03T10:18:00Z</time></trkpt><trkpt lat="45.058273438862706" lon="8.381223671587597"><ele>194.0</ele><time>2026-05-03T10:18:02Z</time></trkpt><trkpt lat="45.058206303925445" lon="8.38125255262409"><ele>195.50000000000003</ele><time>2026-05-03T10:18:04.001Z</time></trkpt><trkpt lat="45.05812866216917" lon="8.381262305289665"><ele>197.0</ele><time>2026-05-03T10:18:06.001Z</time></trkpt><trkpt lat="45.05805379825944" lon="8.381255056591053"><ele>198.5</ele><time>2026-05-03T10:18:08.001Z</time></trkpt><trkpt lat="45.057972602644924" lon="8.38124791315285"><ele>200.0</ele><time>2026-05-03T10:18:10.001Z</time></trkpt><trkpt lat="45.05788449424174" lon="8.381247370098974"><ele>201.50000000000003</ele><time>2026-05-03T10:18:12.001Z</time></trkpt><trkpt lat="45.05780118259928" lon="8.381228163844634"><ele>203.0</ele><time>2026-05-03T10:18:14.001Z</time></trkpt><trkpt lat="45.05773426724064" lon="8.381170646830062"><ele>203.0</ele><time>2026-05-03T10:18:16.001Z</time></trkpt><trkpt lat="45.05767258666096" lon="8.381122634128655"><ele>203.0</ele><time>2026-05-03T10:18:18.001Z</time></trkpt><trkpt lat="45.05761366783751" lon="8.381071507987079"><ele>203.0</ele><time>2026-05-03T10:18:20.001Z</time></trkpt><trkpt lat="45.05755666344155" lon="8.381017418830885"><ele>203.0</ele><time>2026-05-03T10:18:22.001Z</time></trkpt><trkpt lat="45.057498988560646" lon="8.380972895359449"><ele>203.0</ele><time>2026-05-03T10:18:24.001Z</time></trkpt><trkpt lat="45.057445263089654" lon="8.380911977667074"><ele>203.0</ele><time>2026-05-03T10:18:26.001Z</time></trkpt><trkpt lat="45.057388036027106" lon="8.38086949146775"><ele>203.0</ele><time>2026-05-03T10:18:28.001Z</time></trkpt><trkpt lat="45.057326044134356" lon="8.380839657301212"><ele>203.16666666666669</ele><time>2026-05-03T10:18:30.001Z</time></trkpt><trkpt lat="45.057269925449724" lon="8.38078775169305"><ele>203.33333333333334</ele><time>2026-05-03T10:18:32.001Z</time></trkpt><trkpt lat="45.057165499714046" lon="8.38079521463385"><ele>203.5</ele><time>2026-05-03T10:18:35.002Z</time></trkpt><trkpt lat="45.05708795312024" lon="8.38078065064162"><ele>203.66666666666669</ele><time>2026-05-03T10:18:37.002Z</time></trkpt><trkpt lat="45.05702179133696" lon="8.380784039933173"><ele>203.83333333333334</ele><time>2026-05-03T10:18:39.002Z</time></trkpt><trkpt lat="45.05694632066243" lon="8.38077674496177"><ele>204.0</ele><time>2026-05-03T10:18:41.002Z</time></trkpt><trkpt lat="45.0568732786599" lon="8.380750904716423"><ele>204.0</ele><time>2026-05-03T10:18:43.002Z</time></trkpt><trkpt lat="45.05679693258768" lon="8.380744844256448"><ele>204.0</ele><time>2026-05-03T10:18:45.002Z</time></trkpt><trkpt lat="45.05671513461907" lon="8.380738351013207"><ele>204.0</ele><time>2026-05-03T10:18:47.002Z</time></trkpt><trkpt lat="45.056632613172866" lon="8.380744138532066"><ele>204.0</ele><time>2026-05-03T10:18:49.002Z</time></trkpt><trkpt lat="45.056552238404784" lon="8.380736000039306"><ele>204.0</ele><time>2026-05-03T10:18:51.002Z</time></trkpt><trkpt lat="45.056463639094076" lon="8.380722714577384"><ele>204.0</ele><time>2026-05-03T10:18:53.002Z</time></trkpt><trkpt lat="45.05637085063383" lon="8.380710805727952"><ele>204.33333333333334</ele><time>2026-05-03T10:18:55.002Z</time></trkpt><trkpt lat="45.056278359375064" lon="8.380695586403121"><ele>204.66666666666669</ele><time>2026-05-03T10:18:57.002Z</time></trkpt><trkpt lat="45.05618830876113" lon="8.380749554152784"><ele>205.0</ele><time>2026-05-03T10:18:59.002Z</time></trkpt><trkpt lat="45.05612548884219" lon="8.380808593478314"><ele>205.33333333333334</ele><time>2026-05-03T10:19:01.002Z</time></trkpt><trkpt lat="45.056068098673585" lon="8.380886966620578"><ele>205.66666666666669</ele><time>2026-05-03T10:19:03.002Z</time></trkpt><trkpt lat="45.05601316946811" lon="8.3809620979327"><ele>206.0</ele><time>2026-05-03T10:19:05.002Z</time></trkpt><trkpt lat="45.0559302127785" lon="8.381089687080348"><ele>205.99999999999997</ele><time>2026-05-03T10:19:08.002Z</time></trkpt><trkpt lat="45.05588065936871" lon="8.381177470914688"><ele>206.0</ele><time>2026-05-03T10:19:10.003Z</time></trkpt><trkpt lat="45.05583440034634" lon="8.38126462729638"><ele>206.0</ele><time>2026-05-03T10:19:12.003Z</time></trkpt><trkpt lat="45.055776095257734" lon="8.38132682695013"><ele>206.0</ele><time>2026-05-03T10:19:14.003Z</time></trkpt><trkpt lat="45.05571508155479" lon="8.38137843923291"><ele>206.0</ele><time>2026-05-03T10:19:16.003Z</time></trkpt><trkpt lat="45.0556542239772" lon="8.381428805479523"><ele>205.99999999999997</ele><time>2026-05-03T10:19:17.998Z</time></trkpt><trkpt lat="45.055589083041454" lon="8.381483379920404"><ele>206.0</ele><time>2026-05-03T10:19:19.998Z</time></trkpt><trkpt lat="45.05552822702603" lon="8.381545612805029"><ele>205.7142857142857</ele><time>2026-05-03T10:19:21.998Z</time></trkpt><trkpt lat="45.05545484910033" lon="8.381580312155071"><ele>205.42857142857142</ele><time>2026-05-03T10:19:23.999Z</time></trkpt><trkpt lat="45.0553885824052" lon="8.381639899127173"><ele>205.14285714285714</ele><time>2026-05-03T10:19:25.999Z</time></trkpt><trkpt lat="45.05532301438294" lon="8.381698563159278"><ele>204.85714285714283</ele><time>2026-05-03T10:19:27.999Z</time></trkpt><trkpt lat="45.05526147903484" lon="8.381733466275294"><ele>204.57142857142858</ele><time>2026-05-03T10:19:29.999Z</time></trkpt><trkpt lat="45.055202450005346" lon="8.381779554867933"><ele>204.28571428571428</ele><time>2026-05-03T10:19:31.999Z</time></trkpt><trkpt lat="45.055138619691725" lon="8.381828715955413"><ele>204.0</ele><time>2026-05-03T10:19:33.999Z</time></trkpt><trkpt lat="45.05508070193096" lon="8.381880393606833"><ele>204.0</ele><time>2026-05-03T10:19:35.999Z</time></trkpt><trkpt lat="45.05501603333121" lon="8.38192228469445"><ele>204.0</ele><time>2026-05-03T10:19:38Z</time></trkpt><trkpt lat="45.054951030582124" lon="8.381971178453215"><ele>204.0</ele><time>2026-05-03T10:19:40Z</time></trkpt><trkpt lat="45.05487740171669" lon="8.38199569858943"><ele>204.0</ele><time>2026-05-03T10:19:42Z</time></trkpt><trkpt lat="45.05480397320397" lon="8.382032574419094"><ele>204.0</ele><time>2026-05-03T10:19:44Z</time></trkpt><trkpt lat="45.05473151106281" lon="8.382066141874617"><ele>204.0</ele><time>2026-05-03T10:19:46Z</time></trkpt><trkpt lat="45.0546527944686" lon="8.382100985572187"><ele>204.2</ele><time>2026-05-03T10:19:48Z</time></trkpt><trkpt lat="45.054576726320036" lon="8.382132261860555"><ele>204.39999999999998</ele><time>2026-05-03T10:19:50Z</time></trkpt><trkpt lat="45.05449337129852" lon="8.38216653418428"><ele>204.6</ele><time>2026-05-03T10:19:52Z</time></trkpt><trkpt lat="45.05440493474037" lon="8.382204235791228"><ele>204.8</ele><time>2026-05-03T10:19:54Z</time></trkpt><trkpt lat="45.054310127362506" lon="8.382246148202817"><ele>205.0</ele><time>2026-05-03T10:19:56.001Z</time></trkpt><trkpt lat="45.054218973391166" lon="8.38228644557611"><ele>204.8</ele><time>2026-05-03T10:19:58.001Z</time></trkpt><trkpt lat="45.05412041903956" lon="8.382329782216964"><ele>204.6</ele><time>2026-05-03T10:20:00.001Z</time></trkpt><trkpt lat="45.05402426719281" lon="8.382370793948343"><ele>204.39999999999998</ele><time>2026-05-03T10:20:02.001Z</time></trkpt><trkpt lat="45.05392759791356" lon="8.382407536957775"><ele>204.2</ele><time>2026-05-03T10:20:04.001Z</time></trkpt><trkpt lat="45.053830676222965" lon="8.382437342031434"><ele>204.0</ele><time>2026-05-03T10:20:06.001Z</time></trkpt><trkpt lat="45.053734678502295" lon="8.382453130638453"><ele>204.0</ele><time>2026-05-03T10:20:08.001Z</time></trkpt><trkpt lat="45.05362949111614" lon="8.382469754845172"><ele>204.0</ele><time>2026-05-03T10:20:10.001Z</time></trkpt><trkpt lat="45.05352026219501" lon="8.38251325779696"><ele>204.0</ele><time>2026-05-03T10:20:12.001Z</time></trkpt><trkpt lat="45.05340861161083" lon="8.382555123200646"><ele>204.0</ele><time>2026-05-03T10:20:14.001Z</time></trkpt><trkpt lat="45.05329580327057" lon="8.382586948152127"><ele>202.5</ele><time>2026-05-03T10:20:16.001Z</time></trkpt><trkpt lat="45.05318191797498" lon="8.382632127982305"><ele>201.0</ele><time>2026-05-03T10:20:18.001Z</time></trkpt><trkpt lat="45.05306387498687" lon="8.382651622348568"><ele>199.5</ele><time>2026-05-03T10:20:20.001Z</time></trkpt><trkpt lat="45.052947571967856" lon="8.382681681264081"><ele>198.0</ele><time>2026-05-03T10:20:22.002Z</time></trkpt><trkpt lat="45.05283343989664" lon="8.382722513581768"><ele>198.0</ele><time>2026-05-03T10:20:24.002Z</time></trkpt><trkpt lat="45.05270872290252" lon="8.382745880183517"><ele>198.0</ele><time>2026-05-03T10:20:26.002Z</time></trkpt><trkpt lat="45.052590233373" lon="8.382783354659756"><ele>198.0</ele><time>2026-05-03T10:20:28.002Z</time></trkpt><trkpt lat="45.05252644913148" lon="8.382792341010937"><ele>198.0</ele><time>2026-05-03T10:20:29.002Z</time></trkpt><trkpt lat="45.052407423610184" lon="8.38284520263173"><ele>198.0</ele><time>2026-05-03T10:20:31.002Z</time></trkpt><trkpt lat="45.052287976978555" lon="8.382881526511468"><ele>196.60000000000002</ele><time>2026-05-03T10:20:33.002Z</time></trkpt><trkpt lat="45.05217497879174" lon="8.38291278117508"><ele>195.20000000000002</ele><time>2026-05-03T10:20:35.002Z</time></trkpt><trkpt lat="45.05206719234905" lon="8.382938947099653"><ele>193.8</ele><time>2026-05-03T10:20:37.002Z</time></trkpt><trkpt lat="45.05196956215522" lon="8.382972741879918"><ele>192.4</ele><time>2026-05-03T10:20:39.002Z</time></trkpt><trkpt lat="45.05188439672758" lon="8.382997661337624"><ele>191.0</ele><time>2026-05-03T10:20:41.002Z</time></trkpt><trkpt lat="45.05180541531685" lon="8.38301051808802"><ele>192.33333333333331</ele><time>2026-05-03T10:20:43.002Z</time></trkpt><trkpt lat="45.05172179339085" lon="8.38303296886695"><ele>193.66666666666666</ele><time>2026-05-03T10:20:46.002Z</time></trkpt><trkpt lat="45.05163242982254" lon="8.383049240574955"><ele>195.0</ele><time>2026-05-03T10:20:49.002Z</time></trkpt><trkpt lat="45.05156648158057" lon="8.383064303977006"><ele>196.33333333333331</ele><time>2026-05-03T10:20:51.002Z</time></trkpt><trkpt lat="45.05150455250716" lon="8.383087646101936"><ele>197.66666666666666</ele><time>2026-05-03T10:20:53.002Z</time></trkpt><trkpt lat="45.05143129664144" lon="8.38310561975304"><ele>199.0</ele><time>2026-05-03T10:20:55.003Z</time></trkpt><trkpt lat="45.05136016913822" lon="8.38312174728036"><ele>199.16666666666666</ele><time>2026-05-03T10:20:57.003Z</time></trkpt><trkpt lat="45.051287427998965" lon="8.383142201139984"><ele>199.33333333333331</ele><time>2026-05-03T10:20:59.003Z</time></trkpt><trkpt lat="45.05121268928503" lon="8.383163571115727"><ele>199.5</ele><time>2026-05-03T10:21:01.003Z</time></trkpt><trkpt lat="45.05113219989634" lon="8.38318230383135"><ele>199.66666666666669</ele><time>2026-05-03T10:21:03.003Z</time></trkpt><trkpt lat="45.05104290586381" lon="8.383171872015595"><ele>199.83333333333334</ele><time>2026-05-03T10:21:05.003Z</time></trkpt><trkpt lat="45.05094858027504" lon="8.383176613325011"><ele>200.0</ele><time>2026-05-03T10:21:07.003Z</time></trkpt><trkpt lat="45.05083891579093" lon="8.383172848453643"><ele>199.33333333333334</ele><time>2026-05-03T10:21:09.003Z</time></trkpt><trkpt lat="45.0507099224464" lon="8.383164911349294"><ele>198.66666666666669</ele><time>2026-05-03T10:21:11.003Z</time></trkpt><trkpt lat="45.05064019902363" lon="8.383160532894744"><ele>198.0</ele><time>2026-05-03T10:21:12.003Z</time></trkpt><trkpt lat="45.05056891255925" lon="8.383159359594782"><ele>197.33333333333331</ele><time>2026-05-03T10:21:13.003Z</time></trkpt><trkpt lat="45.05049388247678" lon="8.383178435142622"><ele>196.66666666666666</ele><time>2026-05-03T10:21:14.003Z</time></trkpt><trkpt lat="45.05041180588101" lon="8.383168260532253"><ele>196.0</ele><time>2026-05-03T10:21:15.003Z</time></trkpt><trkpt lat="45.05033011468034" lon="8.383183636897392"><ele>195.99999999999997</ele><time>2026-05-03T10:21:16.003Z</time></trkpt><trkpt lat="45.05025174532359" lon="8.383219030223549"><ele>196.0</ele><time>2026-05-03T10:21:17.003Z</time></trkpt><trkpt lat="45.050169748212554" lon="8.383214775989524"><ele>196.0</ele><time>2026-05-03T10:21:18.003Z</time></trkpt><trkpt lat="45.050104458825665" lon="8.383220517770855"><ele>196.0</ele><time>2026-05-03T10:21:19.003Z</time></trkpt><trkpt lat="45.05001157428081" lon="8.383230735974914"><ele>195.99999999999997</ele><time>2026-05-03T10:21:21.003Z</time></trkpt><trkpt lat="45.04992443044943" lon="8.383240322261887"><ele>196.0</ele><time>2026-05-03T10:21:23.003Z</time></trkpt><trkpt lat="45.049845183928944" lon="8.383242479866116"><ele>194.28571428571428</ele><time>2026-05-03T10:21:24.998Z</time></trkpt><trkpt lat="45.049770069358146" lon="8.383226003597166"><ele>192.57142857142856</ele><time>2026-05-03T10:21:26.998Z</time></trkpt><trkpt lat="45.04969775314616" lon="8.38321361118525"><ele>190.85714285714286</ele><time>2026-05-03T10:21:28.999Z</time></trkpt><trkpt lat="45.049630683529486" lon="8.383213450812528"><ele>189.14285714285714</ele><time>2026-05-03T10:21:30.999Z</time></trkpt><trkpt lat="45.04953933330495" lon="8.38321751523457"><ele>187.42857142857142</ele><time>2026-05-03T10:21:32.999Z</time></trkpt><trkpt lat="45.04946999927529" lon="8.383195470925465"><ele>185.71428571428572</ele><time>2026-05-03T10:21:34.999Z</time></trkpt><trkpt lat="45.04940302420731" lon="8.383193705057238"><ele>184.0</ele><time>2026-05-03T10:21:36.999Z</time></trkpt><trkpt lat="45.04933149781948" lon="8.383175027125292"><ele>184.0</ele><time>2026-05-03T10:21:38.999Z</time></trkpt><trkpt lat="45.04925701955266" lon="8.38318253567799"><ele>184.0</ele><time>2026-05-03T10:21:40.999Z</time></trkpt><trkpt lat="45.0491748236056" lon="8.383186959189304"><ele>184.0</ele><time>2026-05-03T10:21:43Z</time></trkpt><trkpt lat="45.04909861332126" lon="8.383193543904422"><ele>184.0</ele><time>2026-05-03T10:21:45Z</time></trkpt><trkpt lat="45.04901556825271" lon="8.38320337453307"><ele>184.0</ele><time>2026-05-03T10:21:47Z</time></trkpt><trkpt lat="45.048935987341125" lon="8.383216815432498"><ele>184.0</ele><time>2026-05-03T10:21:49Z</time></trkpt><trkpt lat="45.04884343552266" lon="8.383215882137334"><ele>181.2</ele><time>2026-05-03T10:21:51Z</time></trkpt><trkpt lat="45.04874696945712" lon="8.383170768659621"><ele>178.39999999999998</ele><time>2026-05-03T10:21:53Z</time></trkpt><trkpt lat="45.04863681925175" lon="8.3831233693955"><ele>175.6</ele><time>2026-05-03T10:21:55Z</time></trkpt><trkpt lat="45.04853710943193" lon="8.383068670508676"><ele>172.8</ele><time>2026-05-03T10:21:57Z</time></trkpt><trkpt lat="45.04848557970883" lon="8.383017265102684"><ele>170.0</ele><time>2026-05-03T10:21:59Z</time></trkpt><trkpt lat="45.04840806083852" lon="8.38298562946663"><ele>169.66666666666666</ele><time>2026-05-03T10:22:01Z</time></trkpt><trkpt lat="45.04833104703672" lon="8.382985301871026"><ele>169.33333333333331</ele><time>2026-05-03T10:22:03.001Z</time></trkpt><trkpt lat="45.04823593181888" lon="8.382986401326772"><ele>169.0</ele><time>2026-05-03T10:22:05.001Z</time></trkpt><trkpt lat="45.048127131954885" lon="8.382981684656771"><ele>168.66666666666666</ele><time>2026-05-03T10:22:07.001Z</time></trkpt><trkpt lat="45.04806069142871" lon="8.382972387885578"><ele>168.33333333333334</ele><time>2026-05-03T10:22:08.001Z</time></trkpt><trkpt lat="45.047992647332876" lon="8.382949155832735"><ele>168.0</ele><time>2026-05-03T10:22:09.001Z</time></trkpt><trkpt lat="45.04791148366042" lon="8.382923600309164"><ele>166.0</ele><time>2026-05-03T10:22:10.001Z</time></trkpt><trkpt lat="45.047826660992435" lon="8.382893113742863"><ele>164.0</ele><time>2026-05-03T10:22:11.001Z</time></trkpt><trkpt lat="45.04774933406608" lon="8.382864001974966"><ele>162.0</ele><time>2026-05-03T10:22:12.001Z</time></trkpt><trkpt lat="45.04766473025005" lon="8.38283423637629"><ele>160.0</ele><time>2026-05-03T10:22:13.001Z</time></trkpt><trkpt lat="45.04759822442137" lon="8.382807410983432"><ele>158.0</ele><time>2026-05-03T10:22:14.001Z</time></trkpt><trkpt lat="45.04749944114646" lon="8.382777877932591"><ele>156.0</ele><time>2026-05-03T10:22:16.001Z</time></trkpt><trkpt lat="45.04743605257013" lon="8.382749425440151"><ele>155.33333333333334</ele><time>2026-05-03T10:22:19.001Z</time></trkpt><trkpt lat="45.04737016418846" lon="8.382688850310789"><ele>154.66666666666666</ele><time>2026-05-03T10:22:23.001Z</time></trkpt><trkpt lat="45.0473148617046" lon="8.382632032421869"><ele>154.0</ele><time>2026-05-03T10:22:25.001Z</time></trkpt><trkpt lat="45.04725708809922" lon="8.382567330717057"><ele>153.33333333333331</ele><time>2026-05-03T10:22:27.001Z</time></trkpt><trkpt lat="45.04719737354644" lon="8.382507960229084"><ele>152.66666666666666</ele><time>2026-05-03T10:22:29.001Z</time></trkpt><trkpt lat="45.04713041044184" lon="8.3824489176389"><ele>152.0</ele><time>2026-05-03T10:22:31.002Z</time></trkpt><trkpt lat="45.04705230100101" lon="8.382393040796197"><ele>152.0</ele><time>2026-05-03T10:22:33.002Z</time></trkpt><trkpt lat="45.0469687843674" lon="8.382354391664817"><ele>152.0</ele><time>2026-05-03T10:22:35.002Z</time></trkpt><trkpt lat="45.046877346945706" lon="8.382339552074336"><ele>152.0</ele><time>2026-05-03T10:22:37.002Z</time></trkpt><trkpt lat="45.04678359374328" lon="8.38235511921327"><ele>152.0</ele><time>2026-05-03T10:22:39.002Z</time></trkpt><trkpt lat="45.046692690426916" lon="8.382382104329713"><ele>152.0</ele><time>2026-05-03T10:22:41.002Z</time></trkpt><trkpt lat="45.046608826014754" lon="8.382442949058383"><ele>151.66666666666666</ele><time>2026-05-03T10:22:43.002Z</time></trkpt><trkpt lat="45.046530075542535" lon="8.3825207997894"><ele>151.33333333333331</ele><time>2026-05-03T10:22:45.002Z</time></trkpt><trkpt lat="45.04645200847929" lon="8.382573570295328"><ele>151.0</ele><time>2026-05-03T10:22:47.002Z</time></trkpt><trkpt lat="45.046378198788055" lon="8.382618832241048"><ele>150.66666666666666</ele><time>2026-05-03T10:22:49.002Z</time></trkpt><trkpt lat="45.04630700074925" lon="8.382657264747694"><ele>150.33333333333334</ele><time>2026-05-03T10:22:51.002Z</time></trkpt><trkpt lat="45.04623430602417" lon="8.382686610945338"><ele>150.0</ele><time>2026-05-03T10:22:53.002Z</time></trkpt><trkpt lat="45.046155692220225" lon="8.382728361436705"><ele>150.0</ele><time>2026-05-03T10:22:55.002Z</time></trkpt><trkpt lat="45.04607592440468" lon="8.382774679745411"><ele>150.0</ele><time>2026-05-03T10:22:57.002Z</time></trkpt><trkpt lat="45.04600904654228" lon="8.382818512627486"><ele>150.0</ele><time>2026-05-03T10:22:59.002Z</time></trkpt><trkpt lat="45.04592846675798" lon="8.382848162376918"><ele>150.0</ele><time>2026-05-03T10:23:01.002Z</time></trkpt><trkpt lat="45.045847075258735" lon="8.382858660439718"><ele>150.0</ele><time>2026-05-03T10:23:03.003Z</time></trkpt><trkpt lat="45.045764367197734" lon="8.382843051432273"><ele>150.0</ele><time>2026-05-03T10:23:05.003Z</time></trkpt><trkpt lat="45.04567900198597" lon="8.382797783366545"><ele>150.5</ele><time>2026-05-03T10:23:07.003Z</time></trkpt><trkpt lat="45.04560091824622" lon="8.382742323086754"><ele>151.0</ele><time>2026-05-03T10:23:09.003Z</time></trkpt><trkpt lat="45.045522001697485" lon="8.382687019448468"><ele>151.5</ele><time>2026-05-03T10:23:11.003Z</time></trkpt><trkpt lat="45.045436981110626" lon="8.382631170895088"><ele>152.0</ele><time>2026-05-03T10:23:13.003Z</time></trkpt><trkpt lat="45.04535424053447" lon="8.382570706991714"><ele>152.5</ele><time>2026-05-03T10:23:15.003Z</time></trkpt><trkpt lat="45.04527457557099" lon="8.382525162036616"><ele>153.0</ele><time>2026-05-03T10:23:17.003Z</time></trkpt><trkpt lat="45.04519821406036" lon="8.382488572784759"><ele>153.0</ele><time>2026-05-03T10:23:19.003Z</time></trkpt><trkpt lat="45.045126467135276" lon="8.382459870915033"><ele>153.0</ele><time>2026-05-03T10:23:23.003Z</time></trkpt><trkpt lat="45.045159478498746" lon="8.382327329144536"><ele>153.0</ele><time>2026-05-03T10:23:27.003Z</time></trkpt><trkpt lat="45.045211725156726" lon="8.382249500587053"><ele>153.0</ele><time>2026-05-03T10:23:29.003Z</time></trkpt><trkpt lat="45.045257347837705" lon="8.382148246683359"><ele>153.0</ele><time>2026-05-03T10:23:31.998Z</time></trkpt><trkpt lat="45.045305476629174" lon="8.382072817403849"><ele>153.0</ele><time>2026-05-03T10:23:34.998Z</time></trkpt><trkpt lat="45.04534138543114" lon="8.381999121843663"><ele>153.0</ele><time>2026-05-03T10:23:38.999Z</time></trkpt><trkpt lat="45.0453756265568" lon="8.381914315245728"><ele>153.0</ele><time>2026-05-03T10:23:41.999Z</time></trkpt><trkpt lat="45.04540500442087" lon="8.381813793700461"><ele>153.0</ele><time>2026-05-03T10:23:44.999Z</time></trkpt><trkpt lat="45.04543449614856" lon="8.381730960537835"><ele>153.0</ele><time>2026-05-03T10:23:46.999Z</time></trkpt><trkpt lat="45.04547826637648" lon="8.381661328574417"><ele>153.0</ele><time>2026-05-03T10:23:48.999Z</time></trkpt><trkpt lat="45.045529108576716" lon="8.381568721359185"><ele>153.0</ele><time>2026-05-03T10:23:53Z</time></trkpt><trkpt lat="45.045559877939986" lon="8.38148750988618"><ele>153.0</ele><time>2026-05-03T10:23:55Z</time></trkpt><trkpt lat="45.045596621575505" lon="8.381400311346987"><ele>153.16666666666666</ele><time>2026-05-03T10:23:57Z</time></trkpt><trkpt lat="45.04563481100395" lon="8.381296363689723"><ele>153.33333333333334</ele><time>2026-05-03T10:23:59Z</time></trkpt><trkpt lat="45.04568017860987" lon="8.381191841870312"><ele>153.5</ele><time>2026-05-03T10:24:01Z</time></trkpt><trkpt lat="45.04572559690139" lon="8.381092061696288"><ele>153.66666666666669</ele><time>2026-05-03T10:24:03Z</time></trkpt><trkpt lat="45.04576656081596" lon="8.380996174588649"><ele>153.83333333333334</ele><time>2026-05-03T10:24:05Z</time></trkpt><trkpt lat="45.04581142143402" lon="8.38088473622536"><ele>154.0</ele><time>2026-05-03T10:24:07Z</time></trkpt><trkpt lat="45.045862738832184" lon="8.380761942910018"><ele>153.6</ele><time>2026-05-03T10:24:09Z</time></trkpt><trkpt lat="45.04591494696768" lon="8.380638167150316"><ele>153.2</ele><time>2026-05-03T10:24:11.001Z</time></trkpt><trkpt lat="45.0459671974186" lon="8.380514178736208"><ele>152.79999999999998</ele><time>2026-05-03T10:24:13.001Z</time></trkpt><trkpt lat="45.04602122384397" lon="8.380390111117231"><ele>152.4</ele><time>2026-05-03T10:24:15.001Z</time></trkpt><trkpt lat="45.04607219755815" lon="8.380266109192753"><ele>152.0</ele><time>2026-05-03T10:24:17.001Z</time></trkpt><trkpt lat="45.04612404185749" lon="8.380146051901239"><ele>152.0</ele><time>2026-05-03T10:24:19.001Z</time></trkpt><trkpt lat="45.04616980940179" lon="8.380034889347474"><ele>152.0</ele><time>2026-05-03T10:24:21.001Z</time></trkpt><trkpt lat="45.04621019738798" lon="8.379934534960999"><ele>152.0</ele><time>2026-05-03T10:24:23.001Z</time></trkpt><trkpt lat="45.04624360457543" lon="8.379832895208935"><ele>152.0</ele><time>2026-05-03T10:24:25.001Z</time></trkpt><trkpt lat="45.04628702329809" lon="8.379736451194452"><ele>152.0</ele><time>2026-05-03T10:24:27.001Z</time></trkpt><trkpt lat="45.046339554922696" lon="8.379613295637554"><ele>152.0</ele><time>2026-05-03T10:24:29.001Z</time></trkpt><trkpt lat="45.0463923035586" lon="8.37949486653442"><ele>152.6</ele><time>2026-05-03T10:24:31.001Z</time></trkpt><trkpt lat="45.04644231877289" lon="8.379372083409521"><ele>153.2</ele><time>2026-05-03T10:24:33.001Z</time></trkpt><trkpt lat="45.046486048270076" lon="8.379257712796843"><ele>153.8</ele><time>2026-05-03T10:24:35.001Z</time></trkpt><trkpt lat="45.04653157393553" lon="8.37915298489171"><ele>154.4</ele><time>2026-05-03T10:24:37.001Z</time></trkpt><trkpt lat="45.04657626219556" lon="8.379046128830982"><ele>155.0</ele><time>2026-05-03T10:24:39.002Z</time></trkpt><trkpt lat="45.04661782084712" lon="8.378941160565137"><ele>154.8</ele><time>2026-05-03T10:24:41.002Z</time></trkpt><trkpt lat="45.04666777812038" lon="8.378828761973965"><ele>154.6</ele><time>2026-05-03T10:24:43.002Z</time></trkpt><trkpt lat="45.046718992736054" lon="8.378713901681197"><ele>154.4</ele><time>2026-05-03T10:24:45.002Z</time></trkpt><trkpt lat="45.0467722478438" lon="8.378593292613608"><ele>154.2</ele><time>2026-05-03T10:24:47.002Z</time></trkpt><trkpt lat="45.046829117960456" lon="8.378457859306868"><ele>154.0</ele><time>2026-05-03T10:24:49.002Z</time></trkpt><trkpt lat="45.04688355068724" lon="8.378324470830885"><ele>154.0</ele><time>2026-05-03T10:24:51.002Z</time></trkpt><trkpt lat="45.04693706504615" lon="8.378193594733373"><ele>154.0</ele><time>2026-05-03T10:24:53.002Z</time></trkpt><trkpt lat="45.04699717424512" lon="8.378066640577503"><ele>154.0</ele><time>2026-05-03T10:24:55.002Z</time></trkpt><trkpt lat="45.04705477331427" lon="8.377943465022492"><ele>154.0</ele><time>2026-05-03T10:24:57.002Z</time></trkpt><trkpt lat="45.04710182015653" lon="8.377813370564626"><ele>154.0</ele><time>2026-05-03T10:24:59.002Z</time></trkpt><trkpt lat="45.04715246136294" lon="8.377678261720208"><ele>154.8</ele><time>2026-05-03T10:25:01.002Z</time></trkpt><trkpt lat="45.0472035225284" lon="8.377558919463493"><ele>155.60000000000002</ele><time>2026-05-03T10:25:03.002Z</time></trkpt><trkpt lat="45.04725262565065" lon="8.377442778183482"><ele>156.4</ele><time>2026-05-03T10:25:05.002Z</time></trkpt><trkpt lat="45.047297973900804" lon="8.377324841414705"><ele>157.20000000000002</ele><time>2026-05-03T10:25:07.002Z</time></trkpt><trkpt lat="45.047352251906496" lon="8.377209656606931"><ele>158.0</ele><time>2026-05-03T10:25:09.002Z</time></trkpt><trkpt lat="45.04740007704271" lon="8.377094526677986"><ele>158.4</ele><time>2026-05-03T10:25:11.003Z</time></trkpt><trkpt lat="45.04745027495993" lon="8.376976110968565"><ele>158.8</ele><time>2026-05-03T10:25:13.003Z</time></trkpt><trkpt lat="45.047504604268354" lon="8.376859250629106"><ele>159.2</ele><time>2026-05-03T10:25:15.003Z</time></trkpt><trkpt lat="45.047558636473596" lon="8.376736516141863"><ele>159.6</ele><time>2026-05-03T10:25:17.003Z</time></trkpt><trkpt lat="45.047609688115905" lon="8.37661299901749"><ele>160.0</ele><time>2026-05-03T10:25:19.003Z</time></trkpt><trkpt lat="45.04766468004974" lon="8.376488736263848"><ele>159.0</ele><time>2026-05-03T10:25:21.003Z</time></trkpt><trkpt lat="45.04771592006257" lon="8.37635772243236"><ele>158.0</ele><time>2026-05-03T10:25:23.003Z</time></trkpt><trkpt lat="45.04777041353759" lon="8.376232706836173"><ele>157.0</ele><time>2026-05-03T10:25:25.003Z</time></trkpt><trkpt lat="45.047822082988745" lon="8.37611390284417"><ele>156.0</ele><time>2026-05-03T10:25:27.003Z</time></trkpt><trkpt lat="45.047868113415376" lon="8.375992481700468"><ele>155.0</ele><time>2026-05-03T10:25:29.003Z</time></trkpt><trkpt lat="45.04792645833394" lon="8.375873225946055"><ele>155.0</ele><time>2026-05-03T10:25:31.003Z</time></trkpt><trkpt lat="45.04798163967536" lon="8.375753748498628"><ele>155.0</ele><time>2026-05-03T10:25:33.003Z</time></trkpt><trkpt lat="45.048033447301385" lon="8.37563456170218"><ele>155.0</ele><time>2026-05-03T10:25:35.003Z</time></trkpt><trkpt lat="45.04808088297481" lon="8.375528346071142"><ele>155.0</ele><time>2026-05-03T10:25:36.998Z</time></trkpt><trkpt lat="45.04812759919513" lon="8.37541752950736"><ele>155.0</ele><time>2026-05-03T10:25:38.998Z</time></trkpt><trkpt lat="45.04817353115414" lon="8.37531108377955"><ele>156.0</ele><time>2026-05-03T10:25:40.998Z</time></trkpt><trkpt lat="45.04821648349817" lon="8.375205588168024"><ele>157.0</ele><time>2026-05-03T10:25:42.998Z</time></trkpt><trkpt lat="45.0482588670392" lon="8.375106493190605"><ele>158.0</ele><time>2026-05-03T10:25:44.999Z</time></trkpt><trkpt lat="45.04828989030029" lon="8.37500915565482"><ele>159.0</ele><time>2026-05-03T10:25:46.999Z</time></trkpt><trkpt lat="45.04833123008117" lon="8.374902725564471"><ele>160.0</ele><time>2026-05-03T10:25:48.999Z</time></trkpt><trkpt lat="45.048382269871794" lon="8.374810678175985"><ele>161.0</ele><time>2026-05-03T10:25:50.999Z</time></trkpt><trkpt lat="45.04842022522384" lon="8.374712771329182"><ele>161.5</ele><time>2026-05-03T10:25:52.999Z</time></trkpt><trkpt lat="45.04845859545671" lon="8.374618717946397"><ele>162.0</ele><time>2026-05-03T10:25:54.999Z</time></trkpt><trkpt lat="45.048499978054934" lon="8.374520700509454"><ele>162.5</ele><time>2026-05-03T10:25:56.999Z</time></trkpt><trkpt lat="45.048537941955765" lon="8.374418200686874"><ele>163.0</ele><time>2026-05-03T10:25:59Z</time></trkpt><trkpt lat="45.04858141105786" lon="8.374323337762366"><ele>163.5</ele><time>2026-05-03T10:26:01Z</time></trkpt><trkpt lat="45.04861269496102" lon="8.374235402113559"><ele>164.0</ele><time>2026-05-03T10:26:03Z</time></trkpt><trkpt lat="45.04864173208439" lon="8.374153048275563"><ele>163.99999999999997</ele><time>2026-05-03T10:26:05Z</time></trkpt><trkpt lat="45.04867182733552" lon="8.374062611470608"><ele>164.0</ele><time>2026-05-03T10:26:07Z</time></trkpt><trkpt lat="45.04869953072463" lon="8.37395710921072"><ele>164.0</ele><time>2026-05-03T10:26:09Z</time></trkpt><trkpt lat="45.04872387642983" lon="8.373843965673261"><ele>164.0</ele><time>2026-05-03T10:26:11Z</time></trkpt><trkpt lat="45.04874048887341" lon="8.373737041545438"><ele>164.0</ele><time>2026-05-03T10:26:13Z</time></trkpt><trkpt lat="45.048751039406554" lon="8.373645393335218"><ele>163.99999999999997</ele><time>2026-05-03T10:26:15Z</time></trkpt><trkpt lat="45.048767002077994" lon="8.373553576958052"><ele>164.0</ele><time>2026-05-03T10:26:17.001Z</time></trkpt><trkpt lat="45.0487927963536" lon="8.373457573009901"><ele>164.28571428571428</ele><time>2026-05-03T10:26:19.001Z</time></trkpt><trkpt lat="45.04881076406576" lon="8.373350271421318"><ele>164.57142857142856</ele><time>2026-05-03T10:26:21.001Z</time></trkpt><trkpt lat="45.04883247970942" lon="8.373244164055066"><ele>164.85714285714283</ele><time>2026-05-03T10:26:23.001Z</time></trkpt><trkpt lat="45.048848929098014" lon="8.373148514698517"><ele>165.14285714285714</ele><time>2026-05-03T10:26:25.001Z</time></trkpt><trkpt lat="45.04886978215465" lon="8.373054106951958"><ele>165.42857142857144</ele><time>2026-05-03T10:26:27.001Z</time></trkpt><trkpt lat="45.04888914777918" lon="8.37295408162557"><ele>165.7142857142857</ele><time>2026-05-03T10:26:29.001Z</time></trkpt><trkpt lat="45.04890632652478" lon="8.372864221348053"><ele>166.0</ele><time>2026-05-03T10:26:31.001Z</time></trkpt><trkpt lat="45.048914668894604" lon="8.372736420156057"><ele>166.83333333333334</ele><time>2026-05-03T10:26:34.001Z</time></trkpt><trkpt lat="45.04894348716934" lon="8.372650008433729"><ele>167.66666666666669</ele><time>2026-05-03T10:26:36.001Z</time></trkpt><trkpt lat="45.04897480731968" lon="8.37254905554983"><ele>168.5</ele><time>2026-05-03T10:26:38.001Z</time></trkpt><trkpt lat="45.048996703025544" lon="8.372451746895972"><ele>169.33333333333334</ele><time>2026-05-03T10:26:40.001Z</time></trkpt><trkpt lat="45.049033569577496" lon="8.37234755989141"><ele>170.16666666666666</ele><time>2026-05-03T10:26:42.001Z</time></trkpt><trkpt lat="45.04908255598152" lon="8.372254175281844"><ele>171.0</ele><time>2026-05-03T10:26:44.002Z</time></trkpt><trkpt lat="45.049126590463175" lon="8.372157212597266"><ele>172.16666666666666</ele><time>2026-05-03T10:26:46.002Z</time></trkpt><trkpt lat="45.049175070591126" lon="8.372073499208875"><ele>173.33333333333334</ele><time>2026-05-03T10:26:48.002Z</time></trkpt><trkpt lat="45.04921541487139" lon="8.371975036406374"><ele>174.5</ele><time>2026-05-03T10:26:50.002Z</time></trkpt><trkpt lat="45.0492600263766" lon="8.37187975405438"><ele>175.66666666666669</ele><time>2026-05-03T10:26:52.002Z</time></trkpt><trkpt lat="45.049311441889174" lon="8.371785979661507"><ele>176.83333333333334</ele><time>2026-05-03T10:26:54.002Z</time></trkpt><trkpt lat="45.049352404929685" lon="8.371696867023482"><ele>178.0</ele><time>2026-05-03T10:26:56.002Z</time></trkpt><trkpt lat="45.04939812802058" lon="8.37161717183858"><ele>178.0</ele><time>2026-05-03T10:26:58.002Z</time></trkpt><trkpt lat="45.04943713858399" lon="8.371532738511117"><ele>178.0</ele><time>2026-05-03T10:27:00.002Z</time></trkpt><trkpt lat="45.04949551111825" lon="8.37145981208976"><ele>178.0</ele><time>2026-05-03T10:27:02.002Z</time></trkpt><trkpt lat="45.049554795396304" lon="8.371379651234587"><ele>178.0</ele><time>2026-05-03T10:27:04.002Z</time></trkpt><trkpt lat="45.049617986779324" lon="8.371340052103307"><ele>178.0</ele><time>2026-05-03T10:27:06.002Z</time></trkpt><trkpt lat="45.049703383697725" lon="8.371343951428583"><ele>178.0</ele><time>2026-05-03T10:27:08.002Z</time></trkpt><trkpt lat="45.049770000363466" lon="8.371434527204524"><ele>178.0</ele><time>2026-05-03T10:27:10.002Z</time></trkpt><trkpt lat="45.04981854966462" lon="8.371538175123996"><ele>178.0</ele><time>2026-05-03T10:27:12.002Z</time></trkpt><trkpt lat="45.04984743263949" lon="8.371660100627704"><ele>178.0</ele><time>2026-05-03T10:27:14.002Z</time></trkpt><trkpt lat="45.0498660758248" lon="8.37176412573957"><ele>178.0</ele><time>2026-05-03T10:27:16.003Z</time></trkpt><trkpt lat="45.049869808479585" lon="8.371884682572196"><ele>178.0</ele><time>2026-05-03T10:27:18.003Z</time></trkpt><trkpt lat="45.049889997047146" lon="8.371988408898412"><ele>178.0</ele><time>2026-05-03T10:27:20.003Z</time></trkpt><trkpt lat="45.04989520292332" lon="8.372109643241442"><ele>178.0</ele><time>2026-05-03T10:27:22.003Z</time></trkpt><trkpt lat="45.04993156504969" lon="8.372217204228782"><ele>178.0</ele><time>2026-05-03T10:27:24.003Z</time></trkpt><trkpt lat="45.04997188329575" lon="8.372333277369096"><ele>178.0</ele><time>2026-05-03T10:27:26.003Z</time></trkpt><trkpt lat="45.050026979278805" lon="8.372429057737516"><ele>178.0</ele><time>2026-05-03T10:27:28.003Z</time></trkpt><trkpt lat="45.05009779440941" lon="8.372504820807695"><ele>178.0</ele><time>2026-05-03T10:27:30.003Z</time></trkpt><trkpt lat="45.050188874736236" lon="8.372500776922102"><ele>178.0</ele><time>2026-05-03T10:27:32.003Z</time></trkpt><trkpt lat="45.050276194483175" lon="8.372480567513653"><ele>180.0</ele><time>2026-05-03T10:27:34.003Z</time></trkpt><trkpt lat="45.05034971542795" lon="8.372428549899727"><ele>182.0</ele><time>2026-05-03T10:27:36.003Z</time></trkpt><trkpt lat="45.05040638123778" lon="8.372356388810282"><ele>184.0</ele><time>2026-05-03T10:27:38.003Z</time></trkpt><trkpt lat="45.05044392992457" lon="8.372252500065049"><ele>186.0</ele><time>2026-05-03T10:27:40.003Z</time></trkpt><trkpt lat="45.0504620322331" lon="8.372133506832352"><ele>188.0</ele><time>2026-05-03T10:27:41.998Z</time></trkpt><trkpt lat="45.050451236873585" lon="8.372018483024341"><ele>190.0</ele><time>2026-05-03T10:27:43.998Z</time></trkpt><trkpt lat="45.05044913696598" lon="8.371913727515409"><ele>190.66666666666669</ele><time>2026-05-03T10:27:45.998Z</time></trkpt><trkpt lat="45.05043497279429" lon="8.371804026578634"><ele>191.33333333333334</ele><time>2026-05-03T10:27:47.998Z</time></trkpt><trkpt lat="45.050423156084776" lon="8.371690541033075"><ele>192.0</ele><time>2026-05-03T10:27:49.999Z</time></trkpt><trkpt lat="45.05041733102835" lon="8.371580131251674"><ele>192.66666666666669</ele><time>2026-05-03T10:27:51.999Z</time></trkpt><trkpt lat="45.05040862482785" lon="8.371477084608598"><ele>193.33333333333334</ele><time>2026-05-03T10:27:53.999Z</time></trkpt><trkpt lat="45.05040315857887" lon="8.371365053949045"><ele>194.0</ele><time>2026-05-03T10:27:55.999Z</time></trkpt><trkpt lat="45.05039203386705" lon="8.37125177072093"><ele>194.14285714285714</ele><time>2026-05-03T10:27:57.999Z</time></trkpt><trkpt lat="45.05039049533355" lon="8.371156942221946"><ele>194.2857142857143</ele><time>2026-05-03T10:27:59.999Z</time></trkpt><trkpt lat="45.05038740339603" lon="8.37104579279467"><ele>194.42857142857144</ele><time>2026-05-03T10:28:01.999Z</time></trkpt><trkpt lat="45.050406520789814" lon="8.370943353178198"><ele>194.57142857142856</ele><time>2026-05-03T10:28:04Z</time></trkpt><trkpt lat="45.050445188379975" lon="8.370850919685639"><ele>194.71428571428572</ele><time>2026-05-03T10:28:06Z</time></trkpt><trkpt lat="45.050507549862644" lon="8.370788236901445"><ele>194.85714285714286</ele><time>2026-05-03T10:28:08Z</time></trkpt><trkpt lat="45.05057060470634" lon="8.370730553696657"><ele>195.0</ele><time>2026-05-03T10:28:10Z</time></trkpt><trkpt lat="45.05063727909156" lon="8.370666452639457"><ele>195.0</ele><time>2026-05-03T10:28:12Z</time></trkpt><trkpt lat="45.050701627042805" lon="8.370586108729059"><ele>195.0</ele><time>2026-05-03T10:28:14Z</time></trkpt><trkpt lat="45.05075690773827" lon="8.370495762382706"><ele>195.0</ele><time>2026-05-03T10:28:16Z</time></trkpt><trkpt lat="45.050797315261626" lon="8.370394004079147"><ele>195.0</ele><time>2026-05-03T10:28:18Z</time></trkpt><trkpt lat="45.050838350401555" lon="8.370290149547886"><ele>195.0</ele><time>2026-05-03T10:28:20Z</time></trkpt><trkpt lat="45.050870839561696" lon="8.370195020498002"><ele>195.0</ele><time>2026-05-03T10:28:22.001Z</time></trkpt><trkpt lat="45.050907380154015" lon="8.370104860984936"><ele>197.83333333333334</ele><time>2026-05-03T10:28:24.001Z</time></trkpt><trkpt lat="45.0509547650775" lon="8.370002728585684"><ele>200.66666666666669</ele><time>2026-05-03T10:28:26.001Z</time></trkpt><trkpt lat="45.05098972433156" lon="8.369899569019084"><ele>203.5</ele><time>2026-05-03T10:28:28.001Z</time></trkpt><trkpt lat="45.05102909026608" lon="8.369798442737302"><ele>206.33333333333334</ele><time>2026-05-03T10:28:30.001Z</time></trkpt><trkpt lat="45.05108119994865" lon="8.369699193460999"><ele>209.16666666666669</ele><time>2026-05-03T10:28:32.001Z</time></trkpt><trkpt lat="45.051118639723356" lon="8.369594115424611"><ele>212.0</ele><time>2026-05-03T10:28:34.001Z</time></trkpt><trkpt lat="45.05115793901404" lon="8.369491246019058"><ele>212.2857142857143</ele><time>2026-05-03T10:28:36.001Z</time></trkpt><trkpt lat="45.05119442252492" lon="8.369403124635795"><ele>212.57142857142856</ele><time>2026-05-03T10:28:38.001Z</time></trkpt><trkpt lat="45.05122864286245" lon="8.36931542810073"><ele>212.85714285714286</ele><time>2026-05-03T10:28:40.001Z</time></trkpt><trkpt lat="45.051262555208226" lon="8.369215583167858"><ele>213.14285714285717</ele><time>2026-05-03T10:28:42.001Z</time></trkpt><trkpt lat="45.051296188789586" lon="8.369133412469022"><ele>213.42857142857144</ele><time>2026-05-03T10:28:44.001Z</time></trkpt><trkpt lat="45.05133920041754" lon="8.369048977045184"><ele>213.71428571428572</ele><time>2026-05-03T10:28:46.001Z</time></trkpt><trkpt lat="45.05137366006269" lon="8.368960508796258"><ele>214.0</ele><time>2026-05-03T10:28:48.001Z</time></trkpt><trkpt lat="45.05141071405648" lon="8.368867955278212"><ele>214.33333333333331</ele><time>2026-05-03T10:28:50.002Z</time></trkpt><trkpt lat="45.05144454453347" lon="8.368767966398131"><ele>214.66666666666666</ele><time>2026-05-03T10:28:52.002Z</time></trkpt><trkpt lat="45.05147662310194" lon="8.368666529517865"><ele>215.0</ele><time>2026-05-03T10:28:54.002Z</time></trkpt><trkpt lat="45.05150049317973" lon="8.368558021710816"><ele>215.33333333333331</ele><time>2026-05-03T10:28:56.002Z</time></trkpt><trkpt lat="45.0515200307512" lon="8.368455225353518"><ele>215.66666666666666</ele><time>2026-05-03T10:28:58.002Z</time></trkpt><trkpt lat="45.051528691301016" lon="8.368346741827963"><ele>216.0</ele><time>2026-05-03T10:29:00.002Z</time></trkpt><trkpt lat="45.05154101224413" lon="8.368236713670719"><ele>216.0</ele><time>2026-05-03T10:29:02.002Z</time></trkpt><trkpt lat="45.051558633162685" lon="8.368130079459753"><ele>216.0</ele><time>2026-05-03T10:29:04.002Z</time></trkpt><trkpt lat="45.05157929210603" lon="8.368031049331085"><ele>216.0</ele><time>2026-05-03T10:29:06.002Z</time></trkpt><trkpt lat="45.051599970521636" lon="8.367867482790373"><ele>216.0</ele><time>2026-05-03T10:29:09.002Z</time></trkpt><trkpt lat="45.051614251073" lon="8.367751631028275"><ele>216.0</ele><time>2026-05-03T10:29:11.002Z</time></trkpt><trkpt lat="45.05162949709864" lon="8.36764008815622"><ele>216.0</ele><time>2026-05-03T10:29:13.002Z</time></trkpt><trkpt lat="45.05164285824933" lon="8.367537059626768"><ele>218.16666666666666</ele><time>2026-05-03T10:29:15.002Z</time></trkpt><trkpt lat="45.051661797549514" lon="8.367434548185836"><ele>220.33333333333331</ele><time>2026-05-03T10:29:17.002Z</time></trkpt><trkpt lat="45.051676949160175" lon="8.367331868882154"><ele>222.5</ele><time>2026-05-03T10:29:19.002Z</time></trkpt><trkpt lat="45.05168726815449" lon="8.367233944495617"><ele>224.66666666666666</ele><time>2026-05-03T10:29:21.003Z</time></trkpt><trkpt lat="45.05170513460593" lon="8.367125851564735"><ele>226.83333333333331</ele><time>2026-05-03T10:29:23.003Z</time></trkpt><trkpt lat="45.05171734508058" lon="8.367015905063221"><ele>229.0</ele><time>2026-05-03T10:29:25.003Z</time></trkpt><trkpt lat="45.05173099802282" lon="8.366906478938443"><ele>229.99999999999997</ele><time>2026-05-03T10:29:27.003Z</time></trkpt><trkpt lat="45.051740812704814" lon="8.366805062910068"><ele>231.0</ele><time>2026-05-03T10:29:29.003Z</time></trkpt><trkpt lat="45.05177461318722" lon="8.366674990276838"><ele>232.0</ele><time>2026-05-03T10:29:32.003Z</time></trkpt><trkpt lat="45.05178654154906" lon="8.36657130680168"><ele>233.0</ele><time>2026-05-03T10:29:34.003Z</time></trkpt><trkpt lat="45.051839300671155" lon="8.366505738678503"><ele>233.99999999999997</ele><time>2026-05-03T10:29:36.003Z</time></trkpt><trkpt lat="45.05190494803016" lon="8.36644799235664"><ele>235.0</ele><time>2026-05-03T10:29:38.003Z</time></trkpt><trkpt lat="45.05199001542307" lon="8.366433758909585"><ele>234.99999999999997</ele><time>2026-05-03T10:29:40.003Z</time></trkpt><trkpt lat="45.052081889142" lon="8.36645298641027"><ele>235.0</ele><time>2026-05-03T10:29:42.003Z</time></trkpt><trkpt lat="45.05216995411234" lon="8.366466144850031"><ele>235.0</ele><time>2026-05-03T10:29:44.003Z</time></trkpt><trkpt lat="45.052259124938075" lon="8.366486352955985"><ele>235.0</ele><time>2026-05-03T10:29:46.003Z</time></trkpt><trkpt lat="45.05234561370465" lon="8.366492296471524"><ele>234.99999999999997</ele><time>2026-05-03T10:29:47.997Z</time></trkpt><trkpt lat="45.05243542605653" lon="8.366514408668618"><ele>235.0</ele><time>2026-05-03T10:29:49.998Z</time></trkpt><trkpt lat="45.0525125125435" lon="8.366530392890468"><ele>235.99999999999997</ele><time>2026-05-03T10:29:51.998Z</time></trkpt><trkpt lat="45.05257640696224" lon="8.366540070707236"><ele>237.0</ele><time>2026-05-03T10:29:53.998Z</time></trkpt><trkpt lat="45.05265862766776" lon="8.366555798384448"><ele>238.0</ele><time>2026-05-03T10:29:56.998Z</time></trkpt><trkpt lat="45.052723844124124" lon="8.366564521032565"><ele>239.0</ele><time>2026-05-03T10:29:58.999Z</time></trkpt><trkpt lat="45.05278970519927" lon="8.366557737529865"><ele>239.99999999999997</ele><time>2026-05-03T10:30:00.999Z</time></trkpt><trkpt lat="45.052841325634496" lon="8.366398425370653"><ele>241.0</ele><time>2026-05-03T10:30:03.999Z</time></trkpt><trkpt lat="45.05283822000868" lon="8.366285021456763"><ele>241.85714285714286</ele><time>2026-05-03T10:30:05.999Z</time></trkpt><trkpt lat="45.05283830274411" lon="8.36619558160847"><ele>242.71428571428572</ele><time>2026-05-03T10:30:07.999Z</time></trkpt><trkpt lat="45.052858768254" lon="8.366090110465942"><ele>243.57142857142858</ele><time>2026-05-03T10:30:11Z</time></trkpt><trkpt lat="45.052859894141335" lon="8.365958621088854"><ele>244.42857142857144</ele><time>2026-05-03T10:30:14Z</time></trkpt><trkpt lat="45.05286509088373" lon="8.365856463615705"><ele>245.28571428571428</ele><time>2026-05-03T10:30:16Z</time></trkpt><trkpt lat="45.05287351103124" lon="8.365760843795954"><ele>246.14285714285717</ele><time>2026-05-03T10:30:18Z</time></trkpt><trkpt lat="45.052891186209386" lon="8.365659323866904"><ele>247.0</ele><time>2026-05-03T10:30:20Z</time></trkpt><trkpt lat="45.05289226767871" lon="8.365539824973496"><ele>248.66666666666666</ele><time>2026-05-03T10:30:22Z</time></trkpt><trkpt lat="45.05288150346479" lon="8.365420402635694"><ele>250.33333333333331</ele><time>2026-05-03T10:30:24Z</time></trkpt><trkpt lat="45.05285547751625" lon="8.365290266769302"><ele>252.0</ele><time>2026-05-03T10:30:26Z</time></trkpt><trkpt lat="45.05282039808373" lon="8.36517895049808"><ele>253.66666666666669</ele><time>2026-05-03T10:30:28Z</time></trkpt><trkpt lat="45.052787320652314" lon="8.365085085391357"><ele>255.33333333333334</ele><time>2026-05-03T10:30:30.001Z</time></trkpt><trkpt lat="45.05275804307041" lon="8.365003383552041"><ele>257.0</ele><time>2026-05-03T10:30:32.001Z</time></trkpt><trkpt lat="45.052729184058016" lon="8.364922849796828"><ele>257.0</ele><time>2026-05-03T10:30:34.001Z</time></trkpt><trkpt lat="45.052698772547636" lon="8.364837983846687"><ele>257.0</ele><time>2026-05-03T10:30:36.001Z</time></trkpt><trkpt lat="45.052656561287556" lon="8.364758824676416"><ele>257.0</ele><time>2026-05-03T10:30:38.001Z</time></trkpt><trkpt lat="45.05262120636111" lon="8.364634507424736"><ele>257.0</ele><time>2026-05-03T10:30:41.001Z</time></trkpt><trkpt lat="45.052600026566004" lon="8.364546986987891"><ele>257.0</ele><time>2026-05-03T10:30:43.001Z</time></trkpt><trkpt lat="45.05257557760908" lon="8.36445947307289"><ele>257.0</ele><time>2026-05-03T10:30:45.001Z</time></trkpt><trkpt lat="45.05254879822463" lon="8.364376402725707"><ele>257.0</ele><time>2026-05-03T10:30:47.001Z</time></trkpt><trkpt lat="45.052520886832646" lon="8.364281391931831"><ele>258.0</ele><time>2026-05-03T10:30:49.001Z</time></trkpt><trkpt lat="45.05249371989564" lon="8.364196060906487"><ele>259.0</ele><time>2026-05-03T10:30:51.001Z</time></trkpt><trkpt lat="45.05246591399481" lon="8.364105270833345"><ele>260.0</ele><time>2026-05-03T10:30:53.001Z</time></trkpt><trkpt lat="45.05243648895396" lon="8.364016443300137"><ele>261.0</ele><time>2026-05-03T10:30:55.001Z</time></trkpt><trkpt lat="45.0524021367905" lon="8.363940696344217"><ele>262.0</ele><time>2026-05-03T10:30:57.002Z</time></trkpt><trkpt lat="45.052355062684796" lon="8.363858669069087"><ele>263.0</ele><time>2026-05-03T10:30:59.002Z</time></trkpt><trkpt lat="45.052300296610966" lon="8.363782444186954"><ele>264.0</ele><time>2026-05-03T10:31:01.002Z</time></trkpt><trkpt lat="45.052240743526575" lon="8.363710850894988"><ele>266.6666666666667</ele><time>2026-05-03T10:31:03.002Z</time></trkpt><trkpt lat="45.05217628824191" lon="8.3636479002291"><ele>269.3333333333333</ele><time>2026-05-03T10:31:05.002Z</time></trkpt><trkpt lat="45.05212113955769" lon="8.363562278747759"><ele>272.0</ele><time>2026-05-03T10:31:07.002Z</time></trkpt><trkpt lat="45.05207683413702" lon="8.36345309117557"><ele>274.66666666666663</ele><time>2026-05-03T10:31:09.002Z</time></trkpt><trkpt lat="45.05205117381787" lon="8.363345056342409"><ele>277.3333333333333</ele><time>2026-05-03T10:31:11.002Z</time></trkpt><trkpt lat="45.05205122653819" lon="8.363231602788025"><ele>280.0</ele><time>2026-05-03T10:31:13.002Z</time></trkpt><trkpt lat="45.05206562228452" lon="8.363113955140493"><ele>281.0</ele><time>2026-05-03T10:31:15.002Z</time></trkpt><trkpt lat="45.05207798199646" lon="8.363007244468548"><ele>282.0</ele><time>2026-05-03T10:31:17.002Z</time></trkpt><trkpt lat="45.0520881182374" lon="8.362894201292614"><ele>283.0</ele><time>2026-05-03T10:31:20.002Z</time></trkpt><trkpt lat="45.05210587405289" lon="8.362800314870285"><ele>284.0</ele><time>2026-05-03T10:31:22.002Z</time></trkpt><trkpt lat="45.052121155613136" lon="8.362713420732353"><ele>285.0</ele><time>2026-05-03T10:31:24.002Z</time></trkpt><trkpt lat="45.05213379904202" lon="8.362588475649481"><ele>286.0</ele><time>2026-05-03T10:31:27.002Z</time></trkpt><trkpt lat="45.052102281386134" lon="8.362496265982218"><ele>286.0</ele><time>2026-05-03T10:31:30.003Z</time></trkpt><trkpt lat="45.05208269701638" lon="8.362410447212703"><ele>286.0</ele><time>2026-05-03T10:31:32.003Z</time></trkpt><trkpt lat="45.052079647639" lon="8.362302660776734"><ele>286.0</ele><time>2026-05-03T10:31:38.003Z</time></trkpt><trkpt lat="45.05203244014979" lon="8.36211934274253"><ele>286.0</ele><time>2026-05-03T10:33:24.002Z</time></trkpt><trkpt lat="45.05199854962545" lon="8.362010927158098"><ele>286.0</ele><time>2026-05-03T10:33:26.002Z</time></trkpt><trkpt lat="45.05196333489583" lon="8.361908489065257"><ele>286.0</ele><time>2026-05-03T10:33:29.002Z</time></trkpt><trkpt lat="45.05193210410861" lon="8.361828565845501"><ele>286.3333333333333</ele><time>2026-05-03T10:33:31.002Z</time></trkpt><trkpt lat="45.051888981958434" lon="8.36174488712042"><ele>286.66666666666663</ele><time>2026-05-03T10:33:33.003Z</time></trkpt><trkpt lat="45.05183271270183" lon="8.36165519966157"><ele>287.0</ele><time>2026-05-03T10:33:36.003Z</time></trkpt><trkpt lat="45.051802310880376" lon="8.361572943880246"><ele>287.3333333333333</ele><time>2026-05-03T10:33:38.003Z</time></trkpt><trkpt lat="45.051768979139055" lon="8.361458071626513"><ele>287.6666666666667</ele><time>2026-05-03T10:33:41.003Z</time></trkpt><trkpt lat="45.05174067307328" lon="8.361332403511513"><ele>288.0</ele><time>2026-05-03T10:33:43.003Z</time></trkpt><trkpt lat="45.05170651938341" lon="8.36123063015781"><ele>288.5</ele><time>2026-05-03T10:33:45.003Z</time></trkpt><trkpt lat="45.05165939603663" lon="8.361121193165047"><ele>289.0</ele><time>2026-05-03T10:33:47.003Z</time></trkpt><trkpt lat="45.0516100789105" lon="8.361023773039525"><ele>289.5</ele><time>2026-05-03T10:33:49.003Z</time></trkpt><trkpt lat="45.05155960478039" lon="8.360907457696559"><ele>290.0</ele><time>2026-05-03T10:33:51.003Z</time></trkpt><trkpt lat="45.05151380287567" lon="8.360798215792508"><ele>290.5</ele><time>2026-05-03T10:33:53.003Z</time></trkpt><trkpt lat="45.05146527463551" lon="8.360709738579684"><ele>291.0</ele><time>2026-05-03T10:33:55.003Z</time></trkpt><trkpt lat="45.051415139015155" lon="8.360606204480469"><ele>289.0</ele><time>2026-05-03T10:33:57.003Z</time></trkpt><trkpt lat="45.05137277553489" lon="8.360482770628472"><ele>287.0</ele><time>2026-05-03T10:33:59.003Z</time></trkpt><trkpt lat="45.051341674648924" lon="8.360354630066224"><ele>285.0</ele><time>2026-05-03T10:34:00.998Z</time></trkpt><trkpt lat="45.05131493834532" lon="8.360231364947927"><ele>283.0</ele><time>2026-05-03T10:34:02.999Z</time></trkpt><trkpt lat="45.0512932341581" lon="8.360110250274824"><ele>281.0</ele><time>2026-05-03T10:34:04.999Z</time></trkpt><trkpt lat="45.051274104395375" lon="8.359988534878909"><ele>281.0</ele><time>2026-05-03T10:34:06.999Z</time></trkpt><trkpt lat="45.05126047973573" lon="8.359862652410483"><ele>281.0</ele><time>2026-05-03T10:34:08.999Z</time></trkpt><trkpt lat="45.05123668950742" lon="8.359732835123744"><ele>281.0</ele><time>2026-05-03T10:34:10.999Z</time></trkpt><trkpt lat="45.05121138160844" lon="8.359597105958084"><ele>281.0</ele><time>2026-05-03T10:34:12.999Z</time></trkpt><trkpt lat="45.05118817466076" lon="8.359475802977101"><ele>281.0</ele><time>2026-05-03T10:34:14.999Z</time></trkpt><trkpt lat="45.05116194550498" lon="8.359348839793128"><ele>282.0</ele><time>2026-05-03T10:34:16.999Z</time></trkpt><trkpt lat="45.05114689743745" lon="8.359217444747532"><ele>283.0</ele><time>2026-05-03T10:34:19Z</time></trkpt><trkpt lat="45.05110721038501" lon="8.359105823946882"><ele>284.0</ele><time>2026-05-03T10:34:21Z</time></trkpt><trkpt lat="45.05108761269903" lon="8.358984819981059"><ele>285.0</ele><time>2026-05-03T10:34:23Z</time></trkpt><trkpt lat="45.05108410314026" lon="8.358862680184785"><ele>286.0</ele><time>2026-05-03T10:34:25Z</time></trkpt><trkpt lat="45.051071553207635" lon="8.35873180537991"><ele>288.2</ele><time>2026-05-03T10:34:27Z</time></trkpt><trkpt lat="45.051011015214435" lon="8.35860776034102"><ele>290.40000000000003</ele><time>2026-05-03T10:34:29Z</time></trkpt><trkpt lat="45.050906493557115" lon="8.35855936413763"><ele>292.6</ele><time>2026-05-03T10:34:31Z</time></trkpt><trkpt lat="45.05079265870105" lon="8.358586635634895"><ele>294.8</ele><time>2026-05-03T10:34:33Z</time></trkpt><trkpt lat="45.05069369631667" lon="8.358591433012968"><ele>297.0</ele><time>2026-05-03T10:34:35Z</time></trkpt><trkpt lat="45.05060570858693" lon="8.35856818628379"><ele>297.0</ele><time>2026-05-03T10:34:37Z</time></trkpt><trkpt lat="45.050508342621264" lon="8.358583674942071"><ele>297.0</ele><time>2026-05-03T10:34:39.001Z</time></trkpt><trkpt lat="45.050407127509544" lon="8.358573253757099"><ele>297.0</ele><time>2026-05-03T10:34:41.001Z</time></trkpt><trkpt lat="45.05030489773264" lon="8.358578283725222"><ele>297.0</ele><time>2026-05-03T10:34:43.001Z</time></trkpt><trkpt lat="45.05019118538717" lon="8.358586651900405"><ele>297.0</ele><time>2026-05-03T10:34:45.001Z</time></trkpt><trkpt lat="45.050088880843205" lon="8.358600380335758"><ele>297.0</ele><time>2026-05-03T10:34:47.001Z</time></trkpt><trkpt lat="45.04997989874909" lon="8.358602776399831"><ele>297.0</ele><time>2026-05-03T10:34:49.001Z</time></trkpt><trkpt lat="45.04986876211604" lon="8.358601365458714"><ele>297.0</ele><time>2026-05-03T10:34:51.001Z</time></trkpt><trkpt lat="45.049767661231975" lon="8.358653285683468"><ele>297.0</ele><time>2026-05-03T10:34:53.001Z</time></trkpt><trkpt lat="45.049682339578666" lon="8.358613390290094"><ele>297.0</ele><time>2026-05-03T10:34:55.001Z</time></trkpt><trkpt lat="45.04961837588434" lon="8.35860694393133"><ele>295.1666666666667</ele><time>2026-05-03T10:34:57.001Z</time></trkpt><trkpt lat="45.04953562107343" lon="8.358588391608738"><ele>293.3333333333333</ele><time>2026-05-03T10:34:59.001Z</time></trkpt><trkpt lat="45.04944918221448" lon="8.358549254419973"><ele>291.5</ele><time>2026-05-03T10:35:01.001Z</time></trkpt><trkpt lat="45.04936134831666" lon="8.35853711591158"><ele>289.66666666666663</ele><time>2026-05-03T10:35:03.001Z</time></trkpt><trkpt lat="45.049274817458326" lon="8.358489418708695"><ele>287.8333333333333</ele><time>2026-05-03T10:35:05.001Z</time></trkpt><trkpt lat="45.04921709410443" lon="8.35844086008962"><ele>286.0</ele><time>2026-05-03T10:35:07.002Z</time></trkpt><trkpt lat="45.049143565488684" lon="8.358358247501776"><ele>282.3333333333333</ele><time>2026-05-03T10:35:10.002Z</time></trkpt><trkpt lat="45.04909575327676" lon="8.358281134036543"><ele>278.66666666666663</ele><time>2026-05-03T10:35:12.002Z</time></trkpt><trkpt lat="45.049066391359105" lon="8.358170952258236"><ele>275.0</ele><time>2026-05-03T10:35:14.002Z</time></trkpt><trkpt lat="45.049026669692" lon="8.358067418155118"><ele>271.3333333333333</ele><time>2026-05-03T10:35:16.002Z</time></trkpt><trkpt lat="45.049006881260134" lon="8.357962098295422"><ele>267.6666666666667</ele><time>2026-05-03T10:35:18.002Z</time></trkpt><trkpt lat="45.04898575609215" lon="8.357857047949375"><ele>264.0</ele><time>2026-05-03T10:35:20.002Z</time></trkpt><trkpt lat="45.04896853876091" lon="8.357754113516721"><ele>264.0</ele><time>2026-05-03T10:35:22.002Z</time></trkpt><trkpt lat="45.04897313532165" lon="8.357645434065889"><ele>264.0</ele><time>2026-05-03T10:35:24.002Z</time></trkpt><trkpt lat="45.0489888140088" lon="8.357537230479478"><ele>264.0</ele><time>2026-05-03T10:35:26.002Z</time></trkpt><trkpt lat="45.04900820965804" lon="8.357424769888553"><ele>264.0</ele><time>2026-05-03T10:35:28.002Z</time></trkpt><trkpt lat="45.04902730942994" lon="8.357318819752342"><ele>264.0</ele><time>2026-05-03T10:35:30.002Z</time></trkpt><trkpt lat="45.049046623508595" lon="8.357219317000578"><ele>264.0</ele><time>2026-05-03T10:35:32.002Z</time></trkpt><trkpt lat="45.04904403645819" lon="8.357076855264667"><ele>264.3333333333333</ele><time>2026-05-03T10:35:35.002Z</time></trkpt><trkpt lat="45.04904435301097" lon="8.356968571417847"><ele>264.6666666666667</ele><time>2026-05-03T10:35:37.002Z</time></trkpt><trkpt lat="45.049028385036515" lon="8.356853771557969"><ele>265.0</ele><time>2026-05-03T10:35:39.002Z</time></trkpt><trkpt lat="45.049013748060005" lon="8.356736551001147"><ele>265.33333333333337</ele><time>2026-05-03T10:35:41.003Z</time></trkpt><trkpt lat="45.048998789540384" lon="8.356620535972077"><ele>265.6666666666667</ele><time>2026-05-03T10:35:43.003Z</time></trkpt><trkpt lat="45.0489736918341" lon="8.356492653308331"><ele>266.0</ele><time>2026-05-03T10:35:45.003Z</time></trkpt><trkpt lat="45.04897488406535" lon="8.356357963926175"><ele>266.0</ele><time>2026-05-03T10:35:47.003Z</time></trkpt><trkpt lat="45.04893063183698" lon="8.356139711665124"><ele>266.0</ele><time>2026-05-03T10:35:50.003Z</time></trkpt><trkpt lat="45.048896863134196" lon="8.35598386312802"><ele>266.0</ele><time>2026-05-03T10:35:52.003Z</time></trkpt><trkpt lat="45.04887432109108" lon="8.355832271100992"><ele>266.0</ele><time>2026-05-03T10:35:54.003Z</time></trkpt><trkpt lat="45.04885042219028" lon="8.355676876220459"><ele>266.5</ele><time>2026-05-03T10:35:56.003Z</time></trkpt><trkpt lat="45.04882371373894" lon="8.35550744800934"><ele>267.0</ele><time>2026-05-03T10:35:58.003Z</time></trkpt><trkpt lat="45.048816751214616" lon="8.355417532655066"><ele>267.5</ele><time>2026-05-03T10:35:59.003Z</time></trkpt><trkpt lat="45.0488083553982" lon="8.355322520460808"><ele>268.0</ele><time>2026-05-03T10:36:00.003Z</time></trkpt><trkpt lat="45.0488049117995" lon="8.355226788873498"><ele>268.5</ele><time>2026-05-03T10:36:01.003Z</time></trkpt><trkpt lat="45.04881907515114" lon="8.355129409812607"><ele>269.0</ele><time>2026-05-03T10:36:02.003Z</time></trkpt><trkpt lat="45.04881535369169" lon="8.355021444738593"><ele>269.0</ele><time>2026-05-03T10:36:03.003Z</time></trkpt><trkpt lat="45.04880482404938" lon="8.354920042421176"><ele>269.0</ele><time>2026-05-03T10:36:04.003Z</time></trkpt><trkpt lat="45.04880462183739" lon="8.354812624653162"><ele>269.0</ele><time>2026-05-03T10:36:05.003Z</time></trkpt><trkpt lat="45.048783232451726" lon="8.354707956304292"><ele>269.0</ele><time>2026-05-03T10:36:05.998Z</time></trkpt><trkpt lat="45.04875475128877" lon="8.354611881498364"><ele>269.0</ele><time>2026-05-03T10:36:06.998Z</time></trkpt><trkpt lat="45.04872931142764" lon="8.354520053003228"><ele>269.0</ele><time>2026-05-03T10:36:07.998Z</time></trkpt><trkpt lat="45.04869572668135" lon="8.354435598084178"><ele>269.0</ele><time>2026-05-03T10:36:08.998Z</time></trkpt><trkpt lat="45.048657528070784" lon="8.354360269626648"><ele>270.2</ele><time>2026-05-03T10:36:09.998Z</time></trkpt><trkpt lat="45.04861594745584" lon="8.354290850182833"><ele>271.4</ele><time>2026-05-03T10:36:10.998Z</time></trkpt><trkpt lat="45.04853794529339" lon="8.354156740911554"><ele>272.6</ele><time>2026-05-03T10:36:12.999Z</time></trkpt><trkpt lat="45.04846352740707" lon="8.354044916009608"><ele>273.8</ele><time>2026-05-03T10:36:14.999Z</time></trkpt><trkpt lat="45.04839696775486" lon="8.35394740588049"><ele>275.0</ele><time>2026-05-03T10:36:16.999Z</time></trkpt><trkpt lat="45.048349813337296" lon="8.3538446675886"><ele>275.6666666666667</ele><time>2026-05-03T10:36:18.999Z</time></trkpt><trkpt lat="45.048310901037276" lon="8.353753506786967"><ele>276.33333333333337</ele><time>2026-05-03T10:36:20.999Z</time></trkpt><trkpt lat="45.048281866168786" lon="8.35364800256953"><ele>277.0</ele><time>2026-05-03T10:36:22.999Z</time></trkpt><trkpt lat="45.048268628746214" lon="8.353544207343223"><ele>277.6666666666667</ele><time>2026-05-03T10:36:24.999Z</time></trkpt><trkpt lat="45.048244085137554" lon="8.353421535989566"><ele>278.3333333333333</ele><time>2026-05-03T10:36:28Z</time></trkpt><trkpt lat="45.048228241187196" lon="8.353312473346758"><ele>279.0</ele><time>2026-05-03T10:36:31Z</time></trkpt><trkpt lat="45.04820685863839" lon="8.353219281567732"><ele>279.0</ele><time>2026-05-03T10:36:36Z</time></trkpt><trkpt lat="45.048261536863954" lon="8.353145026889964"><ele>279.0</ele><time>2026-05-03T10:36:40Z</time></trkpt><trkpt lat="45.04833133137008" lon="8.35314723898082"><ele>279.0</ele><time>2026-05-03T10:36:43Z</time></trkpt><trkpt lat="45.048410437444744" lon="8.3531216782596"><ele>279.0</ele><time>2026-05-03T10:36:55.001Z</time></trkpt><trkpt lat="45.04847908919121" lon="8.353080675023126"><ele>279.0</ele><time>2026-05-03T10:37:19.002Z</time></trkpt><trkpt lat="45.048567491445056" lon="8.353074637253558"><ele>279.0</ele><time>2026-05-03T10:37:23.002Z</time></trkpt><trkpt lat="45.048651498361224" lon="8.353056534274478"><ele>279.2</ele><time>2026-05-03T10:37:26.002Z</time></trkpt><trkpt lat="45.048752518610925" lon="8.353052908942386"><ele>279.4</ele><time>2026-05-03T10:37:28.002Z</time></trkpt><trkpt lat="45.048847128564844" lon="8.353062297556473"><ele>279.6</ele><time>2026-05-03T10:37:30.002Z</time></trkpt><trkpt lat="45.048959885473714" lon="8.353064454954785"><ele>279.8</ele><time>2026-05-03T10:37:32.002Z</time></trkpt><trkpt lat="45.04906484012411" lon="8.352962505411819"><ele>280.0</ele><time>2026-05-03T10:37:34.002Z</time></trkpt><trkpt lat="45.04910469175202" lon="8.352886896548316"><ele>280.14285714285717</ele><time>2026-05-03T10:37:35.002Z</time></trkpt><trkpt lat="45.04912817107302" lon="8.352800379110151"><ele>280.2857142857143</ele><time>2026-05-03T10:37:36.002Z</time></trkpt><trkpt lat="45.04913080287115" lon="8.352696929237828"><ele>280.42857142857144</ele><time>2026-05-03T10:37:37.002Z</time></trkpt><trkpt lat="45.049124561384666" lon="8.352602511304076"><ele>280.57142857142856</ele><time>2026-05-03T10:37:38.002Z</time></trkpt><trkpt lat="45.049094680794184" lon="8.35250235597635"><ele>280.7142857142857</ele><time>2026-05-03T10:37:39.002Z</time></trkpt><trkpt lat="45.049069506260814" lon="8.352408463500073"><ele>280.8571428571429</ele><time>2026-05-03T10:37:40.002Z</time></trkpt><trkpt lat="45.049055356277336" lon="8.352311474238585"><ele>281.0</ele><time>2026-05-03T10:37:41.002Z</time></trkpt><trkpt lat="45.04902642953959" lon="8.35222289207482"><ele>276.5714285714286</ele><time>2026-05-03T10:37:42.002Z</time></trkpt><trkpt lat="45.04900491572836" lon="8.35213663632797"><ele>272.14285714285717</ele><time>2026-05-03T10:37:43.002Z</time></trkpt><trkpt lat="45.048987298581615" lon="8.352046910001558"><ele>267.7142857142857</ele><time>2026-05-03T10:37:44.002Z</time></trkpt><trkpt lat="45.04899004606545" lon="8.351950453743358"><ele>263.28571428571433</ele><time>2026-05-03T10:37:45.002Z</time></trkpt><trkpt lat="45.04899712620202" lon="8.351858137632039"><ele>258.8571428571429</ele><time>2026-05-03T10:37:46.003Z</time></trkpt><trkpt lat="45.04900930956303" lon="8.351763705572525"><ele>254.42857142857142</ele><time>2026-05-03T10:37:47.003Z</time></trkpt><trkpt lat="45.04901066403346" lon="8.35166234994721"><ele>250.0</ele><time>2026-05-03T10:37:48.003Z</time></trkpt><trkpt lat="45.04903031738642" lon="8.351571583075588"><ele>250.0</ele><time>2026-05-03T10:37:49.003Z</time></trkpt><trkpt lat="45.04909860139992" lon="8.351419824735562"><ele>250.0</ele><time>2026-05-03T10:37:51.003Z</time></trkpt><trkpt lat="45.049200712503435" lon="8.351308400001649"><ele>250.0</ele><time>2026-05-03T10:37:53.003Z</time></trkpt><trkpt lat="45.04929928024806" lon="8.351218102772071"><ele>250.0</ele><time>2026-05-03T10:37:55.003Z</time></trkpt><trkpt lat="45.04937394061576" lon="8.351088373264382"><ele>252.0</ele><time>2026-05-03T10:37:57.003Z</time></trkpt><trkpt lat="45.04935893246696" lon="8.35093045522478"><ele>254.0</ele><time>2026-05-03T10:37:59.003Z</time></trkpt><trkpt lat="45.049310584148834" lon="8.350786238659339"><ele>256.0</ele><time>2026-05-03T10:38:01.003Z</time></trkpt><trkpt lat="45.04924761601058" lon="8.350647460232144"><ele>258.0</ele><time>2026-05-03T10:38:03.003Z</time></trkpt><trkpt lat="45.04923077290952" lon="8.350464849590665"><ele>257.99999999999994</ele><time>2026-05-03T10:38:05.003Z</time></trkpt><trkpt lat="45.04923155621773" lon="8.350366364553688"><ele>258.0</ele><time>2026-05-03T10:38:06.003Z</time></trkpt><trkpt lat="45.0492346887828" lon="8.35027691256763"><ele>258.0</ele><time>2026-05-03T10:38:07.003Z</time></trkpt><trkpt lat="45.049241517686106" lon="8.35017988728213"><ele>258.0</ele><time>2026-05-03T10:38:08.003Z</time></trkpt><trkpt lat="45.049255211017496" lon="8.350077273802633"><ele>258.0</ele><time>2026-05-03T10:38:09.003Z</time></trkpt><trkpt lat="45.04928242082592" lon="8.349973555136122"><ele>257.99999999999994</ele><time>2026-05-03T10:38:10.003Z</time></trkpt><trkpt lat="45.049329130630476" lon="8.349872581364627"><ele>258.0</ele><time>2026-05-03T10:38:11.003Z</time></trkpt><trkpt lat="45.04937547089556" lon="8.349770267270433"><ele>256.1666666666667</ele><time>2026-05-03T10:38:11.998Z</time></trkpt><trkpt lat="45.04942919787194" lon="8.34967204526591"><ele>254.33333333333331</ele><time>2026-05-03T10:38:12.998Z</time></trkpt><trkpt lat="45.04948772054159" lon="8.349601107491582"><ele>252.5</ele><time>2026-05-03T10:38:13.998Z</time></trkpt><trkpt lat="45.04955428483401" lon="8.34955512089831"><ele>250.66666666666666</ele><time>2026-05-03T10:38:14.998Z</time></trkpt><trkpt lat="45.04961559942278" lon="8.34950539134324"><ele>248.83333333333331</ele><time>2026-05-03T10:38:15.998Z</time></trkpt><trkpt lat="45.04965824788424" lon="8.3494267192212"><ele>247.0</ele><time>2026-05-03T10:38:16.999Z</time></trkpt><trkpt lat="45.049672344973644" lon="8.34931417332236"><ele>246.99999999999997</ele><time>2026-05-03T10:38:17.999Z</time></trkpt><trkpt lat="45.04965570359737" lon="8.349203718014884"><ele>247.0</ele><time>2026-05-03T10:38:18.999Z</time></trkpt><trkpt lat="45.04963028993596" lon="8.349097825474212"><ele>247.0</ele><time>2026-05-03T10:38:19.999Z</time></trkpt><trkpt lat="45.04959536608536" lon="8.348988143102668"><ele>247.0</ele><time>2026-05-03T10:38:20.999Z</time></trkpt><trkpt lat="45.049563125213496" lon="8.348868414209166"><ele>246.99999999999997</ele><time>2026-05-03T10:38:21.999Z</time></trkpt><trkpt lat="45.0495316271053" lon="8.348747519576241"><ele>247.0</ele><time>2026-05-03T10:38:22.999Z</time></trkpt><trkpt lat="45.0495056130955" lon="8.348621832906952"><ele>247.6</ele><time>2026-05-03T10:38:23.999Z</time></trkpt><trkpt lat="45.049449342149984" lon="8.34851145539812"><ele>248.2</ele><time>2026-05-03T10:38:24.999Z</time></trkpt><trkpt lat="45.04938577362415" lon="8.348397716981879"><ele>248.8</ele><time>2026-05-03T10:38:25.999Z</time></trkpt><trkpt lat="45.049295364562106" lon="8.348332841583192"><ele>249.4</ele><time>2026-05-03T10:38:26.999Z</time></trkpt><trkpt lat="45.04920448026829" lon="8.34828754872119"><ele>250.0</ele><time>2026-05-03T10:38:27.999Z</time></trkpt><trkpt lat="45.04912051046586" lon="8.348236375902328"><ele>247.49999999999997</ele><time>2026-05-03T10:38:28.999Z</time></trkpt><trkpt lat="45.0490480380969" lon="8.34817721349215"><ele>245.0</ele><time>2026-05-03T10:38:29.999Z</time></trkpt><trkpt lat="45.04898061999468" lon="8.348103945531845"><ele>242.5</ele><time>2026-05-03T10:38:30.999Z</time></trkpt><trkpt lat="45.048930971958875" lon="8.348022066638263"><ele>240.0</ele><time>2026-05-03T10:38:32Z</time></trkpt><trkpt lat="45.0488880554037" lon="8.347933969232294"><ele>237.49999999999997</ele><time>2026-05-03T10:38:33Z</time></trkpt><trkpt lat="45.04885902713063" lon="8.347838102022129"><ele>235.0</ele><time>2026-05-03T10:38:34Z</time></trkpt><trkpt lat="45.04884855229801" lon="8.34773992272316"><ele>235.0</ele><time>2026-05-03T10:38:35Z</time></trkpt><trkpt lat="45.048838928563164" lon="8.347636335372544"><ele>234.99999999999997</ele><time>2026-05-03T10:38:36Z</time></trkpt><trkpt lat="45.04881807453353" lon="8.34753788128007"><ele>235.0</ele><time>2026-05-03T10:38:37Z</time></trkpt><trkpt lat="45.04882194361121" lon="8.347431281270326"><ele>235.0</ele><time>2026-05-03T10:38:38Z</time></trkpt><trkpt lat="45.04881499545947" lon="8.347327393130074"><ele>234.99999999999997</ele><time>2026-05-03T10:38:39Z</time></trkpt><trkpt lat="45.048808580764145" lon="8.347225176215371"><ele>235.0</ele><time>2026-05-03T10:38:40Z</time></trkpt><trkpt lat="45.04880515242258" lon="8.347130547672078"><ele>235.0</ele><time>2026-05-03T10:38:41Z</time></trkpt><trkpt lat="45.048814869886925" lon="8.346976156645374"><ele>235.49999999999997</ele><time>2026-05-03T10:38:43Z</time></trkpt><trkpt lat="45.04890694717372" lon="8.346843517552553"><ele>236.0</ele><time>2026-05-03T10:38:45Z</time></trkpt><trkpt lat="45.048971377888165" lon="8.34680402682361"><ele>236.5</ele><time>2026-05-03T10:38:46Z</time></trkpt><trkpt lat="45.04903779697483" lon="8.346767844825948"><ele>237.0</ele><time>2026-05-03T10:38:47Z</time></trkpt><trkpt lat="45.04910397127789" lon="8.346729392297942"><ele>237.49999999999997</ele><time>2026-05-03T10:38:48Z</time></trkpt><trkpt lat="45.049172680697744" lon="8.346676964920798"><ele>238.0</ele><time>2026-05-03T10:38:49Z</time></trkpt><trkpt lat="45.049262191918956" lon="8.346634424312487"><ele>237.2</ele><time>2026-05-03T10:38:50Z</time></trkpt><trkpt lat="45.04934188123564" lon="8.3465754099492"><ele>236.4</ele><time>2026-05-03T10:38:51Z</time></trkpt><trkpt lat="45.04942212895908" lon="8.346524102106239"><ele>235.59999999999997</ele><time>2026-05-03T10:38:52.001Z</time></trkpt><trkpt lat="45.049497141569226" lon="8.346457722270296"><ele>234.79999999999998</ele><time>2026-05-03T10:38:53.001Z</time></trkpt><trkpt lat="45.04958587509896" lon="8.346404598115885"><ele>234.0</ele><time>2026-05-03T10:38:54.001Z</time></trkpt><trkpt lat="45.04967235635119" lon="8.34634342328798"><ele>234.0</ele><time>2026-05-03T10:38:55.001Z</time></trkpt><trkpt lat="45.049758663684344" lon="8.34629212554689"><ele>233.99999999999997</ele><time>2026-05-03T10:38:56.001Z</time></trkpt><trkpt lat="45.04984348207005" lon="8.346232340690408"><ele>233.99999999999997</ele><time>2026-05-03T10:38:57.001Z</time></trkpt><trkpt lat="45.04992673108095" lon="8.34617974263146"><ele>234.0</ele><time>2026-05-03T10:38:58.001Z</time></trkpt><trkpt lat="45.05001294422182" lon="8.346141248795595"><ele>234.0</ele><time>2026-05-03T10:38:59.001Z</time></trkpt><trkpt lat="45.0501112878543" lon="8.346124253159788"><ele>233.6</ele><time>2026-05-03T10:39:00.001Z</time></trkpt><trkpt lat="45.05021639798768" lon="8.34613227769574"><ele>233.2</ele><time>2026-05-03T10:39:01.001Z</time></trkpt><trkpt lat="45.05031421927709" lon="8.34612998432197"><ele>232.79999999999998</ele><time>2026-05-03T10:39:02.001Z</time></trkpt><trkpt lat="45.050417819790006" lon="8.346107925267289"><ele>232.39999999999998</ele><time>2026-05-03T10:39:03.001Z</time></trkpt><trkpt lat="45.05052693146981" lon="8.346082878898178"><ele>232.0</ele><time>2026-05-03T10:39:04.001Z</time></trkpt><trkpt lat="45.050639485611754" lon="8.34609127609088"><ele>232.0</ele><time>2026-05-03T10:39:05.001Z</time></trkpt><trkpt lat="45.05075510593324" lon="8.346077527181397"><ele>232.0</ele><time>2026-05-03T10:39:06.001Z</time></trkpt><trkpt lat="45.0508690308346" lon="8.346044751257487"><ele>232.0</ele><time>2026-05-03T10:39:07.001Z</time></trkpt><trkpt lat="45.05097901623519" lon="8.346012660086014"><ele>232.0</ele><time>2026-05-03T10:39:08.001Z</time></trkpt><trkpt lat="45.051085254562736" lon="8.345967859287345"><ele>232.49999999999997</ele><time>2026-05-03T10:39:09.001Z</time></trkpt><trkpt lat="45.05118924465073" lon="8.345922984255903"><ele>233.0</ele><time>2026-05-03T10:39:10.001Z</time></trkpt><trkpt lat="45.0512730992837" lon="8.34585374132867"><ele>233.5</ele><time>2026-05-03T10:39:11.001Z</time></trkpt><trkpt lat="45.051329983773094" lon="8.345769007696628"><ele>234.0</ele><time>2026-05-03T10:39:12.001Z</time></trkpt><trkpt lat="45.05137454304614" lon="8.345659825344494"><ele>234.49999999999997</ele><time>2026-05-03T10:39:14.001Z</time></trkpt><trkpt lat="45.051379095147624" lon="8.345558594853113"><ele>235.0</ele><time>2026-05-03T10:39:32.002Z</time></trkpt><trkpt lat="45.05125064284587" lon="8.345422981531463"><ele>233.33333333333331</ele><time>2026-05-03T10:39:36.002Z</time></trkpt><trkpt lat="45.05117882975834" lon="8.345320180954392"><ele>231.66666666666666</ele><time>2026-05-03T10:39:38.002Z</time></trkpt><trkpt lat="45.05108964833892" lon="8.345198819329532"><ele>230.0</ele><time>2026-05-03T10:39:40.002Z</time></trkpt><trkpt lat="45.05104330178446" lon="8.345135749055197"><ele>228.33333333333331</ele><time>2026-05-03T10:39:41.002Z</time></trkpt><trkpt lat="45.05099076889993" lon="8.345064260256196"><ele>226.66666666666666</ele><time>2026-05-03T10:39:42.002Z</time></trkpt><trkpt lat="45.050934866945276" lon="8.344988186650383"><ele>225.0</ele><time>2026-05-03T10:39:43.002Z</time></trkpt><trkpt lat="45.050876474011815" lon="8.344909067298842"><ele>225.0</ele><time>2026-05-03T10:39:44.002Z</time></trkpt><trkpt lat="45.050816795271786" lon="8.3448283274884"><ele>225.0</ele><time>2026-05-03T10:39:45.002Z</time></trkpt><trkpt lat="45.05075233948253" lon="8.344741124800674"><ele>225.0</ele><time>2026-05-03T10:39:46.002Z</time></trkpt><trkpt lat="45.050689543617125" lon="8.344655489132313"><ele>225.0</ele><time>2026-05-03T10:39:47.002Z</time></trkpt><trkpt lat="45.050624218510706" lon="8.344564491288697"><ele>225.0</ele><time>2026-05-03T10:39:48.002Z</time></trkpt><trkpt lat="45.05055851567545" lon="8.344476188816097"><ele>225.0</ele><time>2026-05-03T10:39:49.002Z</time></trkpt><trkpt lat="45.05048881125995" lon="8.34439662687946"><ele>223.4</ele><time>2026-05-03T10:39:50.002Z</time></trkpt><trkpt lat="45.05041049013918" lon="8.344322071477698"><ele>221.8</ele><time>2026-05-03T10:39:51.002Z</time></trkpt><trkpt lat="45.05031596994925" lon="8.344279228549663"><ele>220.2</ele><time>2026-05-03T10:39:52.002Z</time></trkpt><trkpt lat="45.05021247752204" lon="8.344261852171712"><ele>218.6</ele><time>2026-05-03T10:39:53.003Z</time></trkpt><trkpt lat="45.05012051634658" lon="8.34425069501902"><ele>217.0</ele><time>2026-05-03T10:39:54.003Z</time></trkpt><trkpt lat="45.050029813965" lon="8.344231403690916"><ele>215.6</ele><time>2026-05-03T10:39:55.003Z</time></trkpt><trkpt lat="45.04993629171868" lon="8.344202793018436"><ele>214.2</ele><time>2026-05-03T10:39:56.003Z</time></trkpt><trkpt lat="45.04984815620783" lon="8.344154895123271"><ele>212.8</ele><time>2026-05-03T10:39:57.003Z</time></trkpt><trkpt lat="45.04978424082772" lon="8.344072155406092"><ele>211.4</ele><time>2026-05-03T10:39:58.003Z</time></trkpt><trkpt lat="45.0497233904748" lon="8.343972313852676"><ele>210.0</ele><time>2026-05-03T10:39:59.003Z</time></trkpt><trkpt lat="45.04965949084731" lon="8.343872694709757"><ele>210.0</ele><time>2026-05-03T10:40:00.003Z</time></trkpt><trkpt lat="45.0495689291872" lon="8.343795260107672"><ele>210.0</ele><time>2026-05-03T10:40:01.003Z</time></trkpt><trkpt lat="45.049480212817876" lon="8.343724677073007"><ele>210.0</ele><time>2026-05-03T10:40:02.003Z</time></trkpt><trkpt lat="45.04939417198208" lon="8.343658974606726"><ele>210.0</ele><time>2026-05-03T10:40:03.003Z</time></trkpt><trkpt lat="45.04930196029301" lon="8.343591567096423"><ele>210.0</ele><time>2026-05-03T10:40:04.003Z</time></trkpt><trkpt lat="45.04920383134942" lon="8.343527512763071"><ele>208.4</ele><time>2026-05-03T10:40:05.003Z</time></trkpt><trkpt lat="45.04909979380762" lon="8.343464752152416"><ele>206.8</ele><time>2026-05-03T10:40:06.003Z</time></trkpt><trkpt lat="45.048995887753144" lon="8.34341426404333"><ele>205.2</ele><time>2026-05-03T10:40:07.003Z</time></trkpt><trkpt lat="45.0488956147804" lon="8.343353801916566"><ele>203.6</ele><time>2026-05-03T10:40:08.003Z</time></trkpt><trkpt lat="45.04879100673479" lon="8.343299139840022"><ele>202.0</ele><time>2026-05-03T10:40:09.003Z</time></trkpt><trkpt lat="45.04869146100584" lon="8.343242829940898"><ele>202.0</ele><time>2026-05-03T10:40:10.003Z</time></trkpt><trkpt lat="45.04859485942674" lon="8.34317911586171"><ele>202.0</ele><time>2026-05-03T10:40:11.003Z</time></trkpt><trkpt lat="45.0485000780481" lon="8.343104782155494"><ele>202.0</ele><time>2026-05-03T10:40:12.003Z</time></trkpt><trkpt lat="45.04841393164671" lon="8.343030488713994"><ele>202.0</ele><time>2026-05-03T10:40:13.003Z</time></trkpt><trkpt lat="45.04834070195309" lon="8.342963196874946"><ele>202.0</ele><time>2026-05-03T10:40:14.003Z</time></trkpt><trkpt lat="45.048276122288335" lon="8.342916248628871"><ele>200.83333333333331</ele><time>2026-05-03T10:40:15.003Z</time></trkpt><trkpt lat="45.04819048035837" lon="8.342825424235238"><ele>199.66666666666666</ele><time>2026-05-03T10:40:17.003Z</time></trkpt><trkpt lat="45.04812805964906" lon="8.342778618469032"><ele>198.5</ele><time>2026-05-03T10:40:18.998Z</time></trkpt><trkpt lat="45.0480709898882" lon="8.342719961859476"><ele>197.33333333333331</ele><time>2026-05-03T10:40:24.999Z</time></trkpt><trkpt lat="45.04801022178918" lon="8.342677649804513"><ele>196.16666666666666</ele><time>2026-05-03T10:40:28.999Z</time></trkpt><trkpt lat="45.04795327231915" lon="8.342772716654748"><ele>195.0</ele><time>2026-05-03T10:40:29.999Z</time></trkpt><trkpt lat="45.04794516466346" lon="8.342607466471678"><ele>195.0</ele><time>2026-05-03T10:40:31.999Z</time></trkpt><trkpt lat="45.04788043824986" lon="8.34254904726769"><ele>195.0</ele><time>2026-05-03T10:40:33.999Z</time></trkpt><trkpt lat="45.04786280490316" lon="8.342841843595243"><ele>195.0</ele><time>2026-05-03T10:40:34.999Z</time></trkpt><trkpt lat="45.047794096149794" lon="8.342900217768593"><ele>195.0</ele><time>2026-05-03T10:40:39Z</time></trkpt><trkpt lat="45.04771914030258" lon="8.342874007041834"><ele>195.0</ele><time>2026-05-03T10:40:42Z</time></trkpt><trkpt lat="45.04746908113488" lon="8.342508912534544"><ele>195.14285714285714</ele><time>2026-05-03T10:40:43Z</time></trkpt><trkpt lat="45.04739802945919" lon="8.342480843154826"><ele>195.28571428571428</ele><time>2026-05-03T10:40:45Z</time></trkpt><trkpt lat="45.04733284593912" lon="8.342449223847757"><ele>195.42857142857144</ele><time>2026-05-03T10:40:47Z</time></trkpt><trkpt lat="45.04726323152236" lon="8.342421729386663"><ele>195.57142857142856</ele><time>2026-05-03T10:40:49Z</time></trkpt><trkpt lat="45.04720239971611" lon="8.342374997028031"><ele>195.71428571428572</ele><time>2026-05-03T10:40:51Z</time></trkpt><trkpt lat="45.04714351115862" lon="8.342330787053264"><ele>195.85714285714286</ele><time>2026-05-03T10:40:53Z</time></trkpt><trkpt lat="45.047060903752666" lon="8.342276209881135"><ele>196.0</ele><time>2026-05-03T10:40:56.001Z</time></trkpt><trkpt lat="45.04698658983414" lon="8.342238544526088"><ele>197.14285714285714</ele><time>2026-05-03T10:40:59.001Z</time></trkpt><trkpt lat="45.04692524501546" lon="8.34219743970739"><ele>198.28571428571428</ele><time>2026-05-03T10:41:02.001Z</time></trkpt><trkpt lat="45.04686247217126" lon="8.342179820728632"><ele>199.42857142857144</ele><time>2026-05-03T10:41:04.001Z</time></trkpt><trkpt lat="45.04679343116181" lon="8.342164842246863"><ele>200.57142857142856</ele><time>2026-05-03T10:41:06.001Z</time></trkpt><trkpt lat="45.04671775151044" lon="8.342145018861896"><ele>201.71428571428572</ele><time>2026-05-03T10:41:08.001Z</time></trkpt><trkpt lat="45.04663991722012" lon="8.342136540685358"><ele>202.85714285714286</ele><time>2026-05-03T10:41:10.001Z</time></trkpt><trkpt lat="45.046575371690565" lon="8.342140860229188"><ele>204.0</ele><time>2026-05-03T10:41:12.001Z</time></trkpt><trkpt lat="45.04649215215983" lon="8.342142714822652"><ele>203.16666666666666</ele><time>2026-05-03T10:41:15.001Z</time></trkpt><trkpt lat="45.046416549847606" lon="8.342165908171895"><ele>202.33333333333331</ele><time>2026-05-03T10:41:18.001Z</time></trkpt><trkpt lat="45.04632618662649" lon="8.342201996099702"><ele>201.5</ele><time>2026-05-03T10:41:21.001Z</time></trkpt><trkpt lat="45.0462544604187" lon="8.342230819209755"><ele>200.66666666666666</ele><time>2026-05-03T10:41:24.001Z</time></trkpt><trkpt lat="45.04617630436395" lon="8.342268814290051"><ele>199.83333333333331</ele><time>2026-05-03T10:41:27.002Z</time></trkpt><trkpt lat="45.046089138424506" lon="8.342295359768984"><ele>199.0</ele><time>2026-05-03T10:41:30.002Z</time></trkpt><trkpt lat="45.046019049072406" lon="8.342319456531987"><ele>198.99999999999997</ele><time>2026-05-03T10:41:32.002Z</time></trkpt><trkpt lat="45.045956470962246" lon="8.342337949511897"><ele>199.0</ele><time>2026-05-03T10:41:34.002Z</time></trkpt><trkpt lat="45.045881746733556" lon="8.342375187552832"><ele>199.0</ele><time>2026-05-03T10:41:36.002Z</time></trkpt><trkpt lat="45.04579907627849" lon="8.342407725478607"><ele>199.0</ele><time>2026-05-03T10:41:38.002Z</time></trkpt><trkpt lat="45.04572928222549" lon="8.342423006215263"><ele>199.0</ele><time>2026-05-03T10:41:40.002Z</time></trkpt><trkpt lat="45.04565851017958" lon="8.342432385411056"><ele>198.99999999999997</ele><time>2026-05-03T10:41:42.002Z</time></trkpt><trkpt lat="45.04559048543239" lon="8.34244757436829"><ele>199.0</ele><time>2026-05-03T10:41:44.002Z</time></trkpt><trkpt lat="45.04552806062383" lon="8.342468314830203"><ele>198.85714285714283</ele><time>2026-05-03T10:41:46.002Z</time></trkpt><trkpt lat="45.04546019170388" lon="8.342488026401542"><ele>198.71428571428572</ele><time>2026-05-03T10:41:48.002Z</time></trkpt><trkpt lat="45.045384216380164" lon="8.34250826878239"><ele>198.57142857142856</ele><time>2026-05-03T10:41:50.002Z</time></trkpt><trkpt lat="45.04530957704904" lon="8.342528265567514"><ele>198.42857142857142</ele><time>2026-05-03T10:41:52.002Z</time></trkpt><trkpt lat="45.04523922444846" lon="8.342547178222233"><ele>198.28571428571428</ele><time>2026-05-03T10:41:54.002Z</time></trkpt><trkpt lat="45.04516882396848" lon="8.342572577872213"><ele>198.14285714285714</ele><time>2026-05-03T10:41:56.002Z</time></trkpt><trkpt lat="45.045103653671035" lon="8.342576055120215"><ele>198.0</ele><time>2026-05-03T10:41:58.003Z</time></trkpt><trkpt lat="45.04503681836994" lon="8.342575894769482"><ele>198.0</ele><time>2026-05-03T10:42:01.003Z</time></trkpt><trkpt lat="45.044974576082495" lon="8.342603089903992"><ele>198.0</ele><time>2026-05-03T10:42:03.003Z</time></trkpt><trkpt lat="45.04490243399933" lon="8.34263915885116"><ele>198.0</ele><time>2026-05-03T10:42:05.003Z</time></trkpt><trkpt lat="45.04483115188301" lon="8.342679502520745"><ele>198.0</ele><time>2026-05-03T10:42:07.003Z</time></trkpt><trkpt lat="45.04476307973795" lon="8.342726041522939"><ele>198.0</ele><time>2026-05-03T10:42:09.003Z</time></trkpt><trkpt lat="45.04470262667534" lon="8.342771505516836"><ele>198.0</ele><time>2026-05-03T10:42:11.003Z</time></trkpt><trkpt lat="45.04463310577556" lon="8.342821931505444"><ele>198.0</ele><time>2026-05-03T10:42:13.003Z</time></trkpt><trkpt lat="45.04455739019676" lon="8.342847104001635"><ele>199.0</ele><time>2026-05-03T10:42:15.003Z</time></trkpt><trkpt lat="45.04447821851218" lon="8.34286423945624"><ele>200.0</ele><time>2026-05-03T10:42:17.003Z</time></trkpt><trkpt lat="45.04440199568158" lon="8.34288439564982"><ele>201.0</ele><time>2026-05-03T10:42:19.003Z</time></trkpt><trkpt lat="45.04433628221661" lon="8.342894851765244"><ele>202.0</ele><time>2026-05-03T10:42:21.003Z</time></trkpt><trkpt lat="45.04426497271707" lon="8.342915647634172"><ele>203.0</ele><time>2026-05-03T10:42:23.003Z</time></trkpt><trkpt lat="45.04417746591588" lon="8.34295605573891"><ele>204.0</ele><time>2026-05-03T10:42:25.998Z</time></trkpt><trkpt lat="45.044116946070375" lon="8.342989726574663"><ele>203.16666666666666</ele><time>2026-05-03T10:42:27.999Z</time></trkpt><trkpt lat="45.04403240502332" lon="8.343035516319915"><ele>202.33333333333331</ele><time>2026-05-03T10:42:30.999Z</time></trkpt><trkpt lat="45.04397151645438" lon="8.343063204931195"><ele>201.5</ele><time>2026-05-03T10:42:32.999Z</time></trkpt><trkpt lat="45.04387960403425" lon="8.343080737164039"><ele>200.66666666666666</ele><time>2026-05-03T10:42:35.999Z</time></trkpt><trkpt lat="45.04381426683613" lon="8.343120550207543"><ele>199.83333333333331</ele><time>2026-05-03T10:42:37.999Z</time></trkpt><trkpt lat="45.043750846334994" lon="8.34317553884912"><ele>199.0</ele><time>2026-05-03T10:42:39.999Z</time></trkpt><trkpt lat="45.0436883530679" lon="8.343217297560463"><ele>198.99999999999997</ele><time>2026-05-03T10:42:41.999Z</time></trkpt><trkpt lat="45.04362568427341" lon="8.343249435525893"><ele>199.0</ele><time>2026-05-03T10:42:44Z</time></trkpt><trkpt lat="45.04353380745036" lon="8.343267459466032"><ele>199.0</ele><time>2026-05-03T10:42:47Z</time></trkpt><trkpt lat="45.04346902768565" lon="8.343286177690022"><ele>199.0</ele><time>2026-05-03T10:42:49Z</time></trkpt><trkpt lat="45.04340674751963" lon="8.343311506245353"><ele>199.0</ele><time>2026-05-03T10:42:51Z</time></trkpt><trkpt lat="45.04331853694509" lon="8.34333537285655"><ele>198.99999999999997</ele><time>2026-05-03T10:42:54Z</time></trkpt><trkpt lat="45.043258226651204" lon="8.34336740829192"><ele>199.0</ele><time>2026-05-03T10:42:56Z</time></trkpt><trkpt lat="45.043190093266205" lon="8.343392918551698"><ele>201.7142857142857</ele><time>2026-05-03T10:42:58Z</time></trkpt><trkpt lat="45.043115292500694" lon="8.343417681652511"><ele>204.42857142857142</ele><time>2026-05-03T10:43:00Z</time></trkpt><trkpt lat="45.0430476576198" lon="8.343437950749317"><ele>207.14285714285714</ele><time>2026-05-03T10:43:02Z</time></trkpt><trkpt lat="45.04297480152971" lon="8.343463903729793"><ele>209.85714285714283</ele><time>2026-05-03T10:43:04.001Z</time></trkpt><trkpt lat="45.04290246715918" lon="8.343497022114121"><ele>212.57142857142858</ele><time>2026-05-03T10:43:06.001Z</time></trkpt><trkpt lat="45.042831105920364" lon="8.34351620714147"><ele>215.28571428571428</ele><time>2026-05-03T10:43:08.001Z</time></trkpt><trkpt lat="45.04275424839159" lon="8.343538205582133"><ele>218.0</ele><time>2026-05-03T10:43:10.001Z</time></trkpt><trkpt lat="45.04268487408955" lon="8.343546566680768"><ele>218.00000000000003</ele><time>2026-05-03T10:43:12.001Z</time></trkpt><trkpt lat="45.04261049912338" lon="8.343559118915627"><ele>218.0</ele><time>2026-05-03T10:43:14.001Z</time></trkpt><trkpt lat="45.04253447862211" lon="8.343580893627545"><ele>218.0</ele><time>2026-05-03T10:43:16.001Z</time></trkpt><trkpt lat="45.0424648782556" lon="8.343609297941347"><ele>218.0</ele><time>2026-05-03T10:43:18.001Z</time></trkpt><trkpt lat="45.042390192149284" lon="8.343650842908612"><ele>218.00000000000003</ele><time>2026-05-03T10:43:20.001Z</time></trkpt><trkpt lat="45.0423216351267" lon="8.343701070300472"><ele>218.0</ele><time>2026-05-03T10:43:22.001Z</time></trkpt><trkpt lat="45.04224559185213" lon="8.343744342292178"><ele>219.4</ele><time>2026-05-03T10:43:24.001Z</time></trkpt><trkpt lat="45.04216058276852" lon="8.343778336767949"><ele>220.8</ele><time>2026-05-03T10:43:26.001Z</time></trkpt><trkpt lat="45.04207098789031" lon="8.343810865563007"><ele>222.2</ele><time>2026-05-03T10:43:28.001Z</time></trkpt><trkpt lat="45.04197238779083" lon="8.343844118080527"><ele>223.6</ele><time>2026-05-03T10:43:30.001Z</time></trkpt><trkpt lat="45.04187255191492" lon="8.34387259617838"><ele>225.0</ele><time>2026-05-03T10:43:32.001Z</time></trkpt><trkpt lat="45.041725568110536" lon="8.343849537289591"><ele>224.2</ele><time>2026-05-03T10:43:35.001Z</time></trkpt><trkpt lat="45.04162934977535" lon="8.343824447110267"><ele>223.4</ele><time>2026-05-03T10:43:37.001Z</time></trkpt><trkpt lat="45.041547252396725" lon="8.343765280025426"><ele>222.60000000000002</ele><time>2026-05-03T10:43:39.002Z</time></trkpt><trkpt lat="45.04148209941319" lon="8.343663445057587"><ele>221.8</ele><time>2026-05-03T10:43:41.002Z</time></trkpt><trkpt lat="45.041405702106545" lon="8.343580040465937"><ele>221.0</ele><time>2026-05-03T10:43:43.002Z</time></trkpt><trkpt lat="45.04132212832945" lon="8.343538619537869"><ele>221.0</ele><time>2026-05-03T10:43:45.002Z</time></trkpt><trkpt lat="45.04124131778366" lon="8.343499954777585"><ele>221.00000000000003</ele><time>2026-05-03T10:43:47.002Z</time></trkpt><trkpt lat="45.04115758578883" lon="8.34345446775377"><ele>221.00000000000003</ele><time>2026-05-03T10:43:49.002Z</time></trkpt><trkpt lat="45.041082315160054" lon="8.343377295366723"><ele>221.0</ele><time>2026-05-03T10:43:51.002Z</time></trkpt><trkpt lat="45.04099428643789" lon="8.343312513152057"><ele>221.0</ele><time>2026-05-03T10:43:53.002Z</time></trkpt><trkpt lat="45.04090625516018" lon="8.343259766472944"><ele>221.0</ele><time>2026-05-03T10:43:55.002Z</time></trkpt><trkpt lat="45.040809881912004" lon="8.343215354127528"><ele>221.00000000000003</ele><time>2026-05-03T10:43:57.002Z</time></trkpt><trkpt lat="45.040719507900185" lon="8.34316967721502"><ele>221.00000000000003</ele><time>2026-05-03T10:43:59.002Z</time></trkpt><trkpt lat="45.040627483570425" lon="8.34313623701157"><ele>221.0</ele><time>2026-05-03T10:44:01.002Z</time></trkpt><trkpt lat="45.04052342930174" lon="8.34309856038533"><ele>221.0</ele><time>2026-05-03T10:44:03.002Z</time></trkpt><trkpt lat="45.040419115733414" lon="8.343074310708872"><ele>221.60000000000002</ele><time>2026-05-03T10:44:05.002Z</time></trkpt><trkpt lat="45.04031857745544" lon="8.343035150553037"><ele>222.20000000000002</ele><time>2026-05-03T10:44:07.002Z</time></trkpt><trkpt lat="45.04021942876555" lon="8.342993579508656"><ele>222.79999999999998</ele><time>2026-05-03T10:44:09.002Z</time></trkpt><trkpt lat="45.04011501331993" lon="8.342952491904143"><ele>223.39999999999998</ele><time>2026-05-03T10:44:11.002Z</time></trkpt><trkpt lat="45.04002858050553" lon="8.342912836841391"><ele>224.0</ele><time>2026-05-03T10:44:13.002Z</time></trkpt><trkpt lat="45.03996246290332" lon="8.342878873698199"><ele>224.0</ele><time>2026-05-03T10:44:15.002Z</time></trkpt><trkpt lat="45.03990256981193" lon="8.342846089751694"><ele>224.0</ele><time>2026-05-03T10:44:17.002Z</time></trkpt><trkpt lat="45.03985065790132" lon="8.342795479771729"><ele>224.0</ele><time>2026-05-03T10:44:19.002Z</time></trkpt><trkpt lat="45.03980839847937" lon="8.34272828607891"><ele>224.0</ele><time>2026-05-03T10:44:21.003Z</time></trkpt><trkpt lat="45.039785089392296" lon="8.342642251761825"><ele>224.0</ele><time>2026-05-03T10:44:23.003Z</time></trkpt><trkpt lat="45.039749252403254" lon="8.34252793256141"><ele>224.0</ele><time>2026-05-03T10:49:08Z</time></trkpt><trkpt lat="45.039726323812054" lon="8.34243819192754"><ele>224.0</ele><time>2026-05-03T10:49:11Z</time></trkpt><trkpt lat="45.039699047268726" lon="8.342328788313505"><ele>221.83333333333334</ele><time>2026-05-03T10:49:15.001Z</time></trkpt><trkpt lat="45.03966612299605" lon="8.342192787117996"><ele>219.66666666666669</ele><time>2026-05-03T10:49:19.001Z</time></trkpt><trkpt lat="45.039641580247796" lon="8.342089823864011"><ele>217.5</ele><time>2026-05-03T10:49:21.001Z</time></trkpt><trkpt lat="45.03961387345412" lon="8.34195828709013"><ele>215.33333333333331</ele><time>2026-05-03T10:49:24.001Z</time></trkpt><trkpt lat="45.039590383726164" lon="8.341871451153517"><ele>213.16666666666666</ele><time>2026-05-03T10:49:26.001Z</time></trkpt><trkpt lat="45.039547335959526" lon="8.341762642026366"><ele>211.0</ele><time>2026-05-03T10:49:29.001Z</time></trkpt><trkpt lat="45.03948803206823" lon="8.341669514484078"><ele>211.0</ele><time>2026-05-03T10:49:31.001Z</time></trkpt><trkpt lat="45.03942330499872" lon="8.341566816976666"><ele>211.0</ele><time>2026-05-03T10:49:33.001Z</time></trkpt><trkpt lat="45.03936451025768" lon="8.34146906771048"><ele>211.0</ele><time>2026-05-03T10:49:35.001Z</time></trkpt><trkpt lat="45.03931006377246" lon="8.34134154530133"><ele>211.0</ele><time>2026-05-03T10:49:37.001Z</time></trkpt><trkpt lat="45.03926431168238" lon="8.341235982858692"><ele>211.0</ele><time>2026-05-03T10:49:39.001Z</time></trkpt><trkpt lat="45.039207727394356" lon="8.341139616605846"><ele>209.20000000000002</ele><time>2026-05-03T10:49:41.001Z</time></trkpt><trkpt lat="45.03914254180152" lon="8.341040764779702"><ele>207.4</ele><time>2026-05-03T10:49:43.001Z</time></trkpt><trkpt lat="45.039056864895805" lon="8.340924429866035"><ele>205.6</ele><time>2026-05-03T10:49:45.002Z</time></trkpt><trkpt lat="45.038986067894704" lon="8.34081116527867"><ele>203.8</ele><time>2026-05-03T10:49:47.002Z</time></trkpt><trkpt lat="45.038903965126316" lon="8.340672385522137"><ele>202.0</ele><time>2026-05-03T10:49:49.002Z</time></trkpt><trkpt lat="45.038859184989434" lon="8.34058826770836"><ele>199.6</ele><time>2026-05-03T10:49:50.002Z</time></trkpt><trkpt lat="45.03881093802437" lon="8.340495185208423"><ele>197.2</ele><time>2026-05-03T10:49:51.002Z</time></trkpt><trkpt lat="45.03875898619662" lon="8.340396347500853"><ele>194.8</ele><time>2026-05-03T10:49:52.002Z</time></trkpt><trkpt lat="45.03870939537536" lon="8.340286762714582"><ele>192.4</ele><time>2026-05-03T10:49:53.002Z</time></trkpt><trkpt lat="45.03865927804683" lon="8.340169718095495"><ele>190.0</ele><time>2026-05-03T10:49:54.002Z</time></trkpt><trkpt lat="45.03860646545691" lon="8.340056741268619"><ele>190.0</ele><time>2026-05-03T10:49:55.002Z</time></trkpt><trkpt lat="45.03855947262557" lon="8.33995912466434"><ele>190.0</ele><time>2026-05-03T10:49:56.002Z</time></trkpt><trkpt lat="45.038520504918736" lon="8.339872502603589"><ele>190.0</ele><time>2026-05-03T10:49:57.002Z</time></trkpt><trkpt lat="45.03846382333647" lon="8.339744701208513"><ele>190.0</ele><time>2026-05-03T10:49:59.002Z</time></trkpt><trkpt lat="45.038417875742404" lon="8.33967540900868"><ele>190.0</ele><time>2026-05-03T10:50:02.002Z</time></trkpt><trkpt lat="45.03841759604567" lon="8.339578188186888"><ele>190.0</ele><time>2026-05-03T10:50:07.002Z</time></trkpt><trkpt lat="45.03848915970544" lon="8.339531525656765"><ele>189.83333333333334</ele><time>2026-05-03T10:50:10.002Z</time></trkpt><trkpt lat="45.038547732543556" lon="8.339498800242591"><ele>189.66666666666669</ele><time>2026-05-03T10:50:12.002Z</time></trkpt><trkpt lat="45.03862953633202" lon="8.339440563035815"><ele>189.5</ele><time>2026-05-03T10:50:15.002Z</time></trkpt><trkpt lat="45.03869756674141" lon="8.33936488290619"><ele>189.33333333333334</ele><time>2026-05-03T10:50:18.002Z</time></trkpt><trkpt lat="45.0387747616298" lon="8.339292706233502"><ele>189.16666666666666</ele><time>2026-05-03T10:50:21.003Z</time></trkpt><trkpt lat="45.03883684169267" lon="8.339238756350797"><ele>189.0</ele><time>2026-05-03T10:50:23.003Z</time></trkpt><trkpt lat="45.03888882644707" lon="8.33918187502983"><ele>189.0</ele><time>2026-05-03T10:50:25.003Z</time></trkpt><trkpt lat="45.03895868605971" lon="8.339103183749385"><ele>189.0</ele><time>2026-05-03T10:50:28.003Z</time></trkpt><trkpt lat="45.0390176155264" lon="8.339049985796672"><ele>189.0</ele><time>2026-05-03T10:50:30.003Z</time></trkpt><trkpt lat="45.03907687816041" lon="8.338983216144683"><ele>189.0</ele><time>2026-05-03T10:50:32.003Z</time></trkpt><trkpt lat="45.039132536468294" lon="8.338915083713056"><ele>189.0</ele><time>2026-05-03T10:50:34.003Z</time></trkpt><trkpt lat="45.03919298694953" lon="8.33884631368488"><ele>189.0</ele><time>2026-05-03T10:50:36.003Z</time></trkpt><trkpt lat="45.039247951823214" lon="8.338777445278197"><ele>188.83333333333334</ele><time>2026-05-03T10:50:38.003Z</time></trkpt><trkpt lat="45.03929502983223" lon="8.33871498987844"><ele>188.66666666666666</ele><time>2026-05-03T10:50:40.003Z</time></trkpt><trkpt lat="45.03932975629347" lon="8.33863341714101"><ele>188.5</ele><time>2026-05-03T10:50:42.003Z</time></trkpt><trkpt lat="45.039308519967435" lon="8.33853834454562"><ele>188.33333333333331</ele><time>2026-05-03T10:50:44.003Z</time></trkpt><trkpt lat="45.03923022417976" lon="8.338457480518978"><ele>188.16666666666666</ele><time>2026-05-03T10:50:46.003Z</time></trkpt><trkpt lat="45.03914483421052" lon="8.338402369022878"><ele>188.0</ele><time>2026-05-03T10:50:47.998Z</time></trkpt><trkpt lat="45.03906631235754" lon="8.33835442705534"><ele>188.0</ele><time>2026-05-03T10:50:49.999Z</time></trkpt><trkpt lat="45.038989000552625" lon="8.338309564825504"><ele>188.0</ele><time>2026-05-03T10:50:51.999Z</time></trkpt><trkpt lat="45.038901620262735" lon="8.338286695099109"><ele>188.0</ele><time>2026-05-03T10:50:53.999Z</time></trkpt><trkpt lat="45.03879565307564" lon="8.338283459391187"><ele>188.0</ele><time>2026-05-03T10:50:55.999Z</time></trkpt><trkpt lat="45.038688326994304" lon="8.338278363016917"><ele>188.0</ele><time>2026-05-03T10:50:57.999Z</time></trkpt><trkpt lat="45.038578613879835" lon="8.338270915841788"><ele>188.0</ele><time>2026-05-03T10:50:59.999Z</time></trkpt><trkpt lat="45.03846815380089" lon="8.338231078772264"><ele>188.0</ele><time>2026-05-03T10:51:01.999Z</time></trkpt><trkpt lat="45.03836816964655" lon="8.338160514881581"><ele>188.0</ele><time>2026-05-03T10:51:03.999Z</time></trkpt><trkpt lat="45.03826867698083" lon="8.338079108094052"><ele>188.0</ele><time>2026-05-03T10:51:06Z</time></trkpt><trkpt lat="45.03817127069845" lon="8.338007848117316"><ele>189.0</ele><time>2026-05-03T10:51:08Z</time></trkpt><trkpt lat="45.038073593176854" lon="8.337946645586964"><ele>190.0</ele><time>2026-05-03T10:51:10Z</time></trkpt><trkpt lat="45.03797984758028" lon="8.337905560522557"><ele>191.0</ele><time>2026-05-03T10:51:12Z</time></trkpt><trkpt lat="45.03789291143238" lon="8.337865576163974"><ele>192.0</ele><time>2026-05-03T10:51:14Z</time></trkpt><trkpt lat="45.037819360810936" lon="8.337812686925052"><ele>193.0</ele><time>2026-05-03T10:51:16Z</time></trkpt><trkpt lat="45.03775158155148" lon="8.337726535849589"><ele>192.99999999999997</ele><time>2026-05-03T10:51:18Z</time></trkpt><trkpt lat="45.037692045698066" lon="8.337633662894445"><ele>193.0</ele><time>2026-05-03T10:51:20Z</time></trkpt><trkpt lat="45.03761961747223" lon="8.337554616887473"><ele>193.0</ele><time>2026-05-03T10:51:22Z</time></trkpt><trkpt lat="45.03755157038887" lon="8.33747113257501"><ele>193.0</ele><time>2026-05-03T10:51:24Z</time></trkpt><trkpt lat="45.03749062059384" lon="8.33738764988342"><ele>192.99999999999997</ele><time>2026-05-03T10:51:26.001Z</time></trkpt><trkpt lat="45.0374506517652" lon="8.337285120784554"><ele>193.0</ele><time>2026-05-03T10:51:28.001Z</time></trkpt><trkpt lat="45.03743613001052" lon="8.33717756955927"><ele>193.16666666666666</ele><time>2026-05-03T10:51:30.001Z</time></trkpt><trkpt lat="45.03742463451629" lon="8.337076320858607"><ele>193.33333333333331</ele><time>2026-05-03T10:51:32.001Z</time></trkpt><trkpt lat="45.03740671273141" lon="8.336951153499799"><ele>193.5</ele><time>2026-05-03T10:51:34.001Z</time></trkpt><trkpt lat="45.03740718524483" lon="8.336826785787407"><ele>193.66666666666669</ele><time>2026-05-03T10:51:36.001Z</time></trkpt><trkpt lat="45.037418543480584" lon="8.336697360847813"><ele>193.83333333333334</ele><time>2026-05-03T10:51:38.001Z</time></trkpt><trkpt lat="45.03747464766716" lon="8.336579806055724"><ele>194.0</ele><time>2026-05-03T10:51:40.001Z</time></trkpt><trkpt lat="45.037553682065536" lon="8.336496987128662"><ele>194.0</ele><time>2026-05-03T10:51:42.001Z</time></trkpt><trkpt lat="45.0376556539035" lon="8.336456577626556"><ele>194.0</ele><time>2026-05-03T10:51:44.001Z</time></trkpt><trkpt lat="45.03774559759346" lon="8.336393805221888"><ele>194.0</ele><time>2026-05-03T10:51:46.001Z</time></trkpt><trkpt lat="45.03783864272678" lon="8.336345349823112"><ele>194.0</ele><time>2026-05-03T10:51:48.001Z</time></trkpt><trkpt lat="45.03792061125938" lon="8.3362831897282"><ele>194.0</ele><time>2026-05-03T10:51:50.001Z</time></trkpt><trkpt lat="45.037999909566246" lon="8.336226386593115"><ele>194.00000000000003</ele><time>2026-05-03T10:51:52.001Z</time></trkpt><trkpt lat="45.038086449102394" lon="8.336152645194431"><ele>194.0</ele><time>2026-05-03T10:51:54.002Z</time></trkpt><trkpt lat="45.03816794171473" lon="8.336091741737036"><ele>194.0</ele><time>2026-05-03T10:51:56.002Z</time></trkpt><trkpt lat="45.03824125401236" lon="8.336041918014125"><ele>194.0</ele><time>2026-05-03T10:51:58.002Z</time></trkpt><trkpt lat="45.038335580241586" lon="8.336005078989535"><ele>194.00000000000003</ele><time>2026-05-03T10:52:00.002Z</time></trkpt><trkpt lat="45.03840689111667" lon="8.335974477409007"><ele>194.0</ele><time>2026-05-03T10:52:02.002Z</time></trkpt><trkpt lat="45.03847887109876" lon="8.335906621673374"><ele>194.00000000000003</ele><time>2026-05-03T10:52:05.002Z</time></trkpt><trkpt lat="45.03854628437888" lon="8.335870953999539"><ele>194.0</ele><time>2026-05-03T10:52:07.002Z</time></trkpt><trkpt lat="45.03859126932824" lon="8.33577563065729"><ele>194.0</ele><time>2026-05-03T10:52:09.002Z</time></trkpt><trkpt lat="45.038625395670934" lon="8.335657920507348"><ele>194.0</ele><time>2026-05-03T10:52:11.002Z</time></trkpt><trkpt lat="45.038652944509586" lon="8.335551836679162"><ele>194.00000000000003</ele><time>2026-05-03T10:52:13.002Z</time></trkpt><trkpt lat="45.0386804842301" lon="8.335459035997422"><ele>194.0</ele><time>2026-05-03T10:52:15.002Z</time></trkpt><trkpt lat="45.03870400704776" lon="8.335362777294353"><ele>194.66666666666669</ele><time>2026-05-03T10:52:17.002Z</time></trkpt><trkpt lat="45.03871900210039" lon="8.335272942106958"><ele>195.33333333333334</ele><time>2026-05-03T10:52:19.002Z</time></trkpt><trkpt lat="45.03874740328715" lon="8.335177269096665"><ele>196.0</ele><time>2026-05-03T10:52:21.002Z</time></trkpt><trkpt lat="45.038766928838484" lon="8.335051053183557"><ele>196.66666666666669</ele><time>2026-05-03T10:52:23.002Z</time></trkpt><trkpt lat="45.03879534605544" lon="8.334925130076517"><ele>197.33333333333334</ele><time>2026-05-03T10:52:25.002Z</time></trkpt><trkpt lat="45.0388216047349" lon="8.33481212782612"><ele>198.0</ele><time>2026-05-03T10:52:27.003Z</time></trkpt><trkpt lat="45.038856552138775" lon="8.334690862506601"><ele>199.33333333333334</ele><time>2026-05-03T10:52:29.003Z</time></trkpt><trkpt lat="45.03888386676131" lon="8.334585460296184"><ele>200.66666666666669</ele><time>2026-05-03T10:52:31.003Z</time></trkpt><trkpt lat="45.03891193290883" lon="8.334459759705416"><ele>202.0</ele><time>2026-05-03T10:52:33.003Z</time></trkpt><trkpt lat="45.03894012826178" lon="8.334350303021356"><ele>203.33333333333334</ele><time>2026-05-03T10:52:35.003Z</time></trkpt><trkpt lat="45.03896992706655" lon="8.334229143971667"><ele>204.66666666666669</ele><time>2026-05-03T10:52:37.003Z</time></trkpt><trkpt lat="45.03901714699897" lon="8.33410801649648"><ele>206.0</ele><time>2026-05-03T10:52:39.003Z</time></trkpt><trkpt lat="45.03905882750936" lon="8.33402298299261"><ele>206.00000000000003</ele><time>2026-05-03T10:52:41.003Z</time></trkpt><trkpt lat="45.03911144774253" lon="8.333953060337688"><ele>206.0</ele><time>2026-05-03T10:52:43.003Z</time></trkpt><trkpt lat="45.03919310667687" lon="8.333882853324056"><ele>206.0</ele><time>2026-05-03T10:52:46.003Z</time></trkpt><trkpt lat="45.039265320695634" lon="8.333806367761019"><ele>206.0</ele><time>2026-05-03T10:52:48.003Z</time></trkpt><trkpt lat="45.03931353824377" lon="8.333736147414665"><ele>206.00000000000003</ele><time>2026-05-03T10:52:49.003Z</time></trkpt><trkpt lat="45.03937724253602" lon="8.333630127456063"><ele>206.0</ele><time>2026-05-03T10:52:51.003Z</time></trkpt><trkpt lat="45.0393910862097" lon="8.333491227421653"><ele>205.0</ele><time>2026-05-03T10:52:53.003Z</time></trkpt><trkpt lat="45.03939409046692" lon="8.333358458773267"><ele>204.0</ele><time>2026-05-03T10:52:54.998Z</time></trkpt><trkpt lat="45.03938633807962" lon="8.333220451123577"><ele>203.0</ele><time>2026-05-03T10:52:56.998Z</time></trkpt><trkpt lat="45.0393649960158" lon="8.333061260915958"><ele>202.0</ele><time>2026-05-03T10:52:58.998Z</time></trkpt><trkpt lat="45.03935562866828" lon="8.332916611220869"><ele>201.0</ele><time>2026-05-03T10:53:00.998Z</time></trkpt><trkpt lat="45.03934328593963" lon="8.332769649754722"><ele>201.0</ele><time>2026-05-03T10:53:02.999Z</time></trkpt><trkpt lat="45.03932840690024" lon="8.332632486465728"><ele>201.0</ele><time>2026-05-03T10:53:04.999Z</time></trkpt><trkpt lat="45.03930476347901" lon="8.332491077758633"><ele>201.0</ele><time>2026-05-03T10:53:06.999Z</time></trkpt><trkpt lat="45.03928467012144" lon="8.332356980857217"><ele>201.0</ele><time>2026-05-03T10:53:08.999Z</time></trkpt><trkpt lat="45.03926737112484" lon="8.332221268741234"><ele>201.0</ele><time>2026-05-03T10:53:10.999Z</time></trkpt><trkpt lat="45.03924320102713" lon="8.33207398975022"><ele>201.0</ele><time>2026-05-03T10:53:12.999Z</time></trkpt><trkpt lat="45.03922541067839" lon="8.331924147068579"><ele>201.0</ele><time>2026-05-03T10:53:15Z</time></trkpt><trkpt lat="45.03920955372069" lon="8.331770990285944"><ele>201.0</ele><time>2026-05-03T10:53:17Z</time></trkpt><trkpt lat="45.03919512955042" lon="8.33161252946811"><ele>201.0</ele><time>2026-05-03T10:53:19Z</time></trkpt><trkpt lat="45.039170219285126" lon="8.33145795778629"><ele>201.0</ele><time>2026-05-03T10:53:21Z</time></trkpt><trkpt lat="45.039142603080975" lon="8.331301843306854"><ele>201.25</ele><time>2026-05-03T10:53:23Z</time></trkpt><trkpt lat="45.03912945286653" lon="8.33114498405856"><ele>201.5</ele><time>2026-05-03T10:53:25Z</time></trkpt><trkpt lat="45.039135892944216" lon="8.330981549320898"><ele>201.75</ele><time>2026-05-03T10:53:27Z</time></trkpt><trkpt lat="45.03915585905301" lon="8.33081992079854"><ele>202.0</ele><time>2026-05-03T10:53:29Z</time></trkpt><trkpt lat="45.03919733585394" lon="8.33067935570027"><ele>202.0</ele><time>2026-05-03T10:53:31Z</time></trkpt><trkpt lat="45.039249060906535" lon="8.330553977353938"><ele>202.0</ele><time>2026-05-03T10:53:33.001Z</time></trkpt><trkpt lat="45.03926396398493" lon="8.330416621661906"><ele>202.0</ele><time>2026-05-03T10:53:35.001Z</time></trkpt><trkpt lat="45.0392125539264" lon="8.330281813008408"><ele>202.0</ele><time>2026-05-03T10:53:37.001Z</time></trkpt><trkpt lat="45.039149276258435" lon="8.330118198046206"><ele>202.0</ele><time>2026-05-03T10:53:39.001Z</time></trkpt><trkpt lat="45.03908414443738" lon="8.330062427129985"><ele>205.39999999999998</ele><time>2026-05-03T10:53:40.001Z</time></trkpt><trkpt lat="45.03903830252764" lon="8.329980109345513"><ele>208.79999999999998</ele><time>2026-05-03T10:53:41.001Z</time></trkpt><trkpt lat="45.03899259365307" lon="8.3298384515619"><ele>212.2</ele><time>2026-05-03T10:53:42.001Z</time></trkpt><trkpt lat="45.038950132244935" lon="8.329752752240413"><ele>215.6</ele><time>2026-05-03T10:53:43.001Z</time></trkpt><trkpt lat="45.038882361071835" lon="8.329617545799593"><ele>219.0</ele><time>2026-05-03T10:53:45.001Z</time></trkpt><trkpt lat="45.03883981818101" lon="8.329493095402587"><ele>219.0</ele><time>2026-05-03T10:53:47.001Z</time></trkpt><trkpt lat="45.038797173370725" lon="8.329347451763676"><ele>218.99999999999997</ele><time>2026-05-03T10:53:49.001Z</time></trkpt><trkpt lat="45.03876538430193" lon="8.329205747190938"><ele>218.99999999999997</ele><time>2026-05-03T10:53:51.001Z</time></trkpt><trkpt lat="45.03873956898649" lon="8.329068406896836"><ele>219.0</ele><time>2026-05-03T10:53:53.001Z</time></trkpt><trkpt lat="45.03875741579822" lon="8.328954302244107"><ele>219.0</ele><time>2026-05-03T10:53:55.001Z</time></trkpt><trkpt lat="45.03872840013781" lon="8.32882575398294"><ele>218.2</ele><time>2026-05-03T10:53:57.001Z</time></trkpt><trkpt lat="45.03871147598573" lon="8.328677282611089"><ele>217.39999999999998</ele><time>2026-05-03T10:53:59.001Z</time></trkpt><trkpt lat="45.03869857954993" lon="8.32852797947094"><ele>216.6</ele><time>2026-05-03T10:54:01.002Z</time></trkpt><trkpt lat="45.03870262884031" lon="8.328398444515864"><ele>215.8</ele><time>2026-05-03T10:54:03.002Z</time></trkpt><trkpt lat="45.03874359027561" lon="8.328304958940718"><ele>215.0</ele><time>2026-05-03T10:54:05.002Z</time></trkpt><trkpt lat="45.038778071611965" lon="8.328217709759992"><ele>215.0</ele><time>2026-05-03T10:54:07.002Z</time></trkpt><trkpt lat="45.038789220655026" lon="8.328089305097647"><ele>215.0</ele><time>2026-05-03T10:54:09.002Z</time></trkpt><trkpt lat="45.038780644277615" lon="8.327959030638757"><ele>215.0</ele><time>2026-05-03T10:54:11.002Z</time></trkpt><trkpt lat="45.0387631385797" lon="8.327821590783692"><ele>215.0</ele><time>2026-05-03T10:54:13.002Z</time></trkpt><trkpt lat="45.03875187093464" lon="8.327695949763282"><ele>215.0</ele><time>2026-05-03T10:54:15.002Z</time></trkpt><trkpt lat="45.03874763464239" lon="8.327557549999623"><ele>214.4</ele><time>2026-05-03T10:54:17.002Z</time></trkpt><trkpt lat="45.03874338115405" lon="8.327420216073389"><ele>213.8</ele><time>2026-05-03T10:54:19.002Z</time></trkpt><trkpt lat="45.03874200079255" lon="8.32727598141647"><ele>213.2</ele><time>2026-05-03T10:54:21.002Z</time></trkpt><trkpt lat="45.03873968559053" lon="8.327136837761923"><ele>212.6</ele><time>2026-05-03T10:54:23.002Z</time></trkpt><trkpt lat="45.03873569891079" lon="8.326995201317414"><ele>212.0</ele><time>2026-05-03T10:54:25.002Z</time></trkpt><trkpt lat="45.03871628030753" lon="8.326833912949809"><ele>211.2</ele><time>2026-05-03T10:54:27.002Z</time></trkpt><trkpt lat="45.038703502526424" lon="8.32669350698051"><ele>210.39999999999998</ele><time>2026-05-03T10:54:29.002Z</time></trkpt><trkpt lat="45.03868805294007" lon="8.326547339174526"><ele>209.60000000000002</ele><time>2026-05-03T10:54:31.002Z</time></trkpt><trkpt lat="45.03867214890881" lon="8.326412867632326"><ele>208.8</ele><time>2026-05-03T10:54:33.003Z</time></trkpt><trkpt lat="45.03866863807513" lon="8.326273649561152"><ele>208.0</ele><time>2026-05-03T10:54:35.003Z</time></trkpt><trkpt lat="45.03866817018693" lon="8.326145923404257"><ele>209.83333333333331</ele><time>2026-05-03T10:54:37.003Z</time></trkpt><trkpt lat="45.038703629190614" lon="8.326035002399472"><ele>211.66666666666666</ele><time>2026-05-03T10:54:39.003Z</time></trkpt><trkpt lat="45.03872722069791" lon="8.325941171115952"><ele>213.5</ele><time>2026-05-03T10:54:41.003Z</time></trkpt><trkpt lat="45.038768045234995" lon="8.325868247821285"><ele>215.33333333333331</ele><time>2026-05-03T10:54:52.003Z</time></trkpt><trkpt lat="45.03879288126867" lon="8.325777095062499"><ele>217.16666666666666</ele><time>2026-05-03T10:54:56.003Z</time></trkpt><trkpt lat="45.038808021014965" lon="8.325650484106342"><ele>219.0</ele><time>2026-05-03T10:54:59.003Z</time></trkpt><trkpt lat="45.03883409325987" lon="8.325522601064513"><ele>220.33333333333334</ele><time>2026-05-03T10:55:01.998Z</time></trkpt><trkpt lat="45.03884398580156" lon="8.32541953442366"><ele>221.66666666666669</ele><time>2026-05-03T10:55:03.998Z</time></trkpt><trkpt lat="45.03885150798769" lon="8.325283692249961"><ele>223.0</ele><time>2026-05-03T10:55:06.999Z</time></trkpt><trkpt lat="45.038856755749535" lon="8.325164976468406"><ele>224.33333333333334</ele><time>2026-05-03T10:55:08.999Z</time></trkpt><trkpt lat="45.03888397344592" lon="8.325056292925668"><ele>225.66666666666669</ele><time>2026-05-03T10:55:10.999Z</time></trkpt><trkpt lat="45.03889968973627" lon="8.324948335549577"><ele>227.0</ele><time>2026-05-03T10:55:12.999Z</time></trkpt><trkpt lat="45.03891464387903" lon="8.324843315066156"><ele>227.0</ele><time>2026-05-03T10:55:14.999Z</time></trkpt><trkpt lat="45.038941031742176" lon="8.324745333493173"><ele>227.0</ele><time>2026-05-03T10:55:16.999Z</time></trkpt><trkpt lat="45.038948043939556" lon="8.324615266278268"><ele>227.0</ele><time>2026-05-03T10:55:18.999Z</time></trkpt><trkpt lat="45.03897078606948" lon="8.324479744056129"><ele>227.0</ele><time>2026-05-03T10:55:21Z</time></trkpt><trkpt lat="45.03901610037478" lon="8.324355221540321"><ele>227.0</ele><time>2026-05-03T10:55:23Z</time></trkpt><trkpt lat="45.03903951117079" lon="8.32423127441923"><ele>229.6</ele><time>2026-05-03T10:55:25Z</time></trkpt><trkpt lat="45.0390401083631" lon="8.32409686250803"><ele>232.2</ele><time>2026-05-03T10:55:27Z</time></trkpt><trkpt lat="45.03905005939884" lon="8.323954328931785"><ele>234.8</ele><time>2026-05-03T10:55:29Z</time></trkpt><trkpt lat="45.039051058980334" lon="8.323822807155151"><ele>237.4</ele><time>2026-05-03T10:55:31Z</time></trkpt><trkpt lat="45.03906127937952" lon="8.323696104493004"><ele>240.0</ele><time>2026-05-03T10:55:33Z</time></trkpt><trkpt lat="45.03908068114918" lon="8.323566485696254"><ele>243.0</ele><time>2026-05-03T10:55:35Z</time></trkpt><trkpt lat="45.039119143583484" lon="8.323440973619675"><ele>246.0</ele><time>2026-05-03T10:55:37Z</time></trkpt><trkpt lat="45.03914273491021" lon="8.323282619673098"><ele>249.0</ele><time>2026-05-03T10:55:39.001Z</time></trkpt><trkpt lat="45.03916182837631" lon="8.323142737234068"><ele>252.0</ele><time>2026-05-03T10:55:41.001Z</time></trkpt><trkpt lat="45.0391847822176" lon="8.323033046975475"><ele>255.0</ele><time>2026-05-03T10:55:43.001Z</time></trkpt><trkpt lat="45.039197840051465" lon="8.322927126757495"><ele>250.33333333333334</ele><time>2026-05-03T10:55:45.001Z</time></trkpt><trkpt lat="45.0391960817629" lon="8.322824722212875"><ele>245.66666666666669</ele><time>2026-05-03T10:55:47.001Z</time></trkpt><trkpt lat="45.03921131937795" lon="8.322724940847653"><ele>241.0</ele><time>2026-05-03T10:55:49.001Z</time></trkpt><trkpt lat="45.039263868228154" lon="8.322619324455749"><ele>236.33333333333334</ele><time>2026-05-03T10:55:51.001Z</time></trkpt><trkpt lat="45.03927456699997" lon="8.322478424715012"><ele>231.66666666666669</ele><time>2026-05-03T10:55:53.001Z</time></trkpt><trkpt lat="45.039294377176155" lon="8.322355482475272"><ele>227.0</ele><time>2026-05-03T10:55:55.001Z</time></trkpt><trkpt lat="45.03930885070996" lon="8.32222584757214"><ele>227.00000000000003</ele><time>2026-05-03T10:55:57.001Z</time></trkpt><trkpt lat="45.03931246178973" lon="8.32211729153918"><ele>227.0</ele><time>2026-05-03T10:55:59.001Z</time></trkpt><trkpt lat="45.039330057878274" lon="8.321987936149547"><ele>227.0</ele><time>2026-05-03T10:56:01.001Z</time></trkpt><trkpt lat="45.039343192736794" lon="8.321864075286786"><ele>227.0</ele><time>2026-05-03T10:56:03.001Z</time></trkpt><trkpt lat="45.03936100025697" lon="8.32173888241082"><ele>227.00000000000003</ele><time>2026-05-03T10:56:05.001Z</time></trkpt><trkpt lat="45.03938510148427" lon="8.321624462328261"><ele>227.0</ele><time>2026-05-03T10:56:07.002Z</time></trkpt><trkpt lat="45.03941476603594" lon="8.321514773722837"><ele>227.0</ele><time>2026-05-03T10:56:09.002Z</time></trkpt><trkpt lat="45.03944507161356" lon="8.321419247055026"><ele>227.00000000000003</ele><time>2026-05-03T10:56:11.002Z</time></trkpt><trkpt lat="45.03943903831985" lon="8.321314034533303"><ele>227.0</ele><time>2026-05-03T10:56:13.002Z</time></trkpt><trkpt lat="45.03944180785897" lon="8.321214428411635"><ele>227.0</ele><time>2026-05-03T10:56:15.002Z</time></trkpt><trkpt lat="45.039451492946476" lon="8.321104484551682"><ele>227.00000000000003</ele><time>2026-05-03T10:56:17.002Z</time></trkpt><trkpt lat="45.03946028252868" lon="8.320997765826588"><ele>227.0</ele><time>2026-05-03T10:56:19.002Z</time></trkpt><trkpt lat="45.03945406265201" lon="8.320904607126154"><ele>227.0</ele><time>2026-05-03T10:56:21.002Z</time></trkpt><trkpt lat="45.039445355700245" lon="8.320784760276625"><ele>228.83333333333334</ele><time>2026-05-03T10:56:24.002Z</time></trkpt><trkpt lat="45.03944652399707" lon="8.320676049923636"><ele>230.66666666666669</ele><time>2026-05-03T10:56:26.002Z</time></trkpt><trkpt lat="45.039469737089924" lon="8.320574837843571"><ele>232.5</ele><time>2026-05-03T10:56:28.002Z</time></trkpt><trkpt lat="45.039493184744096" lon="8.320482826734969"><ele>234.33333333333331</ele><time>2026-05-03T10:56:30.002Z</time></trkpt><trkpt lat="45.0395206782857" lon="8.32033678868356"><ele>236.16666666666666</ele><time>2026-05-03T10:56:33.002Z</time></trkpt><trkpt lat="45.03953419721159" lon="8.32022611889309"><ele>238.0</ele><time>2026-05-03T10:56:35.002Z</time></trkpt><trkpt lat="45.03953584367062" lon="8.32010988337433"><ele>238.83333333333331</ele><time>2026-05-03T10:56:37.002Z</time></trkpt><trkpt lat="45.03953420596203" lon="8.320009332871349"><ele>239.66666666666666</ele><time>2026-05-03T10:56:39.003Z</time></trkpt><trkpt lat="45.039526070389336" lon="8.319898473339792"><ele>240.5</ele><time>2026-05-03T10:56:41.003Z</time></trkpt><trkpt lat="45.0395187537944" lon="8.319787522902358"><ele>241.33333333333331</ele><time>2026-05-03T10:56:43.003Z</time></trkpt><trkpt lat="45.03952473972323" lon="8.319649141349103"><ele>242.16666666666666</ele><time>2026-05-03T10:56:45.003Z</time></trkpt><trkpt lat="45.03954012011871" lon="8.319534120561178"><ele>243.0</ele><time>2026-05-03T10:56:47.003Z</time></trkpt><trkpt lat="45.03955737562458" lon="8.319409463148544"><ele>244.0</ele><time>2026-05-03T10:56:49.003Z</time></trkpt><trkpt lat="45.03959381491648" lon="8.319279510880623"><ele>245.0</ele><time>2026-05-03T10:56:51.003Z</time></trkpt><trkpt lat="45.03964680944621" lon="8.319140410465986"><ele>246.0</ele><time>2026-05-03T10:56:53.003Z</time></trkpt><trkpt lat="45.039715991071006" lon="8.319027697806387"><ele>247.0</ele><time>2026-05-03T10:56:55.003Z</time></trkpt><trkpt lat="45.03980468918199" lon="8.31892655496154"><ele>248.0</ele><time>2026-05-03T10:56:57.003Z</time></trkpt><trkpt lat="45.03987720627817" lon="8.318825445568887"><ele>249.8</ele><time>2026-05-03T10:56:59.003Z</time></trkpt><trkpt lat="45.039935779310916" lon="8.3187261798324"><ele>251.60000000000002</ele><time>2026-05-03T10:57:01.003Z</time></trkpt><trkpt lat="45.03998849857073" lon="8.318578757771135"><ele>253.39999999999998</ele><time>2026-05-03T10:57:03.003Z</time></trkpt><trkpt lat="45.04003282711692" lon="8.318441928322132"><ele>255.2</ele><time>2026-05-03T10:57:05.003Z</time></trkpt><trkpt lat="45.04006822571097" lon="8.318296755659311"><ele>257.0</ele><time>2026-05-03T10:57:06.998Z</time></trkpt><trkpt lat="45.04010537935922" lon="8.318153062616641"><ele>251.6</ele><time>2026-05-03T10:57:08.998Z</time></trkpt><trkpt lat="45.04014610997004" lon="8.318013668542811"><ele>246.2</ele><time>2026-05-03T10:57:10.999Z</time></trkpt><trkpt lat="45.04018234942825" lon="8.317870693417417"><ele>240.8</ele><time>2026-05-03T10:57:12.999Z</time></trkpt><trkpt lat="45.0402228805355" lon="8.317728893601263"><ele>235.4</ele><time>2026-05-03T10:57:14.999Z</time></trkpt><trkpt lat="45.04025084292404" lon="8.317569608391983"><ele>230.0</ele><time>2026-05-03T10:57:16.999Z</time></trkpt><trkpt lat="45.04029129684744" lon="8.317435904374358"><ele>230.0</ele><time>2026-05-03T10:57:18.999Z</time></trkpt><trkpt lat="45.04033565783356" lon="8.317313339487265"><ele>230.0</ele><time>2026-05-03T10:57:20.999Z</time></trkpt><trkpt lat="45.040377662895956" lon="8.317181827624639"><ele>230.0</ele><time>2026-05-03T10:57:22.999Z</time></trkpt><trkpt lat="45.04040482875648" lon="8.317060347713063"><ele>230.0</ele><time>2026-05-03T10:57:24.999Z</time></trkpt><trkpt lat="45.040432126899944" lon="8.316937748846732"><ele>230.0</ele><time>2026-05-03T10:57:27Z</time></trkpt><trkpt lat="45.040454178620195" lon="8.316799830915995"><ele>232.8</ele><time>2026-05-03T10:57:29Z</time></trkpt><trkpt lat="45.04049384864662" lon="8.316670897380472"><ele>235.6</ele><time>2026-05-03T10:57:31Z</time></trkpt><trkpt lat="45.04053574633219" lon="8.316540334399672"><ele>238.39999999999998</ele><time>2026-05-03T10:57:33Z</time></trkpt><trkpt lat="45.04057215914887" lon="8.316403025242245"><ele>241.2</ele><time>2026-05-03T10:57:35Z</time></trkpt><trkpt lat="45.04060636447815" lon="8.31626044054964"><ele>244.0</ele><time>2026-05-03T10:57:37Z</time></trkpt><trkpt lat="45.04064543868431" lon="8.316118580455342"><ele>246.4285714285714</ele><time>2026-05-03T10:57:39Z</time></trkpt><trkpt lat="45.040663461997504" lon="8.315995748670522"><ele>248.85714285714283</ele><time>2026-05-03T10:57:41Z</time></trkpt><trkpt lat="45.04068099518684" lon="8.315889578006281"><ele>251.28571428571428</ele><time>2026-05-03T10:57:43Z</time></trkpt><trkpt lat="45.04068045763121" lon="8.315795186967378"><ele>253.7142857142857</ele><time>2026-05-03T10:57:45.001Z</time></trkpt><trkpt lat="45.04068305087177" lon="8.315699225453017"><ele>256.1428571428571</ele><time>2026-05-03T10:57:47.001Z</time></trkpt><trkpt lat="45.04070048333533" lon="8.315608371278174"><ele>258.57142857142856</ele><time>2026-05-03T10:57:49.001Z</time></trkpt><trkpt lat="45.040717305518136" lon="8.315506345883174"><ele>261.0</ele><time>2026-05-03T10:57:51.001Z</time></trkpt><trkpt lat="45.04073406281074" lon="8.315406201099995"><ele>263.1666666666667</ele><time>2026-05-03T10:57:53.001Z</time></trkpt><trkpt lat="45.04074908364295" lon="8.315314903927446"><ele>265.3333333333333</ele><time>2026-05-03T10:57:55.001Z</time></trkpt><trkpt lat="45.04080129347466" lon="8.315206124163183"><ele>267.5</ele><time>2026-05-03T10:57:57.001Z</time></trkpt><trkpt lat="45.04085293172799" lon="8.315098770813917"><ele>269.66666666666663</ele><time>2026-05-03T10:57:59.001Z</time></trkpt><trkpt lat="45.04091766194755" lon="8.314958921698912"><ele>271.8333333333333</ele><time>2026-05-03T10:58:01.001Z</time></trkpt><trkpt lat="45.040966725993215" lon="8.314902227959827"><ele>274.0</ele><time>2026-05-03T10:58:02.001Z</time></trkpt><trkpt lat="45.0410594037793" lon="8.314785048910963"><ele>269.0</ele><time>2026-05-03T10:58:04.001Z</time></trkpt><trkpt lat="45.0410738457084" lon="8.314672197208317"><ele>264.0</ele><time>2026-05-03T10:58:06.001Z</time></trkpt><trkpt lat="45.04109239977802" lon="8.314543066708454"><ele>259.0</ele><time>2026-05-03T10:58:08.001Z</time></trkpt><trkpt lat="45.041045397835084" lon="8.314428989261677"><ele>254.0</ele><time>2026-05-03T10:58:10.001Z</time></trkpt><trkpt lat="45.04098065243023" lon="8.314431890875994"><ele>249.0</ele><time>2026-05-03T10:58:11.001Z</time></trkpt><trkpt lat="45.040865003033616" lon="8.314327658283903"><ele>249.0</ele><time>2026-05-03T10:58:13.002Z</time></trkpt><trkpt lat="45.04081320441591" lon="8.31422846366376"><ele>249.0</ele><time>2026-05-03T10:58:15.002Z</time></trkpt><trkpt lat="45.0407767802625" lon="8.314128601653769"><ele>249.0</ele><time>2026-05-03T10:58:17.002Z</time></trkpt><trkpt lat="45.04074831125891" lon="8.314020711181"><ele>249.0</ele><time>2026-05-03T10:58:19.002Z</time></trkpt><trkpt lat="45.04072520293407" lon="8.313916786651104"><ele>249.0</ele><time>2026-05-03T10:58:21.002Z</time></trkpt><trkpt lat="45.04070401125791" lon="8.313799864100586"><ele>249.0</ele><time>2026-05-03T10:58:23.002Z</time></trkpt><trkpt lat="45.040720181404225" lon="8.313675688750639"><ele>252.0</ele><time>2026-05-03T10:58:26.002Z</time></trkpt><trkpt lat="45.04071345811072" lon="8.313568949023804"><ele>254.99999999999997</ele><time>2026-05-03T10:58:28.002Z</time></trkpt><trkpt lat="45.04071243121187" lon="8.313467035659988"><ele>258.0</ele><time>2026-05-03T10:58:30.002Z</time></trkpt><trkpt lat="45.04070548994334" lon="8.313363946902369"><ele>261.0</ele><time>2026-05-03T10:58:32.002Z</time></trkpt><trkpt lat="45.04069512618341" lon="8.31325758639355"><ele>264.0</ele><time>2026-05-03T10:58:34.002Z</time></trkpt><trkpt lat="45.040681281078236" lon="8.313152401896309"><ele>267.0</ele><time>2026-05-03T10:58:36.002Z</time></trkpt><trkpt lat="45.04066435855201" lon="8.313055559091548"><ele>270.0</ele><time>2026-05-03T10:58:38.002Z</time></trkpt><trkpt lat="45.040640195491974" lon="8.312922175963637"><ele>270.0</ele><time>2026-05-03T10:58:41.002Z</time></trkpt><trkpt lat="45.040604395739614" lon="8.312847264726065"><ele>270.0</ele><time>2026-05-03T10:58:43.002Z</time></trkpt><trkpt lat="45.04058472389875" lon="8.312723938840852"><ele>270.0</ele><time>2026-05-03T10:58:46.003Z</time></trkpt><trkpt lat="45.040579895293234" lon="8.31259899632644"><ele>270.0</ele><time>2026-05-03T10:58:49.003Z</time></trkpt><trkpt lat="45.040563611463824" lon="8.312498741915693"><ele>270.0</ele><time>2026-05-03T10:58:54.003Z</time></trkpt><trkpt lat="45.04048754534307" lon="8.31247057254617"><ele>270.0</ele><time>2026-05-03T10:58:57.003Z</time></trkpt><trkpt lat="45.040432036231365" lon="8.312414382142594"><ele>270.0</ele><time>2026-05-03T10:59:01.003Z</time></trkpt><trkpt lat="45.04047320470088" lon="8.312298227992835"><ele>270.0</ele><time>2026-05-03T10:59:13.998Z</time></trkpt><trkpt lat="45.040480306450974" lon="8.312199644301792"><ele>270.0</ele><time>2026-05-03T10:59:16.999Z</time></trkpt><trkpt lat="45.04047850409436" lon="8.312100809423873"><ele>270.0</ele><time>2026-05-03T10:59:19.999Z</time></trkpt><trkpt lat="45.04048988762481" lon="8.311974876261626"><ele>270.0</ele><time>2026-05-03T10:59:22.999Z</time></trkpt><trkpt lat="45.0405116032361" lon="8.311878824289936"><ele>270.0</ele><time>2026-05-03T10:59:24.999Z</time></trkpt><trkpt lat="45.040553851238705" lon="8.311802634313109"><ele>270.0</ele><time>2026-05-03T10:59:26.999Z</time></trkpt><trkpt lat="45.04059606757865" lon="8.311720560305494"><ele>270.0</ele><time>2026-05-03T10:59:28.999Z</time></trkpt><trkpt lat="45.04065413829715" lon="8.311620078999296"><ele>270.0</ele><time>2026-05-03T10:59:32Z</time></trkpt><trkpt lat="45.04069355407968" lon="8.311523928999305"><ele>270.0</ele><time>2026-05-03T10:59:34Z</time></trkpt><trkpt lat="45.04072848331491" lon="8.31142961379122"><ele>270.0</ele><time>2026-05-03T10:59:36Z</time></trkpt><trkpt lat="45.04076294831558" lon="8.311354276333663"><ele>270.0</ele><time>2026-05-03T10:59:38Z</time></trkpt><trkpt lat="45.040809569138204" lon="8.311247393908763"><ele>270.0</ele><time>2026-05-03T10:59:41Z</time></trkpt><trkpt lat="45.04086104312066" lon="8.31113588603373"><ele>270.0</ele><time>2026-05-03T10:59:44Z</time></trkpt><trkpt lat="45.04089774840093" lon="8.3110281057427"><ele>270.0</ele><time>2026-05-03T10:59:47Z</time></trkpt><trkpt lat="45.04096499105761" lon="8.310985115529379"><ele>270.0</ele><time>2026-05-03T10:59:50.001Z</time></trkpt><trkpt lat="45.041030854222605" lon="8.310983063285532"><ele>270.0</ele><time>2026-05-03T10:59:52.001Z</time></trkpt><trkpt lat="45.041109329705584" lon="8.310962917729002"><ele>270.0</ele><time>2026-05-03T10:59:55.001Z</time></trkpt><trkpt lat="45.041172803049335" lon="8.31097197596165"><ele>270.0</ele><time>2026-05-03T10:59:57.001Z</time></trkpt><trkpt lat="45.04126432192111" lon="8.310961231425997"><ele>270.0</ele><time>2026-05-03T11:00:00.001Z</time></trkpt><trkpt lat="45.04133205883448" lon="8.31091490378467"><ele>270.0</ele><time>2026-05-03T11:00:03.001Z</time></trkpt><trkpt lat="45.041402330357464" lon="8.310892154656266"><ele>270.0</ele><time>2026-05-03T11:00:06.001Z</time></trkpt><trkpt lat="45.04147043595967" lon="8.31086752382082"><ele>270.0</ele><time>2026-05-03T11:00:09.001Z</time></trkpt><trkpt lat="45.04153930401631" lon="8.310859063329897"><ele>270.0</ele><time>2026-05-03T11:00:12.001Z</time></trkpt><trkpt lat="45.0416118524483" lon="8.31092923531257"><ele>270.0</ele><time>2026-05-03T11:00:16.002Z</time></trkpt><trkpt lat="45.04168196525008" lon="8.310988119124806"><ele>270.0</ele><time>2026-05-03T11:00:19.002Z</time></trkpt><trkpt lat="45.04172590705048" lon="8.311052568518933"><ele>270.0</ele><time>2026-05-03T11:00:22.002Z</time></trkpt><trkpt lat="45.0416574933653" lon="8.311026101779602"><ele>270.0</ele><time>2026-05-03T11:03:50Z</time></trkpt><trkpt lat="45.04160129865864" lon="8.310982394991738"><ele>270.0</ele><time>2026-05-03T11:04:00Z</time></trkpt><trkpt lat="45.04157438998013" lon="8.311076004717867"><ele>270.0</ele><time>2026-05-03T11:04:45.002Z</time></trkpt><trkpt lat="45.04153747424159" lon="8.311148665140065"><ele>270.0</ele><time>2026-05-03T11:05:30.999Z</time></trkpt></trkseg><trkseg><trkpt lat="45.04170852521226" lon="8.31109232605708"><ele>270.0</ele><time>2026-05-03T13:07:54Z</time></trkpt><trkpt lat="45.041654667431956" lon="8.31100060896527"><ele>270.0</ele><time>2026-05-03T13:08:06Z</time></trkpt><trkpt lat="45.0416079374104" lon="8.31093617172813"><ele>270.0</ele><time>2026-05-03T13:08:09Z</time></trkpt><trkpt lat="45.04154581739814" lon="8.310919346851467"><ele>270.0</ele><time>2026-05-03T13:08:13Z</time></trkpt><trkpt lat="45.04149181818226" lon="8.310859272140046"><ele>270.0</ele><time>2026-05-03T13:08:45.999Z</time></trkpt><trkpt lat="45.04139826569881" lon="8.310864616214674"><ele>270.0</ele><time>2026-05-03T13:08:48.999Z</time></trkpt><trkpt lat="45.041317437661675" lon="8.310908025270471"><ele>270.0</ele><time>2026-05-03T13:08:51.999Z</time></trkpt><trkpt lat="45.04125187865879" lon="8.310927840955918"><ele>270.0</ele><time>2026-05-03T13:08:53.999Z</time></trkpt><trkpt lat="45.041177697203445" lon="8.310928772757986"><ele>270.0</ele><time>2026-05-03T13:08:55.999Z</time></trkpt><trkpt lat="45.041099354154575" lon="8.310925901424547"><ele>270.0</ele><time>2026-05-03T13:08:57.999Z</time></trkpt><trkpt lat="45.04101367660825" lon="8.31093564627206"><ele>270.0</ele><time>2026-05-03T13:08:59.999Z</time></trkpt><trkpt lat="45.04092017093654" lon="8.310949976670935"><ele>270.0</ele><time>2026-05-03T13:09:01.999Z</time></trkpt><trkpt lat="45.04084042954852" lon="8.311061226279106"><ele>270.0</ele><time>2026-05-03T13:09:03.999Z</time></trkpt><trkpt lat="45.04081572982153" lon="8.311195028775689"><ele>270.0</ele><time>2026-05-03T13:09:05.999Z</time></trkpt><trkpt lat="45.0407719336665" lon="8.31133271426253"><ele>270.0</ele><time>2026-05-03T13:09:07.999Z</time></trkpt><trkpt lat="45.04071788865944" lon="8.31147895011897"><ele>270.0</ele><time>2026-05-03T13:09:09.999Z</time></trkpt><trkpt lat="45.04065748613005" lon="8.311612776054522"><ele>270.0</ele><time>2026-05-03T13:09:11.999Z</time></trkpt><trkpt lat="45.04061196723448" lon="8.311746582226508"><ele>270.0</ele><time>2026-05-03T13:09:14Z</time></trkpt><trkpt lat="45.04055908150882" lon="8.311843148970272"><ele>270.0</ele><time>2026-05-03T13:09:16Z</time></trkpt><trkpt lat="45.04052188605821" lon="8.311918105627415"><ele>270.0</ele><time>2026-05-03T13:09:18Z</time></trkpt><trkpt lat="45.04049378355122" lon="8.312009713468766"><ele>270.0</ele><time>2026-05-03T13:09:20Z</time></trkpt><trkpt lat="45.04051125752489" lon="8.312109645766471"><ele>270.0</ele><time>2026-05-03T13:09:23Z</time></trkpt><trkpt lat="45.040514836555865" lon="8.312200912153022"><ele>270.0</ele><time>2026-05-03T13:09:25Z</time></trkpt><trkpt lat="45.04051281037172" lon="8.312331451809788"><ele>270.0</ele><time>2026-05-03T13:09:27Z</time></trkpt><trkpt lat="45.040552273755175" lon="8.312485731493679"><ele>270.0</ele><time>2026-05-03T13:09:29Z</time></trkpt><trkpt lat="45.04060659235169" lon="8.312540783185074"><ele>270.0</ele><time>2026-05-03T13:09:30Z</time></trkpt><trkpt lat="45.04066898308298" lon="8.312586498976948"><ele>270.0</ele><time>2026-05-03T13:09:31Z</time></trkpt><trkpt lat="45.04073567633417" lon="8.312613318578693"><ele>270.0</ele><time>2026-05-03T13:09:32Z</time></trkpt><trkpt lat="45.040807206939256" lon="8.312618805902643"><ele>270.0</ele><time>2026-05-03T13:09:33Z</time></trkpt><trkpt lat="45.04087928137757" lon="8.312586569408824"><ele>269.6666666666667</ele><time>2026-05-03T13:09:34Z</time></trkpt><trkpt lat="45.0409504897823" lon="8.312524956396636"><ele>269.3333333333333</ele><time>2026-05-03T13:09:35Z</time></trkpt><trkpt lat="45.04100776026845" lon="8.31244428390637"><ele>269.0</ele><time>2026-05-03T13:09:36Z</time></trkpt><trkpt lat="45.04103770671863" lon="8.312328557356514"><ele>268.66666666666663</ele><time>2026-05-03T13:09:37Z</time></trkpt><trkpt lat="45.041108516537754" lon="8.312256914823651"><ele>268.3333333333333</ele><time>2026-05-03T13:09:38Z</time></trkpt><trkpt lat="45.041154697714965" lon="8.312166982811934"><ele>268.0</ele><time>2026-05-03T13:09:39Z</time></trkpt><trkpt lat="45.04122157085206" lon="8.312089937242174"><ele>268.0</ele><time>2026-05-03T13:09:40Z</time></trkpt><trkpt lat="45.04126346146907" lon="8.312014393183585"><ele>268.0</ele><time>2026-05-03T13:09:41Z</time></trkpt><trkpt lat="45.0413521291434" lon="8.311951208976554"><ele>268.0</ele><time>2026-05-03T13:09:42Z</time></trkpt><trkpt lat="45.04144578988281" lon="8.311897187059683"><ele>268.0</ele><time>2026-05-03T13:09:43Z</time></trkpt><trkpt lat="45.04152925195793" lon="8.311853242039241"><ele>268.0</ele><time>2026-05-03T13:09:44Z</time></trkpt><trkpt lat="45.04161678135164" lon="8.311837923359063"><ele>268.0</ele><time>2026-05-03T13:09:45Z</time></trkpt><trkpt lat="45.04171834628671" lon="8.311849776462989"><ele>267.0</ele><time>2026-05-03T13:09:46Z</time></trkpt><trkpt lat="45.04179860928864" lon="8.311880722746206"><ele>266.0</ele><time>2026-05-03T13:09:47Z</time></trkpt><trkpt lat="45.041876763262906" lon="8.311935540901704"><ele>265.0</ele><time>2026-05-03T13:09:48Z</time></trkpt><trkpt lat="45.0419392203904" lon="8.312001439332127"><ele>264.0</ele><time>2026-05-03T13:09:49Z</time></trkpt><trkpt lat="45.0419972886065" lon="8.312085381301332"><ele>263.0</ele><time>2026-05-03T13:09:50Z</time></trkpt><trkpt lat="45.04204994413244" lon="8.312177226973908"><ele>262.0</ele><time>2026-05-03T13:09:51Z</time></trkpt><trkpt lat="45.042106986781754" lon="8.31226559872508"><ele>260.4</ele><time>2026-05-03T13:09:52Z</time></trkpt><trkpt lat="45.04215018328913" lon="8.312375808477006"><ele>258.79999999999995</ele><time>2026-05-03T13:09:53Z</time></trkpt><trkpt lat="45.04219400887633" lon="8.312485164967201"><ele>257.2</ele><time>2026-05-03T13:09:54Z</time></trkpt><trkpt lat="45.0422372048552" lon="8.312598338123218"><ele>255.6</ele><time>2026-05-03T13:09:55Z</time></trkpt><trkpt lat="45.04228423914259" lon="8.312708924449769"><ele>254.0</ele><time>2026-05-03T13:09:56Z</time></trkpt><trkpt lat="45.04232643109169" lon="8.312820873489512"><ele>254.00000000000003</ele><time>2026-05-03T13:09:57Z</time></trkpt><trkpt lat="45.042361358343456" lon="8.312935550972444"><ele>254.0</ele><time>2026-05-03T13:09:58Z</time></trkpt><trkpt lat="45.042395389889755" lon="8.313045398338378"><ele>254.0</ele><time>2026-05-03T13:09:59Z</time></trkpt><trkpt lat="45.042435012858" lon="8.31315188190525"><ele>254.0</ele><time>2026-05-03T13:10:00Z</time></trkpt><trkpt lat="45.04247436487849" lon="8.313262096837764"><ele>254.00000000000003</ele><time>2026-05-03T13:10:01Z</time></trkpt><trkpt lat="45.04251232753295" lon="8.313370424794215"><ele>254.0</ele><time>2026-05-03T13:10:02Z</time></trkpt><trkpt lat="45.04255888990877" lon="8.313483007089877"><ele>252.50000000000003</ele><time>2026-05-03T13:10:03Z</time></trkpt><trkpt lat="45.042604271213584" lon="8.313600739112049"><ele>251.0</ele><time>2026-05-03T13:10:04Z</time></trkpt><trkpt lat="45.042649122571504" lon="8.313711878716944"><ele>249.5</ele><time>2026-05-03T13:10:05Z</time></trkpt><trkpt lat="45.04268624747801" lon="8.313821925626652"><ele>248.0</ele><time>2026-05-03T13:10:06Z</time></trkpt><trkpt lat="45.04272702051304" lon="8.313931019043823"><ele>246.50000000000003</ele><time>2026-05-03T13:10:07Z</time></trkpt><trkpt lat="45.04276312603463" lon="8.314029498145699"><ele>245.0</ele><time>2026-05-03T13:10:08Z</time></trkpt><trkpt lat="45.04280868081915" lon="8.31411735736064"><ele>243.50000000000003</ele><time>2026-05-03T13:10:09Z</time></trkpt><trkpt lat="45.042868957832354" lon="8.314173773693204"><ele>242.0</ele><time>2026-05-03T13:10:10Z</time></trkpt><trkpt lat="45.04294199049227" lon="8.31421582001281"><ele>240.5</ele><time>2026-05-03T13:10:11Z</time></trkpt><trkpt lat="45.04302487754436" lon="8.314221589026035"><ele>239.0</ele><time>2026-05-03T13:10:12Z</time></trkpt><trkpt lat="45.0431076685419" lon="8.314187832367127"><ele>237.50000000000003</ele><time>2026-05-03T13:10:13Z</time></trkpt><trkpt lat="45.04318656966237" lon="8.314146235842488"><ele>236.0</ele><time>2026-05-03T13:10:14Z</time></trkpt><trkpt lat="45.04326492921954" lon="8.314094022498704"><ele>236.60000000000002</ele><time>2026-05-03T13:10:15Z</time></trkpt><trkpt lat="45.04334382067279" lon="8.314038031204658"><ele>237.20000000000002</ele><time>2026-05-03T13:10:16Z</time></trkpt><trkpt lat="45.04341934015895" lon="8.313966673478852"><ele>237.79999999999998</ele><time>2026-05-03T13:10:17Z</time></trkpt><trkpt lat="45.043502934000536" lon="8.313915729950883"><ele>238.39999999999998</ele><time>2026-05-03T13:10:18Z</time></trkpt><trkpt lat="45.04358801563276" lon="8.313864953455738"><ele>239.0</ele><time>2026-05-03T13:10:19Z</time></trkpt><trkpt lat="45.043675842292416" lon="8.313826900227019"><ele>239.2</ele><time>2026-05-03T13:10:20Z</time></trkpt><trkpt lat="45.04377046002671" lon="8.313771638399128"><ele>239.39999999999998</ele><time>2026-05-03T13:10:21Z</time></trkpt><trkpt lat="45.04385857758618" lon="8.313712932855893"><ele>239.6</ele><time>2026-05-03T13:10:22Z</time></trkpt><trkpt lat="45.04395215656831" lon="8.313663595539325"><ele>239.8</ele><time>2026-05-03T13:10:23Z</time></trkpt><trkpt lat="45.04404353203639" lon="8.313606433144953"><ele>240.0</ele><time>2026-05-03T13:10:24Z</time></trkpt><trkpt lat="45.044133640902075" lon="8.313540684908485"><ele>240.0</ele><time>2026-05-03T13:10:25Z</time></trkpt><trkpt lat="45.044233378202314" lon="8.31348380309989"><ele>240.0</ele><time>2026-05-03T13:10:26Z</time></trkpt><trkpt lat="45.04432064973088" lon="8.31342197851819"><ele>240.0</ele><time>2026-05-03T13:10:27Z</time></trkpt><trkpt lat="45.044415421437975" lon="8.31336306790921"><ele>240.0</ele><time>2026-05-03T13:10:28Z</time></trkpt><trkpt lat="45.044514192099385" lon="8.313318733051192"><ele>240.0</ele><time>2026-05-03T13:10:29Z</time></trkpt><trkpt lat="45.044617589077376" lon="8.3133089748519"><ele>240.0</ele><time>2026-05-03T13:10:30Z</time></trkpt><trkpt lat="45.044717894247064" lon="8.313322906848596"><ele>240.0</ele><time>2026-05-03T13:10:31Z</time></trkpt><trkpt lat="45.044812800871" lon="8.313392332970187"><ele>240.0</ele><time>2026-05-03T13:10:32Z</time></trkpt><trkpt lat="45.04489542103191" lon="8.313492194250507"><ele>240.0</ele><time>2026-05-03T13:10:33Z</time></trkpt><trkpt lat="45.04494986035887" lon="8.313614766407587"><ele>240.0</ele><time>2026-05-03T13:10:34Z</time></trkpt><trkpt lat="45.04500133205205" lon="8.31374135567426"><ele>238.4</ele><time>2026-05-03T13:10:35Z</time></trkpt><trkpt lat="45.04504601733771" lon="8.313867544513323"><ele>236.8</ele><time>2026-05-03T13:10:36Z</time></trkpt><trkpt lat="45.04508387148692" lon="8.313993131981219"><ele>235.2</ele><time>2026-05-03T13:10:37Z</time></trkpt><trkpt lat="45.0451163779218" lon="8.314116672641923"><ele>233.6</ele><time>2026-05-03T13:10:38Z</time></trkpt><trkpt lat="45.04515034495106" lon="8.314235920497113"><ele>232.0</ele><time>2026-05-03T13:10:39Z</time></trkpt><trkpt lat="45.045185397686" lon="8.314351566932071"><ele>231.99999999999997</ele><time>2026-05-03T13:10:39.997Z</time></trkpt><trkpt lat="45.045208799551816" lon="8.314470423762348"><ele>232.0</ele><time>2026-05-03T13:10:40.997Z</time></trkpt><trkpt lat="45.045214583192035" lon="8.314588851625757"><ele>232.0</ele><time>2026-05-03T13:10:41.997Z</time></trkpt><trkpt lat="45.0452165759697" lon="8.314704027097338"><ele>232.0</ele><time>2026-05-03T13:10:42.997Z</time></trkpt><trkpt lat="45.04521513647122" lon="8.31481132745737"><ele>231.99999999999997</ele><time>2026-05-03T13:10:43.997Z</time></trkpt><trkpt lat="45.04520102054165" lon="8.314909415193473"><ele>232.0</ele><time>2026-05-03T13:10:44.997Z</time></trkpt><trkpt lat="45.04518728337819" lon="8.315002144817207"><ele>232.00000000000003</ele><time>2026-05-03T13:10:45.997Z</time></trkpt><trkpt lat="45.04517327398841" lon="8.315095076794933"><ele>232.0</ele><time>2026-05-03T13:10:46.997Z</time></trkpt><trkpt lat="45.045151765587434" lon="8.315183481119664"><ele>232.00000000000003</ele><time>2026-05-03T13:10:47.998Z</time></trkpt><trkpt lat="45.04513215774216" lon="8.315269768359794"><ele>232.00000000000003</ele><time>2026-05-03T13:10:48.998Z</time></trkpt><trkpt lat="45.04511148048051" lon="8.315357092818884"><ele>232.0</ele><time>2026-05-03T13:10:49.998Z</time></trkpt><trkpt lat="45.04509276427407" lon="8.315443806845424"><ele>232.00000000000003</ele><time>2026-05-03T13:10:50.998Z</time></trkpt><trkpt lat="45.045069237689916" lon="8.315531419649966"><ele>232.00000000000003</ele><time>2026-05-03T13:10:51.998Z</time></trkpt><trkpt lat="45.04502772352268" lon="8.31570055336001"><ele>232.28571428571433</ele><time>2026-05-03T13:10:53.998Z</time></trkpt><trkpt lat="45.04501369444851" lon="8.315790642330773"><ele>232.57142857142858</ele><time>2026-05-03T13:10:54.998Z</time></trkpt><trkpt lat="45.0449954775547" lon="8.315878350211753"><ele>232.8571428571429</ele><time>2026-05-03T13:10:55.998Z</time></trkpt><trkpt lat="45.04495887990486" lon="8.316045045901737"><ele>233.14285714285717</ele><time>2026-05-03T13:10:57.998Z</time></trkpt><trkpt lat="45.04493789192932" lon="8.316130803289587"><ele>233.42857142857144</ele><time>2026-05-03T13:10:58.998Z</time></trkpt><trkpt lat="45.04491567598132" lon="8.31621789782709"><ele>233.71428571428572</ele><time>2026-05-03T13:10:59.998Z</time></trkpt><trkpt lat="45.04489650908855" lon="8.316305179028937"><ele>234.0</ele><time>2026-05-03T13:11:00.998Z</time></trkpt><trkpt lat="45.044879885330005" lon="8.31639404299974"><ele>233.625</ele><time>2026-05-03T13:11:01.999Z</time></trkpt><trkpt lat="45.044859140734786" lon="8.316478421378957"><ele>233.25</ele><time>2026-05-03T13:11:02.999Z</time></trkpt><trkpt lat="45.04483941485733" lon="8.316566791658184"><ele>232.875</ele><time>2026-05-03T13:11:03.999Z</time></trkpt><trkpt lat="45.04481548446296" lon="8.316652015267099"><ele>232.5</ele><time>2026-05-03T13:11:04.999Z</time></trkpt><trkpt lat="45.044795180407455" lon="8.31673768453801"><ele>232.125</ele><time>2026-05-03T13:11:05.999Z</time></trkpt><trkpt lat="45.04477711317085" lon="8.316824549816987"><ele>231.75</ele><time>2026-05-03T13:11:06.999Z</time></trkpt><trkpt lat="45.044759012074444" lon="8.316910084541231"><ele>231.375</ele><time>2026-05-03T13:11:07.999Z</time></trkpt><trkpt lat="45.044734936816354" lon="8.316994547301611"><ele>231.0</ele><time>2026-05-03T13:11:08.999Z</time></trkpt><trkpt lat="45.04471412818286" lon="8.317080913032031"><ele>231.0</ele><time>2026-05-03T13:11:09.999Z</time></trkpt><trkpt lat="45.0446954827141" lon="8.317167150241874"><ele>231.0</ele><time>2026-05-03T13:11:10.999Z</time></trkpt><trkpt lat="45.044677651493934" lon="8.3172538364968"><ele>231.0</ele><time>2026-05-03T13:11:11.999Z</time></trkpt><trkpt lat="45.04465854913809" lon="8.317340522305313"><ele>231.0</ele><time>2026-05-03T13:11:12.999Z</time></trkpt><trkpt lat="45.04463956600244" lon="8.317426677434803"><ele>231.0</ele><time>2026-05-03T13:11:13.999Z</time></trkpt><trkpt lat="45.04461784309943" lon="8.31751138208588"><ele>231.0</ele><time>2026-05-03T13:11:14.999Z</time></trkpt><trkpt lat="45.04459636900285" lon="8.317595248547802"><ele>231.0</ele><time>2026-05-03T13:11:15.999Z</time></trkpt><trkpt lat="45.04457625839785" lon="8.31768015910054"><ele>231.0</ele><time>2026-05-03T13:11:16.999Z</time></trkpt><trkpt lat="45.044556591037136" lon="8.317766183764236"><ele>231.71428571428572</ele><time>2026-05-03T13:11:17.999Z</time></trkpt><trkpt lat="45.04454046386969" lon="8.317852402556719"><ele>232.42857142857144</ele><time>2026-05-03T13:11:18.999Z</time></trkpt><trkpt lat="45.044521086634724" lon="8.317938545916963"><ele>233.14285714285714</ele><time>2026-05-03T13:11:19.999Z</time></trkpt><trkpt lat="45.04450162726195" lon="8.31802697775351"><ele>233.85714285714286</ele><time>2026-05-03T13:11:20.999Z</time></trkpt><trkpt lat="45.04448161010334" lon="8.318114317332572"><ele>234.57142857142858</ele><time>2026-05-03T13:11:21.999Z</time></trkpt><trkpt lat="45.04445887386403" lon="8.318198981994602"><ele>235.28571428571428</ele><time>2026-05-03T13:11:22.999Z</time></trkpt><trkpt lat="45.04443778705557" lon="8.318284341074676"><ele>236.0</ele><time>2026-05-03T13:11:23.999Z</time></trkpt><trkpt lat="45.04441967555754" lon="8.318373248273579"><ele>237.25</ele><time>2026-05-03T13:11:24.999Z</time></trkpt><trkpt lat="45.044386947874976" lon="8.318545495394359"><ele>238.5</ele><time>2026-05-03T13:11:26.999Z</time></trkpt><trkpt lat="45.044352128964896" lon="8.318709930994718"><ele>239.75</ele><time>2026-05-03T13:11:29Z</time></trkpt><trkpt lat="45.04431291669287" lon="8.318875479184697"><ele>241.0</ele><time>2026-05-03T13:11:31Z</time></trkpt><trkpt lat="45.044273568907045" lon="8.31904078033745"><ele>242.0</ele><time>2026-05-03T13:11:33Z</time></trkpt><trkpt lat="45.0442464630145" lon="8.319202673047768"><ele>243.00000000000003</ele><time>2026-05-03T13:11:35Z</time></trkpt><trkpt lat="45.04422414075685" lon="8.319362521855897"><ele>244.00000000000003</ele><time>2026-05-03T13:11:37Z</time></trkpt><trkpt lat="45.044212453620624" lon="8.319523676738203"><ele>245.0</ele><time>2026-05-03T13:11:39Z</time></trkpt><trkpt lat="45.04421247744089" lon="8.319659783172984"><ele>246.0</ele><time>2026-05-03T13:11:41Z</time></trkpt><trkpt lat="45.04422082132708" lon="8.319757193735924"><ele>246.16666666666666</ele><time>2026-05-03T13:11:43Z</time></trkpt><trkpt lat="45.04425495722026" lon="8.31984216511081"><ele>246.33333333333331</ele><time>2026-05-03T13:11:47Z</time></trkpt><trkpt lat="45.044297329800834" lon="8.319909725225695"><ele>246.5</ele><time>2026-05-03T13:12:05Z</time></trkpt><trkpt lat="45.044342337004366" lon="8.319989845617906"><ele>246.66666666666666</ele><time>2026-05-03T13:12:08Z</time></trkpt><trkpt lat="45.04441638133387" lon="8.32006468310379"><ele>246.83333333333331</ele><time>2026-05-03T13:12:11Z</time></trkpt><trkpt lat="45.04448448163098" lon="8.320113533575272"><ele>247.0</ele><time>2026-05-03T13:12:13Z</time></trkpt><trkpt lat="45.04455339401853" lon="8.320189525981734"><ele>247.0</ele><time>2026-05-03T13:12:15Z</time></trkpt><trkpt lat="45.04464322176328" lon="8.320244059930358"><ele>247.0</ele><time>2026-05-03T13:12:17Z</time></trkpt><trkpt lat="45.04474329214813" lon="8.320292381907063"><ele>247.0</ele><time>2026-05-03T13:12:19Z</time></trkpt><trkpt lat="45.04485056807686" lon="8.320338593954922"><ele>247.0</ele><time>2026-05-03T13:12:21.001Z</time></trkpt><trkpt lat="45.04496997050901" lon="8.320355543733053"><ele>247.0</ele><time>2026-05-03T13:12:23.001Z</time></trkpt><trkpt lat="45.045098196931875" lon="8.32036288430818"><ele>247.0</ele><time>2026-05-03T13:12:25.001Z</time></trkpt><trkpt lat="45.04516550331744" lon="8.320357342732992"><ele>247.0</ele><time>2026-05-03T13:12:26.001Z</time></trkpt><trkpt lat="45.045233463583756" lon="8.32034819569214"><ele>247.0</ele><time>2026-05-03T13:12:27.001Z</time></trkpt><trkpt lat="45.04530393820051" lon="8.320338684287888"><ele>247.0</ele><time>2026-05-03T13:12:28.001Z</time></trkpt><trkpt lat="45.0453743396991" lon="8.320318160586156"><ele>247.0</ele><time>2026-05-03T13:12:29.001Z</time></trkpt><trkpt lat="45.045446216461904" lon="8.320317254276599"><ele>247.0</ele><time>2026-05-03T13:12:30.001Z</time></trkpt><trkpt lat="45.0455232747725" lon="8.320303347333189"><ele>247.0</ele><time>2026-05-03T13:12:31.001Z</time></trkpt><trkpt lat="45.04559943675324" lon="8.320296224128985"><ele>246.99999999999997</ele><time>2026-05-03T13:12:32.001Z</time></trkpt><trkpt lat="45.045677277331144" lon="8.320271113218945"><ele>247.0</ele><time>2026-05-03T13:12:33.001Z</time></trkpt><trkpt lat="45.045756990577594" lon="8.320260466570153"><ele>247.0</ele><time>2026-05-03T13:12:34.001Z</time></trkpt><trkpt lat="45.04583791890756" lon="8.320244313220401"><ele>247.0</ele><time>2026-05-03T13:12:35.001Z</time></trkpt><trkpt lat="45.045917031163896" lon="8.320201726633707"><ele>246.99999999999997</ele><time>2026-05-03T13:12:36.001Z</time></trkpt><trkpt lat="45.04599727509147" lon="8.320162748621637"><ele>247.0</ele><time>2026-05-03T13:12:37.001Z</time></trkpt><trkpt lat="45.04606909567509" lon="8.320092451818756"><ele>246.83333333333331</ele><time>2026-05-03T13:12:38.001Z</time></trkpt><trkpt lat="45.04614765479997" lon="8.320046044082758"><ele>246.66666666666666</ele><time>2026-05-03T13:12:39.001Z</time></trkpt><trkpt lat="45.046230486005705" lon="8.320023473903673"><ele>246.5</ele><time>2026-05-03T13:12:40.001Z</time></trkpt><trkpt lat="45.0463139826866" lon="8.320045435785216"><ele>246.33333333333331</ele><time>2026-05-03T13:12:41.001Z</time></trkpt><trkpt lat="45.04639239859356" lon="8.32010286486774"><ele>246.16666666666666</ele><time>2026-05-03T13:12:42.001Z</time></trkpt><trkpt lat="45.04644937478438" lon="8.320183365281348"><ele>246.0</ele><time>2026-05-03T13:12:43.001Z</time></trkpt><trkpt lat="45.04648986436608" lon="8.320265168389582"><ele>246.0</ele><time>2026-05-03T13:12:44.001Z</time></trkpt><trkpt lat="45.04651756220751" lon="8.320354382029022"><ele>246.0</ele><time>2026-05-03T13:12:45.001Z</time></trkpt><trkpt lat="45.04653530730781" lon="8.320507676920878"><ele>246.0</ele><time>2026-05-03T13:12:46.997Z</time></trkpt><trkpt lat="45.04652909591428" lon="8.32063334706422"><ele>246.0</ele><time>2026-05-03T13:12:48.997Z</time></trkpt><trkpt lat="45.046510615725985" lon="8.320754066311043"><ele>246.0</ele><time>2026-05-03T13:12:50.997Z</time></trkpt><trkpt lat="45.04650471949469" lon="8.320882941420457"><ele>246.0</ele><time>2026-05-03T13:12:52.997Z</time></trkpt><trkpt lat="45.04649568096578" lon="8.321022653659512"><ele>244.4</ele><time>2026-05-03T13:12:54.997Z</time></trkpt><trkpt lat="45.04649048987717" lon="8.321170242156233"><ele>242.8</ele><time>2026-05-03T13:12:56.997Z</time></trkpt><trkpt lat="45.046479258791614" lon="8.321326316416913"><ele>241.20000000000002</ele><time>2026-05-03T13:12:58.998Z</time></trkpt><trkpt lat="45.046449040548616" lon="8.321482415452516"><ele>239.60000000000002</ele><time>2026-05-03T13:13:00.998Z</time></trkpt><trkpt lat="45.046406195827295" lon="8.321631786556841"><ele>238.0</ele><time>2026-05-03T13:13:02.998Z</time></trkpt><trkpt lat="45.046359977419314" lon="8.321775945162102"><ele>238.0</ele><time>2026-05-03T13:13:04.998Z</time></trkpt><trkpt lat="45.04630689685827" lon="8.32192267382898"><ele>238.0</ele><time>2026-05-03T13:13:06.998Z</time></trkpt><trkpt lat="45.04625258801159" lon="8.322072176305214"><ele>238.0</ele><time>2026-05-03T13:13:08.998Z</time></trkpt><trkpt lat="45.046199928179824" lon="8.32222620385969"><ele>238.0</ele><time>2026-05-03T13:13:10.999Z</time></trkpt><trkpt lat="45.04613834074959" lon="8.322374905000743"><ele>239.2</ele><time>2026-05-03T13:13:12.999Z</time></trkpt><trkpt lat="45.04610791883705" lon="8.322455431688924"><ele>240.4</ele><time>2026-05-03T13:13:13.999Z</time></trkpt><trkpt lat="45.04605333525055" lon="8.322614763205085"><ele>241.59999999999997</ele><time>2026-05-03T13:13:15.999Z</time></trkpt><trkpt lat="45.045998226091804" lon="8.322771454595438"><ele>242.79999999999998</ele><time>2026-05-03T13:13:17.999Z</time></trkpt><trkpt lat="45.04596832208478" lon="8.32285236264339"><ele>244.0</ele><time>2026-05-03T13:13:18.999Z</time></trkpt><trkpt lat="45.04592558612733" lon="8.323019050581976"><ele>244.75</ele><time>2026-05-03T13:13:20.999Z</time></trkpt><trkpt lat="45.04590632496024" lon="8.323190503306318"><ele>245.5</ele><time>2026-05-03T13:13:22.999Z</time></trkpt><trkpt lat="45.04591157441301" lon="8.323363238984054"><ele>246.25</ele><time>2026-05-03T13:13:24.999Z</time></trkpt><trkpt lat="45.04594665791175" lon="8.323526583864064"><ele>247.0</ele><time>2026-05-03T13:13:26.999Z</time></trkpt><trkpt lat="45.045976940886256" lon="8.32366461391368"><ele>247.0</ele><time>2026-05-03T13:13:28.999Z</time></trkpt><trkpt lat="45.046001119704" lon="8.323769669904998"><ele>247.0</ele><time>2026-05-03T13:13:30.999Z</time></trkpt><trkpt lat="45.046021004549054" lon="8.323854302133794"><ele>247.0</ele><time>2026-05-03T13:13:33Z</time></trkpt><trkpt lat="45.04604626816152" lon="8.323943298722426"><ele>247.0</ele><time>2026-05-03T13:13:35Z</time></trkpt><trkpt lat="45.04607002062153" lon="8.324067442649238"><ele>247.0</ele><time>2026-05-03T13:13:38Z</time></trkpt><trkpt lat="45.04609355116326" lon="8.324150265968106"><ele>247.0</ele><time>2026-05-03T13:13:40Z</time></trkpt><trkpt lat="45.04611502815967" lon="8.324234396487219"><ele>247.0</ele><time>2026-05-03T13:13:42Z</time></trkpt><trkpt lat="45.04613846927995" lon="8.32434580209406"><ele>247.33333333333331</ele><time>2026-05-03T13:13:45Z</time></trkpt><trkpt lat="45.04615860258465" lon="8.324459236686938"><ele>247.66666666666666</ele><time>2026-05-03T13:13:48Z</time></trkpt><trkpt lat="45.04619201139122" lon="8.324578139563876"><ele>248.0</ele><time>2026-05-03T13:13:51Z</time></trkpt><trkpt lat="45.046213266481836" lon="8.324696966824764"><ele>248.33333333333331</ele><time>2026-05-03T13:13:54Z</time></trkpt><trkpt lat="45.04623209738861" lon="8.324782660862919"><ele>248.66666666666666</ele><time>2026-05-03T13:13:56Z</time></trkpt><trkpt lat="45.04624530344803" lon="8.324903577631762"><ele>249.0</ele><time>2026-05-03T13:13:59Z</time></trkpt><trkpt lat="45.04624259871907" lon="8.325022625658713"><ele>249.83333333333334</ele><time>2026-05-03T13:14:02Z</time></trkpt><trkpt lat="45.04622864941928" lon="8.325143331464774"><ele>250.66666666666669</ele><time>2026-05-03T13:14:05Z</time></trkpt><trkpt lat="45.046176027977666" lon="8.325242487017285"><ele>251.5</ele><time>2026-05-03T13:14:08.001Z</time></trkpt><trkpt lat="45.046111994630934" lon="8.325324818475519"><ele>252.33333333333334</ele><time>2026-05-03T13:14:11.001Z</time></trkpt><trkpt lat="45.04606025790359" lon="8.325406872710811"><ele>253.16666666666669</ele><time>2026-05-03T13:14:14.001Z</time></trkpt><trkpt lat="45.046006314678976" lon="8.325490267678196"><ele>254.0</ele><time>2026-05-03T13:14:17.001Z</time></trkpt><trkpt lat="45.04594661487011" lon="8.325567224802215"><ele>254.00000000000003</ele><time>2026-05-03T13:14:20.001Z</time></trkpt><trkpt lat="45.04588947965824" lon="8.325654902821269"><ele>254.0</ele><time>2026-05-03T13:14:23.001Z</time></trkpt><trkpt lat="45.0458344227465" lon="8.325750999282972"><ele>254.0</ele><time>2026-05-03T13:14:26.001Z</time></trkpt><trkpt lat="45.04579453085248" lon="8.325858403108148"><ele>254.0</ele><time>2026-05-03T13:14:29.001Z</time></trkpt><trkpt lat="45.04576793880363" lon="8.32595850619444"><ele>254.00000000000003</ele><time>2026-05-03T13:14:32.001Z</time></trkpt><trkpt lat="45.04574119808674" lon="8.326041727757222"><ele>254.0</ele><time>2026-05-03T13:14:35.001Z</time></trkpt><trkpt lat="45.04573294445418" lon="8.326165143574837"><ele>254.00000000000003</ele><time>2026-05-03T13:16:44.002Z</time></trkpt><trkpt lat="45.045735483417594" lon="8.326269258454774"><ele>254.0</ele><time>2026-05-03T13:16:46.002Z</time></trkpt><trkpt lat="45.045741599333454" lon="8.326364616393562"><ele>254.0</ele><time>2026-05-03T13:16:48.002Z</time></trkpt><trkpt lat="45.045767472777975" lon="8.326473859779599"><ele>254.0</ele><time>2026-05-03T13:16:50.002Z</time></trkpt><trkpt lat="45.045804522624685" lon="8.326568577602018"><ele>254.00000000000003</ele><time>2026-05-03T13:16:52.002Z</time></trkpt><trkpt lat="45.04585535435114" lon="8.326692932465498"><ele>254.0</ele><time>2026-05-03T13:16:54.002Z</time></trkpt><trkpt lat="45.0459142694652" lon="8.3267989341475"><ele>256.0</ele><time>2026-05-03T13:16:56.002Z</time></trkpt><trkpt lat="45.04596200958525" lon="8.326892929823906"><ele>258.0</ele><time>2026-05-03T13:16:57.998Z</time></trkpt><trkpt lat="45.046012475080424" lon="8.326950562492655"><ele>260.0</ele><time>2026-05-03T13:16:59.998Z</time></trkpt><trkpt lat="45.04606246813596" lon="8.327059417227732"><ele>262.0</ele><time>2026-05-03T13:17:01.998Z</time></trkpt><trkpt lat="45.046138920758274" lon="8.327192603050676"><ele>264.0</ele><time>2026-05-03T13:17:03.998Z</time></trkpt><trkpt lat="45.046212960765494" lon="8.327333205394348"><ele>264.0</ele><time>2026-05-03T13:17:05.998Z</time></trkpt><trkpt lat="45.04626148267052" lon="8.32740202981616"><ele>264.0</ele><time>2026-05-03T13:17:06.999Z</time></trkpt><trkpt lat="45.0463003603125" lon="8.327483733799365"><ele>264.0</ele><time>2026-05-03T13:17:07.999Z</time></trkpt><trkpt lat="45.04634296304412" lon="8.327562842621191"><ele>264.0</ele><time>2026-05-03T13:17:08.999Z</time></trkpt><trkpt lat="45.04639156062658" lon="8.327639525491108"><ele>264.0</ele><time>2026-05-03T13:17:09.999Z</time></trkpt><trkpt lat="45.04644036183611" lon="8.327724189378744"><ele>264.0</ele><time>2026-05-03T13:17:10.999Z</time></trkpt><trkpt lat="45.04648756639874" lon="8.327812556379055"><ele>264.0</ele><time>2026-05-03T13:17:11.999Z</time></trkpt><trkpt lat="45.046539087032095" lon="8.327893328030516"><ele>264.0</ele><time>2026-05-03T13:17:12.999Z</time></trkpt><trkpt lat="45.04658671900222" lon="8.327976291951378"><ele>264.0</ele><time>2026-05-03T13:17:13.999Z</time></trkpt><trkpt lat="45.046637667531634" lon="8.32806440751903"><ele>264.0</ele><time>2026-05-03T13:17:14.999Z</time></trkpt><trkpt lat="45.04668675680727" lon="8.328155360754748"><ele>264.0</ele><time>2026-05-03T13:17:15.999Z</time></trkpt><trkpt lat="45.04673757627689" lon="8.328253771795275"><ele>264.0</ele><time>2026-05-03T13:17:16.999Z</time></trkpt><trkpt lat="45.04679126268599" lon="8.32834703919808"><ele>264.0</ele><time>2026-05-03T13:17:17.999Z</time></trkpt><trkpt lat="45.046843752056084" lon="8.328444076858553"><ele>263.1666666666667</ele><time>2026-05-03T13:17:18.999Z</time></trkpt><trkpt lat="45.04689800325204" lon="8.32853516455982"><ele>262.3333333333333</ele><time>2026-05-03T13:17:20Z</time></trkpt><trkpt lat="45.04695486445829" lon="8.3286212273723"><ele>261.5</ele><time>2026-05-03T13:17:21Z</time></trkpt><trkpt lat="45.047006289865514" lon="8.328716770995054"><ele>260.66666666666663</ele><time>2026-05-03T13:17:22Z</time></trkpt><trkpt lat="45.047060679622724" lon="8.328806402195942"><ele>259.8333333333333</ele><time>2026-05-03T13:17:23Z</time></trkpt><trkpt lat="45.04711325127053" lon="8.328902817620149"><ele>259.0</ele><time>2026-05-03T13:17:24Z</time></trkpt><trkpt lat="45.047169853189104" lon="8.328994787007435"><ele>259.8333333333333</ele><time>2026-05-03T13:17:25Z</time></trkpt><trkpt lat="45.04722604230083" lon="8.329086171470491"><ele>260.66666666666663</ele><time>2026-05-03T13:17:26Z</time></trkpt><trkpt lat="45.04728028570377" lon="8.32917878529017"><ele>261.5</ele><time>2026-05-03T13:17:27Z</time></trkpt><trkpt lat="45.04733226661761" lon="8.32927585670774"><ele>262.3333333333333</ele><time>2026-05-03T13:17:28Z</time></trkpt><trkpt lat="45.047387841983685" lon="8.329371171989111"><ele>263.1666666666667</ele><time>2026-05-03T13:17:29Z</time></trkpt><trkpt lat="45.04743625984354" lon="8.329470790497437"><ele>264.0</ele><time>2026-05-03T13:17:30Z</time></trkpt><trkpt lat="45.047483463853325" lon="8.32956850014486"><ele>264.0</ele><time>2026-05-03T13:17:31Z</time></trkpt><trkpt lat="45.04753518305344" lon="8.329663293135145"><ele>264.0</ele><time>2026-05-03T13:17:32Z</time></trkpt><trkpt lat="45.04757709717476" lon="8.329764588513696"><ele>264.0</ele><time>2026-05-03T13:17:33Z</time></trkpt><trkpt lat="45.04761445394903" lon="8.32986258635072"><ele>264.0</ele><time>2026-05-03T13:17:34Z</time></trkpt><trkpt lat="45.0476476832993" lon="8.32996169763274"><ele>264.0</ele><time>2026-05-03T13:17:35Z</time></trkpt><trkpt lat="45.047676527270966" lon="8.330060924216479"><ele>264.0</ele><time>2026-05-03T13:17:36Z</time></trkpt><trkpt lat="45.04768661659655" lon="8.33016930158568"><ele>263.2857142857143</ele><time>2026-05-03T13:17:37.001Z</time></trkpt><trkpt lat="45.04771141102831" lon="8.330271392055543"><ele>262.57142857142856</ele><time>2026-05-03T13:17:38.001Z</time></trkpt><trkpt lat="45.04772258638822" lon="8.330375412147504"><ele>261.8571428571429</ele><time>2026-05-03T13:17:39.001Z</time></trkpt><trkpt lat="45.04773545914105" lon="8.330473282399867"><ele>261.1428571428571</ele><time>2026-05-03T13:17:40.001Z</time></trkpt><trkpt lat="45.047742051003056" lon="8.33057118244124"><ele>260.42857142857144</ele><time>2026-05-03T13:17:41.001Z</time></trkpt><trkpt lat="45.04774721813833" lon="8.33066769749387"><ele>259.7142857142857</ele><time>2026-05-03T13:17:42.001Z</time></trkpt><trkpt lat="45.04774233246585" lon="8.330759570484856"><ele>259.0</ele><time>2026-05-03T13:17:43.001Z</time></trkpt><trkpt lat="45.04775067325397" lon="8.330848966693738"><ele>258.2</ele><time>2026-05-03T13:17:44.001Z</time></trkpt><trkpt lat="45.047762351260886" lon="8.331011336945146"><ele>257.4</ele><time>2026-05-03T13:17:46.001Z</time></trkpt><trkpt lat="45.047776999685595" lon="8.331167760273267"><ele>256.6</ele><time>2026-05-03T13:17:48.001Z</time></trkpt><trkpt lat="45.047796239200906" lon="8.331321488455028"><ele>255.8</ele><time>2026-05-03T13:17:50.001Z</time></trkpt><trkpt lat="45.04780664271714" lon="8.331472628477853"><ele>255.0</ele><time>2026-05-03T13:17:52.001Z</time></trkpt><trkpt lat="45.04781338762584" lon="8.331615033922507"><ele>255.0</ele><time>2026-05-03T13:17:54.001Z</time></trkpt><trkpt lat="45.047803891813324" lon="8.331748102143003"><ele>255.0</ele><time>2026-05-03T13:17:56.001Z</time></trkpt><trkpt lat="45.047799237606284" lon="8.33183866828316"><ele>255.0</ele><time>2026-05-03T13:17:58.001Z</time></trkpt><trkpt lat="45.0478432749908" lon="8.33193505435258"><ele>255.0</ele><time>2026-05-03T13:18:03.002Z</time></trkpt><trkpt lat="45.047856374306825" lon="8.332046660914147"><ele>255.0</ele><time>2026-05-03T13:18:06.002Z</time></trkpt><trkpt lat="45.04786076661465" lon="8.33214525292075"><ele>255.0</ele><time>2026-05-03T13:18:08.002Z</time></trkpt><trkpt lat="45.04787000074626" lon="8.33225854063168"><ele>255.0</ele><time>2026-05-03T13:18:10.002Z</time></trkpt><trkpt lat="45.047882121258354" lon="8.332378476635903"><ele>255.0</ele><time>2026-05-03T13:18:12.002Z</time></trkpt><trkpt lat="45.04789494435372" lon="8.332488578127732"><ele>255.0</ele><time>2026-05-03T13:18:14.002Z</time></trkpt><trkpt lat="45.04790372475269" lon="8.33261893132899"><ele>255.0</ele><time>2026-05-03T13:18:16.002Z</time></trkpt><trkpt lat="45.04791899999898" lon="8.332749620519396"><ele>255.0</ele><time>2026-05-03T13:18:18.002Z</time></trkpt><trkpt lat="45.047927384341385" lon="8.332869462681424"><ele>255.0</ele><time>2026-05-03T13:18:20.002Z</time></trkpt><trkpt lat="45.047935112930446" lon="8.332986219609586"><ele>255.33333333333334</ele><time>2026-05-03T13:18:22.002Z</time></trkpt><trkpt lat="45.04794384713339" lon="8.333100310417771"><ele>255.66666666666669</ele><time>2026-05-03T13:18:24.002Z</time></trkpt><trkpt lat="45.04797251738942" lon="8.33320645412243"><ele>256.0</ele><time>2026-05-03T13:18:27.002Z</time></trkpt><trkpt lat="45.04794555051187" lon="8.333302902496541"><ele>256.33333333333337</ele><time>2026-05-03T13:18:30.002Z</time></trkpt><trkpt lat="45.047952909839424" lon="8.33340350769105"><ele>256.6666666666667</ele><time>2026-05-03T13:18:33.002Z</time></trkpt><trkpt lat="45.04796322656794" lon="8.33353605215889"><ele>257.0</ele><time>2026-05-03T13:18:35.003Z</time></trkpt><trkpt lat="45.04797204462261" lon="8.333637389732393"><ele>257.0</ele><time>2026-05-03T13:18:37.003Z</time></trkpt><trkpt lat="45.047999968024754" lon="8.33371982814627"><ele>257.0</ele><time>2026-05-03T13:18:39.003Z</time></trkpt><trkpt lat="45.04802709907138" lon="8.333829423785708"><ele>257.0</ele><time>2026-05-03T13:18:43.003Z</time></trkpt><trkpt lat="45.048087024151684" lon="8.333893629988419"><ele>257.0</ele><time>2026-05-03T13:18:45.003Z</time></trkpt><trkpt lat="45.04814664557694" lon="8.333928136782927"><ele>257.0</ele><time>2026-05-03T13:18:46.003Z</time></trkpt><trkpt lat="45.048175274842286" lon="8.33402004591596"><ele>257.0</ele><time>2026-05-03T13:18:48.003Z</time></trkpt><trkpt lat="45.04822515265128" lon="8.334123348730783"><ele>257.0</ele><time>2026-05-03T13:18:50.003Z</time></trkpt><trkpt lat="45.048211325570044" lon="8.334258441529657"><ele>257.33333333333337</ele><time>2026-05-03T13:18:52.003Z</time></trkpt><trkpt lat="45.04818525808038" lon="8.334388150358299"><ele>257.6666666666667</ele><time>2026-05-03T13:18:54.003Z</time></trkpt><trkpt lat="45.048199564857086" lon="8.334495862199969"><ele>258.0</ele><time>2026-05-03T13:18:56.003Z</time></trkpt><trkpt lat="45.04880084166964" lon="8.334399834466554"><ele>255.0</ele><time>2026-05-03T13:18:59.003Z</time></trkpt><trkpt lat="45.04887160492995" lon="8.33433211380667"><ele>252.0</ele><time>2026-05-03T13:19:01.003Z</time></trkpt><trkpt lat="45.048983544518386" lon="8.334282966909406"><ele>249.0</ele><time>2026-05-03T13:19:03.003Z</time></trkpt><trkpt lat="45.049079185503395" lon="8.334240913703342"><ele>246.0</ele><time>2026-05-03T13:19:04.998Z</time></trkpt><trkpt lat="45.049150876617155" lon="8.334301581096108"><ele>243.0</ele><time>2026-05-03T13:19:06.999Z</time></trkpt><trkpt lat="45.049204207682656" lon="8.334422042200362"><ele>239.8</ele><time>2026-05-03T13:19:08.999Z</time></trkpt><trkpt lat="45.04923940264186" lon="8.33460384643947"><ele>236.60000000000002</ele><time>2026-05-03T13:19:10.999Z</time></trkpt><trkpt lat="45.04926415852964" lon="8.334705412252402"><ele>233.39999999999998</ele><time>2026-05-03T13:19:11.999Z</time></trkpt><trkpt lat="45.04929255870652" lon="8.334805352101434"><ele>230.2</ele><time>2026-05-03T13:19:12.999Z</time></trkpt><trkpt lat="45.049317408398345" lon="8.334904089216897"><ele>227.0</ele><time>2026-05-03T13:19:13.999Z</time></trkpt><trkpt lat="45.049347090180525" lon="8.335058099905314"><ele>225.83333333333334</ele><time>2026-05-03T13:19:15.999Z</time></trkpt><trkpt lat="45.04938843608988" lon="8.335176562569824"><ele>224.66666666666669</ele><time>2026-05-03T13:19:17.999Z</time></trkpt><trkpt lat="45.04942375182311" lon="8.335250530722359"><ele>223.5</ele><time>2026-05-03T13:19:19.999Z</time></trkpt><trkpt lat="45.04949450182989" lon="8.335292944151346"><ele>222.33333333333331</ele><time>2026-05-03T13:19:23Z</time></trkpt><trkpt lat="45.049571213692865" lon="8.335253483730659"><ele>221.16666666666666</ele><time>2026-05-03T13:19:25Z</time></trkpt><trkpt lat="45.04966082338988" lon="8.335270117235705"><ele>220.0</ele><time>2026-05-03T13:19:27Z</time></trkpt><trkpt lat="45.04976208219204" lon="8.335331283477295"><ele>220.0</ele><time>2026-05-03T13:19:29Z</time></trkpt><trkpt lat="45.04985132889331" lon="8.335417902844684"><ele>220.0</ele><time>2026-05-03T13:19:31Z</time></trkpt><trkpt lat="45.04992431896456" lon="8.335487188347972"><ele>220.0</ele><time>2026-05-03T13:19:34Z</time></trkpt><trkpt lat="45.04997906959274" lon="8.335557130776827"><ele>220.0</ele><time>2026-05-03T13:19:36Z</time></trkpt><trkpt lat="45.05005346045643" lon="8.335624570522743"><ele>220.0</ele><time>2026-05-03T13:19:38Z</time></trkpt><trkpt lat="45.05012884730231" lon="8.335716626362748"><ele>217.2</ele><time>2026-05-03T13:19:40Z</time></trkpt><trkpt lat="45.050213849830065" lon="8.335811570707301"><ele>214.4</ele><time>2026-05-03T13:19:42.001Z</time></trkpt><trkpt lat="45.05031302175494" lon="8.335892132434823"><ele>211.60000000000002</ele><time>2026-05-03T13:19:44.001Z</time></trkpt><trkpt lat="45.050363455113896" lon="8.335957747001984"><ele>208.8</ele><time>2026-05-03T13:19:45.001Z</time></trkpt><trkpt lat="45.050460217955454" lon="8.336062188420275"><ele>206.0</ele><time>2026-05-03T13:19:47.001Z</time></trkpt><trkpt lat="45.05054637144908" lon="8.336154455447758"><ele>206.0</ele><time>2026-05-03T13:19:49.001Z</time></trkpt><trkpt lat="45.05063840890033" lon="8.336249203297497"><ele>206.0</ele><time>2026-05-03T13:19:51.001Z</time></trkpt><trkpt lat="45.0507315515966" lon="8.336355423453684"><ele>206.0</ele><time>2026-05-03T13:19:53.001Z</time></trkpt><trkpt lat="45.05082455300922" lon="8.336433431855689"><ele>206.0</ele><time>2026-05-03T13:19:55.001Z</time></trkpt><trkpt lat="45.05091771595565" lon="8.336517734960973"><ele>205.83333333333334</ele><time>2026-05-03T13:19:57.001Z</time></trkpt><trkpt lat="45.050989115494566" lon="8.336608295590732"><ele>205.66666666666669</ele><time>2026-05-03T13:19:59.001Z</time></trkpt><trkpt lat="45.05106547207253" lon="8.336680141556993"><ele>205.5</ele><time>2026-05-03T13:20:01.001Z</time></trkpt><trkpt lat="45.05113181444749" lon="8.336754972249366"><ele>205.33333333333331</ele><time>2026-05-03T13:20:03.001Z</time></trkpt><trkpt lat="45.05118915573242" lon="8.336837339771876"><ele>205.16666666666666</ele><time>2026-05-03T13:20:05.001Z</time></trkpt><trkpt lat="45.051254084494204" lon="8.336902675720175"><ele>205.0</ele><time>2026-05-03T13:20:07.001Z</time></trkpt><trkpt lat="45.05131699615419" lon="8.336965928526917"><ele>204.99999999999997</ele><time>2026-05-03T13:20:09.002Z</time></trkpt><trkpt lat="45.05136626876117" lon="8.337028533149137"><ele>205.0</ele><time>2026-05-03T13:20:11.002Z</time></trkpt><trkpt lat="45.051423530621555" lon="8.33707028803354"><ele>205.0</ele><time>2026-05-03T13:20:13.002Z</time></trkpt><trkpt lat="45.05149647418456" lon="8.337126859214301"><ele>205.0</ele><time>2026-05-03T13:20:15.002Z</time></trkpt><trkpt lat="45.05157472362778" lon="8.337192085101721"><ele>204.99999999999997</ele><time>2026-05-03T13:20:17.002Z</time></trkpt><trkpt lat="45.0516601603522" lon="8.337234006896704"><ele>205.0</ele><time>2026-05-03T13:20:19.002Z</time></trkpt><trkpt lat="45.05174797982739" lon="8.337284363959391"><ele>205.33333333333331</ele><time>2026-05-03T13:20:21.002Z</time></trkpt><trkpt lat="45.05184898876811" lon="8.337317925776597"><ele>205.66666666666666</ele><time>2026-05-03T13:20:23.002Z</time></trkpt><trkpt lat="45.05193115738347" lon="8.337335288394627"><ele>206.0</ele><time>2026-05-03T13:20:25.002Z</time></trkpt><trkpt lat="45.0520149619593" lon="8.337361561367715"><ele>206.33333333333331</ele><time>2026-05-03T13:20:28.002Z</time></trkpt><trkpt lat="45.05206418025023" lon="8.33744725225308"><ele>206.66666666666666</ele><time>2026-05-03T13:20:31.002Z</time></trkpt><trkpt lat="45.052075053343785" lon="8.33754840386759"><ele>207.0</ele><time>2026-05-03T13:20:34.002Z</time></trkpt><trkpt lat="45.05211748856046" lon="8.337615307892928"><ele>207.00000000000003</ele><time>2026-05-03T13:20:39.002Z</time></trkpt><trkpt lat="45.052155573774364" lon="8.337706882611885"><ele>207.0</ele><time>2026-05-03T13:20:43.003Z</time></trkpt><trkpt lat="45.05220045617537" lon="8.337787754256947"><ele>207.0</ele><time>2026-05-03T13:20:47.003Z</time></trkpt><trkpt lat="45.05222396264443" lon="8.337893094280899"><ele>207.0</ele><time>2026-05-03T13:20:51.003Z</time></trkpt><trkpt lat="45.052257187467106" lon="8.33798105522134"><ele>207.0</ele><time>2026-05-03T13:20:53.003Z</time></trkpt><trkpt lat="45.05229518606324" lon="8.338063522491558"><ele>207.00000000000003</ele><time>2026-05-03T13:21:13.999Z</time></trkpt><trkpt lat="45.05232158350307" lon="8.338154130032073"><ele>207.0</ele><time>2026-05-03T13:21:17.999Z</time></trkpt><trkpt lat="45.05239761255672" lon="8.338173627333964"><ele>207.33333333333334</ele><time>2026-05-03T13:21:19.999Z</time></trkpt><trkpt lat="45.05245937121035" lon="8.338228104836551"><ele>207.66666666666669</ele><time>2026-05-03T13:21:21.999Z</time></trkpt><trkpt lat="45.052531993198414" lon="8.338317806673032"><ele>208.0</ele><time>2026-05-03T13:21:24.999Z</time></trkpt><trkpt lat="45.052590457757155" lon="8.338369615950151"><ele>208.33333333333334</ele><time>2026-05-03T13:21:26.999Z</time></trkpt><trkpt lat="45.05265013731956" lon="8.338429670597211"><ele>208.66666666666669</ele><time>2026-05-03T13:21:29Z</time></trkpt><trkpt lat="45.05271646427391" lon="8.338507313279514"><ele>209.0</ele><time>2026-05-03T13:21:31Z</time></trkpt><trkpt lat="45.052768890343856" lon="8.338579443707989"><ele>209.00000000000003</ele><time>2026-05-03T13:21:33Z</time></trkpt><trkpt lat="45.05281417556645" lon="8.33865053436041"><ele>209.0</ele><time>2026-05-03T13:21:37Z</time></trkpt><trkpt lat="45.05292570960802" lon="8.338534433926533"><ele>209.0</ele><time>2026-05-03T13:21:41Z</time></trkpt><trkpt lat="45.052985095190756" lon="8.338462558196186"><ele>209.0</ele><time>2026-05-03T13:21:45Z</time></trkpt><trkpt lat="45.05304290794462" lon="8.338349713696507"><ele>209.00000000000003</ele><time>2026-05-03T13:21:48.001Z</time></trkpt><trkpt lat="45.05310003170523" lon="8.338303348610959"><ele>209.0</ele><time>2026-05-03T13:21:50.001Z</time></trkpt><trkpt lat="45.053160774954165" lon="8.338219861881937"><ele>209.00000000000003</ele><time>2026-05-03T13:21:54.001Z</time></trkpt><trkpt lat="45.05321744349788" lon="8.33815594058019"><ele>209.0</ele><time>2026-05-03T13:21:59.001Z</time></trkpt><trkpt lat="45.05325767718652" lon="8.338066105338738"><ele>209.0</ele><time>2026-05-03T13:22:03.001Z</time></trkpt><trkpt lat="45.05329252264869" lon="8.337980630003395"><ele>209.0</ele><time>2026-05-03T13:22:06.001Z</time></trkpt><trkpt lat="45.05334988377649" lon="8.33789307736921"><ele>209.00000000000003</ele><time>2026-05-03T13:22:09.001Z</time></trkpt><trkpt lat="45.05339657326034" lon="8.337800693363587"><ele>209.0</ele><time>2026-05-03T13:22:12.001Z</time></trkpt><trkpt lat="45.05344255883731" lon="8.337717163210117"><ele>210.28571428571428</ele><time>2026-05-03T13:22:15.002Z</time></trkpt><trkpt lat="45.0534882611883" lon="8.337646958124774"><ele>211.57142857142856</ele><time>2026-05-03T13:22:18.002Z</time></trkpt><trkpt lat="45.053545099175814" lon="8.337587920879338"><ele>212.85714285714286</ele><time>2026-05-03T13:22:21.002Z</time></trkpt><trkpt lat="45.053607939468776" lon="8.337536971749712"><ele>214.14285714285714</ele><time>2026-05-03T13:22:25.002Z</time></trkpt><trkpt lat="45.05367249467932" lon="8.337490707266632"><ele>215.42857142857144</ele><time>2026-05-03T13:22:28.002Z</time></trkpt><trkpt lat="45.053731535339224" lon="8.337450044516803"><ele>216.71428571428572</ele><time>2026-05-03T13:22:31.002Z</time></trkpt><trkpt lat="45.05380214007666" lon="8.337404438905923"><ele>218.0</ele><time>2026-05-03T13:22:34.002Z</time></trkpt><trkpt lat="45.053876275707196" lon="8.337359469297704"><ele>218.00000000000003</ele><time>2026-05-03T13:22:37.002Z</time></trkpt><trkpt lat="45.05395423492578" lon="8.337314093499327"><ele>218.0</ele><time>2026-05-03T13:22:40.002Z</time></trkpt><trkpt lat="45.05403230490785" lon="8.337270720698386"><ele>218.0</ele><time>2026-05-03T13:22:43.002Z</time></trkpt><trkpt lat="45.054109216765845" lon="8.337228177368612"><ele>218.0</ele><time>2026-05-03T13:22:46.002Z</time></trkpt><trkpt lat="45.05418619580811" lon="8.337188355440352"><ele>218.00000000000003</ele><time>2026-05-03T13:22:49.003Z</time></trkpt><trkpt lat="45.05425835690244" lon="8.337158131218377"><ele>218.0</ele><time>2026-05-03T13:22:52.003Z</time></trkpt><trkpt lat="45.05432963077129" lon="8.337116099835672"><ele>218.16666666666669</ele><time>2026-05-03T13:22:55.003Z</time></trkpt><trkpt lat="45.054404585707076" lon="8.337112549566749"><ele>218.33333333333334</ele><time>2026-05-03T13:22:58.003Z</time></trkpt><trkpt lat="45.054491251362634" lon="8.33708874612796"><ele>218.5</ele><time>2026-05-03T13:23:01.003Z</time></trkpt><trkpt lat="45.05457390537903" lon="8.337062639211068"><ele>218.66666666666669</ele><time>2026-05-03T13:23:04.003Z</time></trkpt><trkpt lat="45.05464611223374" lon="8.33703565506703"><ele>218.83333333333334</ele><time>2026-05-03T13:23:08.003Z</time></trkpt><trkpt lat="45.05470974042397" lon="8.336987267853816"><ele>219.0</ele><time>2026-05-03T13:23:13.003Z</time></trkpt><trkpt lat="45.054773291879606" lon="8.336974201652842"><ele>219.0</ele><time>2026-05-03T13:23:17.999Z</time></trkpt><trkpt lat="45.05484054974245" lon="8.336965335314792"><ele>219.0</ele><time>2026-05-03T13:23:21.999Z</time></trkpt><trkpt lat="45.05491497264311" lon="8.336947487072802"><ele>219.0</ele><time>2026-05-03T13:23:26.999Z</time></trkpt><trkpt lat="45.05499532096806" lon="8.336947177550622"><ele>219.0</ele><time>2026-05-03T13:23:30.999Z</time></trkpt><trkpt lat="45.05507474657849" lon="8.336961390176532"><ele>219.0</ele><time>2026-05-03T13:23:34Z</time></trkpt><trkpt lat="45.05514958705542" lon="8.336983925471383"><ele>219.0</ele><time>2026-05-03T13:23:37Z</time></trkpt><trkpt lat="45.055223782815794" lon="8.337013554580569"><ele>220.66666666666666</ele><time>2026-05-03T13:23:40Z</time></trkpt><trkpt lat="45.05529213091218" lon="8.337048383836146"><ele>222.33333333333331</ele><time>2026-05-03T13:23:43Z</time></trkpt><trkpt lat="45.05535635375764" lon="8.337086386721639"><ele>224.0</ele><time>2026-05-03T13:23:48Z</time></trkpt><trkpt lat="45.055421380118844" lon="8.337034833899198"><ele>225.66666666666666</ele><time>2026-05-03T13:23:52Z</time></trkpt><trkpt lat="45.0554716822573" lon="8.337143273026264"><ele>227.33333333333331</ele><time>2026-05-03T13:23:56.001Z</time></trkpt><trkpt lat="45.055529420532146" lon="8.337205362323218"><ele>229.0</ele><time>2026-05-03T13:23:59.001Z</time></trkpt><trkpt lat="45.05561485812647" lon="8.337205866776477"><ele>228.99999999999997</ele><time>2026-05-03T13:24:01.001Z</time></trkpt><trkpt lat="45.05573364403458" lon="8.33713628400739"><ele>229.0</ele><time>2026-05-03T13:24:03.001Z</time></trkpt><trkpt lat="45.055809668218885" lon="8.337128935036564"><ele>229.0</ele><time>2026-05-03T13:24:04.001Z</time></trkpt><trkpt lat="45.0558703381778" lon="8.337060595718041"><ele>229.0</ele><time>2026-05-03T13:24:05.001Z</time></trkpt><trkpt lat="45.05592981794992" lon="8.336990594251525"><ele>228.99999999999997</ele><time>2026-05-03T13:24:06.001Z</time></trkpt><trkpt lat="45.055987254438094" lon="8.33691501834614"><ele>229.0</ele><time>2026-05-03T13:24:07.001Z</time></trkpt><trkpt lat="45.05604145714561" lon="8.336844773367197"><ele>228.83333333333331</ele><time>2026-05-03T13:24:08.001Z</time></trkpt><trkpt lat="45.0561397270554" lon="8.336735705824381"><ele>228.66666666666666</ele><time>2026-05-03T13:24:10.001Z</time></trkpt><trkpt lat="45.056195188775796" lon="8.336684452432564"><ele>228.5</ele><time>2026-05-03T13:24:11.001Z</time></trkpt><trkpt lat="45.056256191337795" lon="8.336637592749165"><ele>228.33333333333331</ele><time>2026-05-03T13:24:12.001Z</time></trkpt><trkpt lat="45.056324104617296" lon="8.336595595822516"><ele>228.16666666666666</ele><time>2026-05-03T13:24:13.001Z</time></trkpt><trkpt lat="45.05640157526563" lon="8.336564469570911"><ele>228.0</ele><time>2026-05-03T13:24:14.001Z</time></trkpt><trkpt lat="45.0564859427227" lon="8.336542252886122"><ele>228.0</ele><time>2026-05-03T13:24:15.001Z</time></trkpt><trkpt lat="45.05657364093732" lon="8.336531758383751"><ele>228.0</ele><time>2026-05-03T13:24:16.001Z</time></trkpt><trkpt lat="45.056662595981905" lon="8.33650609352111"><ele>228.0</ele><time>2026-05-03T13:24:17.001Z</time></trkpt><trkpt lat="45.056762072947805" lon="8.336500952895026"><ele>228.0</ele><time>2026-05-03T13:24:18.001Z</time></trkpt><trkpt lat="45.05685694139959" lon="8.336473165915779"><ele>228.0</ele><time>2026-05-03T13:24:19.001Z</time></trkpt><trkpt lat="45.056952486918384" lon="8.336426104760296"><ele>226.4</ele><time>2026-05-03T13:24:20.001Z</time></trkpt><trkpt lat="45.05704451058044" lon="8.336364795347096"><ele>224.8</ele><time>2026-05-03T13:24:21.002Z</time></trkpt><trkpt lat="45.05713482367441" lon="8.336303465466472"><ele>223.2</ele><time>2026-05-03T13:24:22.002Z</time></trkpt><trkpt lat="45.0572228017956" lon="8.336243682998862"><ele>221.6</ele><time>2026-05-03T13:24:23.002Z</time></trkpt><trkpt lat="45.05730877008867" lon="8.336184317504749"><ele>220.0</ele><time>2026-05-03T13:24:24.002Z</time></trkpt><trkpt lat="45.057395666132926" lon="8.336123084267006"><ele>220.4</ele><time>2026-05-03T13:24:25.002Z</time></trkpt><trkpt lat="45.05747660503262" lon="8.336046920276457"><ele>220.8</ele><time>2026-05-03T13:24:26.002Z</time></trkpt><trkpt lat="45.05756150032165" lon="8.335992521369256"><ele>221.2</ele><time>2026-05-03T13:24:27.002Z</time></trkpt><trkpt lat="45.05763804474883" lon="8.335920337283355"><ele>221.6</ele><time>2026-05-03T13:24:28.002Z</time></trkpt><trkpt lat="45.05771173852966" lon="8.335838155962492"><ele>222.0</ele><time>2026-05-03T13:24:29.002Z</time></trkpt><trkpt lat="45.057783329448704" lon="8.335761455476169"><ele>222.0</ele><time>2026-05-03T13:24:30.002Z</time></trkpt><trkpt lat="45.05784088022014" lon="8.33567195388572"><ele>222.0</ele><time>2026-05-03T13:24:31.002Z</time></trkpt><trkpt lat="45.0578875099459" lon="8.335575672270267"><ele>222.0</ele><time>2026-05-03T13:24:32.002Z</time></trkpt><trkpt lat="45.0579306579416" lon="8.335483898544494"><ele>222.0</ele><time>2026-05-03T13:24:33.002Z</time></trkpt><trkpt lat="45.057972776058975" lon="8.335402782952038"><ele>222.0</ele><time>2026-05-03T13:24:34.002Z</time></trkpt><trkpt lat="45.05802442343615" lon="8.335331559090198"><ele>222.0</ele><time>2026-05-03T13:24:35.002Z</time></trkpt><trkpt lat="45.05807724485313" lon="8.335273440673467"><ele>222.39999999999998</ele><time>2026-05-03T13:24:36.002Z</time></trkpt><trkpt lat="45.05817057640147" lon="8.335198720255773"><ele>222.79999999999998</ele><time>2026-05-03T13:24:38.002Z</time></trkpt><trkpt lat="45.05826943659681" lon="8.335166924489362"><ele>223.2</ele><time>2026-05-03T13:24:40.002Z</time></trkpt><trkpt lat="45.058373014490286" lon="8.335139222542658"><ele>223.6</ele><time>2026-05-03T13:24:42.002Z</time></trkpt><trkpt lat="45.05849067908542" lon="8.33512321669342"><ele>224.0</ele><time>2026-05-03T13:24:44.002Z</time></trkpt><trkpt lat="45.05860811194873" lon="8.335077297949875"><ele>224.2</ele><time>2026-05-03T13:24:46.002Z</time></trkpt><trkpt lat="45.05872853842253" lon="8.33503543359944"><ele>224.39999999999998</ele><time>2026-05-03T13:24:48.002Z</time></trkpt><trkpt lat="45.05883951364316" lon="8.335015651851696"><ele>224.6</ele><time>2026-05-03T13:24:50.002Z</time></trkpt><trkpt lat="45.0589387819968" lon="8.334997487009694"><ele>224.8</ele><time>2026-05-03T13:24:52.002Z</time></trkpt><trkpt lat="45.05902745438888" lon="8.334970802888453"><ele>225.0</ele><time>2026-05-03T13:24:54.003Z</time></trkpt><trkpt lat="45.05910900909787" lon="8.334963863217158"><ele>226.83333333333334</ele><time>2026-05-03T13:24:56.003Z</time></trkpt><trkpt lat="45.059184100679936" lon="8.334946279789792"><ele>228.66666666666669</ele><time>2026-05-03T13:24:58.003Z</time></trkpt><trkpt lat="45.05925764234723" lon="8.334970526391384"><ele>230.5</ele><time>2026-05-03T13:25:01.003Z</time></trkpt><trkpt lat="45.059337929423926" lon="8.334983406620108"><ele>232.33333333333334</ele><time>2026-05-03T13:25:05.003Z</time></trkpt><trkpt lat="45.059419681541" lon="8.334998909362534"><ele>234.16666666666669</ele><time>2026-05-03T13:25:08.003Z</time></trkpt><trkpt lat="45.05949152968927" lon="8.335013988530644"><ele>236.0</ele><time>2026-05-03T13:25:11.003Z</time></trkpt><trkpt lat="45.05955739851716" lon="8.33499129219821"><ele>236.00000000000003</ele><time>2026-05-03T13:25:14.003Z</time></trkpt><trkpt lat="45.05962068511228" lon="8.33502022888511"><ele>236.0</ele><time>2026-05-03T13:25:17.003Z</time></trkpt><trkpt lat="45.05967503582642" lon="8.335072568053898"><ele>236.0</ele><time>2026-05-03T13:25:21.003Z</time></trkpt><trkpt lat="45.05975154683354" lon="8.33508582664329"><ele>236.0</ele><time>2026-05-03T13:25:42Z</time></trkpt><trkpt lat="45.059820209967135" lon="8.335090117824581"><ele>236.00000000000003</ele><time>2026-05-03T13:25:45Z</time></trkpt><trkpt lat="45.05989889828716" lon="8.335079453166909"><ele>236.0</ele><time>2026-05-03T13:25:48Z</time></trkpt><trkpt lat="45.059993807388295" lon="8.33507359861077"><ele>236.42857142857142</ele><time>2026-05-03T13:25:51Z</time></trkpt><trkpt lat="45.060064275457776" lon="8.335064707343179"><ele>236.8571428571429</ele><time>2026-05-03T13:25:53Z</time></trkpt><trkpt lat="45.06012744638224" lon="8.335058914791503"><ele>237.2857142857143</ele><time>2026-05-03T13:25:55Z</time></trkpt><trkpt lat="45.06019478900612" lon="8.335054756313417"><ele>237.71428571428572</ele><time>2026-05-03T13:25:57Z</time></trkpt><trkpt lat="45.060269014180435" lon="8.335042179331435"><ele>238.14285714285717</ele><time>2026-05-03T13:25:59Z</time></trkpt><trkpt lat="45.06033674190717" lon="8.335032828776123"><ele>238.5714285714286</ele><time>2026-05-03T13:26:01.001Z</time></trkpt><trkpt lat="45.06040252874067" lon="8.335029981613982"><ele>239.00000000000003</ele><time>2026-05-03T13:26:03.001Z</time></trkpt><trkpt lat="45.06046813461958" lon="8.335019323723122"><ele>239.00000000000003</ele><time>2026-05-03T13:26:05.001Z</time></trkpt><trkpt lat="45.060560413935136" lon="8.335016602517408"><ele>239.0</ele><time>2026-05-03T13:26:08.001Z</time></trkpt><trkpt lat="45.06063797871431" lon="8.335016057735423"><ele>239.0</ele><time>2026-05-03T13:26:11.001Z</time></trkpt><trkpt lat="45.06071518825216" lon="8.335014366369133"><ele>239.0</ele><time>2026-05-03T13:26:14.001Z</time></trkpt><trkpt lat="45.06078809685235" lon="8.3350098162426"><ele>239.00000000000003</ele><time>2026-05-03T13:26:17.001Z</time></trkpt><trkpt lat="45.060862945224756" lon="8.334995244821188"><ele>239.0</ele><time>2026-05-03T13:26:20.001Z</time></trkpt><trkpt lat="45.060938176084974" lon="8.334999321692925"><ele>240.50000000000003</ele><time>2026-05-03T13:26:23.001Z</time></trkpt><trkpt lat="45.06100343755127" lon="8.335011040927139"><ele>242.0</ele><time>2026-05-03T13:26:26.001Z</time></trkpt><trkpt lat="45.06109307072222" lon="8.335049394995954"><ele>243.5</ele><time>2026-05-03T13:26:29.002Z</time></trkpt><trkpt lat="45.06116910155578" lon="8.335071799919573"><ele>245.0</ele><time>2026-05-03T13:26:32.002Z</time></trkpt><trkpt lat="45.06124759407343" lon="8.33510192971178"><ele>246.50000000000003</ele><time>2026-05-03T13:26:35.002Z</time></trkpt><trkpt lat="45.06130959842458" lon="8.335129689350083"><ele>248.0</ele><time>2026-05-03T13:26:37.002Z</time></trkpt><trkpt lat="45.0613840718113" lon="8.335161920583017"><ele>248.00000000000003</ele><time>2026-05-03T13:26:40.002Z</time></trkpt><trkpt lat="45.061472338862856" lon="8.335193193413824"><ele>248.0</ele><time>2026-05-03T13:26:43.002Z</time></trkpt><trkpt lat="45.061546205335375" lon="8.335211444708827"><ele>248.0</ele><time>2026-05-03T13:26:46.002Z</time></trkpt><trkpt lat="45.06163078857726" lon="8.335234819773124"><ele>248.0</ele><time>2026-05-03T13:26:49.002Z</time></trkpt><trkpt lat="45.0617072580969" lon="8.335254713917049"><ele>248.00000000000003</ele><time>2026-05-03T13:26:52.002Z</time></trkpt><trkpt lat="45.06178931745191" lon="8.33525711854713"><ele>248.0</ele><time>2026-05-03T13:26:55.002Z</time></trkpt><trkpt lat="45.06187942139795" lon="8.335273557626603"><ele>249.66666666666669</ele><time>2026-05-03T13:26:58.002Z</time></trkpt><trkpt lat="45.06196554947267" lon="8.335277204816759"><ele>251.33333333333334</ele><time>2026-05-03T13:27:01.003Z</time></trkpt><trkpt lat="45.062048941223914" lon="8.335288950938047"><ele>253.0</ele><time>2026-05-03T13:27:04.003Z</time></trkpt><trkpt lat="45.06213575985261" lon="8.335304733717331"><ele>254.66666666666669</ele><time>2026-05-03T13:27:07.003Z</time></trkpt><trkpt lat="45.062215174759956" lon="8.335322278704629"><ele>256.3333333333333</ele><time>2026-05-03T13:27:10.003Z</time></trkpt><trkpt lat="45.062291083820696" lon="8.335344732846762"><ele>258.0</ele><time>2026-05-03T13:27:13.003Z</time></trkpt><trkpt lat="45.0623612336083" lon="8.335374529731574"><ele>257.99999999999994</ele><time>2026-05-03T13:27:16.003Z</time></trkpt><trkpt lat="45.06243030935893" lon="8.335394853490463"><ele>258.0</ele><time>2026-05-03T13:27:19.003Z</time></trkpt><trkpt lat="45.06250013613449" lon="8.335405857761879"><ele>258.0</ele><time>2026-05-03T13:27:22.003Z</time></trkpt><trkpt lat="45.06257353003779" lon="8.335435158499724"><ele>258.0</ele><time>2026-05-03T13:27:25.003Z</time></trkpt><trkpt lat="45.062645073408284" lon="8.335452454759618"><ele>258.0</ele><time>2026-05-03T13:27:27.998Z</time></trkpt><trkpt lat="45.06272025303789" lon="8.335464773976986"><ele>257.99999999999994</ele><time>2026-05-03T13:27:30.999Z</time></trkpt><trkpt lat="45.062800972710754" lon="8.335473211054712"><ele>258.0</ele><time>2026-05-03T13:27:33.999Z</time></trkpt><trkpt lat="45.06287748625163" lon="8.335476288756931"><ele>259.6666666666667</ele><time>2026-05-03T13:27:36.999Z</time></trkpt><trkpt lat="45.06295977512522" lon="8.335473891905743"><ele>261.3333333333333</ele><time>2026-05-03T13:27:39.999Z</time></trkpt><trkpt lat="45.06305337841116" lon="8.335477521031711"><ele>263.0</ele><time>2026-05-03T13:27:42.999Z</time></trkpt><trkpt lat="45.06311742938548" lon="8.335471376682303"><ele>264.66666666666663</ele><time>2026-05-03T13:27:44.999Z</time></trkpt><trkpt lat="45.06320746117835" lon="8.335454054652873"><ele>266.3333333333333</ele><time>2026-05-03T13:27:48Z</time></trkpt><trkpt lat="45.063270895307376" lon="8.335438232509738"><ele>268.0</ele><time>2026-05-03T13:27:50Z</time></trkpt><trkpt lat="45.06335917959114" lon="8.335406709606545"><ele>269.7142857142857</ele><time>2026-05-03T13:27:53Z</time></trkpt><trkpt lat="45.06341878239167" lon="8.3353773959514"><ele>271.42857142857144</ele><time>2026-05-03T13:27:55Z</time></trkpt><trkpt lat="45.06348871712221" lon="8.335343276291827"><ele>273.1428571428571</ele><time>2026-05-03T13:27:57Z</time></trkpt><trkpt lat="45.063548796671846" lon="8.335300807865082"><ele>274.8571428571429</ele><time>2026-05-03T13:27:59Z</time></trkpt><trkpt lat="45.0636087697527" lon="8.335253132858991"><ele>276.57142857142856</ele><time>2026-05-03T13:28:01Z</time></trkpt><trkpt lat="45.06367449872022" lon="8.335214630855251"><ele>278.2857142857143</ele><time>2026-05-03T13:28:03Z</time></trkpt><trkpt lat="45.06373765647983" lon="8.335173597699843"><ele>280.0</ele><time>2026-05-03T13:28:05.001Z</time></trkpt><trkpt lat="45.06380073508991" lon="8.335131305680967"><ele>280.0</ele><time>2026-05-03T13:28:07.001Z</time></trkpt><trkpt lat="45.06389643244666" lon="8.33508148184523"><ele>280.0</ele><time>2026-05-03T13:28:10.001Z</time></trkpt><trkpt lat="45.063964938287114" lon="8.335029514306687"><ele>280.0</ele><time>2026-05-03T13:28:12.001Z</time></trkpt><trkpt lat="45.064028425672106" lon="8.334978542367978"><ele>280.0</ele><time>2026-05-03T13:28:15.001Z</time></trkpt><trkpt lat="45.06409283071511" lon="8.334938894253968"><ele>280.0</ele><time>2026-05-03T13:28:20.001Z</time></trkpt><trkpt lat="45.06413279787163" lon="8.334859010061937"><ele>280.0</ele><time>2026-05-03T13:28:25.001Z</time></trkpt><trkpt lat="45.06418777323521" lon="8.334903811733867"><ele>281.8333333333333</ele><time>2026-05-03T13:28:30.001Z</time></trkpt><trkpt lat="45.06426037936295" lon="8.334914349472477"><ele>283.66666666666663</ele><time>2026-05-03T13:28:37.002Z</time></trkpt><trkpt lat="45.06427301038371" lon="8.334818496209229"><ele>285.5</ele><time>2026-05-03T13:28:42.002Z</time></trkpt><trkpt lat="45.06437564618742" lon="8.334844171920357"><ele>287.3333333333333</ele><time>2026-05-03T13:29:06.003Z</time></trkpt><trkpt lat="45.064441996033956" lon="8.334798277764564"><ele>289.1666666666667</ele><time>2026-05-03T13:29:09.003Z</time></trkpt><trkpt lat="45.064505064649204" lon="8.334773902954069"><ele>291.0</ele><time>2026-05-03T13:29:11.003Z</time></trkpt><trkpt lat="45.064589319872255" lon="8.334756754993322"><ele>291.0</ele><time>2026-05-03T13:29:13.003Z</time></trkpt><trkpt lat="45.0646876436153" lon="8.334731613577437"><ele>291.0</ele><time>2026-05-03T13:29:15.003Z</time></trkpt><trkpt lat="45.0647810318866" lon="8.334717727057651"><ele>291.0</ele><time>2026-05-03T13:29:17.003Z</time></trkpt><trkpt lat="45.064865069513765" lon="8.334700152561346"><ele>291.0</ele><time>2026-05-03T13:29:19.003Z</time></trkpt><trkpt lat="45.0649338992034" lon="8.334662155219016"><ele>291.0</ele><time>2026-05-03T13:29:21.003Z</time></trkpt><trkpt lat="45.06499725738708" lon="8.334631572380875"><ele>291.0</ele><time>2026-05-03T13:29:23.003Z</time></trkpt><trkpt lat="45.0650628361439" lon="8.334603251644932"><ele>290.0</ele><time>2026-05-03T13:29:25.003Z</time></trkpt><trkpt lat="45.06513623278028" lon="8.334538489835749"><ele>289.0</ele><time>2026-05-03T13:29:27.003Z</time></trkpt><trkpt lat="45.06520817141323" lon="8.334464213737087"><ele>288.0</ele><time>2026-05-03T13:29:29.003Z</time></trkpt><trkpt lat="45.065267186460424" lon="8.334401332627836"><ele>287.0</ele><time>2026-05-03T13:29:31.003Z</time></trkpt><trkpt lat="45.06533672288017" lon="8.334304940250346"><ele>286.0</ele><time>2026-05-03T13:29:33.003Z</time></trkpt><trkpt lat="45.06540930742108" lon="8.334199126896253"><ele>286.0</ele><time>2026-05-03T13:29:34.998Z</time></trkpt><trkpt lat="45.065480313258206" lon="8.334114532168066"><ele>286.0</ele><time>2026-05-03T13:29:36.998Z</time></trkpt><trkpt lat="45.065546125062106" lon="8.334057376566058"><ele>286.0</ele><time>2026-05-03T13:29:38.998Z</time></trkpt><trkpt lat="45.065629988659154" lon="8.33400801821136"><ele>286.0</ele><time>2026-05-03T13:29:40.999Z</time></trkpt><trkpt lat="45.065730920907775" lon="8.333989187495657"><ele>286.0</ele><time>2026-05-03T13:29:42.999Z</time></trkpt><trkpt lat="45.06583024479689" lon="8.333935807650684"><ele>286.0</ele><time>2026-05-03T13:29:44.999Z</time></trkpt><trkpt lat="45.065920227767656" lon="8.333877139626647"><ele>286.0</ele><time>2026-05-03T13:29:46.999Z</time></trkpt><trkpt lat="45.065997173809706" lon="8.333804158885766"><ele>286.0</ele><time>2026-05-03T13:29:48.999Z</time></trkpt><trkpt lat="45.066057067750606" lon="8.333716106392002"><ele>286.0</ele><time>2026-05-03T13:29:50.999Z</time></trkpt><trkpt lat="45.066118285140256" lon="8.333622848981745"><ele>286.0</ele><time>2026-05-03T13:29:52.999Z</time></trkpt><trkpt lat="45.06613878121903" lon="8.33352176075145"><ele>286.0</ele><time>2026-05-03T13:29:55Z</time></trkpt><trkpt lat="45.066190470661766" lon="8.333412371029842"><ele>286.0</ele><time>2026-05-03T13:29:58Z</time></trkpt><trkpt lat="45.066214488706365" lon="8.333325258763606"><ele>286.0</ele><time>2026-05-03T13:30:00Z</time></trkpt><trkpt lat="45.06623689194334" lon="8.333195919117175"><ele>286.0</ele><time>2026-05-03T13:30:03Z</time></trkpt><trkpt lat="45.06629114215202" lon="8.333095627696364"><ele>286.0</ele><time>2026-05-03T13:30:05Z</time></trkpt><trkpt lat="45.066316844701156" lon="8.332993057672073"><ele>286.0</ele><time>2026-05-03T13:30:07Z</time></trkpt><trkpt lat="45.066348094652525" lon="8.332910130768884"><ele>286.0</ele><time>2026-05-03T13:30:09Z</time></trkpt><trkpt lat="45.066385633310176" lon="8.332794309744958"><ele>284.16666666666663</ele><time>2026-05-03T13:30:11Z</time></trkpt><trkpt lat="45.06643936271068" lon="8.332665266943732"><ele>282.3333333333333</ele><time>2026-05-03T13:30:13.001Z</time></trkpt><trkpt lat="45.06651275804564" lon="8.332523009032244"><ele>280.5</ele><time>2026-05-03T13:30:15.001Z</time></trkpt><trkpt lat="45.0665418081052" lon="8.332437319977139"><ele>278.6666666666667</ele><time>2026-05-03T13:30:16.001Z</time></trkpt><trkpt lat="45.06657336391473" lon="8.332344239725774"><ele>276.83333333333337</ele><time>2026-05-03T13:30:17.001Z</time></trkpt><trkpt lat="45.06659172789569" lon="8.332236385606864"><ele>275.0</ele><time>2026-05-03T13:30:18.001Z</time></trkpt><trkpt lat="45.066635026569905" lon="8.332144144631961"><ele>275.0</ele><time>2026-05-03T13:30:19.001Z</time></trkpt><trkpt lat="45.06666767055544" lon="8.332038036259263"><ele>275.0</ele><time>2026-05-03T13:30:20.001Z</time></trkpt><trkpt lat="45.066707940918995" lon="8.331931023885618"><ele>275.0</ele><time>2026-05-03T13:30:21.001Z</time></trkpt><trkpt lat="45.06676439864593" lon="8.331833965697513"><ele>275.0</ele><time>2026-05-03T13:30:22.001Z</time></trkpt><trkpt lat="45.06682808360541" lon="8.331745491037593"><ele>275.0</ele><time>2026-05-03T13:30:23.001Z</time></trkpt><trkpt lat="45.06690182758587" lon="8.331667102031826"><ele>275.0</ele><time>2026-05-03T13:30:24.001Z</time></trkpt><trkpt lat="45.066983398177236" lon="8.33159475858379"><ele>275.0</ele><time>2026-05-03T13:30:25.001Z</time></trkpt><trkpt lat="45.06705575801998" lon="8.331501801946613"><ele>275.0</ele><time>2026-05-03T13:30:26.001Z</time></trkpt><trkpt lat="45.06712318057558" lon="8.331396202162855"><ele>275.0</ele><time>2026-05-03T13:30:27.001Z</time></trkpt><trkpt lat="45.06718594278909" lon="8.331282135101207"><ele>275.0</ele><time>2026-05-03T13:30:28.001Z</time></trkpt><trkpt lat="45.067237367441756" lon="8.331154788761324"><ele>275.0</ele><time>2026-05-03T13:30:29.001Z</time></trkpt><trkpt lat="45.06727664204298" lon="8.331014891781198"><ele>272.4</ele><time>2026-05-03T13:30:30.001Z</time></trkpt><trkpt lat="45.06729192829673" lon="8.33085790479018"><ele>269.8</ele><time>2026-05-03T13:30:31.001Z</time></trkpt><trkpt lat="45.06729217859531" lon="8.330699263081593"><ele>267.2</ele><time>2026-05-03T13:30:32.001Z</time></trkpt><trkpt lat="45.06728703400088" lon="8.33053858043987"><ele>264.6</ele><time>2026-05-03T13:30:33.001Z</time></trkpt><trkpt lat="45.067271413534414" lon="8.33038929293585"><ele>262.0</ele><time>2026-05-03T13:30:34.001Z</time></trkpt><trkpt lat="45.06725843419069" lon="8.330265247130452"><ele>262.6</ele><time>2026-05-03T13:30:35.001Z</time></trkpt><trkpt lat="45.06725186023813" lon="8.33016688298683"><ele>263.2</ele><time>2026-05-03T13:30:36.001Z</time></trkpt><trkpt lat="45.067333974439954" lon="8.330049619376311"><ele>263.8</ele><time>2026-05-03T13:30:38.001Z</time></trkpt><trkpt lat="45.067409050439636" lon="8.330090284336443"><ele>264.4</ele><time>2026-05-03T13:30:39.001Z</time></trkpt><trkpt lat="45.067545257742765" lon="8.330208108376373"><ele>265.0</ele><time>2026-05-03T13:30:41.002Z</time></trkpt><trkpt lat="45.06761517180586" lon="8.330286849445253"><ele>265.0</ele><time>2026-05-03T13:30:42.002Z</time></trkpt><trkpt lat="45.06769026767555" lon="8.330357978756934"><ele>265.0</ele><time>2026-05-03T13:30:43.002Z</time></trkpt><trkpt lat="45.0677545694113" lon="8.330450516549572"><ele>265.0</ele><time>2026-05-03T13:30:44.002Z</time></trkpt><trkpt lat="45.0677950657268" lon="8.330570191860978"><ele>265.0</ele><time>2026-05-03T13:30:45.002Z</time></trkpt><trkpt lat="45.067804200406876" lon="8.33071299763359"><ele>265.0</ele><time>2026-05-03T13:30:46.002Z</time></trkpt><trkpt lat="45.067829319392146" lon="8.33084520824757"><ele>266.2</ele><time>2026-05-03T13:30:47.002Z</time></trkpt><trkpt lat="45.06789853052689" lon="8.330955493679717"><ele>267.4</ele><time>2026-05-03T13:30:48.002Z</time></trkpt><trkpt lat="45.06798566505913" lon="8.331030315893837"><ele>268.6</ele><time>2026-05-03T13:30:49.002Z</time></trkpt><trkpt lat="45.068076085552676" lon="8.331096426874696"><ele>269.8</ele><time>2026-05-03T13:30:50.002Z</time></trkpt><trkpt lat="45.0681746712613" lon="8.331145408723556"><ele>271.0</ele><time>2026-05-03T13:30:51.002Z</time></trkpt><trkpt lat="45.06828036064979" lon="8.331182419981921"><ele>268.6</ele><time>2026-05-03T13:30:52.002Z</time></trkpt><trkpt lat="45.06838717096859" lon="8.33119915100801"><ele>266.20000000000005</ele><time>2026-05-03T13:30:53.002Z</time></trkpt><trkpt lat="45.0684901086586" lon="8.331135652677174"><ele>263.79999999999995</ele><time>2026-05-03T13:30:54.002Z</time></trkpt><trkpt lat="45.068580120437296" lon="8.331052675484372"><ele>261.4</ele><time>2026-05-03T13:30:55.002Z</time></trkpt><trkpt lat="45.0686614669375" lon="8.330956759142312"><ele>259.0</ele><time>2026-05-03T13:30:56.002Z</time></trkpt><trkpt lat="45.068727106524285" lon="8.330843425114198"><ele>259.0</ele><time>2026-05-03T13:30:57.002Z</time></trkpt><trkpt lat="45.068804883531186" lon="8.330753388938444"><ele>259.0</ele><time>2026-05-03T13:30:58.002Z</time></trkpt><trkpt lat="45.0688881891936" lon="8.330666533797771"><ele>259.0</ele><time>2026-05-03T13:30:59.002Z</time></trkpt><trkpt lat="45.06897900018007" lon="8.330601919678255"><ele>259.0</ele><time>2026-05-03T13:31:00.002Z</time></trkpt><trkpt lat="45.06908865988981" lon="8.330574447406292"><ele>259.0</ele><time>2026-05-03T13:31:01.002Z</time></trkpt><trkpt lat="45.069177772360455" lon="8.33051993604775"><ele>256.0</ele><time>2026-05-03T13:31:02.002Z</time></trkpt><trkpt lat="45.06929281081489" lon="8.33049701128716"><ele>253.0</ele><time>2026-05-03T13:31:03.002Z</time></trkpt><trkpt lat="45.06939717257238" lon="8.33042393607456"><ele>250.0</ele><time>2026-05-03T13:31:04.002Z</time></trkpt><trkpt lat="45.069506334755715" lon="8.330346225973173"><ele>247.0</ele><time>2026-05-03T13:31:05.002Z</time></trkpt><trkpt lat="45.06961283307314" lon="8.330250478380025"><ele>247.0</ele><time>2026-05-03T13:31:06.002Z</time></trkpt><trkpt lat="45.069731579213645" lon="8.330183984876326"><ele>247.0</ele><time>2026-05-03T13:31:07.002Z</time></trkpt><trkpt lat="45.06985188157452" lon="8.330117945612706"><ele>247.0</ele><time>2026-05-03T13:31:08.002Z</time></trkpt><trkpt lat="45.06997195767068" lon="8.330041110123881"><ele>247.0</ele><time>2026-05-03T13:31:09.002Z</time></trkpt><trkpt lat="45.07009407196164" lon="8.329962917735982"><ele>246.25</ele><time>2026-05-03T13:31:10.002Z</time></trkpt><trkpt lat="45.07021904176804" lon="8.329881584680756"><ele>245.5</ele><time>2026-05-03T13:31:11.002Z</time></trkpt><trkpt lat="45.07034850013211" lon="8.329812755505161"><ele>244.75</ele><time>2026-05-03T13:31:12.002Z</time></trkpt><trkpt lat="45.070475610417716" lon="8.329727923127653"><ele>244.0</ele><time>2026-05-03T13:31:13.002Z</time></trkpt><trkpt lat="45.070613394845125" lon="8.32966379037895"><ele>242.25</ele><time>2026-05-03T13:31:14.002Z</time></trkpt><trkpt lat="45.07074160507301" lon="8.329565844742353"><ele>240.5</ele><time>2026-05-03T13:31:15.003Z</time></trkpt><trkpt lat="45.0708776499071" lon="8.329484754491098"><ele>238.75</ele><time>2026-05-03T13:31:16.003Z</time></trkpt><trkpt lat="45.071012859799794" lon="8.329404820546367"><ele>237.0</ele><time>2026-05-03T13:31:17.003Z</time></trkpt><trkpt lat="45.07114944296785" lon="8.329322774058781"><ele>237.0</ele><time>2026-05-03T13:31:18.003Z</time></trkpt><trkpt lat="45.071285386583384" lon="8.32923814293951"><ele>237.0</ele><time>2026-05-03T13:31:19.003Z</time></trkpt><trkpt lat="45.07142635451028" lon="8.329154557395475"><ele>237.0</ele><time>2026-05-03T13:31:20.003Z</time></trkpt><trkpt lat="45.07156683346077" lon="8.329065685225203"><ele>236.33333333333331</ele><time>2026-05-03T13:31:21.003Z</time></trkpt><trkpt lat="45.07170338659887" lon="8.32897669367662"><ele>235.66666666666666</ele><time>2026-05-03T13:31:22.003Z</time></trkpt><trkpt lat="45.07184129789643" lon="8.328878656547971"><ele>235.0</ele><time>2026-05-03T13:31:23.003Z</time></trkpt><trkpt lat="45.071979988582854" lon="8.32878566583834"><ele>233.25</ele><time>2026-05-03T13:31:24.003Z</time></trkpt><trkpt lat="45.07212128386" lon="8.328700896637077"><ele>231.5</ele><time>2026-05-03T13:31:25.003Z</time></trkpt><trkpt lat="45.07226072004026" lon="8.328623926677112"><ele>229.75</ele><time>2026-05-03T13:31:26.003Z</time></trkpt><trkpt lat="45.07239890231052" lon="8.328559970274922"><ele>228.0</ele><time>2026-05-03T13:31:27.003Z</time></trkpt><trkpt lat="45.07253833006375" lon="8.328509001484026"><ele>228.0</ele><time>2026-05-03T13:31:28.003Z</time></trkpt><trkpt lat="45.07267417236457" lon="8.328467150054276"><ele>228.0</ele><time>2026-05-03T13:31:29.003Z</time></trkpt><trkpt lat="45.072808317372406" lon="8.328425684969238"><ele>228.0</ele><time>2026-05-03T13:31:30.003Z</time></trkpt><trkpt lat="45.072934993947946" lon="8.328375531736683"><ele>228.0</ele><time>2026-05-03T13:31:31.003Z</time></trkpt><trkpt lat="45.073053639257424" lon="8.328329977708192"><ele>228.0</ele><time>2026-05-03T13:31:32.003Z</time></trkpt><trkpt lat="45.07316719847966" lon="8.328285607705435"><ele>228.0</ele><time>2026-05-03T13:31:33.003Z</time></trkpt><trkpt lat="45.073277371128924" lon="8.32824817440179"><ele>228.0</ele><time>2026-05-03T13:31:34.003Z</time></trkpt><trkpt lat="45.07338627036356" lon="8.328219088596319"><ele>228.0</ele><time>2026-05-03T13:31:35.003Z</time></trkpt><trkpt lat="45.07349000126904" lon="8.32818458353877"><ele>228.0</ele><time>2026-05-03T13:31:36.003Z</time></trkpt><trkpt lat="45.073595846721496" lon="8.328177042891687"><ele>228.4</ele><time>2026-05-03T13:31:37.003Z</time></trkpt><trkpt lat="45.073693838088005" lon="8.328148821791542"><ele>228.8</ele><time>2026-05-03T13:31:38.003Z</time></trkpt><trkpt lat="45.073791530366634" lon="8.32814032514557"><ele>229.2</ele><time>2026-05-03T13:31:39.003Z</time></trkpt><trkpt lat="45.07388914036556" lon="8.328152625828784"><ele>229.6</ele><time>2026-05-03T13:31:39.997Z</time></trkpt><trkpt lat="45.07398517067725" lon="8.328155551368534"><ele>230.0</ele><time>2026-05-03T13:31:40.998Z</time></trkpt><trkpt lat="45.074079202580954" lon="8.328152542164347"><ele>230.00000000000003</ele><time>2026-05-03T13:31:41.998Z</time></trkpt><trkpt lat="45.07416899985341" lon="8.328149315536981"><ele>230.0</ele><time>2026-05-03T13:31:42.998Z</time></trkpt><trkpt lat="45.07426053550399" lon="8.328155671563549"><ele>230.0</ele><time>2026-05-03T13:31:43.998Z</time></trkpt><trkpt lat="45.07434424915045" lon="8.328156564022247"><ele>230.0</ele><time>2026-05-03T13:31:44.998Z</time></trkpt><trkpt lat="45.074428275027756" lon="8.328149788265927"><ele>230.00000000000003</ele><time>2026-05-03T13:31:45.998Z</time></trkpt><trkpt lat="45.0745019065439" lon="8.328125152156378"><ele>230.0</ele><time>2026-05-03T13:31:46.998Z</time></trkpt><trkpt lat="45.07457038664786" lon="8.328088549043757"><ele>229.83333333333334</ele><time>2026-05-03T13:31:47.998Z</time></trkpt><trkpt lat="45.07463105157977" lon="8.328046764045125"><ele>229.66666666666669</ele><time>2026-05-03T13:31:48.998Z</time></trkpt><trkpt lat="45.074686584749834" lon="8.327998505106033"><ele>229.5</ele><time>2026-05-03T13:31:49.998Z</time></trkpt><trkpt lat="45.07478426568155" lon="8.327904953150094"><ele>229.33333333333331</ele><time>2026-05-03T13:31:51.999Z</time></trkpt><trkpt lat="45.07487396864742" lon="8.327849213398608"><ele>229.16666666666666</ele><time>2026-05-03T13:31:53.999Z</time></trkpt><trkpt lat="45.07493916912572" lon="8.327786445096672"><ele>229.0</ele><time>2026-05-03T13:31:55.999Z</time></trkpt><trkpt lat="45.07499751413091" lon="8.327717557408285"><ele>228.99999999999997</ele><time>2026-05-03T13:31:57.999Z</time></trkpt><trkpt lat="45.07506438577035" lon="8.327661545138225"><ele>229.0</ele><time>2026-05-03T13:31:59.999Z</time></trkpt><trkpt lat="45.07513010601213" lon="8.327596094130106"><ele>229.0</ele><time>2026-05-03T13:32:01.999Z</time></trkpt><trkpt lat="45.07519882168412" lon="8.327527087529608"><ele>229.0</ele><time>2026-05-03T13:32:04Z</time></trkpt><trkpt lat="45.07527656810182" lon="8.327460081453923"><ele>228.99999999999997</ele><time>2026-05-03T13:32:06Z</time></trkpt><trkpt lat="45.07534128476096" lon="8.327405968631549"><ele>229.0</ele><time>2026-05-03T13:32:08Z</time></trkpt><trkpt lat="45.075408433369226" lon="8.327302996279677"><ele>229.0</ele><time>2026-05-03T13:32:11Z</time></trkpt><trkpt lat="45.075453182750465" lon="8.327236733915182"><ele>229.0</ele><time>2026-05-03T13:32:13Z</time></trkpt><trkpt lat="45.07550047820024" lon="8.327169404422099"><ele>229.0</ele><time>2026-05-03T13:32:15Z</time></trkpt><trkpt lat="45.075545149397364" lon="8.327087646282752"><ele>229.0</ele><time>2026-05-03T13:32:18Z</time></trkpt><trkpt lat="45.07557979473788" lon="8.32700285123265"><ele>229.0</ele><time>2026-05-03T13:32:21.001Z</time></trkpt><trkpt lat="45.07561244852827" lon="8.326909721221202"><ele>229.0</ele><time>2026-05-03T13:32:24.001Z</time></trkpt><trkpt lat="45.0756494759473" lon="8.326832424707087"><ele>229.0</ele><time>2026-05-03T13:32:27.001Z</time></trkpt><trkpt lat="45.075689864786014" lon="8.326743297054367"><ele>228.83333333333331</ele><time>2026-05-03T13:32:31.001Z</time></trkpt><trkpt lat="45.075713020808294" lon="8.32665065143917"><ele>228.66666666666666</ele><time>2026-05-03T13:32:34.001Z</time></trkpt><trkpt lat="45.07574422323477" lon="8.326571714388963"><ele>228.5</ele><time>2026-05-03T13:32:37.001Z</time></trkpt><trkpt lat="45.07577234371929" lon="8.326478306871893"><ele>228.33333333333331</ele><time>2026-05-03T13:32:40.001Z</time></trkpt><trkpt lat="45.075803976863774" lon="8.326365905502044"><ele>228.16666666666666</ele><time>2026-05-03T13:32:43.001Z</time></trkpt><trkpt lat="45.075832962347754" lon="8.3262495835704"><ele>228.0</ele><time>2026-05-03T13:32:46.001Z</time></trkpt><trkpt lat="45.075865588630684" lon="8.326136492186746"><ele>228.0</ele><time>2026-05-03T13:32:49.002Z</time></trkpt><trkpt lat="45.07589594016857" lon="8.326032710895195"><ele>228.0</ele><time>2026-05-03T13:32:52.002Z</time></trkpt><trkpt lat="45.07592657415392" lon="8.325909145183482"><ele>228.0</ele><time>2026-05-03T13:32:55.002Z</time></trkpt><trkpt lat="45.0759486048836" lon="8.325815613146116"><ele>228.0</ele><time>2026-05-03T13:32:57.002Z</time></trkpt><trkpt lat="45.075986528356374" lon="8.325733623035902"><ele>228.0</ele><time>2026-05-03T13:32:59.002Z</time></trkpt><trkpt lat="45.07601771696623" lon="8.325650852634078"><ele>228.0</ele><time>2026-05-03T13:33:01.002Z</time></trkpt><trkpt lat="45.07604854724324" lon="8.325557440735809"><ele>227.16666666666666</ele><time>2026-05-03T13:33:03.002Z</time></trkpt><trkpt lat="45.07607489240601" lon="8.3254750848272"><ele>226.33333333333331</ele><time>2026-05-03T13:33:05.002Z</time></trkpt><trkpt lat="45.07609085365798" lon="8.325379302560826"><ele>225.5</ele><time>2026-05-03T13:33:07.002Z</time></trkpt><trkpt lat="45.076135983769326" lon="8.325290769484054"><ele>224.66666666666666</ele><time>2026-05-03T13:33:09.002Z</time></trkpt><trkpt lat="45.07617411924861" lon="8.325202594686749"><ele>223.83333333333331</ele><time>2026-05-03T13:33:11.002Z</time></trkpt><trkpt lat="45.07621202364062" lon="8.32507931331432"><ele>223.0</ele><time>2026-05-03T13:33:14.002Z</time></trkpt><trkpt lat="45.0762418504208" lon="8.324979478547867"><ele>222.99999999999997</ele><time>2026-05-03T13:33:16.002Z</time></trkpt><trkpt lat="45.07629626766983" lon="8.324891993701469"><ele>223.0</ele><time>2026-05-03T13:33:18.002Z</time></trkpt><trkpt lat="45.07635357604535" lon="8.32480143910203"><ele>223.0</ele><time>2026-05-03T13:33:20.003Z</time></trkpt><trkpt lat="45.076413212112904" lon="8.324708714199607"><ele>223.0</ele><time>2026-05-03T13:33:22.003Z</time></trkpt><trkpt lat="45.07647059788849" lon="8.32462454770462"><ele>222.99999999999997</ele><time>2026-05-03T13:33:24.003Z</time></trkpt><trkpt lat="45.076520075965256" lon="8.324551979032632"><ele>223.0</ele><time>2026-05-03T13:33:26.003Z</time></trkpt><trkpt lat="45.07656483454435" lon="8.324469311189876"><ele>223.0</ele><time>2026-05-03T13:33:29.003Z</time></trkpt><trkpt lat="45.07662596617843" lon="8.324498117736509"><ele>223.0</ele><time>2026-05-03T13:33:34.003Z</time></trkpt><trkpt lat="45.07674351347353" lon="8.32463556587389"><ele>223.0</ele><time>2026-05-03T13:33:36.003Z</time></trkpt><trkpt lat="45.07681215110177" lon="8.32469125119879"><ele>223.0</ele><time>2026-05-03T13:33:38.003Z</time></trkpt><trkpt lat="45.07688608720625" lon="8.324738041883847"><ele>223.0</ele><time>2026-05-03T13:33:40.003Z</time></trkpt><trkpt lat="45.07696885081104" lon="8.324755387984636"><ele>223.0</ele><time>2026-05-03T13:33:42.003Z</time></trkpt><trkpt lat="45.077069199925084" lon="8.324787823447641"><ele>223.0</ele><time>2026-05-03T13:33:44.003Z</time></trkpt><trkpt lat="45.077155726415036" lon="8.324803757824323"><ele>223.0</ele><time>2026-05-03T13:33:45.997Z</time></trkpt><trkpt lat="45.077248797672056" lon="8.324808981505917"><ele>223.0</ele><time>2026-05-03T13:33:47.998Z</time></trkpt><trkpt lat="45.07735271223397" lon="8.324823910181685"><ele>223.0</ele><time>2026-05-03T13:33:49.998Z</time></trkpt><trkpt lat="45.07747386720977" lon="8.324846615683692"><ele>222.16666666666666</ele><time>2026-05-03T13:33:51.998Z</time></trkpt><trkpt lat="45.07753628171153" lon="8.324874410310397"><ele>221.33333333333331</ele><time>2026-05-03T13:33:52.998Z</time></trkpt><trkpt lat="45.07759896768962" lon="8.324902970570099"><ele>220.5</ele><time>2026-05-03T13:33:53.998Z</time></trkpt><trkpt lat="45.077670477763526" lon="8.324939683615375"><ele>219.66666666666669</ele><time>2026-05-03T13:33:54.998Z</time></trkpt><trkpt lat="45.07773990206648" lon="8.32498990216748"><ele>218.83333333333334</ele><time>2026-05-03T13:33:55.998Z</time></trkpt><trkpt lat="45.07781331117787" lon="8.325042053112641"><ele>218.0</ele><time>2026-05-03T13:33:56.998Z</time></trkpt><trkpt lat="45.07788411200391" lon="8.325108969997515"><ele>218.00000000000003</ele><time>2026-05-03T13:33:57.999Z</time></trkpt><trkpt lat="45.07795298380304" lon="8.325177802860612"><ele>218.0</ele><time>2026-05-03T13:33:58.999Z</time></trkpt><trkpt lat="45.078022643358665" lon="8.325237406170615"><ele>218.0</ele><time>2026-05-03T13:33:59.999Z</time></trkpt><trkpt lat="45.07809914860713" lon="8.325291968259858"><ele>218.0</ele><time>2026-05-03T13:34:00.999Z</time></trkpt><trkpt lat="45.07817226570833" lon="8.325351527689056"><ele>218.00000000000003</ele><time>2026-05-03T13:34:01.999Z</time></trkpt><trkpt lat="45.0782418831601" lon="8.325412609819335"><ele>218.0</ele><time>2026-05-03T13:34:02.999Z</time></trkpt><trkpt lat="45.078312968711806" lon="8.325464477266395"><ele>218.16666666666669</ele><time>2026-05-03T13:34:03.999Z</time></trkpt><trkpt lat="45.078385652467084" lon="8.325519981553825"><ele>218.33333333333334</ele><time>2026-05-03T13:34:04.999Z</time></trkpt><trkpt lat="45.078457159558894" lon="8.32556411417062"><ele>218.5</ele><time>2026-05-03T13:34:05.999Z</time></trkpt><trkpt lat="45.07852656115223" lon="8.325615343485119"><ele>218.66666666666669</ele><time>2026-05-03T13:34:06.999Z</time></trkpt><trkpt lat="45.07859356511565" lon="8.325668416750853"><ele>218.83333333333334</ele><time>2026-05-03T13:34:07.999Z</time></trkpt><trkpt lat="45.07865429118904" lon="8.325721238761203"><ele>219.0</ele><time>2026-05-03T13:34:08.999Z</time></trkpt><trkpt lat="45.07871572347786" lon="8.325773985744048"><ele>217.83333333333334</ele><time>2026-05-03T13:34:10Z</time></trkpt><trkpt lat="45.078777690857926" lon="8.325817071131045"><ele>216.66666666666669</ele><time>2026-05-03T13:34:11Z</time></trkpt><trkpt lat="45.078838530650366" lon="8.325863006941363"><ele>215.5</ele><time>2026-05-03T13:34:12Z</time></trkpt><trkpt lat="45.07889322807404" lon="8.325909331316568"><ele>214.33333333333334</ele><time>2026-05-03T13:34:13Z</time></trkpt><trkpt lat="45.078996775879965" lon="8.325996770391045"><ele>213.16666666666669</ele><time>2026-05-03T13:34:15Z</time></trkpt><trkpt lat="45.07909866894769" lon="8.326075860392299"><ele>212.0</ele><time>2026-05-03T13:34:17Z</time></trkpt><trkpt lat="45.07920275775203" lon="8.326132935693526"><ele>212.0</ele><time>2026-05-03T13:34:19Z</time></trkpt><trkpt lat="45.07930310769466" lon="8.326205590776217"><ele>212.0</ele><time>2026-05-03T13:34:21Z</time></trkpt><trkpt lat="45.07939970346796" lon="8.32627801612903"><ele>212.0</ele><time>2026-05-03T13:34:23Z</time></trkpt><trkpt lat="45.079480037129784" lon="8.326355266505109"><ele>212.0</ele><time>2026-05-03T13:34:25Z</time></trkpt><trkpt lat="45.07956588042906" lon="8.326416189689848"><ele>212.0</ele><time>2026-05-03T13:34:27.001Z</time></trkpt><trkpt lat="45.07964608904692" lon="8.32647082134655"><ele>211.50000000000003</ele><time>2026-05-03T13:34:29.001Z</time></trkpt><trkpt lat="45.07972749788129" lon="8.326510587434969"><ele>211.0</ele><time>2026-05-03T13:34:31.001Z</time></trkpt><trkpt lat="45.07980299313673" lon="8.326565567702092"><ele>210.5</ele><time>2026-05-03T13:34:33.001Z</time></trkpt><trkpt lat="45.07987128055208" lon="8.326623344131681"><ele>210.0</ele><time>2026-05-03T13:34:35.001Z</time></trkpt><trkpt lat="45.07994330371897" lon="8.326689591194944"><ele>209.50000000000003</ele><time>2026-05-03T13:34:37.001Z</time></trkpt><trkpt lat="45.080016558297544" lon="8.326750404456602"><ele>209.0</ele><time>2026-05-03T13:34:39.001Z</time></trkpt><trkpt lat="45.08008420408571" lon="8.32682148918659"><ele>208.33333333333334</ele><time>2026-05-03T13:34:41.001Z</time></trkpt><trkpt lat="45.08014828356074" lon="8.326883113404538"><ele>207.66666666666669</ele><time>2026-05-03T13:34:43.001Z</time></trkpt><trkpt lat="45.08021000465956" lon="8.326937894141388"><ele>207.0</ele><time>2026-05-03T13:34:45.001Z</time></trkpt><trkpt lat="45.08026829613273" lon="8.32699459958714"><ele>206.33333333333331</ele><time>2026-05-03T13:34:47.001Z</time></trkpt><trkpt lat="45.080329276656904" lon="8.32705947660543"><ele>205.66666666666666</ele><time>2026-05-03T13:34:49.001Z</time></trkpt><trkpt lat="45.08039835950714" lon="8.327126431338737"><ele>205.0</ele><time>2026-05-03T13:34:51.001Z</time></trkpt><trkpt lat="45.08046461719676" lon="8.32722589771776"><ele>204.6</ele><time>2026-05-03T13:34:53.001Z</time></trkpt><trkpt lat="45.08052238213053" lon="8.327368427833214"><ele>204.2</ele><time>2026-05-03T13:34:55.002Z</time></trkpt><trkpt lat="45.080571700083624" lon="8.327512442424075"><ele>203.8</ele><time>2026-05-03T13:34:57.002Z</time></trkpt><trkpt lat="45.080627588540786" lon="8.327640565394333"><ele>203.4</ele><time>2026-05-03T13:34:59.002Z</time></trkpt><trkpt lat="45.080694533266986" lon="8.327766032498733"><ele>203.0</ele><time>2026-05-03T13:35:01.002Z</time></trkpt><trkpt lat="45.08076914453828" lon="8.327881911658212"><ele>203.00000000000003</ele><time>2026-05-03T13:35:03.002Z</time></trkpt><trkpt lat="45.08084710045576" lon="8.328007600722975"><ele>203.0</ele><time>2026-05-03T13:35:05.002Z</time></trkpt><trkpt lat="45.08089363529272" lon="8.328073670000919"><ele>203.0</ele><time>2026-05-03T13:35:06.002Z</time></trkpt><trkpt lat="45.08094411884593" lon="8.328145271374975"><ele>203.0</ele><time>2026-05-03T13:35:07.002Z</time></trkpt><trkpt lat="45.080989712956175" lon="8.3282295694917"><ele>203.00000000000003</ele><time>2026-05-03T13:35:08.002Z</time></trkpt><trkpt lat="45.08102867518239" lon="8.32832791014253"><ele>203.0</ele><time>2026-05-03T13:35:09.002Z</time></trkpt><trkpt lat="45.08105754241627" lon="8.328428613460922"><ele>202.33333333333334</ele><time>2026-05-03T13:35:10.002Z</time></trkpt><trkpt lat="45.08107401359498" lon="8.328538125345023"><ele>201.66666666666669</ele><time>2026-05-03T13:35:11.002Z</time></trkpt><trkpt lat="45.08109013782668" lon="8.328654908881656"><ele>201.0</ele><time>2026-05-03T13:35:12.002Z</time></trkpt><trkpt lat="45.08111876851752" lon="8.32876227763184"><ele>200.33333333333331</ele><time>2026-05-03T13:35:13.002Z</time></trkpt><trkpt lat="45.08115738523065" lon="8.328864430381719"><ele>199.66666666666666</ele><time>2026-05-03T13:35:14.002Z</time></trkpt><trkpt lat="45.081198351076914" lon="8.328965088280919"><ele>199.0</ele><time>2026-05-03T13:35:15.002Z</time></trkpt><trkpt lat="45.0812487769436" lon="8.329049421923251"><ele>197.99999999999997</ele><time>2026-05-03T13:35:16.002Z</time></trkpt><trkpt lat="45.081303987652824" lon="8.3291381012377"><ele>197.0</ele><time>2026-05-03T13:35:17.002Z</time></trkpt><trkpt lat="45.08135803763538" lon="8.329221901326195"><ele>196.0</ele><time>2026-05-03T13:35:18.002Z</time></trkpt><trkpt lat="45.081411148391496" lon="8.329305015173725"><ele>195.0</ele><time>2026-05-03T13:35:19.002Z</time></trkpt><trkpt lat="45.081465006568116" lon="8.329383805783584"><ele>193.99999999999997</ele><time>2026-05-03T13:35:20.002Z</time></trkpt><trkpt lat="45.081518439953435" lon="8.329465567069755"><ele>193.0</ele><time>2026-05-03T13:35:21.002Z</time></trkpt><trkpt lat="45.081569836754326" lon="8.329546455971526"><ele>192.83333333333331</ele><time>2026-05-03T13:35:22.002Z</time></trkpt><trkpt lat="45.08162136980647" lon="8.329632281441405"><ele>192.66666666666666</ele><time>2026-05-03T13:35:23.002Z</time></trkpt><trkpt lat="45.081668120973035" lon="8.329715048972751"><ele>192.5</ele><time>2026-05-03T13:35:24.002Z</time></trkpt><trkpt lat="45.081716707123334" lon="8.329795349739001"><ele>192.33333333333331</ele><time>2026-05-03T13:35:25.002Z</time></trkpt><trkpt lat="45.081768101843764" lon="8.329877379735303"><ele>192.16666666666666</ele><time>2026-05-03T13:35:26.003Z</time></trkpt><trkpt lat="45.08181913509824" lon="8.329956815587861"><ele>192.0</ele><time>2026-05-03T13:35:27.003Z</time></trkpt><trkpt lat="45.08187412381779" lon="8.330029365309745"><ele>191.99999999999997</ele><time>2026-05-03T13:35:28.003Z</time></trkpt><trkpt lat="45.081926262501696" lon="8.330103210572652"><ele>192.0</ele><time>2026-05-03T13:35:29.003Z</time></trkpt><trkpt lat="45.081980243853394" lon="8.330173378486297"><ele>192.0</ele><time>2026-05-03T13:35:30.003Z</time></trkpt><trkpt lat="45.082033958390056" lon="8.330237128181233"><ele>192.0</ele><time>2026-05-03T13:35:31.003Z</time></trkpt><trkpt lat="45.082088185748695" lon="8.330293470620669"><ele>192.0</ele><time>2026-05-03T13:35:32.003Z</time></trkpt><trkpt lat="45.082143205656664" lon="8.330357854179523"><ele>191.99999999999997</ele><time>2026-05-03T13:35:33.003Z</time></trkpt><trkpt lat="45.08219595607269" lon="8.330414616387923"><ele>192.0</ele><time>2026-05-03T13:35:34.003Z</time></trkpt><trkpt lat="45.08223991334784" lon="8.330479739928919"><ele>191.25</ele><time>2026-05-03T13:35:35.003Z</time></trkpt><trkpt lat="45.08232492068247" lon="8.33059651543926"><ele>190.5</ele><time>2026-05-03T13:35:37.003Z</time></trkpt><trkpt lat="45.08239557687375" lon="8.330718398317174"><ele>189.75</ele><time>2026-05-03T13:35:39.003Z</time></trkpt><trkpt lat="45.08246349299626" lon="8.330848106836198"><ele>189.0</ele><time>2026-05-03T13:35:41.003Z</time></trkpt><trkpt lat="45.082537994589394" lon="8.330990580986052"><ele>189.0</ele><time>2026-05-03T13:35:43.003Z</time></trkpt><trkpt lat="45.08257936292512" lon="8.331070622321416"><ele>189.0</ele><time>2026-05-03T13:35:44.003Z</time></trkpt><trkpt lat="45.08261886173224" lon="8.331152713475884"><ele>189.0</ele><time>2026-05-03T13:35:45.003Z</time></trkpt><trkpt lat="45.08266220985661" lon="8.331233595218478"><ele>189.0</ele><time>2026-05-03T13:35:46.003Z</time></trkpt><trkpt lat="45.082702299898195" lon="8.33132001394661"><ele>189.0</ele><time>2026-05-03T13:35:47.003Z</time></trkpt><trkpt lat="45.08274547690922" lon="8.331401810364774"><ele>189.0</ele><time>2026-05-03T13:35:48.003Z</time></trkpt><trkpt lat="45.08278086308561" lon="8.331481054100198"><ele>189.0</ele><time>2026-05-03T13:35:49.003Z</time></trkpt><trkpt lat="45.08282086994201" lon="8.331565569403997"><ele>188.14285714285714</ele><time>2026-05-03T13:35:50.003Z</time></trkpt><trkpt lat="45.08286844914996" lon="8.331643639894518"><ele>187.28571428571428</ele><time>2026-05-03T13:35:51.003Z</time></trkpt><trkpt lat="45.082912331772086" lon="8.331720407660614"><ele>186.42857142857144</ele><time>2026-05-03T13:35:51.997Z</time></trkpt><trkpt lat="45.082954253132534" lon="8.33179894403476"><ele>185.57142857142856</ele><time>2026-05-03T13:35:52.997Z</time></trkpt><trkpt lat="45.08300037985514" lon="8.331875203948679"><ele>184.71428571428572</ele><time>2026-05-03T13:35:53.998Z</time></trkpt><trkpt lat="45.08304821063565" lon="8.331945301131267"><ele>183.85714285714286</ele><time>2026-05-03T13:35:54.998Z</time></trkpt><trkpt lat="45.08309335132371" lon="8.332021849038593"><ele>183.0</ele><time>2026-05-03T13:35:55.998Z</time></trkpt><trkpt lat="45.083147155609595" lon="8.332097231455672"><ele>183.0</ele><time>2026-05-03T13:35:56.998Z</time></trkpt><trkpt lat="45.083200656083434" lon="8.332174710244768"><ele>183.0</ele><time>2026-05-03T13:35:57.998Z</time></trkpt><trkpt lat="45.08324465546311" lon="8.332254566305656"><ele>183.0</ele><time>2026-05-03T13:35:58.998Z</time></trkpt><trkpt lat="45.08328850260741" lon="8.33233871627317"><ele>183.0</ele><time>2026-05-03T13:35:59.998Z</time></trkpt><trkpt lat="45.08333134395735" lon="8.332412366454195"><ele>183.0</ele><time>2026-05-03T13:36:00.998Z</time></trkpt><trkpt lat="45.083380443594784" lon="8.332485316850121"><ele>183.0</ele><time>2026-05-03T13:36:01.998Z</time></trkpt><trkpt lat="45.08342976729405" lon="8.332562272392178"><ele>183.0</ele><time>2026-05-03T13:36:02.998Z</time></trkpt><trkpt lat="45.08347681130857" lon="8.332635951368479"><ele>182.71428571428572</ele><time>2026-05-03T13:36:03.999Z</time></trkpt><trkpt lat="45.08352361345153" lon="8.332709106142637"><ele>182.42857142857144</ele><time>2026-05-03T13:36:04.999Z</time></trkpt><trkpt lat="45.083579451589976" lon="8.332773653514563"><ele>182.14285714285714</ele><time>2026-05-03T13:36:05.999Z</time></trkpt><trkpt lat="45.083636062227534" lon="8.332834075625941"><ele>181.85714285714286</ele><time>2026-05-03T13:36:06.999Z</time></trkpt><trkpt lat="45.08369154290987" lon="8.332903229933526"><ele>181.57142857142856</ele><time>2026-05-03T13:36:07.999Z</time></trkpt><trkpt lat="45.08374731470888" lon="8.332958590847584"><ele>181.28571428571428</ele><time>2026-05-03T13:36:08.999Z</time></trkpt><trkpt lat="45.083799626910626" lon="8.333015505117105"><ele>181.0</ele><time>2026-05-03T13:36:09.999Z</time></trkpt><trkpt lat="45.08385334852618" lon="8.33307374252773"><ele>180.0</ele><time>2026-05-03T13:36:10.999Z</time></trkpt><trkpt lat="45.0839483814006" lon="8.333185720457625"><ele>179.0</ele><time>2026-05-03T13:36:12.999Z</time></trkpt><trkpt lat="45.08404134484474" lon="8.333302288380583"><ele>178.0</ele><time>2026-05-03T13:36:14.999Z</time></trkpt><trkpt lat="45.08413321410569" lon="8.333393278507412"><ele>177.0</ele><time>2026-05-03T13:36:17Z</time></trkpt><trkpt lat="45.08421713806149" lon="8.33349849345283"><ele>177.0</ele><time>2026-05-03T13:36:19Z</time></trkpt><trkpt lat="45.084302762905565" lon="8.333605945963907"><ele>177.0</ele><time>2026-05-03T13:36:21Z</time></trkpt><trkpt lat="45.08435577123649" lon="8.333660411985699"><ele>177.0</ele><time>2026-05-03T13:36:22Z</time></trkpt><trkpt lat="45.084453528673954" lon="8.33377731394413"><ele>177.0</ele><time>2026-05-03T13:36:24Z</time></trkpt><trkpt lat="45.084512739539065" lon="8.333831804193055"><ele>177.0</ele><time>2026-05-03T13:36:25Z</time></trkpt><trkpt lat="45.08457295967023" lon="8.333886466048096"><ele>176.5</ele><time>2026-05-03T13:36:26Z</time></trkpt><trkpt lat="45.084641875904566" lon="8.333944597492758"><ele>176.0</ele><time>2026-05-03T13:36:27Z</time></trkpt><trkpt lat="45.084711689924156" lon="8.334003027132217"><ele>175.5</ele><time>2026-05-03T13:36:28Z</time></trkpt><trkpt lat="45.08478944768554" lon="8.33404854139986"><ele>175.0</ele><time>2026-05-03T13:36:29Z</time></trkpt><trkpt lat="45.08486311958259" lon="8.33409212048455"><ele>174.5</ele><time>2026-05-03T13:36:30Z</time></trkpt><trkpt lat="45.08493839388162" lon="8.334135748955976"><ele>174.0</ele><time>2026-05-03T13:36:31Z</time></trkpt><trkpt lat="45.08501332933552" lon="8.334170975240758"><ele>174.0</ele><time>2026-05-03T13:36:32Z</time></trkpt><trkpt lat="45.08508336609558" lon="8.334211703207965"><ele>174.0</ele><time>2026-05-03T13:36:33Z</time></trkpt><trkpt lat="45.08515175493671" lon="8.334249037816539"><ele>174.0</ele><time>2026-05-03T13:36:34.001Z</time></trkpt><trkpt lat="45.085212695379255" lon="8.334291335510754"><ele>174.0</ele><time>2026-05-03T13:36:35.001Z</time></trkpt><trkpt lat="45.085272698301175" lon="8.334328521050136"><ele>174.0</ele><time>2026-05-03T13:36:36.001Z</time></trkpt><trkpt lat="45.085324531401675" lon="8.334379504825792"><ele>174.0</ele><time>2026-05-03T13:36:37.001Z</time></trkpt><trkpt lat="45.08541346190785" lon="8.33448004704316"><ele>174.0</ele><time>2026-05-03T13:36:39.001Z</time></trkpt><trkpt lat="45.08546961221817" lon="8.334665224650685"><ele>174.0</ele><time>2026-05-03T13:36:41.001Z</time></trkpt><trkpt lat="45.08554764114005" lon="8.334673594852537"><ele>174.0</ele><time>2026-05-03T13:36:44.001Z</time></trkpt><trkpt lat="45.085609400633196" lon="8.334714279371877"><ele>174.0</ele><time>2026-05-03T13:37:12.002Z</time></trkpt><trkpt lat="45.08567596397311" lon="8.334750167442518"><ele>174.0</ele><time>2026-05-03T13:38:01.998Z</time></trkpt><trkpt lat="45.08577317888351" lon="8.334743687971393"><ele>174.0</ele><time>2026-05-03T13:38:04.999Z</time></trkpt><trkpt lat="45.08585445465192" lon="8.334724842876163"><ele>174.0</ele><time>2026-05-03T13:38:06.999Z</time></trkpt><trkpt lat="45.085934406466116" lon="8.33473959339677"><ele>174.0</ele><time>2026-05-03T13:38:08.999Z</time></trkpt><trkpt lat="45.0860105897235" lon="8.334722384400655"><ele>174.0</ele><time>2026-05-03T13:38:10.999Z</time></trkpt><trkpt lat="45.08608505498811" lon="8.334731610280867"><ele>174.0</ele><time>2026-05-03T13:38:12.999Z</time></trkpt><trkpt lat="45.08618027908392" lon="8.334741008374142"><ele>174.0</ele><time>2026-05-03T13:38:15.999Z</time></trkpt><trkpt lat="45.0862696479493" lon="8.334742342091594"><ele>174.0</ele><time>2026-05-03T13:38:19Z</time></trkpt><trkpt lat="45.086338882882764" lon="8.334744632399019"><ele>174.0</ele><time>2026-05-03T13:38:21Z</time></trkpt><trkpt lat="45.0864129884124" lon="8.334721589319726"><ele>174.0</ele><time>2026-05-03T13:38:23Z</time></trkpt><trkpt lat="45.086493698615485" lon="8.33472260212607"><ele>174.0</ele><time>2026-05-03T13:38:25Z</time></trkpt><trkpt lat="45.08656594270293" lon="8.334715780578208"><ele>174.0</ele><time>2026-05-03T13:38:27Z</time></trkpt><trkpt lat="45.08666035913233" lon="8.334729320984108"><ele>174.0</ele><time>2026-05-03T13:38:30Z</time></trkpt><trkpt lat="45.08672513975474" lon="8.334733143530672"><ele>175.33333333333334</ele><time>2026-05-03T13:38:32Z</time></trkpt><trkpt lat="45.0868387307562" lon="8.334547506120115"><ele>176.66666666666666</ele><time>2026-05-03T13:38:35.001Z</time></trkpt><trkpt lat="45.0869041766852" lon="8.334525014432502"><ele>178.0</ele><time>2026-05-03T13:38:37.001Z</time></trkpt><trkpt lat="45.08696889641054" lon="8.334511901335771"><ele>179.33333333333331</ele><time>2026-05-03T13:38:39.001Z</time></trkpt><trkpt lat="45.0870351447102" lon="8.334498575414958"><ele>180.66666666666666</ele><time>2026-05-03T13:38:41.001Z</time></trkpt><trkpt lat="45.0871026319685" lon="8.334480045262755"><ele>182.0</ele><time>2026-05-03T13:38:43.001Z</time></trkpt><trkpt lat="45.08716886499075" lon="8.334465219569609"><ele>182.0</ele><time>2026-05-03T13:38:45.001Z</time></trkpt><trkpt lat="45.08723900143642" lon="8.334445019417032"><ele>182.0</ele><time>2026-05-03T13:38:47.001Z</time></trkpt><trkpt lat="45.087305430361816" lon="8.33441666690962"><ele>182.0</ele><time>2026-05-03T13:38:49.001Z</time></trkpt><trkpt lat="45.08737291883017" lon="8.334412645924226"><ele>182.0</ele><time>2026-05-03T13:38:51.001Z</time></trkpt><trkpt lat="45.08746706470396" lon="8.33439145874178"><ele>182.0</ele><time>2026-05-03T13:38:54.001Z</time></trkpt><trkpt lat="45.087529399047725" lon="8.334366939616446"><ele>182.0</ele><time>2026-05-03T13:38:56.001Z</time></trkpt><trkpt lat="45.087597307763026" lon="8.334356296948396"><ele>182.0</ele><time>2026-05-03T13:38:58.001Z</time></trkpt><trkpt lat="45.08766847885487" lon="8.334339504321685"><ele>183.57142857142858</ele><time>2026-05-03T13:39:00.001Z</time></trkpt><trkpt lat="45.08773994000488" lon="8.334314840491858"><ele>185.14285714285714</ele><time>2026-05-03T13:39:02.002Z</time></trkpt><trkpt lat="45.08781242926428" lon="8.33429535267845"><ele>186.71428571428572</ele><time>2026-05-03T13:39:04.002Z</time></trkpt><trkpt lat="45.08787541769198" lon="8.33427240570374"><ele>188.28571428571428</ele><time>2026-05-03T13:39:06.002Z</time></trkpt><trkpt lat="45.087940829848" lon="8.334265400176836"><ele>189.85714285714286</ele><time>2026-05-03T13:39:08.002Z</time></trkpt><trkpt lat="45.08800843169777" lon="8.334258536635259"><ele>191.42857142857144</ele><time>2026-05-03T13:39:10.002Z</time></trkpt><trkpt lat="45.08807451382916" lon="8.334235749025643"><ele>193.0</ele><time>2026-05-03T13:39:12.002Z</time></trkpt><trkpt lat="45.08813595548303" lon="8.334190580577093"><ele>193.0</ele><time>2026-05-03T13:39:14.002Z</time></trkpt><trkpt lat="45.088180889785605" lon="8.33412638628911"><ele>193.0</ele><time>2026-05-03T13:39:16.002Z</time></trkpt><trkpt lat="45.08832773244037" lon="8.334110654067622"><ele>193.0</ele><time>2026-05-03T13:39:18.002Z</time></trkpt><trkpt lat="45.08836640105461" lon="8.334002639918646"><ele>193.0</ele><time>2026-05-03T13:39:21.002Z</time></trkpt><trkpt lat="45.08841140765447" lon="8.333891809028708"><ele>193.0</ele><time>2026-05-03T13:39:24.002Z</time></trkpt><trkpt lat="45.08846368086499" lon="8.333784512761556"><ele>195.00000000000003</ele><time>2026-05-03T13:39:27.002Z</time></trkpt><trkpt lat="45.08850562189919" lon="8.333703946534227"><ele>197.0</ele><time>2026-05-03T13:39:29.002Z</time></trkpt><trkpt lat="45.08855273497558" lon="8.333619102485892"><ele>199.0</ele><time>2026-05-03T13:39:31.002Z</time></trkpt><trkpt lat="45.08859682236767" lon="8.33354242997594"><ele>201.0</ele><time>2026-05-03T13:39:33.002Z</time></trkpt><trkpt lat="45.088649635273406" lon="8.33345345221586"><ele>203.0</ele><time>2026-05-03T13:39:37.003Z</time></trkpt><trkpt lat="45.08869938713145" lon="8.333377949836505"><ele>205.00000000000003</ele><time>2026-05-03T13:39:41.003Z</time></trkpt><trkpt lat="45.08874030789041" lon="8.333300053954176"><ele>207.0</ele><time>2026-05-03T13:39:45.003Z</time></trkpt><trkpt lat="45.088862118257005" lon="8.33341055208999"><ele>207.00000000000003</ele><time>2026-05-03T13:39:56.003Z</time></trkpt><trkpt lat="45.08891888678445" lon="8.333467674837477"><ele>207.0</ele><time>2026-05-03T13:40:03.003Z</time></trkpt><trkpt lat="45.08897590561545" lon="8.333508161804916"><ele>207.0</ele><time>2026-05-03T13:40:09.998Z</time></trkpt><trkpt lat="45.08903381457666" lon="8.333546880946374"><ele>207.0</ele><time>2026-05-03T13:40:14.999Z</time></trkpt><trkpt lat="45.08909778244596" lon="8.333594562727459"><ele>207.0</ele><time>2026-05-03T13:40:21.999Z</time></trkpt><trkpt lat="45.089162177872716" lon="8.333604752076676"><ele>207.00000000000003</ele><time>2026-05-03T13:40:26.999Z</time></trkpt><trkpt lat="45.08922332087097" lon="8.333645639705782"><ele>207.0</ele><time>2026-05-03T13:40:31.999Z</time></trkpt><trkpt lat="45.0892926002343" lon="8.333662885295949"><ele>207.85714285714286</ele><time>2026-05-03T13:40:35.999Z</time></trkpt><trkpt lat="45.08936331198854" lon="8.333695044648177"><ele>208.71428571428572</ele><time>2026-05-03T13:40:40.999Z</time></trkpt><trkpt lat="45.089440139722804" lon="8.333727970527978"><ele>209.57142857142856</ele><time>2026-05-03T13:40:44.999Z</time></trkpt><trkpt lat="45.08950752206543" lon="8.333758465980692"><ele>210.42857142857144</ele><time>2026-05-03T13:40:48.999Z</time></trkpt><trkpt lat="45.089571459130774" lon="8.33379466983214"><ele>211.28571428571428</ele><time>2026-05-03T13:40:52.999Z</time></trkpt><trkpt lat="45.08964014243174" lon="8.333825889414348"><ele>212.14285714285714</ele><time>2026-05-03T13:40:57Z</time></trkpt><trkpt lat="45.089712773186044" lon="8.333862878618403"><ele>213.0</ele><time>2026-05-03T13:41:01Z</time></trkpt><trkpt lat="45.08979197115691" lon="8.333907934731442"><ele>213.33333333333334</ele><time>2026-05-03T13:41:05Z</time></trkpt><trkpt lat="45.089853543624855" lon="8.333946052639625"><ele>213.66666666666669</ele><time>2026-05-03T13:41:08Z</time></trkpt><trkpt lat="45.08993636511936" lon="8.333992479233336"><ele>214.0</ele><time>2026-05-03T13:41:12Z</time></trkpt><trkpt lat="45.090018668002166" lon="8.33402041790976"><ele>214.33333333333334</ele><time>2026-05-03T13:41:15Z</time></trkpt><trkpt lat="45.09008474868849" lon="8.334051594765304"><ele>214.66666666666669</ele><time>2026-05-03T13:41:18Z</time></trkpt><trkpt lat="45.09016105652128" lon="8.334095308038936"><ele>215.0</ele><time>2026-05-03T13:41:21Z</time></trkpt><trkpt lat="45.09023055514147" lon="8.334136183018563"><ele>215.83333333333334</ele><time>2026-05-03T13:41:24Z</time></trkpt><trkpt lat="45.09030239057492" lon="8.33418384472608"><ele>216.66666666666669</ele><time>2026-05-03T13:41:27Z</time></trkpt><trkpt lat="45.090377315061026" lon="8.334246435302466"><ele>217.5</ele><time>2026-05-03T13:41:30.001Z</time></trkpt><trkpt lat="45.090442880333455" lon="8.334327443502534"><ele>218.33333333333331</ele><time>2026-05-03T13:41:33.001Z</time></trkpt><trkpt lat="45.09050488311551" lon="8.334393387062724"><ele>219.16666666666666</ele><time>2026-05-03T13:41:36.001Z</time></trkpt><trkpt lat="45.09056666520284" lon="8.33445409019619"><ele>220.0</ele><time>2026-05-03T13:41:38.001Z</time></trkpt><trkpt lat="45.09063817387951" lon="8.334523302156596"><ele>219.99999999999997</ele><time>2026-05-03T13:41:41.001Z</time></trkpt><trkpt lat="45.0907031034405" lon="8.334571149857185"><ele>220.0</ele><time>2026-05-03T13:41:44.001Z</time></trkpt><trkpt lat="45.09077790216195" lon="8.334622499935021"><ele>220.0</ele><time>2026-05-03T13:41:47.001Z</time></trkpt><trkpt lat="45.090840024020295" lon="8.33466618409989"><ele>220.0</ele><time>2026-05-03T13:41:50.001Z</time></trkpt><trkpt lat="45.09090274435348" lon="8.334702131903208"><ele>220.0</ele><time>2026-05-03T13:41:52.001Z</time></trkpt><trkpt lat="45.09096975886822" lon="8.334730905377535"><ele>219.99999999999997</ele><time>2026-05-03T13:41:54.001Z</time></trkpt><trkpt lat="45.091046701594955" lon="8.334746493728046"><ele>220.0</ele><time>2026-05-03T13:41:56.001Z</time></trkpt><trkpt lat="45.09111995152469" lon="8.334746035115538"><ele>219.7142857142857</ele><time>2026-05-03T13:41:58.001Z</time></trkpt><trkpt lat="45.09119118077629" lon="8.33475096250881"><ele>219.42857142857142</ele><time>2026-05-03T13:42:00.001Z</time></trkpt><trkpt lat="45.09126788044753" lon="8.334768233453365"><ele>219.14285714285714</ele><time>2026-05-03T13:42:02.001Z</time></trkpt><trkpt lat="45.09133888104955" lon="8.334789014746816"><ele>218.85714285714283</ele><time>2026-05-03T13:42:04.002Z</time></trkpt><trkpt lat="45.09140505787383" lon="8.334808188178474"><ele>218.57142857142858</ele><time>2026-05-03T13:42:06.002Z</time></trkpt><trkpt lat="45.09147275124491" lon="8.33482741381399"><ele>218.28571428571428</ele><time>2026-05-03T13:42:08.002Z</time></trkpt><trkpt lat="45.0915488819269" lon="8.334849698890228"><ele>218.0</ele><time>2026-05-03T13:42:09.996Z</time></trkpt><trkpt lat="45.09164576826769" lon="8.334882210284468"><ele>217.60000000000002</ele><time>2026-05-03T13:42:11.996Z</time></trkpt><trkpt lat="45.09175707650329" lon="8.334918535262045"><ele>217.20000000000002</ele><time>2026-05-03T13:42:13.997Z</time></trkpt><trkpt lat="45.09187433570643" lon="8.334964463264264"><ele>216.8</ele><time>2026-05-03T13:42:15.997Z</time></trkpt><trkpt lat="45.091994318132855" lon="8.33500898907965"><ele>216.4</ele><time>2026-05-03T13:42:17.997Z</time></trkpt><trkpt lat="45.09206413581925" lon="8.335016918602006"><ele>216.0</ele><time>2026-05-03T13:42:18.997Z</time></trkpt><trkpt lat="45.09214249296519" lon="8.33500421279248"><ele>216.0</ele><time>2026-05-03T13:42:19.998Z</time></trkpt><trkpt lat="45.092220555452684" lon="8.334970326727621"><ele>216.0</ele><time>2026-05-03T13:42:20.998Z</time></trkpt><trkpt lat="45.09229714269999" lon="8.334926527353627"><ele>216.0</ele><time>2026-05-03T13:42:21.998Z</time></trkpt><trkpt lat="45.09237811780496" lon="8.33488782078138"><ele>216.0</ele><time>2026-05-03T13:42:22.998Z</time></trkpt><trkpt lat="45.09245692610779" lon="8.33484281614755"><ele>216.0</ele><time>2026-05-03T13:42:23.998Z</time></trkpt><trkpt lat="45.09253811902488" lon="8.334800525932309"><ele>216.0</ele><time>2026-05-03T13:42:24.998Z</time></trkpt><trkpt lat="45.09262421171652" lon="8.33475165706623"><ele>213.20000000000002</ele><time>2026-05-03T13:42:25.998Z</time></trkpt><trkpt lat="45.09271094103311" lon="8.334708035599846"><ele>210.40000000000003</ele><time>2026-05-03T13:42:26.999Z</time></trkpt><trkpt lat="45.092791749475396" lon="8.334646081730225"><ele>207.6</ele><time>2026-05-03T13:42:27.999Z</time></trkpt><trkpt lat="45.09287107721737" lon="8.334576239872392"><ele>204.8</ele><time>2026-05-03T13:42:28.999Z</time></trkpt><trkpt lat="45.09294842133023" lon="8.334502895150509"><ele>202.0</ele><time>2026-05-03T13:42:29.999Z</time></trkpt><trkpt lat="45.09302326348606" lon="8.334432135676792"><ele>201.99999999999997</ele><time>2026-05-03T13:42:30.999Z</time></trkpt><trkpt lat="45.09309283111993" lon="8.334357500794292"><ele>202.0</ele><time>2026-05-03T13:42:31.999Z</time></trkpt><trkpt lat="45.09316434425051" lon="8.334290382467943"><ele>202.0</ele><time>2026-05-03T13:42:32.999Z</time></trkpt><trkpt lat="45.09323549484033" lon="8.33422736413973"><ele>202.0</ele><time>2026-05-03T13:42:33.999Z</time></trkpt><trkpt lat="45.09330380234372" lon="8.334167669555525"><ele>201.99999999999997</ele><time>2026-05-03T13:42:34.999Z</time></trkpt><trkpt lat="45.0933722242392" lon="8.33411241094857"><ele>202.0</ele><time>2026-05-03T13:42:35.999Z</time></trkpt><trkpt lat="45.093437498854165" lon="8.334059423438635"><ele>202.66666666666666</ele><time>2026-05-03T13:42:37Z</time></trkpt><trkpt lat="45.09349952632644" lon="8.334004316796143"><ele>203.33333333333331</ele><time>2026-05-03T13:42:38Z</time></trkpt><trkpt lat="45.09356594714555" lon="8.333963431753979"><ele>204.0</ele><time>2026-05-03T13:42:39Z</time></trkpt><trkpt lat="45.093627580728025" lon="8.333927706689726"><ele>204.66666666666669</ele><time>2026-05-03T13:42:40Z</time></trkpt><trkpt lat="45.09369244307629" lon="8.333917518594156"><ele>205.33333333333334</ele><time>2026-05-03T13:42:41Z</time></trkpt><trkpt lat="45.09381632322336" lon="8.333932010860813"><ele>206.0</ele><time>2026-05-03T13:42:43Z</time></trkpt><trkpt lat="45.09393465660698" lon="8.333960694836207"><ele>206.0</ele><time>2026-05-03T13:42:45Z</time></trkpt><trkpt lat="45.09405027403692" lon="8.333997976003948"><ele>206.0</ele><time>2026-05-03T13:42:47Z</time></trkpt><trkpt lat="45.09415786489114" lon="8.334030578175245"><ele>206.0</ele><time>2026-05-03T13:42:49Z</time></trkpt><trkpt lat="45.09425308647702" lon="8.334059996247415"><ele>206.0</ele><time>2026-05-03T13:42:51Z</time></trkpt><trkpt lat="45.09434203743051" lon="8.334079129812247"><ele>206.0</ele><time>2026-05-03T13:42:53.001Z</time></trkpt><trkpt lat="45.09442658215286" lon="8.334119119592705"><ele>206.16666666666669</ele><time>2026-05-03T13:42:55.001Z</time></trkpt><trkpt lat="45.094505051187646" lon="8.33419152201585"><ele>206.33333333333334</ele><time>2026-05-03T13:42:57.001Z</time></trkpt><trkpt lat="45.094579808614505" lon="8.334206908867971"><ele>206.5</ele><time>2026-05-03T13:42:59.001Z</time></trkpt><trkpt lat="45.09465721336901" lon="8.334222840554409"><ele>206.66666666666669</ele><time>2026-05-03T13:43:01.001Z</time></trkpt><trkpt lat="45.09472468325451" lon="8.334236727408387"><ele>206.83333333333334</ele><time>2026-05-03T13:43:03.001Z</time></trkpt><trkpt lat="45.0947878164782" lon="8.334249721684536"><ele>207.0</ele><time>2026-05-03T13:43:05.001Z</time></trkpt><trkpt lat="45.094860814911954" lon="8.334264746441841"><ele>207.0</ele><time>2026-05-03T13:43:08.001Z</time></trkpt><trkpt lat="45.094931628294255" lon="8.334268558294967"><ele>207.0</ele><time>2026-05-03T13:43:11.001Z</time></trkpt><trkpt lat="45.094997987677104" lon="8.334284473559798"><ele>207.0</ele><time>2026-05-03T13:43:15.001Z</time></trkpt><trkpt lat="45.09506625129089" lon="8.334323347996476"><ele>207.0</ele><time>2026-05-03T13:43:19.002Z</time></trkpt><trkpt lat="45.09513790720106" lon="8.334318355471796"><ele>207.0</ele><time>2026-05-03T13:43:22.002Z</time></trkpt><trkpt lat="45.09521222256024" lon="8.334331894800195"><ele>207.0</ele><time>2026-05-03T13:43:25.002Z</time></trkpt><trkpt lat="45.09530721319485" lon="8.334275112525203"><ele>207.0</ele><time>2026-05-03T13:43:28.002Z</time></trkpt><trkpt lat="45.09535611815035" lon="8.334204382378068"><ele>207.0</ele><time>2026-05-03T13:43:30.002Z</time></trkpt><trkpt lat="45.09540854305638" lon="8.334135831346336"><ele>207.0</ele><time>2026-05-03T13:43:32.002Z</time></trkpt><trkpt lat="45.09546820657072" lon="8.334079350592873"><ele>207.0</ele><time>2026-05-03T13:43:34.002Z</time></trkpt><trkpt lat="45.09555509432109" lon="8.334043494471281"><ele>207.0</ele><time>2026-05-03T13:43:36.002Z</time></trkpt><trkpt lat="45.09565457757442" lon="8.334009521662782"><ele>207.0</ele><time>2026-05-03T13:43:38.002Z</time></trkpt><trkpt lat="45.09575379682287" lon="8.333967415190411"><ele>206.6</ele><time>2026-05-03T13:43:40.002Z</time></trkpt><trkpt lat="45.09586061986407" lon="8.333922081836258"><ele>206.2</ele><time>2026-05-03T13:43:42.002Z</time></trkpt><trkpt lat="45.09596279362141" lon="8.33388324647032"><ele>205.8</ele><time>2026-05-03T13:43:44.002Z</time></trkpt><trkpt lat="45.09606893787002" lon="8.333841159580492"><ele>205.4</ele><time>2026-05-03T13:43:46.002Z</time></trkpt><trkpt lat="45.09617314142151" lon="8.333779140836837"><ele>205.0</ele><time>2026-05-03T13:43:48.002Z</time></trkpt><trkpt lat="45.096234821407506" lon="8.333738812622498"><ele>205.4</ele><time>2026-05-03T13:43:49.002Z</time></trkpt><trkpt lat="45.09628178119815" lon="8.333675217897019"><ele>205.8</ele><time>2026-05-03T13:43:50.003Z</time></trkpt><trkpt lat="45.09639902945843" lon="8.333654472311242"><ele>206.2</ele><time>2026-05-03T13:43:52.003Z</time></trkpt><trkpt lat="45.096516871040215" lon="8.333673840334628"><ele>206.6</ele><time>2026-05-03T13:43:54.003Z</time></trkpt><trkpt lat="45.09663845833716" lon="8.333721152172341"><ele>207.0</ele><time>2026-05-03T13:43:56.003Z</time></trkpt><trkpt lat="45.09670021552846" lon="8.333743501722905"><ele>207.0</ele><time>2026-05-03T13:43:57.003Z</time></trkpt><trkpt lat="45.09681615675446" lon="8.33378213559275"><ele>207.0</ele><time>2026-05-03T13:43:59.003Z</time></trkpt><trkpt lat="45.09693786621672" lon="8.333769700402588"><ele>207.0</ele><time>2026-05-03T13:44:01.003Z</time></trkpt><trkpt lat="45.09698843761115" lon="8.33371483428632"><ele>207.0</ele><time>2026-05-03T13:44:02.003Z</time></trkpt><trkpt lat="45.09705369923596" lon="8.333581030294894"><ele>207.0</ele><time>2026-05-03T13:44:04.003Z</time></trkpt><trkpt lat="45.097113834924436" lon="8.333443182444963"><ele>207.0</ele><time>2026-05-03T13:44:06.003Z</time></trkpt><trkpt lat="45.09717296769333" lon="8.333300411949816"><ele>207.0</ele><time>2026-05-03T13:44:08.003Z</time></trkpt><trkpt lat="45.09723633641765" lon="8.33315464910699"><ele>207.0</ele><time>2026-05-03T13:44:10.003Z</time></trkpt><trkpt lat="45.09726918780351" lon="8.33307828540682"><ele>207.0</ele><time>2026-05-03T13:44:11.003Z</time></trkpt><trkpt lat="45.09730230857555" lon="8.332996609455684"><ele>207.0</ele><time>2026-05-03T13:44:12.003Z</time></trkpt><trkpt lat="45.09732808494538" lon="8.332910115192202"><ele>207.0</ele><time>2026-05-03T13:44:13.003Z</time></trkpt><trkpt lat="45.09736662451822" lon="8.332759208547087"><ele>206.83333333333334</ele><time>2026-05-03T13:44:15.003Z</time></trkpt><trkpt lat="45.09739902494102" lon="8.332644460122951"><ele>206.66666666666669</ele><time>2026-05-03T13:44:16.997Z</time></trkpt><trkpt lat="45.09728048709539" lon="8.33255750077237"><ele>206.5</ele><time>2026-05-03T13:44:17.998Z</time></trkpt><trkpt lat="45.097302407561784" lon="8.332462123193519"><ele>206.33333333333334</ele><time>2026-05-03T13:44:20.998Z</time></trkpt><trkpt lat="45.097323790856" lon="8.332349292610923"><ele>206.16666666666669</ele><time>2026-05-03T13:44:23.998Z</time></trkpt><trkpt lat="45.09735206340597" lon="8.332252508021321"><ele>206.0</ele><time>2026-05-03T13:44:25.998Z</time></trkpt><trkpt lat="45.097383811964804" lon="8.332161556779882"><ele>208.25</ele><time>2026-05-03T13:44:27.999Z</time></trkpt><trkpt lat="45.09742200600325" lon="8.332052140952225"><ele>210.5</ele><time>2026-05-03T13:44:29.999Z</time></trkpt><trkpt lat="45.09745799119359" lon="8.331949052594338"><ele>212.75</ele><time>2026-05-03T13:44:31.999Z</time></trkpt><trkpt lat="45.097493351525706" lon="8.33184775428757"><ele>215.0</ele><time>2026-05-03T13:44:33.999Z</time></trkpt><trkpt lat="45.09790732054474" lon="8.332063959056212"><ele>215.0</ele><time>2026-05-03T13:44:34.999Z</time></trkpt><trkpt lat="45.09797566703588" lon="8.331961278018184"><ele>215.0</ele><time>2026-05-03T13:44:36.999Z</time></trkpt><trkpt lat="45.09804611128767" lon="8.331857599931357"><ele>215.0</ele><time>2026-05-03T13:44:39Z</time></trkpt><trkpt lat="45.09811415082791" lon="8.331738291656944"><ele>215.0</ele><time>2026-05-03T13:44:41Z</time></trkpt><trkpt lat="45.09819155694664" lon="8.331625294686438"><ele>215.0</ele><time>2026-05-03T13:44:43Z</time></trkpt><trkpt lat="45.09827700237301" lon="8.331503096697743"><ele>214.33333333333334</ele><time>2026-05-03T13:44:45Z</time></trkpt><trkpt lat="45.098376890688904" lon="8.331395187313596"><ele>213.66666666666669</ele><time>2026-05-03T13:44:47Z</time></trkpt><trkpt lat="45.09843231743777" lon="8.331336029688147"><ele>213.0</ele><time>2026-05-03T13:44:48Z</time></trkpt><trkpt lat="45.098488356252965" lon="8.331275858853305"><ele>212.33333333333331</ele><time>2026-05-03T13:44:49Z</time></trkpt><trkpt lat="45.098549171464114" lon="8.33121470810058"><ele>211.66666666666666</ele><time>2026-05-03T13:44:50Z</time></trkpt><trkpt lat="45.0986210687989" lon="8.331156893757662"><ele>211.0</ele><time>2026-05-03T13:44:51Z</time></trkpt><trkpt lat="45.09868591963051" lon="8.331115048560982"><ele>210.28571428571428</ele><time>2026-05-03T13:44:52Z</time></trkpt><trkpt lat="45.09874114116213" lon="8.33107074621437"><ele>209.57142857142858</ele><time>2026-05-03T13:44:53Z</time></trkpt><trkpt lat="45.098790982013405" lon="8.331011970490797"><ele>208.85714285714283</ele><time>2026-05-03T13:44:54Z</time></trkpt><trkpt lat="45.09883666581302" lon="8.330946505550848"><ele>208.14285714285714</ele><time>2026-05-03T13:44:55Z</time></trkpt><trkpt lat="45.098878671852496" lon="8.330870974927114"><ele>207.42857142857142</ele><time>2026-05-03T13:44:56.001Z</time></trkpt><trkpt lat="45.09892145530516" lon="8.330795211918485"><ele>206.7142857142857</ele><time>2026-05-03T13:44:57.001Z</time></trkpt><trkpt lat="45.098960365425825" lon="8.330713748204934"><ele>206.0</ele><time>2026-05-03T13:44:58.001Z</time></trkpt><trkpt lat="45.09900079319907" lon="8.330628150806486"><ele>205.00000000000003</ele><time>2026-05-03T13:44:59.001Z</time></trkpt><trkpt lat="45.099029029422496" lon="8.330540390962538"><ele>204.0</ele><time>2026-05-03T13:45:00.001Z</time></trkpt><trkpt lat="45.0990624034672" lon="8.330459923269338"><ele>203.0</ele><time>2026-05-03T13:45:01.001Z</time></trkpt><trkpt lat="45.099097981688615" lon="8.33038582652535"><ele>202.0</ele><time>2026-05-03T13:45:02.001Z</time></trkpt><trkpt lat="45.099167438203196" lon="8.330257249820495"><ele>201.00000000000003</ele><time>2026-05-03T13:45:04.001Z</time></trkpt><trkpt lat="45.0992178526234" lon="8.330130263974386"><ele>200.0</ele><time>2026-05-03T13:45:06.001Z</time></trkpt><trkpt lat="45.09925088013632" lon="8.330013097680549"><ele>200.00000000000003</ele><time>2026-05-03T13:45:08.001Z</time></trkpt><trkpt lat="45.09929756221997" lon="8.329952752799146"><ele>200.0</ele><time>2026-05-03T13:45:10.001Z</time></trkpt><trkpt lat="45.099366869526925" lon="8.329889951746468"><ele>200.0</ele><time>2026-05-03T13:45:13.001Z</time></trkpt><trkpt lat="45.099440264223425" lon="8.329830379046017"><ele>200.0</ele><time>2026-05-03T13:45:16.001Z</time></trkpt><trkpt lat="45.099498394243255" lon="8.329775423445197"><ele>200.00000000000003</ele><time>2026-05-03T13:45:18.001Z</time></trkpt><trkpt lat="45.09957029102451" lon="8.32971603458857"><ele>200.0</ele><time>2026-05-03T13:45:20.001Z</time></trkpt><trkpt lat="45.09965698038079" lon="8.32964812833741"><ele>199.4</ele><time>2026-05-03T13:45:22.001Z</time></trkpt><trkpt lat="45.09974684558833" lon="8.329573444319603"><ele>198.8</ele><time>2026-05-03T13:45:24.002Z</time></trkpt><trkpt lat="45.09984421305336" lon="8.329489451735132"><ele>198.2</ele><time>2026-05-03T13:45:26.002Z</time></trkpt><trkpt lat="45.09993505339418" lon="8.329391582684558"><ele>197.6</ele><time>2026-05-03T13:45:28.002Z</time></trkpt><trkpt lat="45.10003171694782" lon="8.329316982836495"><ele>197.0</ele><time>2026-05-03T13:45:30.002Z</time></trkpt><trkpt lat="45.100120053920456" lon="8.329252817691337"><ele>197.0</ele><time>2026-05-03T13:45:32.002Z</time></trkpt><trkpt lat="45.10019968735586" lon="8.329195117734823"><ele>197.0</ele><time>2026-05-03T13:45:34.002Z</time></trkpt><trkpt lat="45.10029154320686" lon="8.329147709138653"><ele>197.0</ele><time>2026-05-03T13:45:36.002Z</time></trkpt><trkpt lat="45.100380217179925" lon="8.329107276217893"><ele>197.0</ele><time>2026-05-03T13:45:38.002Z</time></trkpt><trkpt lat="45.1004566433424" lon="8.3290569091213"><ele>197.0</ele><time>2026-05-03T13:45:40.002Z</time></trkpt><trkpt lat="45.1005484201868" lon="8.328998080185531"><ele>197.00000000000003</ele><time>2026-05-03T13:45:42.002Z</time></trkpt><trkpt lat="45.10063664655858" lon="8.328940110282668"><ele>197.0</ele><time>2026-05-03T13:45:44.002Z</time></trkpt><trkpt lat="45.100735380917264" lon="8.32887992474747"><ele>197.0</ele><time>2026-05-03T13:45:46.002Z</time></trkpt><trkpt lat="45.100793412261474" lon="8.328838944987549"><ele>197.0</ele><time>2026-05-03T13:45:47.002Z</time></trkpt><trkpt lat="45.10085206847328" lon="8.328805212594455"><ele>197.00000000000003</ele><time>2026-05-03T13:45:48.002Z</time></trkpt><trkpt lat="45.100912741151504" lon="8.328759620582336"><ele>197.0</ele><time>2026-05-03T13:45:49.002Z</time></trkpt><trkpt lat="45.100974789793106" lon="8.328719629809664"><ele>196.66666666666669</ele><time>2026-05-03T13:45:50.002Z</time></trkpt><trkpt lat="45.10104028130907" lon="8.32867387247567"><ele>196.33333333333334</ele><time>2026-05-03T13:45:51.002Z</time></trkpt><trkpt lat="45.10110388842715" lon="8.328622450760996"><ele>196.0</ele><time>2026-05-03T13:45:52.002Z</time></trkpt><trkpt lat="45.10117298102422" lon="8.32857970041489"><ele>195.66666666666669</ele><time>2026-05-03T13:45:53.002Z</time></trkpt><trkpt lat="45.101246381046444" lon="8.328543429544409"><ele>195.33333333333334</ele><time>2026-05-03T13:45:54.002Z</time></trkpt><trkpt lat="45.10132433600228" lon="8.328500632438853"><ele>195.0</ele><time>2026-05-03T13:45:55.003Z</time></trkpt><trkpt lat="45.10140368023758" lon="8.32845003462756"><ele>195.0</ele><time>2026-05-03T13:45:56.003Z</time></trkpt><trkpt lat="45.1014837193452" lon="8.328397269052141"><ele>195.0</ele><time>2026-05-03T13:45:57.003Z</time></trkpt><trkpt lat="45.101566744223476" lon="8.328343019503185"><ele>195.0</ele><time>2026-05-03T13:45:58.003Z</time></trkpt><trkpt lat="45.10165215547159" lon="8.328287816487057"><ele>195.0</ele><time>2026-05-03T13:45:59.003Z</time></trkpt><trkpt lat="45.1017358273069" lon="8.328225751623716"><ele>195.0</ele><time>2026-05-03T13:46:00.003Z</time></trkpt><trkpt lat="45.101815860692575" lon="8.328160745304535"><ele>194.33333333333334</ele><time>2026-05-03T13:46:01.003Z</time></trkpt><trkpt lat="45.10189170455489" lon="8.328098861011295"><ele>193.66666666666666</ele><time>2026-05-03T13:46:02.003Z</time></trkpt><trkpt lat="45.10197472499135" lon="8.328041590150555"><ele>193.0</ele><time>2026-05-03T13:46:03.003Z</time></trkpt><trkpt lat="45.102049596771295" lon="8.32801225103101"><ele>192.33333333333331</ele><time>2026-05-03T13:46:04.003Z</time></trkpt><trkpt lat="45.102109469527164" lon="8.327947776587099"><ele>191.66666666666666</ele><time>2026-05-03T13:46:06.003Z</time></trkpt><trkpt lat="45.102098514265215" lon="8.327854533877664"><ele>191.0</ele><time>2026-05-03T13:46:08.003Z</time></trkpt><trkpt lat="45.10206597916814" lon="8.32774364572004"><ele>190.5</ele><time>2026-05-03T13:46:11.003Z</time></trkpt><trkpt lat="45.10204277410309" lon="8.3276604820189"><ele>190.0</ele><time>2026-05-03T13:46:14.003Z</time></trkpt><trkpt lat="45.102005580188546" lon="8.327571337316975"><ele>189.5</ele><time>2026-05-03T13:46:21.003Z</time></trkpt><trkpt lat="45.10196832508759" lon="8.32748095750075"><ele>189.0</ele><time>2026-05-03T13:46:25.998Z</time></trkpt><trkpt lat="45.101964209092245" lon="8.327339653187071"><ele>188.5</ele><time>2026-05-03T13:46:27.998Z</time></trkpt><trkpt lat="45.101910744159326" lon="8.327202724416185"><ele>188.0</ele><time>2026-05-03T13:46:29.998Z</time></trkpt><trkpt lat="45.101879130170154" lon="8.327121991940805"><ele>186.85714285714286</ele><time>2026-05-03T13:46:30.998Z</time></trkpt><trkpt lat="45.10183598271517" lon="8.327045122434464"><ele>185.71428571428572</ele><time>2026-05-03T13:46:31.998Z</time></trkpt><trkpt lat="45.10180685952922" lon="8.326963814655096"><ele>184.57142857142856</ele><time>2026-05-03T13:46:32.999Z</time></trkpt><trkpt lat="45.10177463692438" lon="8.326876672429927"><ele>183.42857142857144</ele><time>2026-05-03T13:46:33.999Z</time></trkpt><trkpt lat="45.10174648793904" lon="8.326794096602912"><ele>182.2857142857143</ele><time>2026-05-03T13:46:34.999Z</time></trkpt><trkpt lat="45.10171580309173" lon="8.326713360387641"><ele>181.14285714285714</ele><time>2026-05-03T13:46:35.999Z</time></trkpt><trkpt lat="45.10167884233995" lon="8.32662357135187"><ele>180.0</ele><time>2026-05-03T13:46:36.999Z</time></trkpt><trkpt lat="45.1016434312488" lon="8.326538954586905"><ele>180.0</ele><time>2026-05-03T13:46:37.999Z</time></trkpt><trkpt lat="45.10160151117859" lon="8.326452375469522"><ele>180.0</ele><time>2026-05-03T13:46:38.999Z</time></trkpt><trkpt lat="45.101557907378606" lon="8.326355178238176"><ele>180.0</ele><time>2026-05-03T13:46:39.999Z</time></trkpt><trkpt lat="45.10151438544768" lon="8.326256740017394"><ele>180.0</ele><time>2026-05-03T13:46:40.999Z</time></trkpt><trkpt lat="45.10147136800513" lon="8.326158587430355"><ele>180.0</ele><time>2026-05-03T13:46:41.999Z</time></trkpt><trkpt lat="45.101425745843954" lon="8.32604185677657"><ele>180.0</ele><time>2026-05-03T13:46:42.999Z</time></trkpt><trkpt lat="45.101381914863666" lon="8.325927898053024"><ele>178.0</ele><time>2026-05-03T13:46:44Z</time></trkpt><trkpt lat="45.10133225559697" lon="8.325805690111963"><ele>176.0</ele><time>2026-05-03T13:46:45Z</time></trkpt><trkpt lat="45.101281819177174" lon="8.325688913960857"><ele>174.0</ele><time>2026-05-03T13:46:46Z</time></trkpt><trkpt lat="45.10123493288358" lon="8.325574842133255"><ele>172.0</ele><time>2026-05-03T13:46:47Z</time></trkpt><trkpt lat="45.10119359753969" lon="8.325463081731792"><ele>170.0</ele><time>2026-05-03T13:46:48Z</time></trkpt><trkpt lat="45.1011449621101" lon="8.325342160873644"><ele>168.4</ele><time>2026-05-03T13:46:49Z</time></trkpt><trkpt lat="45.10109407263316" lon="8.32522709980288"><ele>166.8</ele><time>2026-05-03T13:46:50Z</time></trkpt><trkpt lat="45.101065906227795" lon="8.325096751149404"><ele>165.2</ele><time>2026-05-03T13:46:51Z</time></trkpt><trkpt lat="45.10103245208794" lon="8.324966773067652"><ele>163.6</ele><time>2026-05-03T13:46:52Z</time></trkpt><trkpt lat="45.10100866312969" lon="8.32483237480538"><ele>162.0</ele><time>2026-05-03T13:46:53Z</time></trkpt><trkpt lat="45.10101458959255" lon="8.32468529522025"><ele>161.2</ele><time>2026-05-03T13:46:54Z</time></trkpt><trkpt lat="45.10100501599485" lon="8.324530284399584"><ele>160.39999999999998</ele><time>2026-05-03T13:46:55Z</time></trkpt><trkpt lat="45.10099498270793" lon="8.324384222317637"><ele>159.60000000000002</ele><time>2026-05-03T13:46:56Z</time></trkpt><trkpt lat="45.100984947966474" lon="8.324238139106313"><ele>158.8</ele><time>2026-05-03T13:46:57Z</time></trkpt><trkpt lat="45.1009746629031" lon="8.32409320176766"><ele>158.0</ele><time>2026-05-03T13:46:58Z</time></trkpt><trkpt lat="45.100963876607004" lon="8.32394930478573"><ele>157.4</ele><time>2026-05-03T13:46:59Z</time></trkpt><trkpt lat="45.10093858262606" lon="8.323809076182455"><ele>156.8</ele><time>2026-05-03T13:47:00.001Z</time></trkpt><trkpt lat="45.1009416740926" lon="8.323667944809586"><ele>156.2</ele><time>2026-05-03T13:47:01.001Z</time></trkpt><trkpt lat="45.100940139300754" lon="8.323542522654442"><ele>155.6</ele><time>2026-05-03T13:47:02.001Z</time></trkpt><trkpt lat="45.10093979392056" lon="8.32342336976165"><ele>155.0</ele><time>2026-05-03T13:47:03.001Z</time></trkpt><trkpt lat="45.10093644669715" lon="8.323315303396573"><ele>155.0</ele><time>2026-05-03T13:47:04.001Z</time></trkpt><trkpt lat="45.100932915469365" lon="8.323211734790153"><ele>155.0</ele><time>2026-05-03T13:47:05.001Z</time></trkpt><trkpt lat="45.100921112550836" lon="8.32304784747801"><ele>155.0</ele><time>2026-05-03T13:47:07.001Z</time></trkpt><trkpt lat="45.10091775695906" lon="8.322924565049128"><ele>155.0</ele><time>2026-05-03T13:47:09.001Z</time></trkpt><trkpt lat="45.1009060220459" lon="8.322814750740617"><ele>155.0</ele><time>2026-05-03T13:47:17.001Z</time></trkpt><trkpt lat="45.10095278926916" lon="8.322720585657674"><ele>155.0</ele><time>2026-05-03T13:47:21.001Z</time></trkpt><trkpt lat="45.101017394243854" lon="8.32266364409191"><ele>154.66666666666666</ele><time>2026-05-03T13:47:23.001Z</time></trkpt><trkpt lat="45.10105935554805" lon="8.322593760470864"><ele>154.33333333333331</ele><time>2026-05-03T13:47:25.001Z</time></trkpt><trkpt lat="45.10111242690187" lon="8.322541142394163"><ele>154.0</ele><time>2026-05-03T13:47:27.002Z</time></trkpt><trkpt lat="45.10117836502275" lon="8.322472766162004"><ele>153.66666666666666</ele><time>2026-05-03T13:47:29.002Z</time></trkpt><trkpt lat="45.10124988385645" lon="8.322389986191173"><ele>153.33333333333334</ele><time>2026-05-03T13:47:31.002Z</time></trkpt><trkpt lat="45.10132347067404" lon="8.322305994661223"><ele>153.0</ele><time>2026-05-03T13:47:33.002Z</time></trkpt><trkpt lat="45.10141754789191" lon="8.322218012650664"><ele>152.33333333333334</ele><time>2026-05-03T13:47:35.002Z</time></trkpt><trkpt lat="45.10152068916742" lon="8.322119270079682"><ele>151.66666666666666</ele><time>2026-05-03T13:47:37.002Z</time></trkpt><trkpt lat="45.10157461881317" lon="8.32206855381189"><ele>151.0</ele><time>2026-05-03T13:47:38.002Z</time></trkpt><trkpt lat="45.101629930476925" lon="8.322016930309383"><ele>150.33333333333331</ele><time>2026-05-03T13:47:39.002Z</time></trkpt><trkpt lat="45.10168514755238" lon="8.32196615790196"><ele>149.66666666666666</ele><time>2026-05-03T13:47:40.002Z</time></trkpt><trkpt lat="45.10174221133979" lon="8.321913833158183"><ele>149.0</ele><time>2026-05-03T13:47:41.002Z</time></trkpt><trkpt lat="45.101796375995875" lon="8.321863139582089"><ele>149.0</ele><time>2026-05-03T13:47:42.002Z</time></trkpt><trkpt lat="45.10185378724714" lon="8.321815893895167"><ele>149.0</ele><time>2026-05-03T13:47:43.002Z</time></trkpt><trkpt lat="45.101908034355446" lon="8.321766842263004"><ele>149.0</ele><time>2026-05-03T13:47:44.002Z</time></trkpt><trkpt lat="45.10196227551762" lon="8.32171879347372"><ele>149.0</ele><time>2026-05-03T13:47:45.002Z</time></trkpt><trkpt lat="45.10201948580864" lon="8.321670604301579"><ele>149.0</ele><time>2026-05-03T13:47:46.002Z</time></trkpt><trkpt lat="45.10207568969277" lon="8.321622176210886"><ele>149.0</ele><time>2026-05-03T13:47:47.002Z</time></trkpt><trkpt lat="45.10213019979555" lon="8.321575780780096"><ele>149.0</ele><time>2026-05-03T13:47:48.002Z</time></trkpt><trkpt lat="45.10218670183197" lon="8.32153240858995"><ele>149.0</ele><time>2026-05-03T13:47:49.002Z</time></trkpt><trkpt lat="45.10224484688573" lon="8.32148588446032"><ele>149.0</ele><time>2026-05-03T13:47:50.002Z</time></trkpt><trkpt lat="45.10230079102022" lon="8.321436487855605"><ele>149.0</ele><time>2026-05-03T13:47:51.002Z</time></trkpt><trkpt lat="45.102355318376745" lon="8.32138764054767"><ele>149.0</ele><time>2026-05-03T13:47:52.002Z</time></trkpt><trkpt lat="45.10241151327538" lon="8.321337910319269"><ele>149.0</ele><time>2026-05-03T13:47:53.002Z</time></trkpt><trkpt lat="45.10246813828237" lon="8.321288586347071"><ele>149.0</ele><time>2026-05-03T13:47:54.002Z</time></trkpt><trkpt lat="45.10252523301835" lon="8.321244631403147"><ele>149.0</ele><time>2026-05-03T13:47:55.002Z</time></trkpt><trkpt lat="45.102584829524496" lon="8.32119687467226"><ele>149.0</ele><time>2026-05-03T13:47:56.002Z</time></trkpt><trkpt lat="45.10263850064436" lon="8.321137727954243"><ele>149.0</ele><time>2026-05-03T13:47:57.002Z</time></trkpt><trkpt lat="45.10269506453485" lon="8.321084987775599"><ele>149.0</ele><time>2026-05-03T13:47:58.002Z</time></trkpt><trkpt lat="45.10275050232972" lon="8.321030972928629"><ele>149.0</ele><time>2026-05-03T13:47:59.003Z</time></trkpt><trkpt lat="45.10281175874775" lon="8.320992406682624"><ele>149.0</ele><time>2026-05-03T13:48:00.003Z</time></trkpt><trkpt lat="45.10286919491345" lon="8.320943778902697"><ele>149.0</ele><time>2026-05-03T13:48:01.003Z</time></trkpt><trkpt lat="45.102930697652795" lon="8.320893875872905"><ele>149.0</ele><time>2026-05-03T13:48:02.003Z</time></trkpt><trkpt lat="45.102988441759315" lon="8.32084661341397"><ele>149.0</ele><time>2026-05-03T13:48:03.003Z</time></trkpt><trkpt lat="45.10304533540324" lon="8.320786502217576"><ele>149.0</ele><time>2026-05-03T13:48:04.003Z</time></trkpt><trkpt lat="45.10310199805417" lon="8.320745040453989"><ele>149.0</ele><time>2026-05-03T13:48:05.003Z</time></trkpt><trkpt lat="45.103159671168086" lon="8.320695307530178"><ele>149.0</ele><time>2026-05-03T13:48:06.003Z</time></trkpt><trkpt lat="45.103214883436785" lon="8.320638885743174"><ele>149.0</ele><time>2026-05-03T13:48:07.003Z</time></trkpt><trkpt lat="45.1032745406123" lon="8.32059814360351"><ele>149.0</ele><time>2026-05-03T13:48:08.003Z</time></trkpt><trkpt lat="45.10333575636666" lon="8.320555968742926"><ele>149.0</ele><time>2026-05-03T13:48:09.003Z</time></trkpt><trkpt lat="45.10339475554243" lon="8.320510196851238"><ele>148.57142857142856</ele><time>2026-05-03T13:48:10.003Z</time></trkpt><trkpt lat="45.103450726021016" lon="8.320456793856989"><ele>148.14285714285714</ele><time>2026-05-03T13:48:11.003Z</time></trkpt><trkpt lat="45.10351076927701" lon="8.320408510988617"><ele>147.71428571428572</ele><time>2026-05-03T13:48:12.003Z</time></trkpt><trkpt lat="45.10357026947168" lon="8.320359821948319"><ele>147.28571428571428</ele><time>2026-05-03T13:48:13.003Z</time></trkpt><trkpt lat="45.10362788425198" lon="8.320305941721854"><ele>146.85714285714286</ele><time>2026-05-03T13:48:14.003Z</time></trkpt><trkpt lat="45.10368527459126" lon="8.320255161939535"><ele>146.42857142857142</ele><time>2026-05-03T13:48:15.003Z</time></trkpt><trkpt lat="45.10374194077834" lon="8.320197056741758"><ele>146.0</ele><time>2026-05-03T13:48:16.003Z</time></trkpt><trkpt lat="45.10380236251604" lon="8.320144835429188"><ele>146.0</ele><time>2026-05-03T13:48:17.003Z</time></trkpt><trkpt lat="45.10386494865805" lon="8.32009032037661"><ele>146.0</ele><time>2026-05-03T13:48:18.003Z</time></trkpt><trkpt lat="45.10393050273343" lon="8.32004296158275"><ele>146.0</ele><time>2026-05-03T13:48:19.003Z</time></trkpt><trkpt lat="45.103995267980885" lon="8.31998849894705"><ele>146.0</ele><time>2026-05-03T13:48:20.003Z</time></trkpt><trkpt lat="45.1040573972005" lon="8.319930866581764"><ele>146.0</ele><time>2026-05-03T13:48:21.003Z</time></trkpt><trkpt lat="45.10412363682331" lon="8.319875565258034"><ele>146.0</ele><time>2026-05-03T13:48:22.003Z</time></trkpt><trkpt lat="45.10418955217125" lon="8.31982075551019"><ele>146.16666666666666</ele><time>2026-05-03T13:48:23.003Z</time></trkpt><trkpt lat="45.1042530234164" lon="8.319752296625614"><ele>146.33333333333331</ele><time>2026-05-03T13:48:24.003Z</time></trkpt><trkpt lat="45.10431862599386" lon="8.319699717366952"><ele>146.5</ele><time>2026-05-03T13:48:25.003Z</time></trkpt><trkpt lat="45.10439115441279" lon="8.319649789091484"><ele>146.66666666666666</ele><time>2026-05-03T13:48:26.003Z</time></trkpt><trkpt lat="45.104460164033505" lon="8.319591476117155"><ele>146.83333333333334</ele><time>2026-05-03T13:48:27.003Z</time></trkpt><trkpt lat="45.10452792558474" lon="8.319527608544723"><ele>147.0</ele><time>2026-05-03T13:48:27.998Z</time></trkpt><trkpt lat="45.10459763420816" lon="8.319467631545239"><ele>146.16666666666666</ele><time>2026-05-03T13:48:28.998Z</time></trkpt><trkpt lat="45.10466465600649" lon="8.319410031790262"><ele>145.33333333333334</ele><time>2026-05-03T13:48:29.998Z</time></trkpt><trkpt lat="45.10472402887144" lon="8.319348811635397"><ele>144.5</ele><time>2026-05-03T13:48:30.998Z</time></trkpt><trkpt lat="45.10478194556336" lon="8.319308060764081"><ele>143.66666666666669</ele><time>2026-05-03T13:48:31.998Z</time></trkpt><trkpt lat="45.10487482128228" lon="8.319249587346807"><ele>142.83333333333334</ele><time>2026-05-03T13:48:33.999Z</time></trkpt><trkpt lat="45.10494766031708" lon="8.31920832664692"><ele>142.0</ele><time>2026-05-03T13:48:35.999Z</time></trkpt><trkpt lat="45.10501068542471" lon="8.319149860806563"><ele>142.0</ele><time>2026-05-03T13:48:38.999Z</time></trkpt><trkpt lat="45.104992991115246" lon="8.318953235136338"><ele>142.0</ele><time>2026-05-03T13:48:39.999Z</time></trkpt><trkpt lat="45.104970621300886" lon="8.318847826347794"><ele>142.0</ele><time>2026-05-03T13:48:41.999Z</time></trkpt><trkpt lat="45.10494969675311" lon="8.3187492277991"><ele>142.0</ele><time>2026-05-03T13:48:43.999Z</time></trkpt><trkpt lat="45.10493054072599" lon="8.31865896261962"><ele>142.0</ele><time>2026-05-03T13:48:45.999Z</time></trkpt><trkpt lat="45.104771912987616" lon="8.318560075284278"><ele>142.0</ele><time>2026-05-03T13:48:48Z</time></trkpt><trkpt lat="45.10469659587318" lon="8.318487533736151"><ele>142.0</ele><time>2026-05-03T13:48:50Z</time></trkpt><trkpt lat="45.10463279583413" lon="8.318426084841958"><ele>142.0</ele><time>2026-05-03T13:48:52Z</time></trkpt><trkpt lat="45.1045757192672" lon="8.318371111645963"><ele>142.0</ele><time>2026-05-03T13:48:54Z</time></trkpt><trkpt lat="45.104508000116056" lon="8.318304947959628"><ele>142.0</ele><time>2026-05-03T13:48:56Z</time></trkpt><trkpt lat="45.1044277030081" lon="8.318226405893961"><ele>142.0</ele><time>2026-05-03T13:48:58Z</time></trkpt><trkpt lat="45.104343884128156" lon="8.318144419031755"><ele>142.0</ele><time>2026-05-03T13:49:00Z</time></trkpt><trkpt lat="45.104264612416806" lon="8.318066879950475"><ele>142.0</ele><time>2026-05-03T13:49:02Z</time></trkpt><trkpt lat="45.10419489924801" lon="8.317998690494091"><ele>142.0</ele><time>2026-05-03T13:49:04Z</time></trkpt><trkpt lat="45.10411775273153" lon="8.31792323015756"><ele>142.0</ele><time>2026-05-03T13:49:06.001Z</time></trkpt><trkpt lat="45.104045093709026" lon="8.317852159234087"><ele>142.0</ele><time>2026-05-03T13:49:08.001Z</time></trkpt><trkpt lat="45.10398294955428" lon="8.317790265647494"><ele>142.0</ele><time>2026-05-03T13:49:10.001Z</time></trkpt><trkpt lat="45.10391234656117" lon="8.31771892414019"><ele>143.4</ele><time>2026-05-03T13:49:12.001Z</time></trkpt><trkpt lat="45.10383458965046" lon="8.317640353885835"><ele>144.79999999999998</ele><time>2026-05-03T13:49:14.001Z</time></trkpt><trkpt lat="45.10376472308074" lon="8.317569889989425"><ele>146.2</ele><time>2026-05-03T13:49:16.001Z</time></trkpt><trkpt lat="45.10368821434012" lon="8.317499751144878"><ele>147.6</ele><time>2026-05-03T13:49:18.001Z</time></trkpt><trkpt lat="45.10361227905564" lon="8.317433069053811"><ele>149.0</ele><time>2026-05-03T13:49:20.001Z</time></trkpt><trkpt lat="45.1035266437052" lon="8.317373490219836"><ele>149.0</ele><time>2026-05-03T13:49:22.001Z</time></trkpt><trkpt lat="45.10344180191735" lon="8.317335233029826"><ele>149.0</ele><time>2026-05-03T13:49:24.001Z</time></trkpt><trkpt lat="45.10335083467418" lon="8.317304685003242"><ele>149.0</ele><time>2026-05-03T13:49:26.001Z</time></trkpt><trkpt lat="45.10327071999786" lon="8.317280371974672"><ele>149.0</ele><time>2026-05-03T13:49:28.001Z</time></trkpt><trkpt lat="45.10320295634481" lon="8.317259900247002"><ele>149.0</ele><time>2026-05-03T13:49:30.001Z</time></trkpt><trkpt lat="45.10313720330544" lon="8.317240035934752"><ele>149.0</ele><time>2026-05-03T13:49:32.001Z</time></trkpt><trkpt lat="45.10307471454322" lon="8.317221157779693"><ele>149.0</ele><time>2026-05-03T13:49:34.002Z</time></trkpt><trkpt lat="45.10299884305119" lon="8.317484144120677"><ele>149.0</ele><time>2026-05-03T13:50:22.003Z</time></trkpt><trkpt lat="45.1030427203461" lon="8.317567826523604"><ele>149.0</ele><time>2026-05-03T13:50:27.003Z</time></trkpt><trkpt lat="45.10311239356913" lon="8.317592504169875"><ele>149.0</ele><time>2026-05-03T13:50:30.003Z</time></trkpt><trkpt lat="45.1032058541544" lon="8.31762624389394"><ele>149.0</ele><time>2026-05-03T13:50:33.003Z</time></trkpt><trkpt lat="45.10327452383675" lon="8.317653135646857"><ele>149.0</ele><time>2026-05-03T13:50:34.998Z</time></trkpt><trkpt lat="45.10334375684303" lon="8.31768449724923"><ele>149.0</ele><time>2026-05-03T13:50:55Z</time></trkpt><trkpt lat="45.10342726670033" lon="8.317726398340266"><ele>149.0</ele><time>2026-05-03T13:50:58Z</time></trkpt><trkpt lat="45.103489600302645" lon="8.317760396689746"><ele>149.0</ele><time>2026-05-03T13:51:00Z</time></trkpt><trkpt lat="45.10354865152901" lon="8.31779260474507"><ele>149.0</ele><time>2026-05-03T13:51:02Z</time></trkpt><trkpt lat="45.10363410381026" lon="8.317826723207432"><ele>149.0</ele><time>2026-05-03T13:51:05Z</time></trkpt><trkpt lat="45.10369812923541" lon="8.317870459965732"><ele>149.0</ele><time>2026-05-03T13:51:08Z</time></trkpt><trkpt lat="45.103640636969544" lon="8.317915776000017"><ele>149.0</ele><time>2026-05-03T13:54:23.003Z</time></trkpt><trkpt lat="45.10358543733277" lon="8.317858396182968"><ele>149.0</ele><time>2026-05-03T13:54:30.003Z</time></trkpt><trkpt lat="45.10353156543262" lon="8.317806936721482"><ele>149.0</ele><time>2026-05-03T13:54:37.003Z</time></trkpt><trkpt lat="45.10347319280043" lon="8.317769968372783"><ele>149.0</ele><time>2026-05-03T13:54:43.003Z</time></trkpt><trkpt lat="45.10340061421906" lon="8.317728845873113"><ele>149.0</ele><time>2026-05-03T13:54:49.999Z</time></trkpt><trkpt lat="45.10335087819463" lon="8.317673793941838"><ele>149.0</ele><time>2026-05-03T13:54:58.999Z</time></trkpt></trkseg></trk></gpx>